<?xml version='1.0' encoding='UTF-8'?><gpx version="1.1" creator="JPX - https://github.com/jenetics/jpx" xmlns="http://www.topografix.com/GPX/1/1"><trk><trkseg><trkpt lat="48.559250523412175" lon="3.3014879698229342"><ele>92.0</ele><time>2026-04-13T07:44:18Z</time></trkpt><trkpt lat="48.559235026141515" lon="3.3015988380660293"><ele>92.0</ele><time>2026-04-13T07:44:21Z</time></trkpt><trkpt lat="48.5592077706765" lon="3.301730704291426"><ele>92.0</ele><time>2026-04-13T07:44:24Z</time></trkpt><trkpt lat="48.55919609932896" lon="3.3018297687894353"><ele>92.0</ele><time>2026-04-13T07:44:26Z</time></trkpt><trkpt lat="48.559186217865175" lon="3.301925386865577"><ele>92.0</ele><time>2026-04-13T07:44:28Z</time></trkpt><trkpt lat="48.55917032265356" lon="3.302020305796152"><ele>92.0</ele><time>2026-04-13T07:44:30Z</time></trkpt><trkpt lat="48.559181755652006" lon="3.302138696379679"><ele>92.0</ele><time>2026-04-13T07:44:33Z</time></trkpt><trkpt lat="48.55922091155618" lon="3.3022225642121503"><ele>92.0</ele><time>2026-04-13T07:44:35Z</time></trkpt><trkpt lat="48.55927766623467" lon="3.3022664654428247"><ele>92.0</ele><time>2026-04-13T07:44:37Z</time></trkpt><trkpt lat="48.55934813879986" lon="3.302232169544"><ele>92.0</ele><time>2026-04-13T07:44:40Z</time></trkpt><trkpt lat="48.559411705092224" lon="3.302202348911463"><ele>92.0</ele><time>2026-04-13T07:44:42Z</time></trkpt><trkpt lat="48.5594886693159" lon="3.3022174978095533"><ele>92.0</ele><time>2026-04-13T07:44:52Z</time></trkpt><trkpt lat="48.559589215634816" lon="3.302203903094836"><ele>92.0</ele><time>2026-04-13T07:44:55Z</time></trkpt><trkpt lat="48.55965175399113" lon="3.30218620153744"><ele>92.0</ele><time>2026-04-13T07:44:57Z</time></trkpt><trkpt lat="48.55972358333789" lon="3.3021785563293635"><ele>92.0</ele><time>2026-04-13T07:44:59Z</time></trkpt><trkpt lat="48.55980513651853" lon="3.3021526519382243"><ele>92.0</ele><time>2026-04-13T07:45:01Z</time></trkpt><trkpt lat="48.55988767011085" lon="3.3021470571721974"><ele>92.0</ele><time>2026-04-13T07:45:03Z</time></trkpt><trkpt lat="48.559955982252006" lon="3.302137927684926"><ele>92.0</ele><time>2026-04-13T07:45:05Z</time></trkpt><trkpt lat="48.560026925771645" lon="3.302114164405616"><ele>92.0</ele><time>2026-04-13T07:45:07Z</time></trkpt><trkpt lat="48.560092745709206" lon="3.3021073794194735"><ele>92.0</ele><time>2026-04-13T07:45:09Z</time></trkpt><trkpt lat="48.56015830916416" lon="3.302089407953425"><ele>92.0</ele><time>2026-04-13T07:45:11Z</time></trkpt><trkpt lat="48.5602280755511" lon="3.302078287556429"><ele>92.0</ele><time>2026-04-13T07:45:13Z</time></trkpt><trkpt lat="48.56029950814353" lon="3.3020701701250386"><ele>92.0</ele><time>2026-04-13T07:45:15Z</time></trkpt><trkpt lat="48.560366952675544" lon="3.3020487970360937"><ele>92.0</ele><time>2026-04-13T07:45:17Z</time></trkpt><trkpt lat="48.5604331856288" lon="3.302033122625029"><ele>92.0</ele><time>2026-04-13T07:45:19Z</time></trkpt><trkpt lat="48.560513890714915" lon="3.301985263602003"><ele>92.0</ele><time>2026-04-13T07:45:22Z</time></trkpt><trkpt lat="48.56054009466854" lon="3.3018640776247867"><ele>92.0</ele><time>2026-04-13T07:45:25Z</time></trkpt><trkpt lat="48.560514413948894" lon="3.3017295339388504"><ele>91.83333333333334</ele><time>2026-04-13T07:45:28Z</time></trkpt><trkpt lat="48.56050344032567" lon="3.301629892619361"><ele>91.66666666666667</ele><time>2026-04-13T07:45:30Z</time></trkpt><trkpt lat="48.560488513921264" lon="3.301533740202997"><ele>91.5</ele><time>2026-04-13T07:45:32Z</time></trkpt><trkpt lat="48.56048215990711" lon="3.301429824518729"><ele>91.33333333333333</ele><time>2026-04-13T07:45:34Z</time></trkpt><trkpt lat="48.560479130252446" lon="3.301310218811686"><ele>91.16666666666666</ele><time>2026-04-13T07:45:36Z</time></trkpt><trkpt lat="48.560471314193876" lon="3.3011556457963853"><ele>91.0</ele><time>2026-04-13T07:45:38Z</time></trkpt><trkpt lat="48.56046864558321" lon="3.300991134823759"><ele>91.0</ele><time>2026-04-13T07:45:40Z</time></trkpt><trkpt lat="48.56046141986529" lon="3.300837445343174"><ele>91.0</ele><time>2026-04-13T07:45:42Z</time></trkpt><trkpt lat="48.560464335994936" lon="3.3006974148368595"><ele>91.0</ele><time>2026-04-13T07:45:44Z</time></trkpt><trkpt lat="48.56046142566255" lon="3.3005526097976334"><ele>91.0</ele><time>2026-04-13T07:45:46Z</time></trkpt><trkpt lat="48.56045293949431" lon="3.3004028316535696"><ele>91.0</ele><time>2026-04-13T07:45:48Z</time></trkpt><trkpt lat="48.56045161077849" lon="3.3002616651326724"><ele>91.16666666666666</ele><time>2026-04-13T07:45:50Z</time></trkpt><trkpt lat="48.56045381935794" lon="3.300148358946374"><ele>91.33333333333333</ele><time>2026-04-13T07:45:53Z</time></trkpt><trkpt lat="48.5604490650864" lon="3.3000410165645815"><ele>91.5</ele><time>2026-04-13T07:45:55Z</time></trkpt><trkpt lat="48.56044905642389" lon="3.299904178891349"><ele>91.66666666666667</ele><time>2026-04-13T07:45:57Z</time></trkpt><trkpt lat="48.56045729000382" lon="3.2997604016472772"><ele>91.83333333333334</ele><time>2026-04-13T07:45:59Z</time></trkpt><trkpt lat="48.560470954863696" lon="3.299620606286609"><ele>92.0</ele><time>2026-04-13T07:46:01Z</time></trkpt><trkpt lat="48.56046683288604" lon="3.2994901863780672"><ele>92.0</ele><time>2026-04-13T07:46:03Z</time></trkpt><trkpt lat="48.56044967610305" lon="3.2993556360761853"><ele>92.0</ele><time>2026-04-13T07:46:05Z</time></trkpt><trkpt lat="48.560405503073696" lon="3.299237581671403"><ele>92.0</ele><time>2026-04-13T07:46:07Z</time></trkpt><trkpt lat="48.560382957610734" lon="3.2991091312716176"><ele>92.0</ele><time>2026-04-13T07:46:09Z</time></trkpt><trkpt lat="48.56035293845516" lon="3.298988506719439"><ele>92.0</ele><time>2026-04-13T07:46:11Z</time></trkpt><trkpt lat="48.56030345446173" lon="3.2989284738665505"><ele>92.0</ele><time>2026-04-13T07:46:13Z</time></trkpt><trkpt lat="48.56025457117492" lon="3.2988046786966265"><ele>92.0</ele><time>2026-04-13T07:46:16Z</time></trkpt><trkpt lat="48.56026030326537" lon="3.298689282784147"><ele>92.0</ele><time>2026-04-13T07:46:18Z</time></trkpt><trkpt lat="48.560293796302105" lon="3.298575654627259"><ele>92.0</ele><time>2026-04-13T07:46:20Z</time></trkpt><trkpt lat="48.56032410347092" lon="3.298449386675817"><ele>92.0</ele><time>2026-04-13T07:46:22Z</time></trkpt><trkpt lat="48.560343655044946" lon="3.298314666902706"><ele>92.0</ele><time>2026-04-13T07:46:24Z</time></trkpt><trkpt lat="48.560386537916244" lon="3.2981987212364556"><ele>92.0</ele><time>2026-04-13T07:46:26Z</time></trkpt><trkpt lat="48.56041892617948" lon="3.298082090837888"><ele>91.83333333333334</ele><time>2026-04-13T07:46:28Z</time></trkpt><trkpt lat="48.560442363916856" lon="3.2979803027391266"><ele>91.66666666666667</ele><time>2026-04-13T07:46:30Z</time></trkpt><trkpt lat="48.560467296008014" lon="3.2978621674969237"><ele>91.5</ele><time>2026-04-13T07:46:32Z</time></trkpt><trkpt lat="48.560500587583405" lon="3.297730730060524"><ele>91.33333333333333</ele><time>2026-04-13T07:46:34Z</time></trkpt><trkpt lat="48.56053080323356" lon="3.2976284489960848"><ele>91.16666666666666</ele><time>2026-04-13T07:46:36Z</time></trkpt><trkpt lat="48.560554426836894" lon="3.2975323873208153"><ele>91.0</ele><time>2026-04-13T07:46:38Z</time></trkpt><trkpt lat="48.560584134248316" lon="3.2974211737446595"><ele>91.0</ele><time>2026-04-13T07:46:40Z</time></trkpt><trkpt lat="48.56062840399698" lon="3.2973111299627313"><ele>91.0</ele><time>2026-04-13T07:46:42Z</time></trkpt><trkpt lat="48.5606569354394" lon="3.297184184761439"><ele>91.0</ele><time>2026-04-13T07:46:44Z</time></trkpt><trkpt lat="48.560680964825174" lon="3.297053491270292"><ele>91.0</ele><time>2026-04-13T07:46:46Z</time></trkpt><trkpt lat="48.56071516463174" lon="3.2969265025664334"><ele>91.0</ele><time>2026-04-13T07:46:48Z</time></trkpt><trkpt lat="48.56074404900107" lon="3.2967961377622172"><ele>91.0</ele><time>2026-04-13T07:46:50Z</time></trkpt><trkpt lat="48.560769831000464" lon="3.296677661299447"><ele>91.0</ele><time>2026-04-13T07:46:52Z</time></trkpt><trkpt lat="48.56078684979819" lon="3.2965778739445972"><ele>91.0</ele><time>2026-04-13T07:46:54Z</time></trkpt><trkpt lat="48.560803121480916" lon="3.296477674419739"><ele>91.0</ele><time>2026-04-13T07:46:56Z</time></trkpt><trkpt lat="48.56082630913744" lon="3.2963591749401933"><ele>91.0</ele><time>2026-04-13T07:46:58Z</time></trkpt><trkpt lat="48.56084024743223" lon="3.2962604267669677"><ele>91.0</ele><time>2026-04-13T07:47:00Z</time></trkpt><trkpt lat="48.560864058923315" lon="3.2961257682982312"><ele>91.0</ele><time>2026-04-13T07:47:03Z</time></trkpt><trkpt lat="48.56088688891493" lon="3.2960336128072"><ele>91.0</ele><time>2026-04-13T07:47:05Z</time></trkpt><trkpt lat="48.56087887539711" lon="3.295902898746605"><ele>91.4</ele><time>2026-04-13T07:47:08Z</time></trkpt><trkpt lat="48.560800612997184" lon="3.29583333911984"><ele>91.8</ele><time>2026-04-13T07:47:10Z</time></trkpt><trkpt lat="48.56070169006384" lon="3.295804669376894"><ele>92.2</ele><time>2026-04-13T07:47:12Z</time></trkpt><trkpt lat="48.560605632069404" lon="3.2957452510060823"><ele>92.60000000000001</ele><time>2026-04-13T07:47:14Z</time></trkpt><trkpt lat="48.56051062551794" lon="3.2956933311586427"><ele>93.0</ele><time>2026-04-13T07:47:16Z</time></trkpt><trkpt lat="48.5604169223284" lon="3.295622094991907"><ele>93.2</ele><time>2026-04-13T07:47:18Z</time></trkpt><trkpt lat="48.56032192581457" lon="3.295550188653274"><ele>93.4</ele><time>2026-04-13T07:47:20Z</time></trkpt><trkpt lat="48.56022508607547" lon="3.2954734655265026"><ele>93.60000000000001</ele><time>2026-04-13T07:47:22Z</time></trkpt><trkpt lat="48.560134368401066" lon="3.2954029873884623"><ele>93.80000000000001</ele><time>2026-04-13T07:47:24Z</time></trkpt><trkpt lat="48.560046774710585" lon="3.2953524571414445"><ele>94.0</ele><time>2026-04-13T07:47:26Z</time></trkpt><trkpt lat="48.559985995917536" lon="3.2953013451491726"><ele>94.0</ele><time>2026-04-13T07:47:29Z</time></trkpt><trkpt lat="48.559913799242786" lon="3.295229462412061"><ele>94.0</ele><time>2026-04-13T07:47:32Z</time></trkpt><trkpt lat="48.55983865974468" lon="3.2951613038737464"><ele>94.0</ele><time>2026-04-13T07:47:34Z</time></trkpt><trkpt lat="48.55975697012185" lon="3.2950727910897024"><ele>94.0</ele><time>2026-04-13T07:47:36Z</time></trkpt><trkpt lat="48.559686958309676" lon="3.2949582803573567"><ele>94.0</ele><time>2026-04-13T07:47:38Z</time></trkpt><trkpt lat="48.55961015767518" lon="3.2948495568596643"><ele>93.80000000000001</ele><time>2026-04-13T07:47:40Z</time></trkpt><trkpt lat="48.559537713759816" lon="3.294748690068761"><ele>93.60000000000001</ele><time>2026-04-13T07:47:42Z</time></trkpt><trkpt lat="48.55946975735021" lon="3.294655972573917"><ele>93.4</ele><time>2026-04-13T07:47:44Z</time></trkpt><trkpt lat="48.559415236330175" lon="3.2945705484394963"><ele>93.2</ele><time>2026-04-13T07:47:46Z</time></trkpt><trkpt lat="48.55935290869453" lon="3.29446421302343"><ele>93.0</ele><time>2026-04-13T07:47:48Z</time></trkpt><trkpt lat="48.5592825973241" lon="3.294354597132991"><ele>93.0</ele><time>2026-04-13T07:47:50Z</time></trkpt><trkpt lat="48.5592146562522" lon="3.294238575581279"><ele>93.0</ele><time>2026-04-13T07:47:52Z</time></trkpt><trkpt lat="48.55913520471588" lon="3.294128391526941"><ele>93.0</ele><time>2026-04-13T07:47:54Z</time></trkpt><trkpt lat="48.55905425034897" lon="3.294010705964576"><ele>93.0</ele><time>2026-04-13T07:47:56Z</time></trkpt><trkpt lat="48.55897613654511" lon="3.2938897742811393"><ele>93.0</ele><time>2026-04-13T07:47:58Z</time></trkpt><trkpt lat="48.558928882499146" lon="3.2937403143496264"><ele>94.5</ele><time>2026-04-13T07:48:00Z</time></trkpt><trkpt lat="48.55891085355562" lon="3.29356570122387"><ele>96.0</ele><time>2026-04-13T07:48:02Z</time></trkpt><trkpt lat="48.55889556879179" lon="3.2933996410278037"><ele>97.5</ele><time>2026-04-13T07:48:04Z</time></trkpt><trkpt lat="48.55886698812728" lon="3.2932326033004204"><ele>99.0</ele><time>2026-04-13T07:48:06Z</time></trkpt><trkpt lat="48.55884820880718" lon="3.2930612361700584"><ele>99.0</ele><time>2026-04-13T07:48:08Z</time></trkpt><trkpt lat="48.558830343236245" lon="3.2928958922147826"><ele>99.0</ele><time>2026-04-13T07:48:10Z</time></trkpt><trkpt lat="48.5588009854989" lon="3.2927411104356774"><ele>99.0</ele><time>2026-04-13T07:48:12Z</time></trkpt><trkpt lat="48.55880285367913" lon="3.2925804076144782"><ele>99.0</ele><time>2026-04-13T07:48:14Z</time></trkpt><trkpt lat="48.55882839680803" lon="3.2924059495923403"><ele>99.0</ele><time>2026-04-13T07:48:16Z</time></trkpt><trkpt lat="48.5588757723131" lon="3.2922530287493403"><ele>99.0</ele><time>2026-04-13T07:48:18Z</time></trkpt><trkpt lat="48.558915491748415" lon="3.2921000610743882"><ele>99.0</ele><time>2026-04-13T07:48:20Z</time></trkpt><trkpt lat="48.558954546005225" lon="3.2919412872424565"><ele>99.0</ele><time>2026-04-13T07:48:22Z</time></trkpt><trkpt lat="48.55899753392768" lon="3.2917871773633434"><ele>99.0</ele><time>2026-04-13T07:48:24Z</time></trkpt><trkpt lat="48.55903617425906" lon="3.2916370034388427"><ele>99.0</ele><time>2026-04-13T07:48:26Z</time></trkpt><trkpt lat="48.55907250363425" lon="3.2914879415178087"><ele>98.66666666666667</ele><time>2026-04-13T07:48:28Z</time></trkpt><trkpt lat="48.55910560150236" lon="3.291379998729655"><ele>98.33333333333334</ele><time>2026-04-13T07:48:30Z</time></trkpt><trkpt lat="48.559124329641215" lon="3.29126906772058"><ele>98.0</ele><time>2026-04-13T07:48:32Z</time></trkpt><trkpt lat="48.55911904265077" lon="3.291150865458422"><ele>97.66666666666667</ele><time>2026-04-13T07:48:34Z</time></trkpt><trkpt lat="48.559115127765395" lon="3.291015679429602"><ele>97.33333333333334</ele><time>2026-04-13T07:48:36Z</time></trkpt><trkpt lat="48.55911808741752" lon="3.2908729385208275"><ele>97.0</ele><time>2026-04-13T07:48:38Z</time></trkpt><trkpt lat="48.55911870584038" lon="3.290711588216005"><ele>96.25</ele><time>2026-04-13T07:48:40Z</time></trkpt><trkpt lat="48.55913062889267" lon="3.2905460341085324"><ele>95.5</ele><time>2026-04-13T07:48:42Z</time></trkpt><trkpt lat="48.55913594248076" lon="3.2903721433493724"><ele>94.75</ele><time>2026-04-13T07:48:44Z</time></trkpt><trkpt lat="48.5591387081842" lon="3.2901960582537555"><ele>94.0</ele><time>2026-04-13T07:48:46Z</time></trkpt><trkpt lat="48.55914700702762" lon="3.2900188272561013"><ele>94.0</ele><time>2026-04-13T07:48:48Z</time></trkpt><trkpt lat="48.55914618282518" lon="3.28983547181607"><ele>94.0</ele><time>2026-04-13T07:48:50Z</time></trkpt><trkpt lat="48.55915375351587" lon="3.2896569491431236"><ele>94.0</ele><time>2026-04-13T07:48:52Z</time></trkpt><trkpt lat="48.559172299692754" lon="3.289494887496531"><ele>94.0</ele><time>2026-04-13T07:48:54Z</time></trkpt><trkpt lat="48.55918307635932" lon="3.2893557770878914"><ele>94.0</ele><time>2026-04-13T07:48:56Z</time></trkpt><trkpt lat="48.55918235586385" lon="3.289204004138592"><ele>93.2</ele><time>2026-04-13T07:48:58Z</time></trkpt><trkpt lat="48.55918822133315" lon="3.289054330716993"><ele>92.4</ele><time>2026-04-13T07:49:00Z</time></trkpt><trkpt lat="48.55919012003847" lon="3.2889013396945526"><ele>91.6</ele><time>2026-04-13T07:49:02Z</time></trkpt><trkpt lat="48.55918873287273" lon="3.288746469589486"><ele>90.8</ele><time>2026-04-13T07:49:04Z</time></trkpt><trkpt lat="48.55919117958643" lon="3.288591758118232"><ele>90.0</ele><time>2026-04-13T07:49:06Z</time></trkpt><trkpt lat="48.55920136065143" lon="3.28844533539809"><ele>90.0</ele><time>2026-04-13T07:49:08Z</time></trkpt><trkpt lat="48.55920393769314" lon="3.2882986619025916"><ele>90.0</ele><time>2026-04-13T07:49:10Z</time></trkpt><trkpt lat="48.55920692702648" lon="3.288150662786627"><ele>90.0</ele><time>2026-04-13T07:49:12Z</time></trkpt><trkpt lat="48.5592160973183" lon="3.288004092335965"><ele>90.0</ele><time>2026-04-13T07:49:14Z</time></trkpt><trkpt lat="48.55922321707839" lon="3.2878584918707587"><ele>90.0</ele><time>2026-04-13T07:49:16Z</time></trkpt><trkpt lat="48.55923636637476" lon="3.287719563514657"><ele>90.6</ele><time>2026-04-13T07:49:18Z</time></trkpt><trkpt lat="48.55924163916336" lon="3.287582278957888"><ele>91.2</ele><time>2026-04-13T07:49:20Z</time></trkpt><trkpt lat="48.55924466029592" lon="3.2874443580365416"><ele>91.80000000000001</ele><time>2026-04-13T07:49:22Z</time></trkpt><trkpt lat="48.55924960861258" lon="3.287304957966215"><ele>92.4</ele><time>2026-04-13T07:49:24Z</time></trkpt><trkpt lat="48.559255654569995" lon="3.2871579069257857"><ele>93.0</ele><time>2026-04-13T07:49:26Z</time></trkpt><trkpt lat="48.55926329523077" lon="3.2870127178805357"><ele>93.4</ele><time>2026-04-13T07:49:28Z</time></trkpt><trkpt lat="48.55926928831693" lon="3.286864634372409"><ele>93.80000000000001</ele><time>2026-04-13T07:49:30Z</time></trkpt><trkpt lat="48.559269221159774" lon="3.286722252213674"><ele>94.2</ele><time>2026-04-13T07:49:32Z</time></trkpt><trkpt lat="48.5592728874919" lon="3.28658317360442"><ele>94.6</ele><time>2026-04-13T07:49:34Z</time></trkpt><trkpt lat="48.559281414517464" lon="3.286446579593436"><ele>95.0</ele><time>2026-04-13T07:49:36Z</time></trkpt><trkpt lat="48.55928660359867" lon="3.2863076123629877"><ele>95.5</ele><time>2026-04-13T07:49:38Z</time></trkpt><trkpt lat="48.559295533998245" lon="3.286181753191349"><ele>96.0</ele><time>2026-04-13T07:49:40Z</time></trkpt><trkpt lat="48.559297099764585" lon="3.286059802673199"><ele>96.5</ele><time>2026-04-13T07:49:42Z</time></trkpt><trkpt lat="48.55929957924135" lon="3.285938800341448"><ele>97.0</ele><time>2026-04-13T07:49:44Z</time></trkpt><trkpt lat="48.55930311203035" lon="3.2858199597710978"><ele>97.49999999999999</ele><time>2026-04-13T07:49:46Z</time></trkpt><trkpt lat="48.55930656551062" lon="3.285699893336638"><ele>98.0</ele><time>2026-04-13T07:49:48Z</time></trkpt><trkpt lat="48.559308272549856" lon="3.28557990069212"><ele>98.16666666666666</ele><time>2026-04-13T07:49:50Z</time></trkpt><trkpt lat="48.55931265972542" lon="3.2854589619682013"><ele>98.33333333333333</ele><time>2026-04-13T07:49:52Z</time></trkpt><trkpt lat="48.559315649603704" lon="3.285341942233192"><ele>98.5</ele><time>2026-04-13T07:49:54Z</time></trkpt><trkpt lat="48.55931806658706" lon="3.2852282357028972"><ele>98.66666666666666</ele><time>2026-04-13T07:49:56Z</time></trkpt><trkpt lat="48.559320154604805" lon="3.2851146856018736"><ele>98.83333333333333</ele><time>2026-04-13T07:49:58Z</time></trkpt><trkpt lat="48.559321505035555" lon="3.284997674615503"><ele>99.0</ele><time>2026-04-13T07:50:00Z</time></trkpt><trkpt lat="48.55932595059225" lon="3.284881134223207"><ele>99.5</ele><time>2026-04-13T07:50:02Z</time></trkpt><trkpt lat="48.559330628525466" lon="3.2847624879840422"><ele>100.0</ele><time>2026-04-13T07:50:04Z</time></trkpt><trkpt lat="48.55933240560949" lon="3.2846382078649845"><ele>100.5</ele><time>2026-04-13T07:50:06Z</time></trkpt><trkpt lat="48.55933510179237" lon="3.2845208435106796"><ele>101.0</ele><time>2026-04-13T07:50:08Z</time></trkpt><trkpt lat="48.55933932200028" lon="3.284404063796259"><ele>101.5</ele><time>2026-04-13T07:50:10Z</time></trkpt><trkpt lat="48.55933958035846" lon="3.284292749419692"><ele>102.0</ele><time>2026-04-13T07:50:12Z</time></trkpt><trkpt lat="48.559340703276874" lon="3.2841848616301923"><ele>102.0</ele><time>2026-04-13T07:50:14Z</time></trkpt><trkpt lat="48.55934834469754" lon="3.2840737401840694"><ele>102.0</ele><time>2026-04-13T07:50:16Z</time></trkpt><trkpt lat="48.559349226726006" lon="3.2839641168522298"><ele>102.0</ele><time>2026-04-13T07:50:18Z</time></trkpt><trkpt lat="48.5593542324927" lon="3.2838547268618288"><ele>102.0</ele><time>2026-04-13T07:50:20Z</time></trkpt><trkpt lat="48.55935734129956" lon="3.2837451149420454"><ele>102.0</ele><time>2026-04-13T07:50:22Z</time></trkpt><trkpt lat="48.559360537420424" lon="3.283636324411711"><ele>102.0</ele><time>2026-04-13T07:50:24Z</time></trkpt><trkpt lat="48.559362273400176" lon="3.2835253282569554"><ele>102.0</ele><time>2026-04-13T07:50:26Z</time></trkpt><trkpt lat="48.55936797524319" lon="3.2834133793519724"><ele>102.42857142857143</ele><time>2026-04-13T07:50:28Z</time></trkpt><trkpt lat="48.5593709195027" lon="3.283298117722784"><ele>102.85714285714286</ele><time>2026-04-13T07:50:30Z</time></trkpt><trkpt lat="48.55937149160106" lon="3.2831841290802473"><ele>103.28571428571428</ele><time>2026-04-13T07:50:32Z</time></trkpt><trkpt lat="48.559375674709905" lon="3.283071985092302"><ele>103.71428571428572</ele><time>2026-04-13T07:50:34Z</time></trkpt><trkpt lat="48.559380428770886" lon="3.282960767116702"><ele>104.14285714285714</ele><time>2026-04-13T07:50:36Z</time></trkpt><trkpt lat="48.55938387689753" lon="3.2828530704624366"><ele>104.57142857142857</ele><time>2026-04-13T07:50:38Z</time></trkpt><trkpt lat="48.5593900320695" lon="3.2827535399596823"><ele>105.0</ele><time>2026-04-13T07:50:40Z</time></trkpt><trkpt lat="48.55939036217389" lon="3.2826502363733376"><ele>105.14285714285714</ele><time>2026-04-13T07:50:42Z</time></trkpt><trkpt lat="48.559391369990905" lon="3.282545623452098"><ele>105.28571428571428</ele><time>2026-04-13T07:50:44Z</time></trkpt><trkpt lat="48.55939487080534" lon="3.2824457690452538"><ele>105.42857142857143</ele><time>2026-04-13T07:50:46Z</time></trkpt><trkpt lat="48.55939575806089" lon="3.2823437996663363"><ele>105.57142857142857</ele><time>2026-04-13T07:50:48Z</time></trkpt><trkpt lat="48.559402070057644" lon="3.282242147074505"><ele>105.71428571428571</ele><time>2026-04-13T07:50:50Z</time></trkpt><trkpt lat="48.559405255604496" lon="3.2821363838339876"><ele>105.85714285714286</ele><time>2026-04-13T07:50:52Z</time></trkpt><trkpt lat="48.559409062954195" lon="3.2820323211110733"><ele>106.0</ele><time>2026-04-13T07:50:54Z</time></trkpt><trkpt lat="48.55941338492307" lon="3.2819260864659796"><ele>106.42857142857143</ele><time>2026-04-13T07:50:56Z</time></trkpt><trkpt lat="48.55941464616662" lon="3.281819318542603"><ele>106.85714285714285</ele><time>2026-04-13T07:50:58Z</time></trkpt><trkpt lat="48.559416852510374" lon="3.2817122767277116"><ele>107.28571428571428</ele><time>2026-04-13T07:51:00Z</time></trkpt><trkpt lat="48.55941631328364" lon="3.2816072860484553"><ele>107.71428571428572</ele><time>2026-04-13T07:51:02Z</time></trkpt><trkpt lat="48.55942073101712" lon="3.2815017759293204"><ele>108.14285714285714</ele><time>2026-04-13T07:51:04Z</time></trkpt><trkpt lat="48.55942159424897" lon="3.2813972528689415"><ele>108.57142857142857</ele><time>2026-04-13T07:51:06Z</time></trkpt><trkpt lat="48.559422671690356" lon="3.281293535439878"><ele>109.0</ele><time>2026-04-13T07:51:08Z</time></trkpt><trkpt lat="48.5594244795861" lon="3.28118553709822"><ele>109.42857142857143</ele><time>2026-04-13T07:51:10Z</time></trkpt><trkpt lat="48.559431244196716" lon="3.2810809303171427"><ele>109.85714285714286</ele><time>2026-04-13T07:51:12Z</time></trkpt><trkpt lat="48.55943326976047" lon="3.2809720208721367"><ele>110.28571428571428</ele><time>2026-04-13T07:51:14Z</time></trkpt><trkpt lat="48.55943658261105" lon="3.2808644499411947"><ele>110.71428571428572</ele><time>2026-04-13T07:51:16Z</time></trkpt><trkpt lat="48.559441522688324" lon="3.280760345482409"><ele>111.14285714285714</ele><time>2026-04-13T07:51:18Z</time></trkpt><trkpt lat="48.55944363937611" lon="3.280653773509277"><ele>111.57142857142857</ele><time>2026-04-13T07:51:20Z</time></trkpt><trkpt lat="48.55944555826831" lon="3.280550924886493"><ele>112.0</ele><time>2026-04-13T07:51:22Z</time></trkpt><trkpt lat="48.55944829378987" lon="3.2804470803213093"><ele>112.42857142857143</ele><time>2026-04-13T07:51:24Z</time></trkpt><trkpt lat="48.55945072193789" lon="3.2803452451769664"><ele>112.85714285714286</ele><time>2026-04-13T07:51:26Z</time></trkpt><trkpt lat="48.55945418882416" lon="3.2802432670005093"><ele>113.28571428571428</ele><time>2026-04-13T07:51:28Z</time></trkpt><trkpt lat="48.55945726639833" lon="3.2801393977658435"><ele>113.71428571428571</ele><time>2026-04-13T07:51:30Z</time></trkpt><trkpt lat="48.5594598900365" lon="3.2800353564206217"><ele>114.14285714285714</ele><time>2026-04-13T07:51:32Z</time></trkpt><trkpt lat="48.559462809279594" lon="3.2799338264096742"><ele>114.57142857142856</ele><time>2026-04-13T07:51:34Z</time></trkpt><trkpt lat="48.5594689344593" lon="3.279830031995633"><ele>114.99999999999999</ele><time>2026-04-13T07:51:36Z</time></trkpt><trkpt lat="48.55947018518261" lon="3.2797278569672246"><ele>115.28571428571428</ele><time>2026-04-13T07:51:38Z</time></trkpt><trkpt lat="48.55947508087132" lon="3.2796253305200858"><ele>115.57142857142857</ele><time>2026-04-13T07:51:40Z</time></trkpt><trkpt lat="48.55947783222821" lon="3.279517688561271"><ele>115.85714285714286</ele><time>2026-04-13T07:51:42Z</time></trkpt><trkpt lat="48.559482080523466" lon="3.279414765803518"><ele>116.14285714285714</ele><time>2026-04-13T07:51:44Z</time></trkpt><trkpt lat="48.55948514637729" lon="3.279308151632363"><ele>116.42857142857144</ele><time>2026-04-13T07:51:46Z</time></trkpt><trkpt lat="48.559484855349936" lon="3.27920479247982"><ele>116.71428571428572</ele><time>2026-04-13T07:51:48Z</time></trkpt><trkpt lat="48.559488489999666" lon="3.2791002302498895"><ele>117.0</ele><time>2026-04-13T07:51:50Z</time></trkpt><trkpt lat="48.55949729859089" lon="3.279001994886504"><ele>117.57142857142858</ele><time>2026-04-13T07:51:52Z</time></trkpt><trkpt lat="48.559521242775766" lon="3.27890294611952"><ele>118.14285714285715</ele><time>2026-04-13T07:51:54Z</time></trkpt><trkpt lat="48.559565386288476" lon="3.2788259651557405"><ele>118.71428571428572</ele><time>2026-04-13T07:51:56Z</time></trkpt><trkpt lat="48.55962023932417" lon="3.278767651777702"><ele>119.28571428571428</ele><time>2026-04-13T07:51:58Z</time></trkpt><trkpt lat="48.55968076672387" lon="3.2787283287335662"><ele>119.85714285714285</ele><time>2026-04-13T07:52:00Z</time></trkpt><trkpt lat="48.55975175402607" lon="3.2787282792865455"><ele>120.42857142857142</ele><time>2026-04-13T07:52:02Z</time></trkpt><trkpt lat="48.5598180318088" lon="3.2787484048367177"><ele>121.0</ele><time>2026-04-13T07:52:04Z</time></trkpt><trkpt lat="48.55987754689247" lon="3.278805794492208"><ele>121.28571428571428</ele><time>2026-04-13T07:52:06Z</time></trkpt><trkpt lat="48.55992563920553" lon="3.278887576367425"><ele>121.57142857142856</ele><time>2026-04-13T07:52:08Z</time></trkpt><trkpt lat="48.559960432658826" lon="3.2789740605912505"><ele>121.85714285714286</ele><time>2026-04-13T07:52:10Z</time></trkpt><trkpt lat="48.55997833663323" lon="3.279075802424442"><ele>122.14285714285714</ele><time>2026-04-13T07:52:12Z</time></trkpt><trkpt lat="48.55998333052518" lon="3.279181732246061"><ele>122.42857142857143</ele><time>2026-04-13T07:52:14Z</time></trkpt><trkpt lat="48.55999642868037" lon="3.279293172059175"><ele>122.71428571428572</ele><time>2026-04-13T07:52:16Z</time></trkpt><trkpt lat="48.56000755816303" lon="3.2794016788545624"><ele>123.00000000000001</ele><time>2026-04-13T07:52:18Z</time></trkpt><trkpt lat="48.560022919898216" lon="3.27951026619068"><ele>123.00000000000001</ele><time>2026-04-13T07:52:20Z</time></trkpt><trkpt lat="48.560041784835256" lon="3.2796182947269674"><ele>123.0</ele><time>2026-04-13T07:52:22Z</time></trkpt><trkpt lat="48.560059850744196" lon="3.2797219495407743"><ele>123.00000000000001</ele><time>2026-04-13T07:52:24Z</time></trkpt><trkpt lat="48.56007631133783" lon="3.279826261032149"><ele>123.00000000000001</ele><time>2026-04-13T07:52:26Z</time></trkpt><trkpt lat="48.56009674897038" lon="3.279934734438185"><ele>123.0</ele><time>2026-04-13T07:52:28Z</time></trkpt><trkpt lat="48.56012066811527" lon="3.2800415018530584"><ele>123.00000000000001</ele><time>2026-04-13T07:52:30Z</time></trkpt><trkpt lat="48.56015081999012" lon="3.280140426560812"><ele>123.00000000000001</ele><time>2026-04-13T07:52:32Z</time></trkpt><trkpt lat="48.56018263279191" lon="3.280239630415776"><ele>122.85714285714288</ele><time>2026-04-13T07:52:34Z</time></trkpt><trkpt lat="48.56022120902157" lon="3.280333722229802"><ele>122.71428571428572</ele><time>2026-04-13T07:52:36Z</time></trkpt><trkpt lat="48.5602667129576" lon="3.2804107001230114"><ele>122.57142857142857</ele><time>2026-04-13T07:52:38Z</time></trkpt><trkpt lat="48.56030604885219" lon="3.2805017071724833"><ele>122.42857142857143</ele><time>2026-04-13T07:52:40Z</time></trkpt><trkpt lat="48.56033640744968" lon="3.280596610663963"><ele>122.28571428571428</ele><time>2026-04-13T07:52:42Z</time></trkpt><trkpt lat="48.56037199850992" lon="3.280677884465903"><ele>122.14285714285712</ele><time>2026-04-13T07:52:44Z</time></trkpt><trkpt lat="48.56041153261741" lon="3.280756858912924"><ele>121.99999999999999</ele><time>2026-04-13T07:52:46Z</time></trkpt><trkpt lat="48.56045077629621" lon="3.280837185496977"><ele>122.85714285714283</ele><time>2026-04-13T07:52:48Z</time></trkpt><trkpt lat="48.56048657428264" lon="3.2809225630066265"><ele>123.71428571428571</ele><time>2026-04-13T07:52:50Z</time></trkpt><trkpt lat="48.56052577117397" lon="3.28099736553324"><ele>124.57142857142856</ele><time>2026-04-13T07:52:52Z</time></trkpt><trkpt lat="48.56057712850083" lon="3.2810633316936233"><ele>125.42857142857142</ele><time>2026-04-13T07:52:54Z</time></trkpt><trkpt lat="48.56062455035848" lon="3.281136492380822"><ele>126.28571428571428</ele><time>2026-04-13T07:52:56Z</time></trkpt><trkpt lat="48.56067055363781" lon="3.281212258717496"><ele>127.14285714285714</ele><time>2026-04-13T07:52:58Z</time></trkpt><trkpt lat="48.56071856328012" lon="3.281287661571304"><ele>128.0</ele><time>2026-04-13T07:53:00Z</time></trkpt><trkpt lat="48.56076596625428" lon="3.281359504051635"><ele>128.0</ele><time>2026-04-13T07:53:02Z</time></trkpt><trkpt lat="48.560808885440444" lon="3.2814401190813687"><ele>127.99999999999999</ele><time>2026-04-13T07:53:04Z</time></trkpt><trkpt lat="48.56086021478909" lon="3.2814969415362905"><ele>128.0</ele><time>2026-04-13T07:53:06Z</time></trkpt><trkpt lat="48.560939683328165" lon="3.281560394864506"><ele>128.0</ele><time>2026-04-13T07:53:09Z</time></trkpt><trkpt lat="48.5609744624886" lon="3.281647614513547"><ele>127.99999999999999</ele><time>2026-04-13T07:53:11Z</time></trkpt><trkpt lat="48.56101786887794" lon="3.281733693922727"><ele>128.0</ele><time>2026-04-13T07:53:13Z</time></trkpt><trkpt lat="48.56106350513744" lon="3.281815120756622"><ele>128.0</ele><time>2026-04-13T07:53:15Z</time></trkpt><trkpt lat="48.561108930169944" lon="3.2819004765851583"><ele>128.0</ele><time>2026-04-13T07:53:17Z</time></trkpt><trkpt lat="48.56114911826163" lon="3.281996052838082"><ele>127.99999999999999</ele><time>2026-04-13T07:53:19Z</time></trkpt><trkpt lat="48.561191795612785" lon="3.282087123829879"><ele>128.0</ele><time>2026-04-13T07:53:21Z</time></trkpt><trkpt lat="48.561239331552116" lon="3.2821696181549913"><ele>128.0</ele><time>2026-04-13T07:53:23Z</time></trkpt><trkpt lat="48.561281605017655" lon="3.2822597579950923"><ele>127.99999999999999</ele><time>2026-04-13T07:53:25Z</time></trkpt><trkpt lat="48.561300025521525" lon="3.282354833208601"><ele>128.0</ele><time>2026-04-13T07:53:27Z</time></trkpt><trkpt lat="48.56133166292509" lon="3.2824637600605318"><ele>128.0</ele><time>2026-04-13T07:53:29Z</time></trkpt><trkpt lat="48.56135822904663" lon="3.282581388937876"><ele>128.83333333333331</ele><time>2026-04-13T07:53:31Z</time></trkpt><trkpt lat="48.56138262381045" lon="3.282697131632849"><ele>129.66666666666666</ele><time>2026-04-13T07:53:33Z</time></trkpt><trkpt lat="48.56140673744052" lon="3.282806093524587"><ele>130.5</ele><time>2026-04-13T07:53:35Z</time></trkpt><trkpt lat="48.5614327595593" lon="3.282914856286635"><ele>131.33333333333334</ele><time>2026-04-13T07:53:37Z</time></trkpt><trkpt lat="48.56145603934915" lon="3.2830272607399387"><ele>132.16666666666669</ele><time>2026-04-13T07:53:39Z</time></trkpt><trkpt lat="48.56148017526961" lon="3.2831325644378997"><ele>133.0</ele><time>2026-04-13T07:53:41Z</time></trkpt><trkpt lat="48.56150947842816" lon="3.2832344236166766"><ele>133.16666666666669</ele><time>2026-04-13T07:53:43Z</time></trkpt><trkpt lat="48.561520958435985" lon="3.2833466961327282"><ele>133.33333333333334</ele><time>2026-04-13T07:53:45Z</time></trkpt><trkpt lat="48.56154543954235" lon="3.283484977533729"><ele>133.5</ele><time>2026-04-13T07:53:48Z</time></trkpt><trkpt lat="48.56157684870454" lon="3.283619712850774"><ele>133.66666666666666</ele><time>2026-04-13T07:53:51Z</time></trkpt><trkpt lat="48.56159126092984" lon="3.283758329617157"><ele>133.83333333333331</ele><time>2026-04-13T07:53:54Z</time></trkpt><trkpt lat="48.561606864319266" lon="3.2838657210737434"><ele>134.0</ele><time>2026-04-13T07:53:57Z</time></trkpt><trkpt lat="48.56162720164653" lon="3.283974379817455"><ele>133.66666666666666</ele><time>2026-04-13T07:53:59Z</time></trkpt><trkpt lat="48.56163988601873" lon="3.284082905550928"><ele>133.33333333333331</ele><time>2026-04-13T07:54:01Z</time></trkpt><trkpt lat="48.5616597006198" lon="3.284197217868862"><ele>133.0</ele><time>2026-04-13T07:54:03Z</time></trkpt><trkpt lat="48.56168456998032" lon="3.2843085696535788"><ele>132.66666666666666</ele><time>2026-04-13T07:54:05Z</time></trkpt><trkpt lat="48.561708221533955" lon="3.284418619822874"><ele>132.33333333333334</ele><time>2026-04-13T07:54:07Z</time></trkpt><trkpt lat="48.561730009357134" lon="3.2845301328266387"><ele>132.0</ele><time>2026-04-13T07:54:09Z</time></trkpt><trkpt lat="48.56174787529017" lon="3.2846289197035445"><ele>132.0</ele><time>2026-04-13T07:54:11Z</time></trkpt><trkpt lat="48.561779630096225" lon="3.284740912127061"><ele>132.0</ele><time>2026-04-13T07:54:13Z</time></trkpt><trkpt lat="48.561819251296086" lon="3.284820942706205"><ele>132.0</ele><time>2026-04-13T07:54:15Z</time></trkpt><trkpt lat="48.561846228855714" lon="3.2849261874345665"><ele>132.0</ele><time>2026-04-13T07:54:17Z</time></trkpt><trkpt lat="48.561877587168105" lon="3.2850363604203285"><ele>132.0</ele><time>2026-04-13T07:54:19Z</time></trkpt><trkpt lat="48.56190992244993" lon="3.285148449982736"><ele>132.0</ele><time>2026-04-13T07:54:21Z</time></trkpt><trkpt lat="48.56194257360531" lon="3.2852505939685774"><ele>132.28571428571428</ele><time>2026-04-13T07:54:23Z</time></trkpt><trkpt lat="48.56196000159354" lon="3.2853430029046526"><ele>132.57142857142858</ele><time>2026-04-13T07:54:25Z</time></trkpt><trkpt lat="48.56198498158297" lon="3.2854538719769315"><ele>132.85714285714286</ele><time>2026-04-13T07:54:27Z</time></trkpt><trkpt lat="48.5620225030629" lon="3.285554077465933"><ele>133.14285714285714</ele><time>2026-04-13T07:54:29Z</time></trkpt><trkpt lat="48.56205339997086" lon="3.2856623370640055"><ele>133.42857142857142</ele><time>2026-04-13T07:54:31Z</time></trkpt><trkpt lat="48.56208214251441" lon="3.2857706748740307"><ele>133.71428571428572</ele><time>2026-04-13T07:54:33Z</time></trkpt><trkpt lat="48.56211573606241" lon="3.2858582202554327"><ele>134.0</ele><time>2026-04-13T07:54:35Z</time></trkpt><trkpt lat="48.56214851048161" lon="3.2859530858156267"><ele>134.66666666666666</ele><time>2026-04-13T07:54:39Z</time></trkpt><trkpt lat="48.562191352602284" lon="3.2860630589993995"><ele>135.33333333333331</ele><time>2026-04-13T07:54:42Z</time></trkpt><trkpt lat="48.562249395583656" lon="3.286168520952745"><ele>136.0</ele><time>2026-04-13T07:54:45Z</time></trkpt><trkpt lat="48.56228866824158" lon="3.286259189193389"><ele>136.66666666666666</ele><time>2026-04-13T07:54:47Z</time></trkpt><trkpt lat="48.56232809691677" lon="3.2863609604680857"><ele>137.33333333333334</ele><time>2026-04-13T07:54:49Z</time></trkpt><trkpt lat="48.56236365648169" lon="3.28645127786795"><ele>138.0</ele><time>2026-04-13T07:54:51Z</time></trkpt><trkpt lat="48.56242325873596" lon="3.2865256111857946"><ele>138.0</ele><time>2026-04-13T07:54:53Z</time></trkpt><trkpt lat="48.562481008579944" lon="3.2865998790447444"><ele>138.0</ele><time>2026-04-13T07:54:55Z</time></trkpt><trkpt lat="48.562540630065754" lon="3.2866723966623366"><ele>138.0</ele><time>2026-04-13T07:54:57Z</time></trkpt><trkpt lat="48.562605850647834" lon="3.286745687260267"><ele>138.0</ele><time>2026-04-13T07:54:59Z</time></trkpt><trkpt lat="48.56266824373882" lon="3.2868319493835063"><ele>138.0</ele><time>2026-04-13T07:55:01Z</time></trkpt><trkpt lat="48.56271910402933" lon="3.2869334627027658"><ele>138.0</ele><time>2026-04-13T07:55:03Z</time></trkpt><trkpt lat="48.56273751184856" lon="3.2870533666612918"><ele>138.0</ele><time>2026-04-13T07:55:05Z</time></trkpt><trkpt lat="48.56269474843964" lon="3.2871714912802963"><ele>138.0</ele><time>2026-04-13T07:55:07Z</time></trkpt><trkpt lat="48.56263785593996" lon="3.2872685686939014"><ele>138.0</ele><time>2026-04-13T07:55:09Z</time></trkpt><trkpt lat="48.562585547950775" lon="3.287373121143938"><ele>138.0</ele><time>2026-04-13T07:55:11Z</time></trkpt><trkpt lat="48.56254839226591" lon="3.2874547306124464"><ele>138.0</ele><time>2026-04-13T07:55:13Z</time></trkpt><trkpt lat="48.562509116692176" lon="3.2875710195350845"><ele>138.0</ele><time>2026-04-13T07:55:16Z</time></trkpt><trkpt lat="48.562475334156524" lon="3.2876931483390766"><ele>138.0</ele><time>2026-04-13T07:55:19Z</time></trkpt><trkpt lat="48.56242944701888" lon="3.2877878066088657"><ele>138.0</ele><time>2026-04-13T07:55:21Z</time></trkpt><trkpt lat="48.56238280051816" lon="3.2878982281387623"><ele>138.0</ele><time>2026-04-13T07:55:23Z</time></trkpt><trkpt lat="48.56233482842557" lon="3.288011387238414"><ele>138.0</ele><time>2026-04-13T07:55:25Z</time></trkpt><trkpt lat="48.56228347132066" lon="3.288124580520177"><ele>138.0</ele><time>2026-04-13T07:55:27Z</time></trkpt><trkpt lat="48.562243006796926" lon="3.2882510838542696"><ele>138.0</ele><time>2026-04-13T07:55:29Z</time></trkpt><trkpt lat="48.562179370889126" lon="3.2883545796484883"><ele>137.83333333333334</ele><time>2026-04-13T07:55:31Z</time></trkpt><trkpt lat="48.562100335920576" lon="3.288440970447058"><ele>137.66666666666666</ele><time>2026-04-13T07:55:33Z</time></trkpt><trkpt lat="48.56203461620189" lon="3.288525738246041"><ele>137.5</ele><time>2026-04-13T07:55:35Z</time></trkpt><trkpt lat="48.561975527177005" lon="3.288611381861977"><ele>137.33333333333331</ele><time>2026-04-13T07:55:37Z</time></trkpt><trkpt lat="48.56193157466282" lon="3.2887226650908614"><ele>137.16666666666666</ele><time>2026-04-13T07:55:39Z</time></trkpt><trkpt lat="48.5618773543642" lon="3.288833073513203"><ele>137.0</ele><time>2026-04-13T07:55:41Z</time></trkpt><trkpt lat="48.561826656673475" lon="3.2889480629781267"><ele>136.6</ele><time>2026-04-13T07:55:43Z</time></trkpt><trkpt lat="48.56176453183869" lon="3.2890424954178714"><ele>136.2</ele><time>2026-04-13T07:55:45Z</time></trkpt><trkpt lat="48.561660480982695" lon="3.289051848918655"><ele>135.8</ele><time>2026-04-13T07:55:47Z</time></trkpt><trkpt lat="48.561556336910414" lon="3.289013097538881"><ele>135.4</ele><time>2026-04-13T07:55:49Z</time></trkpt><trkpt lat="48.56144792091149" lon="3.2890139317619913"><ele>135.0</ele><time>2026-04-13T07:55:51Z</time></trkpt><trkpt lat="48.56133214320062" lon="3.2890138664633923"><ele>135.0</ele><time>2026-04-13T07:55:53Z</time></trkpt><trkpt lat="48.56127006231603" lon="3.2890308015897154"><ele>135.0</ele><time>2026-04-13T07:55:54Z</time></trkpt><trkpt lat="48.56114662184028" lon="3.289077013826655"><ele>135.0</ele><time>2026-04-13T07:55:56Z</time></trkpt><trkpt lat="48.5610810662339" lon="3.2891043557859057"><ele>135.0</ele><time>2026-04-13T07:55:57Z</time></trkpt><trkpt lat="48.56101751259994" lon="3.2891387974059634"><ele>135.0</ele><time>2026-04-13T07:55:58Z</time></trkpt><trkpt lat="48.56095583325852" lon="3.2891892824661153"><ele>135.0</ele><time>2026-04-13T07:55:59Z</time></trkpt><trkpt lat="48.56090527935372" lon="3.28926103905097"><ele>134.14285714285714</ele><time>2026-04-13T07:56:00Z</time></trkpt><trkpt lat="48.56086056239549" lon="3.289343156822375"><ele>133.28571428571428</ele><time>2026-04-13T07:56:01Z</time></trkpt><trkpt lat="48.56082284686076" lon="3.2894287473353296"><ele>132.42857142857142</ele><time>2026-04-13T07:56:02Z</time></trkpt><trkpt lat="48.5607913364088" lon="3.2895252777787585"><ele>131.57142857142856</ele><time>2026-04-13T07:56:03Z</time></trkpt><trkpt lat="48.56076515090476" lon="3.2896320089708007"><ele>130.71428571428572</ele><time>2026-04-13T07:56:04Z</time></trkpt><trkpt lat="48.56075482361009" lon="3.289750227635419"><ele>129.85714285714283</ele><time>2026-04-13T07:56:05Z</time></trkpt><trkpt lat="48.56076525409503" lon="3.289854413870674"><ele>129.0</ele><time>2026-04-13T07:56:06Z</time></trkpt><trkpt lat="48.560804686907" lon="3.2900079169261387"><ele>129.0</ele><time>2026-04-13T07:56:08Z</time></trkpt><trkpt lat="48.560880830542125" lon="3.290073381936348"><ele>129.0</ele><time>2026-04-13T07:56:10Z</time></trkpt><trkpt lat="48.5609543791513" lon="3.2901364420965575"><ele>129.0</ele><time>2026-04-13T07:56:13Z</time></trkpt><trkpt lat="48.56100746187187" lon="3.290255653106008"><ele>129.0</ele><time>2026-04-13T07:56:16Z</time></trkpt><trkpt lat="48.56103795993486" lon="3.2903577588510093"><ele>129.0</ele><time>2026-04-13T07:56:18Z</time></trkpt><trkpt lat="48.561051774889755" lon="3.29046308521515"><ele>129.0</ele><time>2026-04-13T07:56:20Z</time></trkpt><trkpt lat="48.56102086787719" lon="3.290580307522193"><ele>129.33333333333334</ele><time>2026-04-13T07:56:22Z</time></trkpt><trkpt lat="48.56097257003119" lon="3.2906900348642605"><ele>129.66666666666666</ele><time>2026-04-13T07:56:24Z</time></trkpt><trkpt lat="48.560924278858174" lon="3.290795907237669"><ele>130.0</ele><time>2026-04-13T07:56:26Z</time></trkpt><trkpt lat="48.56086172260487" lon="3.290894039584778"><ele>130.33333333333331</ele><time>2026-04-13T07:56:28Z</time></trkpt><trkpt lat="48.56081762290149" lon="3.2910133490540217"><ele>130.66666666666666</ele><time>2026-04-13T07:56:30Z</time></trkpt><trkpt lat="48.56081304455174" lon="3.2911451727890513"><ele>131.0</ele><time>2026-04-13T07:56:32Z</time></trkpt><trkpt lat="48.560878950930594" lon="3.2912287287731132"><ele>131.0</ele><time>2026-04-13T07:56:34Z</time></trkpt><trkpt lat="48.560965272513556" lon="3.291277333343988"><ele>131.0</ele><time>2026-04-13T07:56:36Z</time></trkpt><trkpt lat="48.56101893953562" lon="3.291375817996236"><ele>131.0</ele><time>2026-04-13T07:56:38Z</time></trkpt><trkpt lat="48.56102944990927" lon="3.2914958235744844"><ele>131.0</ele><time>2026-04-13T07:56:40Z</time></trkpt><trkpt lat="48.5611014958124" lon="3.291551090193329"><ele>131.0</ele><time>2026-04-13T07:56:42Z</time></trkpt><trkpt lat="48.56117290558203" lon="3.2916177842690275"><ele>131.0</ele><time>2026-04-13T07:56:44Z</time></trkpt><trkpt lat="48.5612453683371" lon="3.291682092774383"><ele>131.14285714285714</ele><time>2026-04-13T07:56:46Z</time></trkpt><trkpt lat="48.56130773926703" lon="3.2917423352215844"><ele>131.2857142857143</ele><time>2026-04-13T07:56:50Z</time></trkpt><trkpt lat="48.56136372568119" lon="3.2916982496126748"><ele>131.42857142857144</ele><time>2026-04-13T07:56:53Z</time></trkpt><trkpt lat="48.561377785071514" lon="3.2915994325139164"><ele>131.57142857142858</ele><time>2026-04-13T07:56:55Z</time></trkpt><trkpt lat="48.56139638144365" lon="3.291499524708177"><ele>131.71428571428572</ele><time>2026-04-13T07:56:57Z</time></trkpt><trkpt lat="48.561447880418775" lon="3.2914038231709077"><ele>131.85714285714286</ele><time>2026-04-13T07:56:59Z</time></trkpt><trkpt lat="48.561496735179105" lon="3.2913108845888663"><ele>132.0</ele><time>2026-04-13T07:57:01Z</time></trkpt><trkpt lat="48.561535136321254" lon="3.291200665789706"><ele>132.0</ele><time>2026-04-13T07:57:03Z</time></trkpt><trkpt lat="48.561567340856165" lon="3.2910727020003145"><ele>132.0</ele><time>2026-04-13T07:57:05Z</time></trkpt><trkpt lat="48.5615952845279" lon="3.2909450286089665"><ele>132.0</ele><time>2026-04-13T07:57:07Z</time></trkpt><trkpt lat="48.56163975876211" lon="3.2908265313277645"><ele>132.0</ele><time>2026-04-13T07:57:09Z</time></trkpt><trkpt lat="48.561669520741646" lon="3.290698042603327"><ele>132.0</ele><time>2026-04-13T07:57:11Z</time></trkpt><trkpt lat="48.56168495293575" lon="3.2905686827716574"><ele>132.0</ele><time>2026-04-13T07:57:13Z</time></trkpt><trkpt lat="48.56168821989996" lon="3.2904314502589296"><ele>132.4</ele><time>2026-04-13T07:57:15Z</time></trkpt><trkpt lat="48.56169247006691" lon="3.290293703944307"><ele>132.79999999999998</ele><time>2026-04-13T07:57:17Z</time></trkpt><trkpt lat="48.56171445306532" lon="3.2901629379685025"><ele>133.2</ele><time>2026-04-13T07:57:19Z</time></trkpt><trkpt lat="48.561733292102275" lon="3.2900365902062525"><ele>133.6</ele><time>2026-04-13T07:57:21Z</time></trkpt><trkpt lat="48.561798731691354" lon="3.28993083083088"><ele>134.0</ele><time>2026-04-13T07:57:23Z</time></trkpt><trkpt lat="48.56186763137082" lon="3.2898279414549734"><ele>134.2</ele><time>2026-04-13T07:57:25Z</time></trkpt><trkpt lat="48.56192196714082" lon="3.2897146276003295"><ele>134.4</ele><time>2026-04-13T07:57:27Z</time></trkpt><trkpt lat="48.561965314059435" lon="3.289589557997134"><ele>134.6</ele><time>2026-04-13T07:57:29Z</time></trkpt><trkpt lat="48.562017035265974" lon="3.289467633300869"><ele>134.8</ele><time>2026-04-13T07:57:31Z</time></trkpt><trkpt lat="48.56206190014485" lon="3.289347550177417"><ele>135.0</ele><time>2026-04-13T07:57:33Z</time></trkpt><trkpt lat="48.562103006298614" lon="3.28922993555347"><ele>134.66666666666666</ele><time>2026-04-13T07:57:35Z</time></trkpt><trkpt lat="48.56214876624578" lon="3.289111391440696"><ele>134.33333333333334</ele><time>2026-04-13T07:57:37Z</time></trkpt><trkpt lat="48.56219518643024" lon="3.2889956067461505"><ele>134.0</ele><time>2026-04-13T07:57:39Z</time></trkpt><trkpt lat="48.562239981287775" lon="3.288879011207171"><ele>133.66666666666669</ele><time>2026-04-13T07:57:41Z</time></trkpt><trkpt lat="48.562292805646024" lon="3.2887855979143974"><ele>133.33333333333334</ele><time>2026-04-13T07:57:43Z</time></trkpt><trkpt lat="48.56231029172658" lon="3.2886755997290416"><ele>133.0</ele><time>2026-04-13T07:57:45Z</time></trkpt><trkpt lat="48.5623780842192" lon="3.28874858043746"><ele>133.0</ele><time>2026-04-13T07:57:47Z</time></trkpt><trkpt lat="48.562368737305434" lon="3.288932594672993"><ele>133.0</ele><time>2026-04-13T07:57:49Z</time></trkpt><trkpt lat="48.56236068323119" lon="3.2890318460814596"><ele>133.0</ele><time>2026-04-13T07:57:50Z</time></trkpt><trkpt lat="48.56236170967212" lon="3.2891316336188607"><ele>133.0</ele><time>2026-04-13T07:57:51Z</time></trkpt><trkpt lat="48.56236388869628" lon="3.2892362314535917"><ele>133.0</ele><time>2026-04-13T07:57:52Z</time></trkpt><trkpt lat="48.562359004538834" lon="3.2893367372734637"><ele>133.0</ele><time>2026-04-13T07:57:53Z</time></trkpt><trkpt lat="48.56235128224338" lon="3.289439982111012"><ele>133.0</ele><time>2026-04-13T07:57:54Z</time></trkpt><trkpt lat="48.562346873322234" lon="3.289537793373126"><ele>133.0</ele><time>2026-04-13T07:57:55Z</time></trkpt><trkpt lat="48.562341410806624" lon="3.2896326681094235"><ele>133.0</ele><time>2026-04-13T07:57:56Z</time></trkpt><trkpt lat="48.56233877658203" lon="3.289728299239797"><ele>133.0</ele><time>2026-04-13T07:57:57Z</time></trkpt><trkpt lat="48.56232878659179" lon="3.2899149952459834"><ele>133.0</ele><time>2026-04-13T07:57:59Z</time></trkpt><trkpt lat="48.562333906922774" lon="3.290027736953908"><ele>133.0</ele><time>2026-04-13T07:58:00Z</time></trkpt><trkpt lat="48.56233414734272" lon="3.2901436184253114"><ele>131.83333333333334</ele><time>2026-04-13T07:58:01Z</time></trkpt><trkpt lat="48.56233012434318" lon="3.2902584926624985"><ele>130.66666666666669</ele><time>2026-04-13T07:58:02Z</time></trkpt><trkpt lat="48.562330961176414" lon="3.290368867026806"><ele>129.5</ele><time>2026-04-13T07:58:03Z</time></trkpt><trkpt lat="48.562338762051084" lon="3.2904808883178767"><ele>128.33333333333334</ele><time>2026-04-13T07:58:04Z</time></trkpt><trkpt lat="48.56234176176585" lon="3.2905962506233752"><ele>127.16666666666667</ele><time>2026-04-13T07:58:05Z</time></trkpt><trkpt lat="48.56233868970391" lon="3.2907119463071104"><ele>126.0</ele><time>2026-04-13T07:58:06Z</time></trkpt><trkpt lat="48.56232226002729" lon="3.2908266183438846"><ele>124.5</ele><time>2026-04-13T07:58:07Z</time></trkpt><trkpt lat="48.56228931565093" lon="3.290938499408924"><ele>123.0</ele><time>2026-04-13T07:58:08Z</time></trkpt><trkpt lat="48.5622502055318" lon="3.2910478461716335"><ele>121.5</ele><time>2026-04-13T07:58:09Z</time></trkpt><trkpt lat="48.56222169824663" lon="3.2911594710693697"><ele>120.0</ele><time>2026-04-13T07:58:10Z</time></trkpt><trkpt lat="48.56219815366333" lon="3.291274783408214"><ele>118.5</ele><time>2026-04-13T07:58:11Z</time></trkpt><trkpt lat="48.56217356074661" lon="3.291381118736438"><ele>117.0</ele><time>2026-04-13T07:58:12Z</time></trkpt><trkpt lat="48.562152065503334" lon="3.2914855844749407"><ele>114.8</ele><time>2026-04-13T07:58:13Z</time></trkpt><trkpt lat="48.562125674605035" lon="3.291576063357105"><ele>112.6</ele><time>2026-04-13T07:58:14Z</time></trkpt><trkpt lat="48.562084377860614" lon="3.2917352596131098"><ele>110.39999999999999</ele><time>2026-04-13T07:58:16Z</time></trkpt><trkpt lat="48.562043095815696" lon="3.2918813053048455"><ele>108.19999999999999</ele><time>2026-04-13T07:58:18Z</time></trkpt><trkpt lat="48.562000763006836" lon="3.2920277933918323"><ele>106.0</ele><time>2026-04-13T07:58:20Z</time></trkpt><trkpt lat="48.56196659438636" lon="3.2921750921031108"><ele>108.8</ele><time>2026-04-13T07:58:22Z</time></trkpt><trkpt lat="48.56192306373707" lon="3.292323775566041"><ele>111.6</ele><time>2026-04-13T07:58:24Z</time></trkpt><trkpt lat="48.56188039556403" lon="3.292469409182633"><ele>114.4</ele><time>2026-04-13T07:58:26Z</time></trkpt><trkpt lat="48.56186027496398" lon="3.292622219398752"><ele>117.2</ele><time>2026-04-13T07:58:28Z</time></trkpt><trkpt lat="48.56183134519369" lon="3.2927458872462383"><ele>120.0</ele><time>2026-04-13T07:58:30Z</time></trkpt><trkpt lat="48.56180544591768" lon="3.2928987462502293"><ele>120.0</ele><time>2026-04-13T07:58:32Z</time></trkpt><trkpt lat="48.56176704089024" lon="3.293071774030905"><ele>120.0</ele><time>2026-04-13T07:58:34Z</time></trkpt><trkpt lat="48.56174179209252" lon="3.2931595333249106"><ele>120.0</ele><time>2026-04-13T07:58:35Z</time></trkpt><trkpt lat="48.56171687543883" lon="3.293248246604516"><ele>120.0</ele><time>2026-04-13T07:58:36Z</time></trkpt><trkpt lat="48.56169000962811" lon="3.2934124904284316"><ele>120.0</ele><time>2026-04-13T07:58:38Z</time></trkpt><trkpt lat="48.56167518529205" lon="3.2935430072506784"><ele>120.0</ele><time>2026-04-13T07:58:40Z</time></trkpt><trkpt lat="48.56165075127835" lon="3.2936330665696536"><ele>118.6</ele><time>2026-04-13T07:58:43Z</time></trkpt><trkpt lat="48.5616276505436" lon="3.2937577757440586"><ele>117.2</ele><time>2026-04-13T07:58:47Z</time></trkpt><trkpt lat="48.561601498333175" lon="3.293889419487932"><ele>115.80000000000001</ele><time>2026-04-13T07:58:49Z</time></trkpt><trkpt lat="48.56157401586524" lon="3.2940360814606913"><ele>114.4</ele><time>2026-04-13T07:58:51Z</time></trkpt><trkpt lat="48.56153342108446" lon="3.2941805452561748"><ele>113.0</ele><time>2026-04-13T07:58:53Z</time></trkpt><trkpt lat="48.561498384353655" lon="3.294319965900409"><ele>111.83333333333333</ele><time>2026-04-13T07:58:55Z</time></trkpt><trkpt lat="48.56145006099618" lon="3.294457934572492"><ele>110.66666666666666</ele><time>2026-04-13T07:58:57Z</time></trkpt><trkpt lat="48.56140744293803" lon="3.294619215364067"><ele>109.5</ele><time>2026-04-13T07:58:59Z</time></trkpt><trkpt lat="48.56135390158619" lon="3.294724569517956"><ele>108.33333333333334</ele><time>2026-04-13T07:59:01Z</time></trkpt><trkpt lat="48.56131145381935" lon="3.294801422061372"><ele>107.16666666666667</ele><time>2026-04-13T07:59:03Z</time></trkpt><trkpt lat="48.56127515723484" lon="3.294904107546199"><ele>106.0</ele><time>2026-04-13T07:59:05Z</time></trkpt><trkpt lat="48.56125269503794" lon="3.2950341476675713"><ele>104.8</ele><time>2026-04-13T07:59:07Z</time></trkpt><trkpt lat="48.561199931822124" lon="3.2951664802187226"><ele>103.6</ele><time>2026-04-13T07:59:09Z</time></trkpt><trkpt lat="48.56115066865775" lon="3.295302078176846"><ele>102.4</ele><time>2026-04-13T07:59:11Z</time></trkpt><trkpt lat="48.56111408328692" lon="3.2954405804253413"><ele>101.2</ele><time>2026-04-13T07:59:13Z</time></trkpt><trkpt lat="48.561076166222485" lon="3.295570813808788"><ele>100.0</ele><time>2026-04-13T07:59:15Z</time></trkpt><trkpt lat="48.56103872572198" lon="3.2956807032512123"><ele>98.6</ele><time>2026-04-13T07:59:17Z</time></trkpt><trkpt lat="48.561016957843705" lon="3.2957826503096217"><ele>97.2</ele><time>2026-04-13T07:59:19Z</time></trkpt><trkpt lat="48.56097280501921" lon="3.2959122401308223"><ele>95.80000000000001</ele><time>2026-04-13T07:59:22Z</time></trkpt><trkpt lat="48.56089509223217" lon="3.29594015267302"><ele>94.4</ele><time>2026-04-13T07:59:24Z</time></trkpt><trkpt lat="48.56081023889061" lon="3.2958616725965024"><ele>93.0</ele><time>2026-04-13T07:59:26Z</time></trkpt><trkpt lat="48.56070729455424" lon="3.295813917482728"><ele>93.0</ele><time>2026-04-13T07:59:28Z</time></trkpt><trkpt lat="48.560610846748595" lon="3.295750550666413"><ele>93.0</ele><time>2026-04-13T07:59:30Z</time></trkpt><trkpt lat="48.56050151198293" lon="3.295687022599824"><ele>93.0</ele><time>2026-04-13T07:59:32Z</time></trkpt><trkpt lat="48.560394573767226" lon="3.2956153367523355"><ele>93.0</ele><time>2026-04-13T07:59:34Z</time></trkpt><trkpt lat="48.560286510258315" lon="3.2955446696717887"><ele>93.2</ele><time>2026-04-13T07:59:36Z</time></trkpt><trkpt lat="48.560179985984014" lon="3.295478935738223"><ele>93.4</ele><time>2026-04-13T07:59:38Z</time></trkpt><trkpt lat="48.56009600777176" lon="3.2954221089446483"><ele>93.60000000000001</ele><time>2026-04-13T07:59:40Z</time></trkpt><trkpt lat="48.56003302252066" lon="3.295380645218846"><ele>93.80000000000001</ele><time>2026-04-13T07:59:42Z</time></trkpt><trkpt lat="48.55995085997853" lon="3.295387246498769"><ele>94.0</ele><time>2026-04-13T07:59:45Z</time></trkpt><trkpt lat="48.559911214911835" lon="3.2955329098938995"><ele>93.4</ele><time>2026-04-13T07:59:47Z</time></trkpt><trkpt lat="48.5598586499389" lon="3.2956730540755204"><ele>92.80000000000001</ele><time>2026-04-13T07:59:49Z</time></trkpt><trkpt lat="48.559779908568736" lon="3.295798273436074"><ele>92.19999999999999</ele><time>2026-04-13T07:59:51Z</time></trkpt><trkpt lat="48.55970745572152" lon="3.295934564392857"><ele>91.6</ele><time>2026-04-13T07:59:53Z</time></trkpt><trkpt lat="48.55962098539688" lon="3.296038175765603"><ele>91.0</ele><time>2026-04-13T07:59:55Z</time></trkpt><trkpt lat="48.559562190551596" lon="3.2961645875843044"><ele>90.8</ele><time>2026-04-13T07:59:57Z</time></trkpt><trkpt lat="48.559509226798774" lon="3.2962684200508283"><ele>90.6</ele><time>2026-04-13T07:59:59Z</time></trkpt><trkpt lat="48.559440805173914" lon="3.2963988426610475"><ele>90.4</ele><time>2026-04-13T08:00:01Z</time></trkpt><trkpt lat="48.5593756542648" lon="3.2965203560965115"><ele>90.2</ele><time>2026-04-13T08:00:03Z</time></trkpt><trkpt lat="48.55931582836565" lon="3.2966426071258206"><ele>90.0</ele><time>2026-04-13T08:00:05Z</time></trkpt><trkpt lat="48.55926044581788" lon="3.2967642384166247"><ele>90.0</ele><time>2026-04-13T08:00:07Z</time></trkpt><trkpt lat="48.55921075545783" lon="3.296884900497792"><ele>90.0</ele><time>2026-04-13T08:00:09Z</time></trkpt><trkpt lat="48.559162493630474" lon="3.2970208774874323"><ele>90.0</ele><time>2026-04-13T08:00:11Z</time></trkpt><trkpt lat="48.55911488951407" lon="3.2971524215377803"><ele>90.0</ele><time>2026-04-13T08:00:13Z</time></trkpt><trkpt lat="48.559070471783905" lon="3.297257668018735"><ele>90.0</ele><time>2026-04-13T08:00:15Z</time></trkpt><trkpt lat="48.55902014071185" lon="3.2973795518163795"><ele>90.0</ele><time>2026-04-13T08:00:17Z</time></trkpt><trkpt lat="48.558964924657445" lon="3.2975077521972724"><ele>90.0</ele><time>2026-04-13T08:00:19Z</time></trkpt><trkpt lat="48.55892393306991" lon="3.297643773419238"><ele>90.0</ele><time>2026-04-13T08:00:21Z</time></trkpt><trkpt lat="48.55886290087559" lon="3.297773017608414"><ele>90.0</ele><time>2026-04-13T08:00:23Z</time></trkpt><trkpt lat="48.55881253060775" lon="3.2978984776884896"><ele>90.0</ele><time>2026-04-13T08:00:25Z</time></trkpt><trkpt lat="48.55876680741112" lon="3.298010685192455"><ele>90.0</ele><time>2026-04-13T08:00:27Z</time></trkpt><trkpt lat="48.55872819733871" lon="3.298114120160904"><ele>90.0</ele><time>2026-04-13T08:00:29Z</time></trkpt><trkpt lat="48.558704687679196" lon="3.2982307529215995"><ele>90.0</ele><time>2026-04-13T08:01:27Z</time></trkpt><trkpt lat="48.558701295096135" lon="3.2983507554538907"><ele>90.0</ele><time>2026-04-13T08:01:30Z</time></trkpt><trkpt lat="48.55875537286585" lon="3.298405307607778"><ele>90.0</ele><time>2026-04-13T08:01:32Z</time></trkpt><trkpt lat="48.55883237945539" lon="3.298417551750689"><ele>90.0</ele><time>2026-04-13T08:01:34Z</time></trkpt><trkpt lat="48.558919986187135" lon="3.298454644569073"><ele>90.0</ele><time>2026-04-13T08:01:36Z</time></trkpt><trkpt lat="48.55900861039187" lon="3.2984881551399607"><ele>90.0</ele><time>2026-04-13T08:01:38Z</time></trkpt><trkpt lat="48.55910054370517" lon="3.298523139410424"><ele>90.0</ele><time>2026-04-13T08:01:40Z</time></trkpt><trkpt lat="48.55919684498835" lon="3.298554579808872"><ele>90.0</ele><time>2026-04-13T08:01:42Z</time></trkpt><trkpt lat="48.55929132713732" lon="3.2986004468878427"><ele>90.0</ele><time>2026-04-13T08:01:44Z</time></trkpt><trkpt lat="48.55938610851339" lon="3.298635525222221"><ele>90.0</ele><time>2026-04-13T08:01:46Z</time></trkpt><trkpt lat="48.55948115764048" lon="3.2986647996540697"><ele>90.0</ele><time>2026-04-13T08:01:48Z</time></trkpt><trkpt lat="48.559569767879836" lon="3.2987063428852714"><ele>90.0</ele><time>2026-04-13T08:01:50Z</time></trkpt><trkpt lat="48.55967580332779" lon="3.2987519033652593"><ele>90.0</ele><time>2026-04-13T08:01:52Z</time></trkpt><trkpt lat="48.5597871877579" lon="3.2987916360838514"><ele>90.0</ele><time>2026-04-13T08:01:54Z</time></trkpt><trkpt lat="48.55989340210156" lon="3.2988381156109536"><ele>90.6</ele><time>2026-04-13T08:01:56Z</time></trkpt><trkpt lat="48.560010790307125" lon="3.298872188019525"><ele>91.2</ele><time>2026-04-13T08:01:58Z</time></trkpt><trkpt lat="48.56010724575957" lon="3.2988984001801027"><ele>91.80000000000001</ele><time>2026-04-13T08:02:00Z</time></trkpt><trkpt lat="48.560164266959546" lon="3.298946379517895"><ele>92.4</ele><time>2026-04-13T08:02:02Z</time></trkpt><trkpt lat="48.560147215814766" lon="3.299084314254573"><ele>93.0</ele><time>2026-04-13T08:02:04Z</time></trkpt><trkpt lat="48.56009795655137" lon="3.2992257226716837"><ele>93.16666666666667</ele><time>2026-04-13T08:02:06Z</time></trkpt><trkpt lat="48.560038135934455" lon="3.2993791840807623"><ele>93.33333333333333</ele><time>2026-04-13T08:02:08Z</time></trkpt><trkpt lat="48.55998382271246" lon="3.2995464417913194"><ele>93.5</ele><time>2026-04-13T08:02:10Z</time></trkpt><trkpt lat="48.55995848893913" lon="3.299633579119838"><ele>93.66666666666666</ele><time>2026-04-13T08:02:11Z</time></trkpt><trkpt lat="48.55993228715702" lon="3.299720825851445"><ele>93.83333333333333</ele><time>2026-04-13T08:02:12Z</time></trkpt><trkpt lat="48.559903153560505" lon="3.2998059741359382"><ele>94.0</ele><time>2026-04-13T08:02:13Z</time></trkpt><trkpt lat="48.559844449541906" lon="3.299958767961149"><ele>94.0</ele><time>2026-04-13T08:02:15Z</time></trkpt><trkpt lat="48.559785665905764" lon="3.3000708888079675"><ele>94.0</ele><time>2026-04-13T08:02:17Z</time></trkpt><trkpt lat="48.55974302441474" lon="3.3002270570820085"><ele>94.0</ele><time>2026-04-13T08:02:19Z</time></trkpt><trkpt lat="48.55968546742174" lon="3.3003834511572387"><ele>94.0</ele><time>2026-04-13T08:02:21Z</time></trkpt><trkpt lat="48.55963274561129" lon="3.300542077091821"><ele>94.0</ele><time>2026-04-13T08:02:23Z</time></trkpt><trkpt lat="48.55957372236312" lon="3.300672636357809"><ele>93.5</ele><time>2026-04-13T08:02:25Z</time></trkpt><trkpt lat="48.55952592872409" lon="3.300821653117751"><ele>93.0</ele><time>2026-04-13T08:02:27Z</time></trkpt><trkpt lat="48.55948323010975" lon="3.300980305979704"><ele>92.5</ele><time>2026-04-13T08:02:29Z</time></trkpt><trkpt lat="48.55943714209436" lon="3.3011261069808517"><ele>92.0</ele><time>2026-04-13T08:02:31Z</time></trkpt><trkpt lat="48.559378522556685" lon="3.3012836780534904"><ele>92.0</ele><time>2026-04-13T08:02:33Z</time></trkpt><trkpt lat="48.55929818055337" lon="3.301404989993311"><ele>92.0</ele><time>2026-04-13T08:02:35Z</time></trkpt><trkpt lat="48.55925709412985" lon="3.3015329323374063"><ele>92.0</ele><time>2026-04-13T08:02:37Z</time></trkpt><trkpt lat="48.559254383467994" lon="3.301703454818953"><ele>92.0</ele><time>2026-04-13T08:02:39Z</time></trkpt><trkpt lat="48.559230972382636" lon="3.3018796952380605"><ele>92.0</ele><time>2026-04-13T08:02:41Z</time></trkpt><trkpt lat="48.5592038126825" lon="3.3020443895300216"><ele>92.0</ele><time>2026-04-13T08:02:43Z</time></trkpt><trkpt lat="48.559173519269706" lon="3.30217480294799"><ele>92.0</ele><time>2026-04-13T08:02:45Z</time></trkpt><trkpt lat="48.55908487812839" lon="3.3022729569372737"><ele>92.0</ele><time>2026-04-13T08:02:47Z</time></trkpt><trkpt lat="48.55899026978944" lon="3.3023666808027285"><ele>92.0</ele><time>2026-04-13T08:02:49Z</time></trkpt><trkpt lat="48.558891527494126" lon="3.302460554481924"><ele>92.0</ele><time>2026-04-13T08:02:51Z</time></trkpt><trkpt lat="48.55879597921663" lon="3.3025573194889337"><ele>92.0</ele><time>2026-04-13T08:02:53Z</time></trkpt><trkpt lat="48.5587054737416" lon="3.302659408055509"><ele>92.0</ele><time>2026-04-13T08:02:55Z</time></trkpt><trkpt lat="48.558621569083016" lon="3.302731332860384"><ele>92.0</ele><time>2026-04-13T08:02:57Z</time></trkpt><trkpt lat="48.55855387773445" lon="3.3028315553406697"><ele>92.0</ele><time>2026-04-13T08:02:59Z</time></trkpt><trkpt lat="48.55845895870918" lon="3.3029194008903997"><ele>92.0</ele><time>2026-04-13T08:03:01Z</time></trkpt><trkpt lat="48.55837936566162" lon="3.303006730393392"><ele>92.0</ele><time>2026-04-13T08:03:03Z</time></trkpt><trkpt lat="48.558314779034646" lon="3.3031140959493213"><ele>92.0</ele><time>2026-04-13T08:03:05Z</time></trkpt><trkpt lat="48.558256238389085" lon="3.303234257703038"><ele>92.0</ele><time>2026-04-13T08:03:07Z</time></trkpt><trkpt lat="48.558197201791884" lon="3.303370198084782"><ele>92.0</ele><time>2026-04-13T08:03:09Z</time></trkpt><trkpt lat="48.558146242006906" lon="3.303528812514185"><ele>92.0</ele><time>2026-04-13T08:03:11Z</time></trkpt><trkpt lat="48.558116425810724" lon="3.303710052729065"><ele>92.0</ele><time>2026-04-13T08:03:13Z</time></trkpt><trkpt lat="48.55808604207242" lon="3.303894417378247"><ele>92.0</ele><time>2026-04-13T08:03:15Z</time></trkpt><trkpt lat="48.5580571535302" lon="3.3040782745115758"><ele>92.0</ele><time>2026-04-13T08:03:17Z</time></trkpt><trkpt lat="48.55803332323461" lon="3.304259842525974"><ele>92.0</ele><time>2026-04-13T08:03:19Z</time></trkpt><trkpt lat="48.558011152501855" lon="3.304447593736282"><ele>91.83333333333334</ele><time>2026-04-13T08:03:21Z</time></trkpt><trkpt lat="48.55799328474591" lon="3.3046348915362818"><ele>91.66666666666667</ele><time>2026-04-13T08:03:23Z</time></trkpt><trkpt lat="48.55799364570992" lon="3.3047304104870827"><ele>91.5</ele><time>2026-04-13T08:03:24Z</time></trkpt><trkpt lat="48.5579957398625" lon="3.3048257288782485"><ele>91.33333333333333</ele><time>2026-04-13T08:03:25Z</time></trkpt><trkpt lat="48.558001321578004" lon="3.304921136666832"><ele>91.16666666666666</ele><time>2026-04-13T08:03:26Z</time></trkpt><trkpt lat="48.558014127672784" lon="3.305107735078422"><ele>91.0</ele><time>2026-04-13T08:03:28Z</time></trkpt><trkpt lat="48.55801260856607" lon="3.3052889605786384"><ele>91.0</ele><time>2026-04-13T08:03:30Z</time></trkpt><trkpt lat="48.55802585108847" lon="3.3054413117930723"><ele>91.0</ele><time>2026-04-13T08:03:32Z</time></trkpt><trkpt lat="48.558027278412574" lon="3.305610299013167"><ele>91.0</ele><time>2026-04-13T08:03:34Z</time></trkpt><trkpt lat="48.55803069621435" lon="3.305800182386583"><ele>91.0</ele><time>2026-04-13T08:03:36Z</time></trkpt><trkpt lat="48.55802660765707" lon="3.3058989232433813"><ele>91.0</ele><time>2026-04-13T08:03:37Z</time></trkpt><trkpt lat="48.55801148351383" lon="3.305994109178023"><ele>91.0</ele><time>2026-04-13T08:03:38Z</time></trkpt><trkpt lat="48.5579927681667" lon="3.306088315605893"><ele>91.0</ele><time>2026-04-13T08:03:39Z</time></trkpt><trkpt lat="48.55798342277989" lon="3.3061842696631"><ele>91.0</ele><time>2026-04-13T08:03:40Z</time></trkpt><trkpt lat="48.55797935256869" lon="3.3062817361180286"><ele>91.0</ele><time>2026-04-13T08:03:41Z</time></trkpt><trkpt lat="48.55799493589393" lon="3.3063819133102657"><ele>91.0</ele><time>2026-04-13T08:03:42Z</time></trkpt><trkpt lat="48.5580278124478" lon="3.3064687883267796"><ele>91.0</ele><time>2026-04-13T08:03:43Z</time></trkpt><trkpt lat="48.55806960179969" lon="3.3065497457265414"><ele>91.0</ele><time>2026-04-13T08:03:44Z</time></trkpt><trkpt lat="48.55814222201753" lon="3.306703489985643"><ele>91.0</ele><time>2026-04-13T08:03:46Z</time></trkpt><trkpt lat="48.55817642854753" lon="3.306790933606541"><ele>91.0</ele><time>2026-04-13T08:03:47Z</time></trkpt><trkpt lat="48.558209712721776" lon="3.306872151973559"><ele>91.0</ele><time>2026-04-13T08:03:48Z</time></trkpt><trkpt lat="48.558269919526154" lon="3.307030305521802"><ele>91.0</ele><time>2026-04-13T08:03:50Z</time></trkpt><trkpt lat="48.55830068788055" lon="3.3071748310194566"><ele>91.0</ele><time>2026-04-13T08:03:52Z</time></trkpt><trkpt lat="48.558328139188674" lon="3.3073070565894724"><ele>91.0</ele><time>2026-04-13T08:03:54Z</time></trkpt><trkpt lat="48.558349183085284" lon="3.3074195429433884"><ele>91.25</ele><time>2026-04-13T08:03:56Z</time></trkpt><trkpt lat="48.558362501698745" lon="3.307566590514224"><ele>91.5</ele><time>2026-04-13T08:03:58Z</time></trkpt><trkpt lat="48.558386823279506" lon="3.3077390738046977"><ele>91.75</ele><time>2026-04-13T08:04:00Z</time></trkpt><trkpt lat="48.55840892053873" lon="3.3079242625477363"><ele>92.0</ele><time>2026-04-13T08:04:02Z</time></trkpt><trkpt lat="48.558425525854226" lon="3.308108686721567"><ele>92.28571428571429</ele><time>2026-04-13T08:04:04Z</time></trkpt><trkpt lat="48.55843957248129" lon="3.308202347735728"><ele>92.57142857142857</ele><time>2026-04-13T08:04:05Z</time></trkpt><trkpt lat="48.55845159068898" lon="3.308298639377403"><ele>92.85714285714286</ele><time>2026-04-13T08:04:06Z</time></trkpt><trkpt lat="48.55846462388009" lon="3.3083961203677523"><ele>93.14285714285714</ele><time>2026-04-13T08:04:07Z</time></trkpt><trkpt lat="48.55847918237212" lon="3.3084940408644825"><ele>93.42857142857142</ele><time>2026-04-13T08:04:08Z</time></trkpt><trkpt lat="48.55849311891216" lon="3.3085934009341376"><ele>93.71428571428571</ele><time>2026-04-13T08:04:09Z</time></trkpt><trkpt lat="48.55850712554974" lon="3.3086948630092268"><ele>94.0</ele><time>2026-04-13T08:04:10Z</time></trkpt><trkpt lat="48.55852173471449" lon="3.3087946571132503"><ele>94.0</ele><time>2026-04-13T08:04:11Z</time></trkpt><trkpt lat="48.5585369435224" lon="3.3088954151178824"><ele>94.0</ele><time>2026-04-13T08:04:12Z</time></trkpt><trkpt lat="48.558556883558204" lon="3.3089944227133032"><ele>94.0</ele><time>2026-04-13T08:04:13Z</time></trkpt><trkpt lat="48.55857083038057" lon="3.3090944535702045"><ele>94.0</ele><time>2026-04-13T08:04:14Z</time></trkpt><trkpt lat="48.55858803421398" lon="3.30919645421911"><ele>94.0</ele><time>2026-04-13T08:04:15Z</time></trkpt><trkpt lat="48.55860248275715" lon="3.3092983278612795"><ele>94.0</ele><time>2026-04-13T08:04:16Z</time></trkpt><trkpt lat="48.55861692702768" lon="3.3094029382553733"><ele>94.0</ele><time>2026-04-13T08:04:17Z</time></trkpt><trkpt lat="48.558632956471214" lon="3.3095050668995776"><ele>94.16666666666666</ele><time>2026-04-13T08:04:18Z</time></trkpt><trkpt lat="48.55864827501516" lon="3.3096091442034696"><ele>94.33333333333333</ele><time>2026-04-13T08:04:19Z</time></trkpt><trkpt lat="48.55866426897693" lon="3.3097054973135345"><ele>94.5</ele><time>2026-04-13T08:04:20Z</time></trkpt><trkpt lat="48.558689801591356" lon="3.3099022297841834"><ele>94.66666666666667</ele><time>2026-04-13T08:04:22Z</time></trkpt><trkpt lat="48.558706444376504" lon="3.310002869612357"><ele>94.83333333333334</ele><time>2026-04-13T08:04:23Z</time></trkpt><trkpt lat="48.55872072197269" lon="3.310105394294029"><ele>95.0</ele><time>2026-04-13T08:04:24Z</time></trkpt><trkpt lat="48.55874156668263" lon="3.310210542883824"><ele>94.57142857142857</ele><time>2026-04-13T08:04:25Z</time></trkpt><trkpt lat="48.558755951932014" lon="3.31030971760755"><ele>94.14285714285714</ele><time>2026-04-13T08:04:26Z</time></trkpt><trkpt lat="48.558776284242704" lon="3.3104122223130474"><ele>93.71428571428572</ele><time>2026-04-13T08:04:27Z</time></trkpt><trkpt lat="48.55878527941544" lon="3.3105123705265633"><ele>93.28571428571428</ele><time>2026-04-13T08:04:28Z</time></trkpt><trkpt lat="48.55879942203393" lon="3.310615478902845"><ele>92.85714285714285</ele><time>2026-04-13T08:04:29Z</time></trkpt><trkpt lat="48.55881465304363" lon="3.310718016763215"><ele>92.42857142857143</ele><time>2026-04-13T08:04:30Z</time></trkpt><trkpt lat="48.55883117244025" lon="3.3108173841020294"><ele>92.0</ele><time>2026-04-13T08:04:31Z</time></trkpt><trkpt lat="48.558848664778495" lon="3.3109140788059177"><ele>92.0</ele><time>2026-04-13T08:04:32Z</time></trkpt><trkpt lat="48.55886006679215" lon="3.311014416812155"><ele>92.0</ele><time>2026-04-13T08:04:33Z</time></trkpt><trkpt lat="48.55887266889454" lon="3.311112207001007"><ele>92.0</ele><time>2026-04-13T08:04:34Z</time></trkpt><trkpt lat="48.55888593162284" lon="3.3112074697467055"><ele>92.0</ele><time>2026-04-13T08:04:35Z</time></trkpt><trkpt lat="48.558898818171116" lon="3.3113008319912605"><ele>92.0</ele><time>2026-04-13T08:04:36Z</time></trkpt><trkpt lat="48.558909295234194" lon="3.3114830858256856"><ele>92.0</ele><time>2026-04-13T08:04:38Z</time></trkpt><trkpt lat="48.55888692696482" lon="3.3116604861199788"><ele>92.19999999999999</ele><time>2026-04-13T08:04:40Z</time></trkpt><trkpt lat="48.558857133375355" lon="3.311819884461302"><ele>92.4</ele><time>2026-04-13T08:04:42Z</time></trkpt><trkpt lat="48.55882862581085" lon="3.3119465992054655"><ele>92.6</ele><time>2026-04-13T08:04:44Z</time></trkpt><trkpt lat="48.55878887381875" lon="3.3120900689526875"><ele>92.80000000000001</ele><time>2026-04-13T08:04:46Z</time></trkpt><trkpt lat="48.55880591245585" lon="3.312268824426563"><ele>93.0</ele><time>2026-04-13T08:04:48Z</time></trkpt><trkpt lat="48.558833252367684" lon="3.312358726239602"><ele>93.14285714285715</ele><time>2026-04-13T08:04:49Z</time></trkpt><trkpt lat="48.5588569937879" lon="3.3124537603851567"><ele>93.28571428571429</ele><time>2026-04-13T08:04:50Z</time></trkpt><trkpt lat="48.55886892692033" lon="3.3125545147833213"><ele>93.42857142857143</ele><time>2026-04-13T08:04:51Z</time></trkpt><trkpt lat="48.558876667371365" lon="3.3126593692206536"><ele>93.57142857142858</ele><time>2026-04-13T08:04:52Z</time></trkpt><trkpt lat="48.55888284199164" lon="3.312768071045515"><ele>93.71428571428571</ele><time>2026-04-13T08:04:53Z</time></trkpt><trkpt lat="48.558892098983414" lon="3.312878671886051"><ele>93.85714285714286</ele><time>2026-04-13T08:04:54Z</time></trkpt><trkpt lat="48.55890333867971" lon="3.3129907488224677"><ele>94.0</ele><time>2026-04-13T08:04:55Z</time></trkpt><trkpt lat="48.558911491141785" lon="3.313107981635595"><ele>94.0</ele><time>2026-04-13T08:04:56Z</time></trkpt><trkpt lat="48.55891335830521" lon="3.313224355677185"><ele>94.0</ele><time>2026-04-13T08:04:57Z</time></trkpt><trkpt lat="48.55890747102831" lon="3.3133419388545877"><ele>94.0</ele><time>2026-04-13T08:04:58Z</time></trkpt><trkpt lat="48.55889933661128" lon="3.3134565185530658"><ele>94.0</ele><time>2026-04-13T08:04:59Z</time></trkpt><trkpt lat="48.558888933058434" lon="3.313570412048415"><ele>94.0</ele><time>2026-04-13T08:05:00Z</time></trkpt><trkpt lat="48.55888098300806" lon="3.3136832786483743"><ele>94.0</ele><time>2026-04-13T08:05:01Z</time></trkpt><trkpt lat="48.5588716884126" lon="3.313800149502285"><ele>94.0</ele><time>2026-04-13T08:05:02Z</time></trkpt><trkpt lat="48.55886195911253" lon="3.313917422396842"><ele>94.0</ele><time>2026-04-13T08:05:03Z</time></trkpt><trkpt lat="48.55885423296136" lon="3.3140368036864385"><ele>94.0</ele><time>2026-04-13T08:05:04Z</time></trkpt><trkpt lat="48.55884507524538" lon="3.31415677853137"><ele>94.0</ele><time>2026-04-13T08:05:05Z</time></trkpt><trkpt lat="48.558836502108626" lon="3.3142759101118773"><ele>94.0</ele><time>2026-04-13T08:05:06Z</time></trkpt><trkpt lat="48.55882682528814" lon="3.314394080144314"><ele>94.0</ele><time>2026-04-13T08:05:07Z</time></trkpt><trkpt lat="48.55881513250479" lon="3.3145155051469963"><ele>94.0</ele><time>2026-04-13T08:05:08Z</time></trkpt><trkpt lat="48.55880749560049" lon="3.3146370025305103"><ele>94.0</ele><time>2026-04-13T08:05:09Z</time></trkpt><trkpt lat="48.558800794863664" lon="3.314757681172658"><ele>94.0</ele><time>2026-04-13T08:05:10Z</time></trkpt><trkpt lat="48.55879356432282" lon="3.314879215297555"><ele>94.0</ele><time>2026-04-13T08:05:11Z</time></trkpt><trkpt lat="48.55878678634636" lon="3.3150028417008874"><ele>94.0</ele><time>2026-04-13T08:05:12Z</time></trkpt><trkpt lat="48.558778223773636" lon="3.3151269279712334"><ele>94.0</ele><time>2026-04-13T08:05:13Z</time></trkpt><trkpt lat="48.55877015439755" lon="3.315252250789718"><ele>94.0</ele><time>2026-04-13T08:05:14Z</time></trkpt><trkpt lat="48.55876107786224" lon="3.3153786017139657"><ele>94.0</ele><time>2026-04-13T08:05:15Z</time></trkpt><trkpt lat="48.55875031294392" lon="3.3155036613190405"><ele>94.0</ele><time>2026-04-13T08:05:16Z</time></trkpt><trkpt lat="48.55874523565155" lon="3.31562834976692"><ele>94.0</ele><time>2026-04-13T08:05:17Z</time></trkpt><trkpt lat="48.55874286427063" lon="3.3157529035166893"><ele>94.0</ele><time>2026-04-13T08:05:18Z</time></trkpt><trkpt lat="48.55873552273814" lon="3.3158738949654962"><ele>94.0</ele><time>2026-04-13T08:05:19Z</time></trkpt><trkpt lat="48.558725672726126" lon="3.3159929657616454"><ele>94.0</ele><time>2026-04-13T08:05:20Z</time></trkpt><trkpt lat="48.55871910645326" lon="3.316116847725386"><ele>94.0</ele><time>2026-04-13T08:05:21Z</time></trkpt><trkpt lat="48.558710844746706" lon="3.3162348660985153"><ele>94.0</ele><time>2026-04-13T08:05:22Z</time></trkpt><trkpt lat="48.55870051092891" lon="3.316352634815125"><ele>94.0</ele><time>2026-04-13T08:05:23Z</time></trkpt><trkpt lat="48.55868864512477" lon="3.316468321793397"><ele>94.0</ele><time>2026-04-13T08:05:24Z</time></trkpt><trkpt lat="48.55867952634441" lon="3.316583885985122"><ele>94.0</ele><time>2026-04-13T08:05:25Z</time></trkpt><trkpt lat="48.558669505511745" lon="3.3167020574703256"><ele>94.16666666666666</ele><time>2026-04-13T08:05:26Z</time></trkpt><trkpt lat="48.55865917808421" lon="3.3168196653612085"><ele>94.33333333333333</ele><time>2026-04-13T08:05:27Z</time></trkpt><trkpt lat="48.558656163124255" lon="3.316940712603133"><ele>94.5</ele><time>2026-04-13T08:05:28Z</time></trkpt><trkpt lat="48.558652655403584" lon="3.317062650614484"><ele>94.66666666666667</ele><time>2026-04-13T08:05:29Z</time></trkpt><trkpt lat="48.55864123178742" lon="3.317176323464549"><ele>94.83333333333334</ele><time>2026-04-13T08:05:30Z</time></trkpt><trkpt lat="48.558632331546995" lon="3.317291957897399"><ele>95.0</ele><time>2026-04-13T08:05:31Z</time></trkpt><trkpt lat="48.55862945916133" lon="3.3174105725449117"><ele>95.0</ele><time>2026-04-13T08:05:32Z</time></trkpt><trkpt lat="48.55862072194725" lon="3.3175245092575674"><ele>95.0</ele><time>2026-04-13T08:05:33Z</time></trkpt><trkpt lat="48.558613496284366" lon="3.3176356331673325"><ele>95.0</ele><time>2026-04-13T08:05:34Z</time></trkpt><trkpt lat="48.558603475206766" lon="3.317744154923217"><ele>95.0</ele><time>2026-04-13T08:05:35Z</time></trkpt><trkpt lat="48.558594086652185" lon="3.3178579728210256"><ele>95.0</ele><time>2026-04-13T08:05:36Z</time></trkpt><trkpt lat="48.55858706013566" lon="3.3179693145072258"><ele>95.0</ele><time>2026-04-13T08:05:37Z</time></trkpt><trkpt lat="48.558584836048986" lon="3.318079188790487"><ele>95.0</ele><time>2026-04-13T08:05:38Z</time></trkpt><trkpt lat="48.55857638324004" lon="3.3181924271056547"><ele>95.0</ele><time>2026-04-13T08:05:39Z</time></trkpt><trkpt lat="48.55856861715071" lon="3.3183053366243223"><ele>95.0</ele><time>2026-04-13T08:05:40Z</time></trkpt><trkpt lat="48.55856122122021" lon="3.318413242371329"><ele>95.0</ele><time>2026-04-13T08:05:41Z</time></trkpt><trkpt lat="48.55855473228237" lon="3.3185220997674847"><ele>95.0</ele><time>2026-04-13T08:05:42Z</time></trkpt><trkpt lat="48.55854680770187" lon="3.3186308008962846"><ele>95.0</ele><time>2026-04-13T08:05:43Z</time></trkpt><trkpt lat="48.55853732238553" lon="3.3187402509237547"><ele>95.0</ele><time>2026-04-13T08:05:44Z</time></trkpt><trkpt lat="48.558521288249246" lon="3.3188464041276795"><ele>95.0</ele><time>2026-04-13T08:05:45Z</time></trkpt><trkpt lat="48.55850041460999" lon="3.3189488297891265"><ele>95.28571428571429</ele><time>2026-04-13T08:05:46Z</time></trkpt><trkpt lat="48.55847718923291" lon="3.3190541951962773"><ele>95.57142857142858</ele><time>2026-04-13T08:05:47Z</time></trkpt><trkpt lat="48.55844802360421" lon="3.3191540092720224"><ele>95.85714285714286</ele><time>2026-04-13T08:05:48Z</time></trkpt><trkpt lat="48.558408878420806" lon="3.3192469788476857"><ele>96.14285714285714</ele><time>2026-04-13T08:05:49Z</time></trkpt><trkpt lat="48.558360830535875" lon="3.3193227403808794"><ele>96.42857142857143</ele><time>2026-04-13T08:05:50Z</time></trkpt><trkpt lat="48.558298329301444" lon="3.319386072322518"><ele>96.71428571428571</ele><time>2026-04-13T08:05:51Z</time></trkpt><trkpt lat="48.55823029650755" lon="3.319424338164666"><ele>97.0</ele><time>2026-04-13T08:05:52Z</time></trkpt><trkpt lat="48.558155988646924" lon="3.3194516585852796"><ele>97.00000000000001</ele><time>2026-04-13T08:05:53Z</time></trkpt><trkpt lat="48.558078681105464" lon="3.319470076294118"><ele>97.0</ele><time>2026-04-13T08:05:54Z</time></trkpt><trkpt lat="48.55800455737259" lon="3.3194903426506155"><ele>97.0</ele><time>2026-04-13T08:05:55Z</time></trkpt><trkpt lat="48.55793152567446" lon="3.3195052651829973"><ele>97.0</ele><time>2026-04-13T08:05:56Z</time></trkpt><trkpt lat="48.55785706182016" lon="3.3195177697459184"><ele>97.00000000000001</ele><time>2026-04-13T08:05:57Z</time></trkpt><trkpt lat="48.55778003765537" lon="3.3195279865781457"><ele>97.0</ele><time>2026-04-13T08:05:58Z</time></trkpt><trkpt lat="48.5577068564032" lon="3.3195354460808644"><ele>99.00000000000001</ele><time>2026-04-13T08:05:59Z</time></trkpt><trkpt lat="48.55762980807005" lon="3.3195431340073416"><ele>101.0</ele><time>2026-04-13T08:06:00Z</time></trkpt><trkpt lat="48.557552255075" lon="3.319552598153231"><ele>103.0</ele><time>2026-04-13T08:06:01Z</time></trkpt><trkpt lat="48.55747516203375" lon="3.3195629171819685"><ele>105.0</ele><time>2026-04-13T08:06:02Z</time></trkpt><trkpt lat="48.55739687650891" lon="3.319576791322803"><ele>107.00000000000001</ele><time>2026-04-13T08:06:03Z</time></trkpt><trkpt lat="48.55732315883481" lon="3.319591175364305"><ele>109.0</ele><time>2026-04-13T08:06:04Z</time></trkpt><trkpt lat="48.557245201209604" lon="3.3195994767839743"><ele>109.00000000000001</ele><time>2026-04-13T08:06:05Z</time></trkpt><trkpt lat="48.55716191643853" lon="3.319604139099464"><ele>109.0</ele><time>2026-04-13T08:06:06Z</time></trkpt><trkpt lat="48.55708510375368" lon="3.319617535611435"><ele>109.0</ele><time>2026-04-13T08:06:07Z</time></trkpt><trkpt lat="48.557008593491474" lon="3.3196295374031584"><ele>109.0</ele><time>2026-04-13T08:06:08Z</time></trkpt><trkpt lat="48.556926405298704" lon="3.3196463528699605"><ele>109.00000000000001</ele><time>2026-04-13T08:06:09Z</time></trkpt><trkpt lat="48.55684864698511" lon="3.31966063920621"><ele>109.0</ele><time>2026-04-13T08:06:10Z</time></trkpt><trkpt lat="48.556765073916516" lon="3.3196681577437506"><ele>109.16666666666667</ele><time>2026-04-13T08:06:11Z</time></trkpt><trkpt lat="48.556683065658326" lon="3.31967161086644"><ele>109.33333333333334</ele><time>2026-04-13T08:06:12Z</time></trkpt><trkpt lat="48.55660199383959" lon="3.3196793435976075"><ele>109.5</ele><time>2026-04-13T08:06:13Z</time></trkpt><trkpt lat="48.55652115744498" lon="3.319691057886425"><ele>109.66666666666666</ele><time>2026-04-13T08:06:14Z</time></trkpt><trkpt lat="48.556440627162885" lon="3.319699639778081"><ele>109.83333333333333</ele><time>2026-04-13T08:06:15Z</time></trkpt><trkpt lat="48.55635980030811" lon="3.3197119557011723"><ele>110.0</ele><time>2026-04-13T08:06:16Z</time></trkpt><trkpt lat="48.55627936394395" lon="3.319720146180954"><ele>109.83333333333333</ele><time>2026-04-13T08:06:17Z</time></trkpt><trkpt lat="48.5562001563217" lon="3.3197276957086506"><ele>109.66666666666666</ele><time>2026-04-13T08:06:18Z</time></trkpt><trkpt lat="48.556121794844785" lon="3.3197385928016385"><ele>109.5</ele><time>2026-04-13T08:06:19Z</time></trkpt><trkpt lat="48.55604384733027" lon="3.319747885223571"><ele>109.33333333333334</ele><time>2026-04-13T08:06:20Z</time></trkpt><trkpt lat="48.55596806984213" lon="3.319758991738909"><ele>109.16666666666667</ele><time>2026-04-13T08:06:21Z</time></trkpt><trkpt lat="48.55589347510158" lon="3.3197690290545836"><ele>109.0</ele><time>2026-04-13T08:06:22Z</time></trkpt><trkpt lat="48.555818710332986" lon="3.319778200325865"><ele>108.14285714285714</ele><time>2026-04-13T08:06:23Z</time></trkpt><trkpt lat="48.55574554957191" lon="3.3197891166227977"><ele>107.28571428571429</ele><time>2026-04-13T08:06:24Z</time></trkpt><trkpt lat="48.55567306845521" lon="3.3198014715429243"><ele>106.42857142857142</ele><time>2026-04-13T08:06:25Z</time></trkpt><trkpt lat="48.555604369762584" lon="3.319822562981834"><ele>105.57142857142857</ele><time>2026-04-13T08:06:26Z</time></trkpt><trkpt lat="48.555537318911284" lon="3.3198531650560197"><ele>104.71428571428571</ele><time>2026-04-13T08:06:27Z</time></trkpt><trkpt lat="48.55547265826994" lon="3.3198985883520007"><ele>103.85714285714285</ele><time>2026-04-13T08:06:28Z</time></trkpt><trkpt lat="48.55541203079841" lon="3.319957501433436"><ele>103.0</ele><time>2026-04-13T08:06:29Z</time></trkpt><trkpt lat="48.55535057116926" lon="3.320015627230988"><ele>103.00000000000001</ele><time>2026-04-13T08:06:30Z</time></trkpt><trkpt lat="48.555286575379405" lon="3.3200644383306077"><ele>103.0</ele><time>2026-04-13T08:06:31Z</time></trkpt><trkpt lat="48.55522293191037" lon="3.3201161009105613"><ele>103.0</ele><time>2026-04-13T08:06:32Z</time></trkpt><trkpt lat="48.55515466259642" lon="3.320170222770419"><ele>103.0</ele><time>2026-04-13T08:06:33Z</time></trkpt><trkpt lat="48.555088802327475" lon="3.3202284720459443"><ele>103.00000000000001</ele><time>2026-04-13T08:06:34Z</time></trkpt><trkpt lat="48.555026121765785" lon="3.3202950557394924"><ele>103.0</ele><time>2026-04-13T08:06:35Z</time></trkpt><trkpt lat="48.55496559410726" lon="3.3203663007191486"><ele>103.00000000000001</ele><time>2026-04-13T08:06:36Z</time></trkpt><trkpt lat="48.55491097270359" lon="3.320446595528197"><ele>103.0</ele><time>2026-04-13T08:06:37Z</time></trkpt><trkpt lat="48.55486528604057" lon="3.320539750757505"><ele>103.0</ele><time>2026-04-13T08:06:38Z</time></trkpt><trkpt lat="48.55482871656772" lon="3.3206436820475527"><ele>103.0</ele><time>2026-04-13T08:06:39Z</time></trkpt><trkpt lat="48.554803942139884" lon="3.320758668831527"><ele>103.00000000000001</ele><time>2026-04-13T08:06:40Z</time></trkpt><trkpt lat="48.55478721897223" lon="3.320874476899311"><ele>103.0</ele><time>2026-04-13T08:06:41Z</time></trkpt><trkpt lat="48.55477711081347" lon="3.3209950497182525"><ele>101.83333333333334</ele><time>2026-04-13T08:06:42Z</time></trkpt><trkpt lat="48.55476530096558" lon="3.321114524495589"><ele>100.66666666666667</ele><time>2026-04-13T08:06:43Z</time></trkpt><trkpt lat="48.554752316497975" lon="3.3212349164917696"><ele>99.5</ele><time>2026-04-13T08:06:44Z</time></trkpt><trkpt lat="48.55474457355434" lon="3.321356634699865"><ele>98.33333333333334</ele><time>2026-04-13T08:06:45Z</time></trkpt><trkpt lat="48.5547388472064" lon="3.3214807882428197"><ele>97.16666666666667</ele><time>2026-04-13T08:06:46Z</time></trkpt><trkpt lat="48.55473315395725" lon="3.32160306582118"><ele>96.0</ele><time>2026-04-13T08:06:47Z</time></trkpt><trkpt lat="48.55472420773911" lon="3.321728185372622"><ele>95.33333333333333</ele><time>2026-04-13T08:06:48Z</time></trkpt><trkpt lat="48.55471397965596" lon="3.3218490875174034"><ele>94.66666666666667</ele><time>2026-04-13T08:06:49Z</time></trkpt><trkpt lat="48.5547035942756" lon="3.321974026125536"><ele>94.0</ele><time>2026-04-13T08:06:50Z</time></trkpt><trkpt lat="48.554691331929355" lon="3.322094882279388"><ele>93.33333333333334</ele><time>2026-04-13T08:06:51Z</time></trkpt><trkpt lat="48.5546760132652" lon="3.3222149034394253"><ele>92.66666666666667</ele><time>2026-04-13T08:06:52Z</time></trkpt><trkpt lat="48.55465882056975" lon="3.3223359860642168"><ele>92.0</ele><time>2026-04-13T08:06:53Z</time></trkpt><trkpt lat="48.55463843622044" lon="3.322456331746274"><ele>92.0</ele><time>2026-04-13T08:06:54Z</time></trkpt><trkpt lat="48.554615513791056" lon="3.322574617647522"><ele>92.0</ele><time>2026-04-13T08:06:55Z</time></trkpt><trkpt lat="48.55458712586387" lon="3.3226895318320095"><ele>92.0</ele><time>2026-04-13T08:06:56Z</time></trkpt><trkpt lat="48.55455506799361" lon="3.322804996003014"><ele>92.0</ele><time>2026-04-13T08:06:57Z</time></trkpt><trkpt lat="48.5545165818822" lon="3.3229154997143837"><ele>92.0</ele><time>2026-04-13T08:06:58Z</time></trkpt><trkpt lat="48.55448139034574" lon="3.323029909490796"><ele>92.0</ele><time>2026-04-13T08:06:59Z</time></trkpt><trkpt lat="48.554451532632946" lon="3.3231480862488194"><ele>92.33333333333334</ele><time>2026-04-13T08:07:00Z</time></trkpt><trkpt lat="48.55442096455808" lon="3.3232622878718425"><ele>92.66666666666667</ele><time>2026-04-13T08:07:01Z</time></trkpt><trkpt lat="48.5543897413631" lon="3.323376958207204"><ele>93.0</ele><time>2026-04-13T08:07:02Z</time></trkpt><trkpt lat="48.554363056487325" lon="3.3234918520037495"><ele>93.33333333333333</ele><time>2026-04-13T08:07:03Z</time></trkpt><trkpt lat="48.55434519109224" lon="3.3236106889777575"><ele>93.66666666666666</ele><time>2026-04-13T08:07:04Z</time></trkpt><trkpt lat="48.55432795588361" lon="3.3237298143788054"><ele>94.0</ele><time>2026-04-13T08:07:05Z</time></trkpt><trkpt lat="48.55431389118587" lon="3.3238504892577483"><ele>94.0</ele><time>2026-04-13T08:07:06Z</time></trkpt><trkpt lat="48.55430495085339" lon="3.3239736668993802"><ele>94.0</ele><time>2026-04-13T08:07:07Z</time></trkpt><trkpt lat="48.55430112677293" lon="3.324096204807541"><ele>94.0</ele><time>2026-04-13T08:07:08Z</time></trkpt><trkpt lat="48.554304865739866" lon="3.324217106704958"><ele>94.0</ele><time>2026-04-13T08:07:09Z</time></trkpt><trkpt lat="48.554311579300474" lon="3.324337201565095"><ele>94.0</ele><time>2026-04-13T08:07:10Z</time></trkpt><trkpt lat="48.55431674959925" lon="3.324457438413897"><ele>94.0</ele><time>2026-04-13T08:07:11Z</time></trkpt><trkpt lat="48.55432700401135" lon="3.324576400919451"><ele>94.0</ele><time>2026-04-13T08:07:12Z</time></trkpt><trkpt lat="48.55433674694854" lon="3.3246950296209263"><ele>94.0</ele><time>2026-04-13T08:07:13Z</time></trkpt><trkpt lat="48.55434420839754" lon="3.324813662093137"><ele>94.0</ele><time>2026-04-13T08:07:14Z</time></trkpt><trkpt lat="48.55435296921001" lon="3.324933194134604"><ele>94.0</ele><time>2026-04-13T08:07:15Z</time></trkpt><trkpt lat="48.554360584132695" lon="3.3250536656935004"><ele>94.0</ele><time>2026-04-13T08:07:16Z</time></trkpt><trkpt lat="48.55436781084164" lon="3.325169412389844"><ele>94.0</ele><time>2026-04-13T08:07:17Z</time></trkpt><trkpt lat="48.55437535385599" lon="3.325284320750292"><ele>94.57142857142857</ele><time>2026-04-13T08:07:18Z</time></trkpt><trkpt lat="48.55438837339321" lon="3.3253987152636935"><ele>95.14285714285714</ele><time>2026-04-13T08:07:19Z</time></trkpt><trkpt lat="48.55439730734814" lon="3.325511054962434"><ele>95.71428571428572</ele><time>2026-04-13T08:07:20Z</time></trkpt><trkpt lat="48.55440430160818" lon="3.325623947077206"><ele>96.28571428571428</ele><time>2026-04-13T08:07:21Z</time></trkpt><trkpt lat="48.55441093495" lon="3.325733056032468"><ele>96.85714285714286</ele><time>2026-04-13T08:07:22Z</time></trkpt><trkpt lat="48.55442097025432" lon="3.3258450564531645"><ele>97.42857142857143</ele><time>2026-04-13T08:07:23Z</time></trkpt><trkpt lat="48.55442909239827" lon="3.3259574348671586"><ele>98.0</ele><time>2026-04-13T08:07:24Z</time></trkpt><trkpt lat="48.55443589313967" lon="3.3260715962312877"><ele>98.71428571428571</ele><time>2026-04-13T08:07:25Z</time></trkpt><trkpt lat="48.554436486576414" lon="3.32618350774027"><ele>99.42857142857143</ele><time>2026-04-13T08:07:26Z</time></trkpt><trkpt lat="48.55442976213753" lon="3.326295302671882"><ele>100.14285714285714</ele><time>2026-04-13T08:07:27Z</time></trkpt><trkpt lat="48.554418302983116" lon="3.3264065448790894"><ele>100.85714285714286</ele><time>2026-04-13T08:07:28Z</time></trkpt><trkpt lat="48.55439400324695" lon="3.326512286266093"><ele>101.57142857142857</ele><time>2026-04-13T08:07:29Z</time></trkpt><trkpt lat="48.554359625017895" lon="3.326609902432742"><ele>102.28571428571428</ele><time>2026-04-13T08:07:30Z</time></trkpt><trkpt lat="48.55431254836933" lon="3.326699589062357"><ele>103.0</ele><time>2026-04-13T08:07:31Z</time></trkpt><trkpt lat="48.55425502980062" lon="3.3267789143585214"><ele>103.00000000000001</ele><time>2026-04-13T08:07:32Z</time></trkpt><trkpt lat="48.554193702914155" lon="3.326850948272273"><ele>103.0</ele><time>2026-04-13T08:07:33Z</time></trkpt><trkpt lat="48.55412515658976" lon="3.326907158700245"><ele>103.0</ele><time>2026-04-13T08:07:34Z</time></trkpt><trkpt lat="48.55405914485682" lon="3.326966139921046"><ele>103.0</ele><time>2026-04-13T08:07:35Z</time></trkpt><trkpt lat="48.553995151296206" lon="3.3270226799931777"><ele>103.00000000000001</ele><time>2026-04-13T08:07:36Z</time></trkpt><trkpt lat="48.553930572520095" lon="3.3270816032039665"><ele>103.0</ele><time>2026-04-13T08:07:37Z</time></trkpt><trkpt lat="48.553866850649364" lon="3.3271397215677396"><ele>102.99999999999999</ele><time>2026-04-13T08:07:38Z</time></trkpt><trkpt lat="48.553804448140895" lon="3.3271951710467333"><ele>103.0</ele><time>2026-04-13T08:07:39Z</time></trkpt><trkpt lat="48.55374330428522" lon="3.3272528241521098"><ele>103.0</ele><time>2026-04-13T08:07:40Z</time></trkpt><trkpt lat="48.55367866732602" lon="3.3273074056866863"><ele>103.0</ele><time>2026-04-13T08:07:41Z</time></trkpt><trkpt lat="48.553615183643366" lon="3.327367667685068"><ele>103.0</ele><time>2026-04-13T08:07:42Z</time></trkpt><trkpt lat="48.55355461339949" lon="3.3274268542827943"><ele>102.99999999999999</ele><time>2026-04-13T08:07:43Z</time></trkpt><trkpt lat="48.5534946259749" lon="3.327491243962093"><ele>103.0</ele><time>2026-04-13T08:07:44Z</time></trkpt><trkpt lat="48.5534396258474" lon="3.32755705042945"><ele>103.57142857142857</ele><time>2026-04-13T08:07:45Z</time></trkpt><trkpt lat="48.553384724729675" lon="3.327629415841339"><ele>104.14285714285714</ele><time>2026-04-13T08:07:46Z</time></trkpt><trkpt lat="48.553333165032235" lon="3.3277074437642686"><ele>104.71428571428572</ele><time>2026-04-13T08:07:47Z</time></trkpt><trkpt lat="48.553284885982016" lon="3.327791852028671"><ele>105.28571428571428</ele><time>2026-04-13T08:07:48Z</time></trkpt><trkpt lat="48.55324396630937" lon="3.3278785489025764"><ele>105.85714285714286</ele><time>2026-04-13T08:07:49Z</time></trkpt><trkpt lat="48.553200898207216" lon="3.3279664359324936"><ele>106.42857142857143</ele><time>2026-04-13T08:07:50Z</time></trkpt><trkpt lat="48.55316338075485" lon="3.3280640429384416"><ele>107.0</ele><time>2026-04-13T08:07:51Z</time></trkpt><trkpt lat="48.553129745995214" lon="3.328165145497705"><ele>105.66666666666666</ele><time>2026-04-13T08:07:52Z</time></trkpt><trkpt lat="48.55310445183794" lon="3.3282755872986085"><ele>104.33333333333333</ele><time>2026-04-13T08:07:53Z</time></trkpt><trkpt lat="48.55308495225193" lon="3.328388493598002"><ele>103.0</ele><time>2026-04-13T08:07:54Z</time></trkpt><trkpt lat="48.55306897273771" lon="3.3285028003980357"><ele>101.66666666666666</ele><time>2026-04-13T08:07:55Z</time></trkpt><trkpt lat="48.553059321223444" lon="3.3286202380524843"><ele>100.33333333333333</ele><time>2026-04-13T08:07:56Z</time></trkpt><trkpt lat="48.553053658923105" lon="3.328735947542398"><ele>99.0</ele><time>2026-04-13T08:07:57Z</time></trkpt><trkpt lat="48.55305424745183" lon="3.328857685897855"><ele>98.66666666666667</ele><time>2026-04-13T08:07:58Z</time></trkpt><trkpt lat="48.55305540327366" lon="3.3289781771717943"><ele>98.33333333333334</ele><time>2026-04-13T08:07:59Z</time></trkpt><trkpt lat="48.55306002959626" lon="3.3290950034140216"><ele>98.0</ele><time>2026-04-13T08:08:00Z</time></trkpt><trkpt lat="48.553064013513215" lon="3.329213976677357"><ele>97.66666666666667</ele><time>2026-04-13T08:08:01Z</time></trkpt><trkpt lat="48.55306986556393" lon="3.3293333973392882"><ele>97.33333333333334</ele><time>2026-04-13T08:08:02Z</time></trkpt><trkpt lat="48.55307428419693" lon="3.3294548888692836"><ele>97.0</ele><time>2026-04-13T08:08:03Z</time></trkpt><trkpt lat="48.55308023760796" lon="3.329571932047978"><ele>97.00000000000001</ele><time>2026-04-13T08:08:04Z</time></trkpt><trkpt lat="48.553087203558135" lon="3.3296915212032983"><ele>97.0</ele><time>2026-04-13T08:08:05Z</time></trkpt><trkpt lat="48.553092460677576" lon="3.329811462645834"><ele>97.0</ele><time>2026-04-13T08:08:06Z</time></trkpt><trkpt lat="48.55309712014346" lon="3.329932684578988"><ele>97.0</ele><time>2026-04-13T08:08:07Z</time></trkpt><trkpt lat="48.5531017549919" lon="3.3300557353425533"><ele>97.00000000000001</ele><time>2026-04-13T08:08:08Z</time></trkpt><trkpt lat="48.55310550011744" lon="3.330178813985716"><ele>97.0</ele><time>2026-04-13T08:08:09Z</time></trkpt><trkpt lat="48.553111019955196" lon="3.330303807473612"><ele>96.83333333333334</ele><time>2026-04-13T08:08:10Z</time></trkpt><trkpt lat="48.553118489297766" lon="3.3304332813977013"><ele>96.66666666666667</ele><time>2026-04-13T08:08:11Z</time></trkpt><trkpt lat="48.55312460098882" lon="3.3305614973403133"><ele>96.5</ele><time>2026-04-13T08:08:12Z</time></trkpt><trkpt lat="48.55313327127778" lon="3.330688298519589"><ele>96.33333333333334</ele><time>2026-04-13T08:08:13Z</time></trkpt><trkpt lat="48.553150004911096" lon="3.3308151868379783"><ele>96.16666666666667</ele><time>2026-04-13T08:08:14Z</time></trkpt><trkpt lat="48.553165908290694" lon="3.3309367767574924"><ele>96.0</ele><time>2026-04-13T08:08:15Z</time></trkpt><trkpt lat="48.553186929050405" lon="3.3310586236663804"><ele>95.83333333333333</ele><time>2026-04-13T08:08:16Z</time></trkpt><trkpt lat="48.553211816669624" lon="3.3311813686857157"><ele>95.66666666666667</ele><time>2026-04-13T08:08:17Z</time></trkpt><trkpt lat="48.55323950784298" lon="3.3313021010601487"><ele>95.5</ele><time>2026-04-13T08:08:18Z</time></trkpt><trkpt lat="48.55327106373791" lon="3.3314197851638565"><ele>95.33333333333334</ele><time>2026-04-13T08:08:19Z</time></trkpt><trkpt lat="48.553301594934574" lon="3.331536700785571"><ele>95.16666666666667</ele><time>2026-04-13T08:08:20Z</time></trkpt><trkpt lat="48.55332959921168" lon="3.331654405290069"><ele>95.0</ele><time>2026-04-13T08:08:21Z</time></trkpt><trkpt lat="48.553357258406656" lon="3.3317709453917033"><ele>94.83333333333334</ele><time>2026-04-13T08:08:22Z</time></trkpt><trkpt lat="48.55338804572113" lon="3.3318827348036124"><ele>94.66666666666667</ele><time>2026-04-13T08:08:23Z</time></trkpt><trkpt lat="48.55341749711223" lon="3.332002380353945"><ele>94.5</ele><time>2026-04-13T08:08:24Z</time></trkpt><trkpt lat="48.5534424374475" lon="3.332120633358449"><ele>94.33333333333333</ele><time>2026-04-13T08:08:25Z</time></trkpt><trkpt lat="48.55346744953945" lon="3.332235190094126"><ele>94.16666666666666</ele><time>2026-04-13T08:08:26Z</time></trkpt><trkpt lat="48.55349712556002" lon="3.3323536398097975"><ele>94.0</ele><time>2026-04-13T08:08:27Z</time></trkpt><trkpt lat="48.55352753250048" lon="3.3324698025744572"><ele>94.66666666666666</ele><time>2026-04-13T08:08:28Z</time></trkpt><trkpt lat="48.55355475559836" lon="3.332587516081677"><ele>95.33333333333333</ele><time>2026-04-13T08:08:29Z</time></trkpt><trkpt lat="48.55358336279104" lon="3.3327038260805213"><ele>96.0</ele><time>2026-04-13T08:08:30Z</time></trkpt><trkpt lat="48.55361123027979" lon="3.332821837610352"><ele>96.66666666666666</ele><time>2026-04-13T08:08:31Z</time></trkpt><trkpt lat="48.553633055470094" lon="3.3329411099134907"><ele>97.33333333333333</ele><time>2026-04-13T08:08:32Z</time></trkpt><trkpt lat="48.55365655922716" lon="3.3330589565582422"><ele>98.0</ele><time>2026-04-13T08:08:33Z</time></trkpt><trkpt lat="48.55366982700652" lon="3.333180844206308"><ele>97.33333333333333</ele><time>2026-04-13T08:08:34Z</time></trkpt><trkpt lat="48.553695801381465" lon="3.3332957711057203"><ele>96.66666666666666</ele><time>2026-04-13T08:08:35Z</time></trkpt><trkpt lat="48.55371796990182" lon="3.3334189006690944"><ele>96.0</ele><time>2026-04-13T08:08:36Z</time></trkpt><trkpt lat="48.55373824496584" lon="3.3335376204957834"><ele>95.33333333333333</ele><time>2026-04-13T08:08:37Z</time></trkpt><trkpt lat="48.55375170866576" lon="3.3336589475818372"><ele>94.66666666666666</ele><time>2026-04-13T08:08:38Z</time></trkpt><trkpt lat="48.553768016723815" lon="3.3337747343091766"><ele>94.0</ele><time>2026-04-13T08:08:39Z</time></trkpt><trkpt lat="48.55378986936254" lon="3.333892940815866"><ele>94.0</ele><time>2026-04-13T08:08:40Z</time></trkpt><trkpt lat="48.55381130895734" lon="3.3340102583986333"><ele>94.0</ele><time>2026-04-13T08:08:41Z</time></trkpt><trkpt lat="48.553827278459146" lon="3.334129092636421"><ele>94.0</ele><time>2026-04-13T08:08:42Z</time></trkpt><trkpt lat="48.55384413065483" lon="3.3342488184634864"><ele>94.0</ele><time>2026-04-13T08:08:43Z</time></trkpt><trkpt lat="48.55385975569568" lon="3.3343661069161965"><ele>94.0</ele><time>2026-04-13T08:08:44Z</time></trkpt><trkpt lat="48.55387578082943" lon="3.334483163491087"><ele>94.0</ele><time>2026-04-13T08:08:45Z</time></trkpt><trkpt lat="48.55389493114311" lon="3.334592080380965"><ele>94.0</ele><time>2026-04-13T08:08:46Z</time></trkpt><trkpt lat="48.553915279235945" lon="3.334706464522262"><ele>94.0</ele><time>2026-04-13T08:08:47Z</time></trkpt><trkpt lat="48.553931065405926" lon="3.3348188579155638"><ele>94.0</ele><time>2026-04-13T08:08:48Z</time></trkpt><trkpt lat="48.55394814328974" lon="3.3349311907026573"><ele>94.0</ele><time>2026-04-13T08:08:49Z</time></trkpt><trkpt lat="48.55396450985755" lon="3.3350386048912535"><ele>94.0</ele><time>2026-04-13T08:08:50Z</time></trkpt><trkpt lat="48.55398504489061" lon="3.3351502243254663"><ele>94.0</ele><time>2026-04-13T08:08:51Z</time></trkpt><trkpt lat="48.55399908648844" lon="3.3352596561492365"><ele>94.16666666666666</ele><time>2026-04-13T08:08:52Z</time></trkpt><trkpt lat="48.554018713560545" lon="3.335371866637099"><ele>94.33333333333333</ele><time>2026-04-13T08:08:53Z</time></trkpt><trkpt lat="48.55403163271698" lon="3.3354848104694184"><ele>94.5</ele><time>2026-04-13T08:08:54Z</time></trkpt><trkpt lat="48.5540480294111" lon="3.3355953790191024"><ele>94.66666666666667</ele><time>2026-04-13T08:08:55Z</time></trkpt><trkpt lat="48.55406510356451" lon="3.335706459410705"><ele>94.83333333333334</ele><time>2026-04-13T08:08:56Z</time></trkpt><trkpt lat="48.55407604171153" lon="3.335818010381692"><ele>95.0</ele><time>2026-04-13T08:08:57Z</time></trkpt><trkpt lat="48.55409343012393" lon="3.3359300960512877"><ele>95.85714285714286</ele><time>2026-04-13T08:08:58Z</time></trkpt><trkpt lat="48.55410585791591" lon="3.336037414523928"><ele>96.71428571428572</ele><time>2026-04-13T08:08:59Z</time></trkpt><trkpt lat="48.55412197315106" lon="3.3361496415703913"><ele>97.57142857142857</ele><time>2026-04-13T08:09:00Z</time></trkpt><trkpt lat="48.55413526408316" lon="3.3362621961720627"><ele>98.42857142857143</ele><time>2026-04-13T08:09:01Z</time></trkpt><trkpt lat="48.55414746922678" lon="3.3363736744093053"><ele>99.28571428571428</ele><time>2026-04-13T08:09:02Z</time></trkpt><trkpt lat="48.5541485018775" lon="3.3364839749289863"><ele>100.14285714285714</ele><time>2026-04-13T08:09:03Z</time></trkpt><trkpt lat="48.554149757103104" lon="3.3365940031571215"><ele>101.0</ele><time>2026-04-13T08:09:04Z</time></trkpt><trkpt lat="48.55414980947548" lon="3.336701133015398"><ele>101.0</ele><time>2026-04-13T08:09:05Z</time></trkpt><trkpt lat="48.554149522843666" lon="3.336809107731494"><ele>101.0</ele><time>2026-04-13T08:09:06Z</time></trkpt><trkpt lat="48.55414281811195" lon="3.336917432728074"><ele>101.0</ele><time>2026-04-13T08:09:07Z</time></trkpt><trkpt lat="48.55413176763784" lon="3.3370194552841363"><ele>101.0</ele><time>2026-04-13T08:09:08Z</time></trkpt><trkpt lat="48.5541256605508" lon="3.3371200757247728"><ele>101.0</ele><time>2026-04-13T08:09:09Z</time></trkpt><trkpt lat="48.55411824652149" lon="3.3372163990444514"><ele>101.0</ele><time>2026-04-13T08:09:10Z</time></trkpt><trkpt lat="48.55410670730789" lon="3.3373114183614865"><ele>101.0</ele><time>2026-04-13T08:09:11Z</time></trkpt><trkpt lat="48.554096597893476" lon="3.337411347229523"><ele>100.6</ele><time>2026-04-13T08:09:12Z</time></trkpt><trkpt lat="48.55408909915435" lon="3.337509400518501"><ele>100.19999999999999</ele><time>2026-04-13T08:09:13Z</time></trkpt><trkpt lat="48.55407248738885" lon="3.3376915354442445"><ele>99.80000000000001</ele><time>2026-04-13T08:09:15Z</time></trkpt><trkpt lat="48.55405589434067" lon="3.337869241324004"><ele>99.4</ele><time>2026-04-13T08:09:17Z</time></trkpt><trkpt lat="48.554033225433905" lon="3.338050982987605"><ele>99.0</ele><time>2026-04-13T08:09:19Z</time></trkpt><trkpt lat="48.55402507599692" lon="3.3381456447591735"><ele>98.5</ele><time>2026-04-13T08:09:20Z</time></trkpt><trkpt lat="48.554003716882946" lon="3.3383329180402064"><ele>98.0</ele><time>2026-04-13T08:09:22Z</time></trkpt><trkpt lat="48.553995328080894" lon="3.338431070586309"><ele>97.5</ele><time>2026-04-13T08:09:23Z</time></trkpt><trkpt lat="48.5539800733889" lon="3.33852673653865"><ele>97.0</ele><time>2026-04-13T08:09:24Z</time></trkpt><trkpt lat="48.553968560197156" lon="3.338621861615315"><ele>96.5</ele><time>2026-04-13T08:09:25Z</time></trkpt><trkpt lat="48.553935911095486" lon="3.3388003010427143"><ele>96.0</ele><time>2026-04-13T08:09:27Z</time></trkpt><trkpt lat="48.55389748520453" lon="3.3389807038013166"><ele>95.6</ele><time>2026-04-13T08:09:29Z</time></trkpt><trkpt lat="48.55385424186273" lon="3.339156129107557"><ele>95.19999999999999</ele><time>2026-04-13T08:09:31Z</time></trkpt><trkpt lat="48.553807510084006" lon="3.3393272093738853"><ele>94.80000000000001</ele><time>2026-04-13T08:09:33Z</time></trkpt><trkpt lat="48.553750984362" lon="3.3394976997215937"><ele>94.4</ele><time>2026-04-13T08:09:35Z</time></trkpt><trkpt lat="48.553717766736916" lon="3.3395844801678"><ele>94.0</ele><time>2026-04-13T08:09:36Z</time></trkpt><trkpt lat="48.553687188533914" lon="3.3396730791360496"><ele>95.42857142857143</ele><time>2026-04-13T08:09:37Z</time></trkpt><trkpt lat="48.55365401627261" lon="3.3397645749904004"><ele>96.85714285714286</ele><time>2026-04-13T08:09:38Z</time></trkpt><trkpt lat="48.55362477001648" lon="3.339854523587364"><ele>98.28571428571428</ele><time>2026-04-13T08:09:39Z</time></trkpt><trkpt lat="48.553599059134164" lon="3.339946268686345"><ele>99.71428571428572</ele><time>2026-04-13T08:09:40Z</time></trkpt><trkpt lat="48.55356742936798" lon="3.3400321468887393"><ele>101.14285714285715</ele><time>2026-04-13T08:09:41Z</time></trkpt><trkpt lat="48.55353920673055" lon="3.3401187170645597"><ele>102.57142857142857</ele><time>2026-04-13T08:09:42Z</time></trkpt><trkpt lat="48.553510864047304" lon="3.3402065400247722"><ele>104.0</ele><time>2026-04-13T08:09:43Z</time></trkpt><trkpt lat="48.55347943502659" lon="3.3402927943861838"><ele>103.99999999999999</ele><time>2026-04-13T08:09:44Z</time></trkpt><trkpt lat="48.553449640964196" lon="3.3403780334968105"><ele>104.0</ele><time>2026-04-13T08:09:45Z</time></trkpt><trkpt lat="48.553419345673845" lon="3.3404627199903407"><ele>104.0</ele><time>2026-04-13T08:09:46Z</time></trkpt><trkpt lat="48.55337160440257" lon="3.3406346473391553"><ele>104.0</ele><time>2026-04-13T08:09:48Z</time></trkpt><trkpt lat="48.553342178107634" lon="3.3407224954384547"><ele>103.99999999999999</ele><time>2026-04-13T08:09:49Z</time></trkpt><trkpt lat="48.55327764577359" lon="3.3408865965649444"><ele>104.0</ele><time>2026-04-13T08:09:51Z</time></trkpt><trkpt lat="48.55323029827214" lon="3.341064048835143"><ele>103.42857142857143</ele><time>2026-04-13T08:09:53Z</time></trkpt><trkpt lat="48.55318604210304" lon="3.341246124511368"><ele>102.85714285714286</ele><time>2026-04-13T08:09:55Z</time></trkpt><trkpt lat="48.55316435065665" lon="3.341338491049324"><ele>102.28571428571429</ele><time>2026-04-13T08:09:56Z</time></trkpt><trkpt lat="48.553142465276785" lon="3.3414286047959516"><ele>101.71428571428572</ele><time>2026-04-13T08:09:57Z</time></trkpt><trkpt lat="48.55312585405383" lon="3.3415216328279493"><ele>101.14285714285714</ele><time>2026-04-13T08:09:58Z</time></trkpt><trkpt lat="48.55311050296097" lon="3.3416159989646097"><ele>100.57142857142858</ele><time>2026-04-13T08:09:59Z</time></trkpt><trkpt lat="48.553097225938124" lon="3.3417091910386882"><ele>100.0</ele><time>2026-04-13T08:10:00Z</time></trkpt><trkpt lat="48.55308538965829" lon="3.3418970251149474"><ele>99.83333333333334</ele><time>2026-04-13T08:10:02Z</time></trkpt><trkpt lat="48.55307082716113" lon="3.342084517841648"><ele>99.66666666666667</ele><time>2026-04-13T08:10:04Z</time></trkpt><trkpt lat="48.55306083988943" lon="3.342179382207094"><ele>99.5</ele><time>2026-04-13T08:10:05Z</time></trkpt><trkpt lat="48.553053509080456" lon="3.342273984455638"><ele>99.33333333333334</ele><time>2026-04-13T08:10:06Z</time></trkpt><trkpt lat="48.5530487032592" lon="3.342369327277079"><ele>99.16666666666667</ele><time>2026-04-13T08:10:07Z</time></trkpt><trkpt lat="48.553043159202325" lon="3.3425579571343924"><ele>99.0</ele><time>2026-04-13T08:10:09Z</time></trkpt><trkpt lat="48.553047368492706" lon="3.3426556314356954"><ele>99.0</ele><time>2026-04-13T08:10:10Z</time></trkpt><trkpt lat="48.553052679128" lon="3.342846064364827"><ele>99.0</ele><time>2026-04-13T08:10:12Z</time></trkpt><trkpt lat="48.55305342252305" lon="3.3430321628909456"><ele>99.0</ele><time>2026-04-13T08:10:14Z</time></trkpt><trkpt lat="48.55306001065392" lon="3.3432165507931466"><ele>99.0</ele><time>2026-04-13T08:10:16Z</time></trkpt><trkpt lat="48.55306056235903" lon="3.3433118300545632"><ele>99.0</ele><time>2026-04-13T08:10:17Z</time></trkpt><trkpt lat="48.55306509465457" lon="3.3434994295448526"><ele>98.83333333333333</ele><time>2026-04-13T08:10:19Z</time></trkpt><trkpt lat="48.553070354336526" lon="3.343686352783987"><ele>98.66666666666666</ele><time>2026-04-13T08:10:21Z</time></trkpt><trkpt lat="48.553071943549654" lon="3.343872751304113"><ele>98.5</ele><time>2026-04-13T08:10:23Z</time></trkpt><trkpt lat="48.55307442826934" lon="3.3439684347674428"><ele>98.33333333333333</ele><time>2026-04-13T08:10:24Z</time></trkpt><trkpt lat="48.55307813976818" lon="3.344067439685302"><ele>98.16666666666666</ele><time>2026-04-13T08:10:25Z</time></trkpt><trkpt lat="48.5530804162358" lon="3.3441662243473846"><ele>98.0</ele><time>2026-04-13T08:10:26Z</time></trkpt><trkpt lat="48.55308499540414" lon="3.3443569542787706"><ele>97.99999999999999</ele><time>2026-04-13T08:10:28Z</time></trkpt><trkpt lat="48.55308674538263" lon="3.3444527347372865"><ele>98.0</ele><time>2026-04-13T08:10:29Z</time></trkpt><trkpt lat="48.553089225069286" lon="3.3446440239900443"><ele>98.0</ele><time>2026-04-13T08:10:31Z</time></trkpt><trkpt lat="48.55309078480061" lon="3.344739164092186"><ele>98.0</ele><time>2026-04-13T08:10:32Z</time></trkpt><trkpt lat="48.55309163162359" lon="3.3448352340693033"><ele>97.99999999999999</ele><time>2026-04-13T08:10:33Z</time></trkpt><trkpt lat="48.5530928760028" lon="3.3449324937013007"><ele>98.0</ele><time>2026-04-13T08:10:34Z</time></trkpt><trkpt lat="48.55309727235145" lon="3.3451229292046536"><ele>98.28571428571429</ele><time>2026-04-13T08:10:36Z</time></trkpt><trkpt lat="48.553098619141906" lon="3.3452217918078406"><ele>98.57142857142857</ele><time>2026-04-13T08:10:37Z</time></trkpt><trkpt lat="48.5531003068023" lon="3.345318475022568"><ele>98.85714285714286</ele><time>2026-04-13T08:10:38Z</time></trkpt><trkpt lat="48.55310362822319" lon="3.345419867672368"><ele>99.14285714285714</ele><time>2026-04-13T08:10:39Z</time></trkpt><trkpt lat="48.55310635977855" lon="3.3455232678872706"><ele>99.42857142857143</ele><time>2026-04-13T08:10:40Z</time></trkpt><trkpt lat="48.55310586368615" lon="3.345621823051319"><ele>99.71428571428572</ele><time>2026-04-13T08:10:41Z</time></trkpt><trkpt lat="48.55311106626224" lon="3.3457250624009"><ele>100.0</ele><time>2026-04-13T08:10:42Z</time></trkpt><trkpt lat="48.55311279941803" lon="3.345825374478884"><ele>100.00000000000001</ele><time>2026-04-13T08:10:43Z</time></trkpt><trkpt lat="48.55311581778916" lon="3.3459251776007717"><ele>100.0</ele><time>2026-04-13T08:10:44Z</time></trkpt><trkpt lat="48.55311906383386" lon="3.3460274271116566"><ele>100.0</ele><time>2026-04-13T08:10:45Z</time></trkpt><trkpt lat="48.553120983681524" lon="3.346131490245206"><ele>100.0</ele><time>2026-04-13T08:10:46Z</time></trkpt><trkpt lat="48.55312284673337" lon="3.346231608307773"><ele>100.0</ele><time>2026-04-13T08:10:47Z</time></trkpt><trkpt lat="48.55312507133102" lon="3.3463332205482774"><ele>100.00000000000001</ele><time>2026-04-13T08:10:48Z</time></trkpt><trkpt lat="48.553127885260984" lon="3.346436845660455"><ele>100.0</ele><time>2026-04-13T08:10:49Z</time></trkpt><trkpt lat="48.55312923086941" lon="3.3465384788350976"><ele>100.00000000000001</ele><time>2026-04-13T08:10:50Z</time></trkpt><trkpt lat="48.55313138406756" lon="3.3466375183407093"><ele>100.0</ele><time>2026-04-13T08:10:51Z</time></trkpt><trkpt lat="48.553133467319974" lon="3.3467375088267124"><ele>100.0</ele><time>2026-04-13T08:10:52Z</time></trkpt><trkpt lat="48.55313735653362" lon="3.3469186065815877"><ele>100.0</ele><time>2026-04-13T08:10:54Z</time></trkpt><trkpt lat="48.553143775439636" lon="3.34709875699081"><ele>100.00000000000001</ele><time>2026-04-13T08:10:56Z</time></trkpt><trkpt lat="48.55314571093302" lon="3.347194106838865"><ele>100.0</ele><time>2026-04-13T08:10:57Z</time></trkpt><trkpt lat="48.55314560195949" lon="3.347290028174048"><ele>100.00000000000001</ele><time>2026-04-13T08:10:58Z</time></trkpt><trkpt lat="48.55314969831439" lon="3.347480118114516"><ele>100.0</ele><time>2026-04-13T08:11:00Z</time></trkpt><trkpt lat="48.553151569160256" lon="3.3475772281793468"><ele>100.0</ele><time>2026-04-13T08:11:01Z</time></trkpt><trkpt lat="48.553154268722764" lon="3.3476750376292497"><ele>100.0</ele><time>2026-04-13T08:11:02Z</time></trkpt><trkpt lat="48.55315728923449" lon="3.347770989112501"><ele>100.00000000000001</ele><time>2026-04-13T08:11:03Z</time></trkpt><trkpt lat="48.55315928832756" lon="3.3478693317093735"><ele>100.0</ele><time>2026-04-13T08:11:04Z</time></trkpt><trkpt lat="48.55316155452319" lon="3.3479689129579744"><ele>100.16666666666667</ele><time>2026-04-13T08:11:05Z</time></trkpt><trkpt lat="48.55316232113742" lon="3.348068110480651"><ele>100.33333333333334</ele><time>2026-04-13T08:11:06Z</time></trkpt><trkpt lat="48.553165702472015" lon="3.3481666738625657"><ele>100.5</ele><time>2026-04-13T08:11:07Z</time></trkpt><trkpt lat="48.5531780436773" lon="3.3483552699421413"><ele>100.66666666666666</ele><time>2026-04-13T08:11:09Z</time></trkpt><trkpt lat="48.55317508018437" lon="3.3484505533719986"><ele>100.83333333333333</ele><time>2026-04-13T08:11:10Z</time></trkpt><trkpt lat="48.553174929172535" lon="3.348639650012888"><ele>101.0</ele><time>2026-04-13T08:11:12Z</time></trkpt><trkpt lat="48.55318003325351" lon="3.3488244970493133"><ele>101.5</ele><time>2026-04-13T08:11:14Z</time></trkpt><trkpt lat="48.5531841709731" lon="3.3490083712175647"><ele>102.0</ele><time>2026-04-13T08:11:16Z</time></trkpt><trkpt lat="48.55318515604537" lon="3.349186915853379"><ele>102.5</ele><time>2026-04-13T08:11:18Z</time></trkpt><trkpt lat="48.55318644029877" lon="3.3493592080745347"><ele>103.0</ele><time>2026-04-13T08:11:20Z</time></trkpt><trkpt lat="48.55319085912643" lon="3.349534311067249"><ele>102.75</ele><time>2026-04-13T08:11:22Z</time></trkpt><trkpt lat="48.55319397466364" lon="3.3497090111610954"><ele>102.5</ele><time>2026-04-13T08:11:24Z</time></trkpt><trkpt lat="48.55320008965482" lon="3.3498818195507383"><ele>102.25</ele><time>2026-04-13T08:11:26Z</time></trkpt><trkpt lat="48.55320405313015" lon="3.3500588980407033"><ele>102.0</ele><time>2026-04-13T08:11:28Z</time></trkpt><trkpt lat="48.55320277906776" lon="3.350232380270294"><ele>102.0</ele><time>2026-04-13T08:11:30Z</time></trkpt><trkpt lat="48.5532093742746" lon="3.3504068671583114"><ele>102.0</ele><time>2026-04-13T08:11:32Z</time></trkpt><trkpt lat="48.5532187084193" lon="3.350580046885261"><ele>102.0</ele><time>2026-04-13T08:11:34Z</time></trkpt><trkpt lat="48.553230296590286" lon="3.3507540118133567"><ele>102.0</ele><time>2026-04-13T08:11:36Z</time></trkpt><trkpt lat="48.553251792158925" lon="3.3509291459708286"><ele>103.75</ele><time>2026-04-13T08:11:38Z</time></trkpt><trkpt lat="48.553289292784136" lon="3.351095125908235"><ele>105.5</ele><time>2026-04-13T08:11:40Z</time></trkpt><trkpt lat="48.55332561744619" lon="3.351267540172812"><ele>107.25</ele><time>2026-04-13T08:11:42Z</time></trkpt><trkpt lat="48.55335527982712" lon="3.351443193369011"><ele>109.0</ele><time>2026-04-13T08:11:44Z</time></trkpt><trkpt lat="48.55339233062709" lon="3.351618177683704"><ele>110.0</ele><time>2026-04-13T08:11:46Z</time></trkpt><trkpt lat="48.55343534807371" lon="3.3517868642689814"><ele>111.0</ele><time>2026-04-13T08:11:48Z</time></trkpt><trkpt lat="48.553474915815144" lon="3.351955656908648"><ele>112.0</ele><time>2026-04-13T08:11:50Z</time></trkpt><trkpt lat="48.55352284632484" lon="3.3521187886357495"><ele>113.0</ele><time>2026-04-13T08:11:52Z</time></trkpt><trkpt lat="48.55357538957211" lon="3.3522828903625954"><ele>114.0</ele><time>2026-04-13T08:11:54Z</time></trkpt><trkpt lat="48.55362567487247" lon="3.352447960018908"><ele>115.0</ele><time>2026-04-13T08:11:56Z</time></trkpt><trkpt lat="48.55368249268185" lon="3.3526129550526917"><ele>116.0</ele><time>2026-04-13T08:11:58Z</time></trkpt><trkpt lat="48.55373508255575" lon="3.352776972228506"><ele>117.0</ele><time>2026-04-13T08:12:00Z</time></trkpt><trkpt lat="48.553784639133426" lon="3.3529415519155905"><ele>115.39999999999999</ele><time>2026-04-13T08:12:02Z</time></trkpt><trkpt lat="48.55383953984539" lon="3.3531084538998104"><ele>113.79999999999998</ele><time>2026-04-13T08:12:04Z</time></trkpt><trkpt lat="48.553892009132824" lon="3.3532762464094006"><ele>112.2</ele><time>2026-04-13T08:12:06Z</time></trkpt><trkpt lat="48.55391952365366" lon="3.353362426848656"><ele>110.6</ele><time>2026-04-13T08:12:07Z</time></trkpt><trkpt lat="48.55394979740512" lon="3.3534471297359936"><ele>109.0</ele><time>2026-04-13T08:12:08Z</time></trkpt><trkpt lat="48.55400351931557" lon="3.3536151595432897"><ele>109.00000000000001</ele><time>2026-04-13T08:12:10Z</time></trkpt><trkpt lat="48.55403158980789" lon="3.353700832045537"><ele>109.0</ele><time>2026-04-13T08:12:11Z</time></trkpt><trkpt lat="48.55408207290898" lon="3.3538742706849844"><ele>109.0</ele><time>2026-04-13T08:12:13Z</time></trkpt><trkpt lat="48.55413979918762" lon="3.354043340083457"><ele>109.0</ele><time>2026-04-13T08:12:15Z</time></trkpt><trkpt lat="48.554169412763684" lon="3.3541304537119334"><ele>109.00000000000001</ele><time>2026-04-13T08:12:16Z</time></trkpt><trkpt lat="48.554203218498856" lon="3.3542132448839292"><ele>109.0</ele><time>2026-04-13T08:12:17Z</time></trkpt><trkpt lat="48.55422972959018" lon="3.3543032520405784"><ele>109.57142857142857</ele><time>2026-04-13T08:12:18Z</time></trkpt><trkpt lat="48.55425321317806" lon="3.354394107695495"><ele>110.14285714285714</ele><time>2026-04-13T08:12:19Z</time></trkpt><trkpt lat="48.554282044713744" lon="3.3544865156287864"><ele>110.71428571428572</ele><time>2026-04-13T08:12:20Z</time></trkpt><trkpt lat="48.5543096746995" lon="3.354574569484219"><ele>111.28571428571428</ele><time>2026-04-13T08:12:21Z</time></trkpt><trkpt lat="48.554337619942046" lon="3.3546623723631805"><ele>111.85714285714285</ele><time>2026-04-13T08:12:22Z</time></trkpt><trkpt lat="48.55436935682791" lon="3.354754053570534"><ele>112.42857142857143</ele><time>2026-04-13T08:12:23Z</time></trkpt><trkpt lat="48.55439369390651" lon="3.354849332755096"><ele>113.0</ele><time>2026-04-13T08:12:24Z</time></trkpt><trkpt lat="48.554424328834415" lon="3.3549427383557835"><ele>113.71428571428572</ele><time>2026-04-13T08:12:25Z</time></trkpt><trkpt lat="48.55445747808592" lon="3.3550343567395746"><ele>114.42857142857142</ele><time>2026-04-13T08:12:26Z</time></trkpt><trkpt lat="48.55447922911776" lon="3.3551291539717054"><ele>115.14285714285714</ele><time>2026-04-13T08:12:27Z</time></trkpt><trkpt lat="48.55449606775422" lon="3.3552277424014982"><ele>115.85714285714286</ele><time>2026-04-13T08:12:28Z</time></trkpt><trkpt lat="48.5545138353079" lon="3.355331400169025"><ele>116.57142857142858</ele><time>2026-04-13T08:12:29Z</time></trkpt><trkpt lat="48.55453177564737" lon="3.3554331434691016"><ele>117.28571428571428</ele><time>2026-04-13T08:12:30Z</time></trkpt><trkpt lat="48.554549190057735" lon="3.35554199087774"><ele>118.0</ele><time>2026-04-13T08:12:31Z</time></trkpt><trkpt lat="48.55455601049371" lon="3.3556513903485286"><ele>115.85714285714285</ele><time>2026-04-13T08:12:32Z</time></trkpt><trkpt lat="48.554560895823386" lon="3.3557638123253524"><ele>113.71428571428572</ele><time>2026-04-13T08:12:33Z</time></trkpt><trkpt lat="48.55456553505239" lon="3.3558729415386224"><ele>111.57142857142857</ele><time>2026-04-13T08:12:34Z</time></trkpt><trkpt lat="48.554564633870264" lon="3.3559801367205164"><ele>109.42857142857142</ele><time>2026-04-13T08:12:35Z</time></trkpt><trkpt lat="48.554564021880694" lon="3.3560901955462037"><ele>107.28571428571428</ele><time>2026-04-13T08:12:36Z</time></trkpt><trkpt lat="48.554563134736796" lon="3.3561999758252172"><ele>105.14285714285714</ele><time>2026-04-13T08:12:37Z</time></trkpt><trkpt lat="48.55456203248314" lon="3.356308735219307"><ele>103.0</ele><time>2026-04-13T08:12:38Z</time></trkpt><trkpt lat="48.55456003127664" lon="3.356417299377586"><ele>102.99999999999999</ele><time>2026-04-13T08:12:39Z</time></trkpt><trkpt lat="48.554563866078325" lon="3.35652512643112"><ele>103.0</ele><time>2026-04-13T08:12:40Z</time></trkpt><trkpt lat="48.554566921888615" lon="3.356636272750064"><ele>103.0</ele><time>2026-04-13T08:12:41Z</time></trkpt><trkpt lat="48.554566894096475" lon="3.3567435529485934"><ele>103.0</ele><time>2026-04-13T08:12:42Z</time></trkpt><trkpt lat="48.55456301887696" lon="3.3568552001679386"><ele>103.0</ele><time>2026-04-13T08:12:43Z</time></trkpt><trkpt lat="48.554563528415535" lon="3.356965863626379"><ele>102.99999999999999</ele><time>2026-04-13T08:12:44Z</time></trkpt><trkpt lat="48.55456891843947" lon="3.3570753790974743"><ele>103.0</ele><time>2026-04-13T08:12:45Z</time></trkpt><trkpt lat="48.55457312105671" lon="3.3571874977865614"><ele>103.42857142857142</ele><time>2026-04-13T08:12:46Z</time></trkpt><trkpt lat="48.5545774638155" lon="3.3572995492967386"><ele>103.85714285714286</ele><time>2026-04-13T08:12:47Z</time></trkpt><trkpt lat="48.55458282665916" lon="3.3574103812218796"><ele>104.28571428571428</ele><time>2026-04-13T08:12:48Z</time></trkpt><trkpt lat="48.55458898295764" lon="3.357522786013485"><ele>104.71428571428571</ele><time>2026-04-13T08:12:49Z</time></trkpt><trkpt lat="48.554599040163055" lon="3.3576320625794387"><ele>105.14285714285714</ele><time>2026-04-13T08:12:50Z</time></trkpt><trkpt lat="48.554607165274255" lon="3.357742502763775"><ele>105.57142857142857</ele><time>2026-04-13T08:12:51Z</time></trkpt><trkpt lat="48.55461774344296" lon="3.357853752566629"><ele>106.0</ele><time>2026-04-13T08:12:52Z</time></trkpt><trkpt lat="48.55463175246377" lon="3.357960805174568"><ele>106.14285714285715</ele><time>2026-04-13T08:12:53Z</time></trkpt><trkpt lat="48.5546516257698" lon="3.3580700314782983"><ele>106.28571428571428</ele><time>2026-04-13T08:12:54Z</time></trkpt><trkpt lat="48.554668492888574" lon="3.3581772945790025"><ele>106.42857142857143</ele><time>2026-04-13T08:12:55Z</time></trkpt><trkpt lat="48.554681152261786" lon="3.358289580512444"><ele>106.57142857142858</ele><time>2026-04-13T08:12:56Z</time></trkpt><trkpt lat="48.55469430124487" lon="3.3583989726357473"><ele>106.71428571428572</ele><time>2026-04-13T08:12:57Z</time></trkpt><trkpt lat="48.554711009422896" lon="3.358511138564828"><ele>106.85714285714286</ele><time>2026-04-13T08:12:58Z</time></trkpt><trkpt lat="48.55472461013629" lon="3.3586227189283107"><ele>107.0</ele><time>2026-04-13T08:12:59Z</time></trkpt><trkpt lat="48.554741802417134" lon="3.3587334604032875"><ele>107.00000000000001</ele><time>2026-04-13T08:13:00Z</time></trkpt><trkpt lat="48.554758157513675" lon="3.3588427747951357"><ele>107.0</ele><time>2026-04-13T08:13:01Z</time></trkpt><trkpt lat="48.5547758624847" lon="3.358954043274646"><ele>107.0</ele><time>2026-04-13T08:13:02Z</time></trkpt><trkpt lat="48.554790175956875" lon="3.3590660806881854"><ele>107.0</ele><time>2026-04-13T08:13:03Z</time></trkpt><trkpt lat="48.55480349257843" lon="3.359176746117473"><ele>107.0</ele><time>2026-04-13T08:13:04Z</time></trkpt><trkpt lat="48.55481789406192" lon="3.359288118040878"><ele>107.00000000000001</ele><time>2026-04-13T08:13:05Z</time></trkpt><trkpt lat="48.5548327896049" lon="3.359398249759345"><ele>107.0</ele><time>2026-04-13T08:13:06Z</time></trkpt><trkpt lat="48.554848253300776" lon="3.3595074326289818"><ele>107.57142857142858</ele><time>2026-04-13T08:13:07Z</time></trkpt><trkpt lat="48.554864295549095" lon="3.359617067727737"><ele>108.14285714285714</ele><time>2026-04-13T08:13:08Z</time></trkpt><trkpt lat="48.55488192683792" lon="3.3597259009084475"><ele>108.71428571428572</ele><time>2026-04-13T08:13:09Z</time></trkpt><trkpt lat="48.55489705386278" lon="3.3598258418999722"><ele>109.28571428571429</ele><time>2026-04-13T08:13:10Z</time></trkpt><trkpt lat="48.55491782208081" lon="3.3599247969232064"><ele>109.85714285714286</ele><time>2026-04-13T08:13:11Z</time></trkpt><trkpt lat="48.554943370877375" lon="3.3600231951859065"><ele>110.42857142857143</ele><time>2026-04-13T08:13:12Z</time></trkpt><trkpt lat="48.55496431817441" lon="3.3601256766553584"><ele>111.0</ele><time>2026-04-13T08:13:13Z</time></trkpt><trkpt lat="48.55498818612498" lon="3.360225890567782"><ele>111.14285714285714</ele><time>2026-04-13T08:13:14Z</time></trkpt><trkpt lat="48.55502036313904" lon="3.360323377626536"><ele>111.28571428571429</ele><time>2026-04-13T08:13:15Z</time></trkpt><trkpt lat="48.555055161060025" lon="3.3604163977494323"><ele>111.42857142857143</ele><time>2026-04-13T08:13:16Z</time></trkpt><trkpt lat="48.555094610967004" lon="3.360504029463836"><ele>111.57142857142857</ele><time>2026-04-13T08:13:17Z</time></trkpt><trkpt lat="48.55513100564861" lon="3.3605930161666238"><ele>111.71428571428572</ele><time>2026-04-13T08:13:18Z</time></trkpt><trkpt lat="48.55516863276066" lon="3.360680515625294"><ele>111.85714285714286</ele><time>2026-04-13T08:13:19Z</time></trkpt><trkpt lat="48.55520692016751" lon="3.36076341161773"><ele>112.0</ele><time>2026-04-13T08:13:20Z</time></trkpt><trkpt lat="48.555247492703316" lon="3.360845268901603"><ele>112.33333333333334</ele><time>2026-04-13T08:13:21Z</time></trkpt><trkpt lat="48.555289588836985" lon="3.3609216843534377"><ele>112.66666666666667</ele><time>2026-04-13T08:13:22Z</time></trkpt><trkpt lat="48.55536621745026" lon="3.3610739971989854"><ele>113.0</ele><time>2026-04-13T08:13:24Z</time></trkpt><trkpt lat="48.555401673300786" lon="3.3611538568031216"><ele>113.33333333333334</ele><time>2026-04-13T08:13:25Z</time></trkpt><trkpt lat="48.555441724625545" lon="3.3612309639074702"><ele>113.66666666666667</ele><time>2026-04-13T08:13:26Z</time></trkpt><trkpt lat="48.555513074987076" lon="3.3613825500020584"><ele>114.0</ele><time>2026-04-13T08:13:28Z</time></trkpt><trkpt lat="48.555545788042316" lon="3.3614658444965704"><ele>114.28571428571428</ele><time>2026-04-13T08:13:29Z</time></trkpt><trkpt lat="48.55558025799156" lon="3.361548768477465"><ele>114.57142857142856</ele><time>2026-04-13T08:13:30Z</time></trkpt><trkpt lat="48.55564173313118" lon="3.3617125591600643"><ele>114.85714285714286</ele><time>2026-04-13T08:13:32Z</time></trkpt><trkpt lat="48.5556714286108" lon="3.3618003543794917"><ele>115.14285714285714</ele><time>2026-04-13T08:13:33Z</time></trkpt><trkpt lat="48.55570150427884" lon="3.3618880168320215"><ele>115.42857142857143</ele><time>2026-04-13T08:13:34Z</time></trkpt><trkpt lat="48.55573127665529" lon="3.361972986773233"><ele>115.71428571428572</ele><time>2026-04-13T08:13:35Z</time></trkpt><trkpt lat="48.55575942684939" lon="3.3620597279398763"><ele>116.00000000000001</ele><time>2026-04-13T08:13:36Z</time></trkpt><trkpt lat="48.55581206374267" lon="3.3622309211039267"><ele>116.0</ele><time>2026-04-13T08:13:38Z</time></trkpt><trkpt lat="48.55585184575978" lon="3.3623956745539396"><ele>116.0</ele><time>2026-04-13T08:13:40Z</time></trkpt><trkpt lat="48.555892173643635" lon="3.3625391785660796"><ele>116.0</ele><time>2026-04-13T08:13:42Z</time></trkpt><trkpt lat="48.555925294307656" lon="3.362680359837688"><ele>116.0</ele><time>2026-04-13T08:13:44Z</time></trkpt><trkpt lat="48.555951140587084" lon="3.362803509454139"><ele>116.0</ele><time>2026-04-13T08:13:46Z</time></trkpt><trkpt lat="48.55597241281027" lon="3.3628998709964137"><ele>115.99999999999999</ele><time>2026-04-13T08:13:48Z</time></trkpt><trkpt lat="48.55597376838267" lon="3.3629964859640253"><ele>116.0</ele><time>2026-04-13T08:13:50Z</time></trkpt><trkpt lat="48.555864256414175" lon="3.3630090010205707"><ele>116.0</ele><time>2026-04-13T08:13:54Z</time></trkpt><trkpt lat="48.55581387152001" lon="3.3629208882284973"><ele>116.0</ele><time>2026-04-13T08:13:56Z</time></trkpt><trkpt lat="48.55575497067703" lon="3.36285123960925"><ele>115.99999999999999</ele><time>2026-04-13T08:13:58Z</time></trkpt><trkpt lat="48.55570095134349" lon="3.3627764686060955"><ele>116.0</ele><time>2026-04-13T08:14:00Z</time></trkpt><trkpt lat="48.555641173013605" lon="3.3627002366193675"><ele>115.99999999999999</ele><time>2026-04-13T08:14:02Z</time></trkpt><trkpt lat="48.555593787722515" lon="3.362628381264395"><ele>116.0</ele><time>2026-04-13T08:14:05Z</time></trkpt><trkpt lat="48.555503114407905" lon="3.3625123127458196"><ele>116.0</ele><time>2026-04-13T08:14:07Z</time></trkpt><trkpt lat="48.55544949635356" lon="3.362442612705509"><ele>116.0</ele><time>2026-04-13T08:14:09Z</time></trkpt><trkpt lat="48.555391012442755" lon="3.3623685383553097"><ele>115.99999999999999</ele><time>2026-04-13T08:14:11Z</time></trkpt><trkpt lat="48.555333248890435" lon="3.362292130826587"><ele>116.0</ele><time>2026-04-13T08:14:13Z</time></trkpt><trkpt lat="48.5552756744695" lon="3.362218492523104"><ele>116.49999999999999</ele><time>2026-04-13T08:14:15Z</time></trkpt><trkpt lat="48.555217142354586" lon="3.3621437433742467"><ele>117.0</ele><time>2026-04-13T08:14:17Z</time></trkpt><trkpt lat="48.55515642675851" lon="3.3620615260121376"><ele>117.5</ele><time>2026-04-13T08:14:19Z</time></trkpt><trkpt lat="48.555092039925476" lon="3.361982056386007"><ele>118.0</ele><time>2026-04-13T08:14:21Z</time></trkpt><trkpt lat="48.55503417790564" lon="3.361900075635016"><ele>118.49999999999999</ele><time>2026-04-13T08:14:23Z</time></trkpt><trkpt lat="48.554970878066854" lon="3.3618222675608327"><ele>119.0</ele><time>2026-04-13T08:14:25Z</time></trkpt><trkpt lat="48.554909093148574" lon="3.3617412376362084"><ele>118.99999999999999</ele><time>2026-04-13T08:14:27Z</time></trkpt><trkpt lat="48.55484558340209" lon="3.361658915307864"><ele>119.0</ele><time>2026-04-13T08:14:29Z</time></trkpt><trkpt lat="48.55478459328761" lon="3.3615736590837484"><ele>119.0</ele><time>2026-04-13T08:14:31Z</time></trkpt><trkpt lat="48.55471965304911" lon="3.3614884390843645"><ele>119.0</ele><time>2026-04-13T08:14:33Z</time></trkpt><trkpt lat="48.55465583854544" lon="3.361403064555822"><ele>118.99999999999999</ele><time>2026-04-13T08:14:35Z</time></trkpt><trkpt lat="48.554589689902485" lon="3.3613169370764973"><ele>119.0</ele><time>2026-04-13T08:14:37Z</time></trkpt><trkpt lat="48.554523718188804" lon="3.361226832531474"><ele>119.99999999999999</ele><time>2026-04-13T08:14:39Z</time></trkpt><trkpt lat="48.554455702706385" lon="3.3611419649218037"><ele>121.0</ele><time>2026-04-13T08:14:41Z</time></trkpt><trkpt lat="48.554388344747544" lon="3.3610519209880367"><ele>122.0</ele><time>2026-04-13T08:14:43Z</time></trkpt><trkpt lat="48.55431756632951" lon="3.360965928272652"><ele>123.0</ele><time>2026-04-13T08:14:45Z</time></trkpt><trkpt lat="48.55425020420502" lon="3.3608807080435787"><ele>123.99999999999999</ele><time>2026-04-13T08:14:47Z</time></trkpt><trkpt lat="48.55418069217119" lon="3.3607958055455818"><ele>125.0</ele><time>2026-04-13T08:14:49Z</time></trkpt><trkpt lat="48.554112060683785" lon="3.3607108606295664"><ele>124.99999999999999</ele><time>2026-04-13T08:14:51Z</time></trkpt><trkpt lat="48.55404189809581" lon="3.360631664197563"><ele>125.0</ele><time>2026-04-13T08:14:53Z</time></trkpt><trkpt lat="48.55397101624429" lon="3.3605579564905144"><ele>125.0</ele><time>2026-04-13T08:14:55Z</time></trkpt><trkpt lat="48.55390065537175" lon="3.3604739977800326"><ele>125.0</ele><time>2026-04-13T08:14:57Z</time></trkpt><trkpt lat="48.553835762269834" lon="3.3603959201467593"><ele>124.99999999999999</ele><time>2026-04-13T08:14:59Z</time></trkpt><trkpt lat="48.55376966223411" lon="3.3603251868450092"><ele>125.0</ele><time>2026-04-13T08:15:01Z</time></trkpt><trkpt lat="48.55370344714825" lon="3.3602588308055847"><ele>125.66666666666666</ele><time>2026-04-13T08:15:03Z</time></trkpt><trkpt lat="48.55363692394939" lon="3.3601864011781246"><ele>126.33333333333333</ele><time>2026-04-13T08:15:05Z</time></trkpt><trkpt lat="48.5535683172783" lon="3.3601226020330346"><ele>127.0</ele><time>2026-04-13T08:15:07Z</time></trkpt><trkpt lat="48.553498233903774" lon="3.360059192609647"><ele>127.66666666666666</ele><time>2026-04-13T08:15:09Z</time></trkpt><trkpt lat="48.55343019545043" lon="3.3599943607407092"><ele>128.33333333333334</ele><time>2026-04-13T08:15:11Z</time></trkpt><trkpt lat="48.55336225120192" lon="3.359931563942616"><ele>129.0</ele><time>2026-04-13T08:15:13Z</time></trkpt><trkpt lat="48.5532918787913" lon="3.359875580848228"><ele>129.0</ele><time>2026-04-13T08:15:15Z</time></trkpt><trkpt lat="48.553222247308895" lon="3.3598234706200087"><ele>129.0</ele><time>2026-04-13T08:15:17Z</time></trkpt><trkpt lat="48.55315288112125" lon="3.359764526507827"><ele>129.0</ele><time>2026-04-13T08:15:19Z</time></trkpt><trkpt lat="48.55308101878547" lon="3.3597121695071177"><ele>129.0</ele><time>2026-04-13T08:15:21Z</time></trkpt><trkpt lat="48.55300944507025" lon="3.359653861423959"><ele>129.0</ele><time>2026-04-13T08:15:23Z</time></trkpt><trkpt lat="48.55293339025768" lon="3.359603906092473"><ele>129.0</ele><time>2026-04-13T08:15:25Z</time></trkpt><trkpt lat="48.552858780051864" lon="3.3595554066636306"><ele>129.16666666666666</ele><time>2026-04-13T08:15:27Z</time></trkpt><trkpt lat="48.55278328064064" lon="3.359511556812379"><ele>129.33333333333334</ele><time>2026-04-13T08:15:29Z</time></trkpt><trkpt lat="48.55270423783378" lon="3.3594607225853776"><ele>129.5</ele><time>2026-04-13T08:15:31Z</time></trkpt><trkpt lat="48.55262660723881" lon="3.3594131437625707"><ele>129.66666666666669</ele><time>2026-04-13T08:15:33Z</time></trkpt><trkpt lat="48.55255114768234" lon="3.359367854223652"><ele>129.83333333333334</ele><time>2026-04-13T08:15:35Z</time></trkpt><trkpt lat="48.552472517877206" lon="3.3593265741464493"><ele>130.0</ele><time>2026-04-13T08:15:37Z</time></trkpt><trkpt lat="48.55239996853292" lon="3.359269416309428"><ele>130.0</ele><time>2026-04-13T08:15:39Z</time></trkpt><trkpt lat="48.55231832837673" lon="3.3592240824277915"><ele>130.0</ele><time>2026-04-13T08:15:41Z</time></trkpt><trkpt lat="48.552240768926936" lon="3.3591720155389555"><ele>130.0</ele><time>2026-04-13T08:15:43Z</time></trkpt><trkpt lat="48.55216203839629" lon="3.3591225043885315"><ele>130.0</ele><time>2026-04-13T08:15:45Z</time></trkpt><trkpt lat="48.55208033550218" lon="3.359074346789442"><ele>130.0</ele><time>2026-04-13T08:15:47Z</time></trkpt><trkpt lat="48.55200662818732" lon="3.35902934123316"><ele>130.0</ele><time>2026-04-13T08:15:49Z</time></trkpt><trkpt lat="48.551942305067776" lon="3.3589913395370012"><ele>130.33333333333334</ele><time>2026-04-13T08:15:51Z</time></trkpt><trkpt lat="48.551867656985216" lon="3.358943998605164"><ele>130.66666666666669</ele><time>2026-04-13T08:15:53Z</time></trkpt><trkpt lat="48.55178754035465" lon="3.358895769842213"><ele>131.0</ele><time>2026-04-13T08:15:55Z</time></trkpt><trkpt lat="48.551706413919746" lon="3.358844666586737"><ele>131.33333333333334</ele><time>2026-04-13T08:15:57Z</time></trkpt><trkpt lat="48.55162501219105" lon="3.3587965951289283"><ele>131.66666666666666</ele><time>2026-04-13T08:15:59Z</time></trkpt><trkpt lat="48.5515421094989" lon="3.358750051612803"><ele>132.0</ele><time>2026-04-13T08:16:01Z</time></trkpt><trkpt lat="48.551461977838485" lon="3.3586924115466665"><ele>132.0</ele><time>2026-04-13T08:16:03Z</time></trkpt><trkpt lat="48.55138076167683" lon="3.3586460776307363"><ele>132.0</ele><time>2026-04-13T08:16:05Z</time></trkpt><trkpt lat="48.5512985206198" lon="3.3585944089279427"><ele>132.0</ele><time>2026-04-13T08:16:07Z</time></trkpt><trkpt lat="48.55121584908468" lon="3.35854368384663"><ele>132.0</ele><time>2026-04-13T08:16:09Z</time></trkpt><trkpt lat="48.55113415700328" lon="3.358497069553704"><ele>132.0</ele><time>2026-04-13T08:16:11Z</time></trkpt><trkpt lat="48.55105218770673" lon="3.3584482975179673"><ele>132.0</ele><time>2026-04-13T08:16:13Z</time></trkpt><trkpt lat="48.55097421056017" lon="3.3584006758570517"><ele>132.66666666666666</ele><time>2026-04-13T08:16:15Z</time></trkpt><trkpt lat="48.55089915636442" lon="3.358352185658919"><ele>133.33333333333334</ele><time>2026-04-13T08:16:17Z</time></trkpt><trkpt lat="48.55082406618625" lon="3.358308558695304"><ele>134.0</ele><time>2026-04-13T08:16:19Z</time></trkpt><trkpt lat="48.550748783304556" lon="3.358259478148392"><ele>134.66666666666669</ele><time>2026-04-13T08:16:21Z</time></trkpt><trkpt lat="48.55067163056865" lon="3.358212221599965"><ele>135.33333333333334</ele><time>2026-04-13T08:16:23Z</time></trkpt><trkpt lat="48.55059178191744" lon="3.3581691288996276"><ele>136.0</ele><time>2026-04-13T08:16:25Z</time></trkpt><trkpt lat="48.55051943700308" lon="3.3581170163301177"><ele>136.0</ele><time>2026-04-13T08:16:27Z</time></trkpt><trkpt lat="48.55044385683058" lon="3.358069301442893"><ele>136.0</ele><time>2026-04-13T08:16:29Z</time></trkpt><trkpt lat="48.55036655747562" lon="3.3580190550839526"><ele>136.0</ele><time>2026-04-13T08:16:31Z</time></trkpt><trkpt lat="48.55028954827458" lon="3.3579707324101253"><ele>136.0</ele><time>2026-04-13T08:16:33Z</time></trkpt><trkpt lat="48.55021155373632" lon="3.357918157830598"><ele>136.0</ele><time>2026-04-13T08:16:35Z</time></trkpt><trkpt lat="48.55013328167512" lon="3.357865340704132"><ele>136.0</ele><time>2026-04-13T08:16:37Z</time></trkpt><trkpt lat="48.55005651676539" lon="3.3578039202865355"><ele>137.0</ele><time>2026-04-13T08:16:39Z</time></trkpt><trkpt lat="48.54998199951749" lon="3.3577357687635145"><ele>138.0</ele><time>2026-04-13T08:16:41Z</time></trkpt><trkpt lat="48.549909888634126" lon="3.3576638617007077"><ele>139.0</ele><time>2026-04-13T08:16:43Z</time></trkpt><trkpt lat="48.54984068727056" lon="3.3575840772419494"><ele>140.0</ele><time>2026-04-13T08:16:45Z</time></trkpt><trkpt lat="48.54977063986842" lon="3.357494041224111"><ele>141.0</ele><time>2026-04-13T08:16:47Z</time></trkpt><trkpt lat="48.54970000837945" lon="3.357409680440198"><ele>142.0</ele><time>2026-04-13T08:16:49Z</time></trkpt><trkpt lat="48.54962807637117" lon="3.3573246527904197"><ele>142.0</ele><time>2026-04-13T08:16:51Z</time></trkpt><trkpt lat="48.54955600539694" lon="3.3572359544986425"><ele>142.0</ele><time>2026-04-13T08:16:53Z</time></trkpt><trkpt lat="48.54948715125005" lon="3.3571496394393003"><ele>142.0</ele><time>2026-04-13T08:16:55Z</time></trkpt><trkpt lat="48.549412665096135" lon="3.3570606606457485"><ele>142.0</ele><time>2026-04-13T08:16:57Z</time></trkpt><trkpt lat="48.549338841059225" lon="3.356974571861474"><ele>142.0</ele><time>2026-04-13T08:16:59Z</time></trkpt><trkpt lat="48.549262022283976" lon="3.356884941106723"><ele>142.4</ele><time>2026-04-13T08:17:01Z</time></trkpt><trkpt lat="48.54918714407497" lon="3.3567855484882942"><ele>142.79999999999998</ele><time>2026-04-13T08:17:03Z</time></trkpt><trkpt lat="48.54910536864758" lon="3.3566941086540614"><ele>143.2</ele><time>2026-04-13T08:17:05Z</time></trkpt><trkpt lat="48.549027295602514" lon="3.356598376384666"><ele>143.6</ele><time>2026-04-13T08:17:07Z</time></trkpt><trkpt lat="48.54894763985745" lon="3.3564966002270302"><ele>144.0</ele><time>2026-04-13T08:17:09Z</time></trkpt><trkpt lat="48.548866526681216" lon="3.3563969106317817"><ele>144.4</ele><time>2026-04-13T08:17:11Z</time></trkpt><trkpt lat="48.54878679896341" lon="3.356301419621818"><ele>144.8</ele><time>2026-04-13T08:17:13Z</time></trkpt><trkpt lat="48.54870312040457" lon="3.3562054333097042"><ele>145.2</ele><time>2026-04-13T08:17:15Z</time></trkpt><trkpt lat="48.548613350099885" lon="3.356107936715624"><ele>145.6</ele><time>2026-04-13T08:17:17Z</time></trkpt><trkpt lat="48.54852499226141" lon="3.3559992137721455"><ele>146.0</ele><time>2026-04-13T08:17:19Z</time></trkpt><trkpt lat="48.54843313351695" lon="3.3558924252270974"><ele>146.0</ele><time>2026-04-13T08:17:21Z</time></trkpt><trkpt lat="48.54834212188198" lon="3.355777469095962"><ele>146.0</ele><time>2026-04-13T08:17:23Z</time></trkpt><trkpt lat="48.54825433831551" lon="3.355665621557887"><ele>146.0</ele><time>2026-04-13T08:17:25Z</time></trkpt><trkpt lat="48.54816206848443" lon="3.355554792152402"><ele>146.0</ele><time>2026-04-13T08:17:27Z</time></trkpt><trkpt lat="48.548064779001145" lon="3.355444045762219"><ele>145.75</ele><time>2026-04-13T08:17:29Z</time></trkpt><trkpt lat="48.547973128963875" lon="3.3553312144264846"><ele>145.5</ele><time>2026-04-13T08:17:31Z</time></trkpt><trkpt lat="48.54787880772638" lon="3.355221945955624"><ele>145.25</ele><time>2026-04-13T08:17:33Z</time></trkpt><trkpt lat="48.54779070408211" lon="3.3551224608657244"><ele>145.0</ele><time>2026-04-13T08:17:35Z</time></trkpt><trkpt lat="48.54769622661562" lon="3.3550288727653874"><ele>145.0</ele><time>2026-04-13T08:17:37Z</time></trkpt><trkpt lat="48.54761454420571" lon="3.3549063995849977"><ele>145.0</ele><time>2026-04-13T08:17:39Z</time></trkpt><trkpt lat="48.54752349862195" lon="3.3547927555928663"><ele>145.0</ele><time>2026-04-13T08:17:41Z</time></trkpt><trkpt lat="48.54742789104813" lon="3.3546832291098867"><ele>145.0</ele><time>2026-04-13T08:17:43Z</time></trkpt><trkpt lat="48.54733590504" lon="3.3545717256234964"><ele>144.75</ele><time>2026-04-13T08:17:45Z</time></trkpt><trkpt lat="48.54724149625018" lon="3.3544602806577184"><ele>144.5</ele><time>2026-04-13T08:17:47Z</time></trkpt><trkpt lat="48.54714354254813" lon="3.3543650286951743"><ele>144.25</ele><time>2026-04-13T08:17:49Z</time></trkpt><trkpt lat="48.54705363423819" lon="3.3542466980734984"><ele>144.0</ele><time>2026-04-13T08:17:51Z</time></trkpt><trkpt lat="48.54695977351293" lon="3.354127887985616"><ele>144.0</ele><time>2026-04-13T08:17:53Z</time></trkpt><trkpt lat="48.546864030070374" lon="3.354008122854904"><ele>144.0</ele><time>2026-04-13T08:17:55Z</time></trkpt><trkpt lat="48.54677287830626" lon="3.3538938418349074"><ele>144.0</ele><time>2026-04-13T08:17:57Z</time></trkpt><trkpt lat="48.54667673786234" lon="3.3537750718357215"><ele>144.0</ele><time>2026-04-13T08:17:59Z</time></trkpt><trkpt lat="48.546626143913926" lon="3.3537169373459093"><ele>144.0</ele><time>2026-04-13T08:18:00Z</time></trkpt><trkpt lat="48.54652401387826" lon="3.35359701883236"><ele>144.00000000000003</ele><time>2026-04-13T08:18:02Z</time></trkpt><trkpt lat="48.54647328677322" lon="3.3535385833175075"><ele>144.0</ele><time>2026-04-13T08:18:03Z</time></trkpt><trkpt lat="48.54642167422442" lon="3.3534776327993527"><ele>144.0</ele><time>2026-04-13T08:18:04Z</time></trkpt><trkpt lat="48.546370046859394" lon="3.353416783213968"><ele>144.0</ele><time>2026-04-13T08:18:05Z</time></trkpt><trkpt lat="48.54631733709676" lon="3.3533607552914835"><ele>144.0</ele><time>2026-04-13T08:18:06Z</time></trkpt><trkpt lat="48.54626280639018" lon="3.353306155595566"><ele>144.00000000000003</ele><time>2026-04-13T08:18:07Z</time></trkpt><trkpt lat="48.54621024596477" lon="3.3532537632848087"><ele>144.0</ele><time>2026-04-13T08:18:08Z</time></trkpt><trkpt lat="48.54615653346821" lon="3.3532025316406564"><ele>144.16666666666666</ele><time>2026-04-13T08:18:09Z</time></trkpt><trkpt lat="48.546099326926736" lon="3.3531565757959907"><ele>144.33333333333334</ele><time>2026-04-13T08:18:10Z</time></trkpt><trkpt lat="48.546043279570064" lon="3.353111605404139"><ele>144.5</ele><time>2026-04-13T08:18:11Z</time></trkpt><trkpt lat="48.54593255743335" lon="3.353017128455107"><ele>144.66666666666669</ele><time>2026-04-13T08:18:13Z</time></trkpt><trkpt lat="48.54582196380996" lon="3.352928485645481"><ele>144.83333333333334</ele><time>2026-04-13T08:18:15Z</time></trkpt><trkpt lat="48.54576579597694" lon="3.35288424673097"><ele>145.0</ele><time>2026-04-13T08:18:16Z</time></trkpt><trkpt lat="48.545707802461095" lon="3.3528417374859374"><ele>145.0</ele><time>2026-04-13T08:18:17Z</time></trkpt><trkpt lat="48.54564758342743" lon="3.352806046853212"><ele>145.0</ele><time>2026-04-13T08:18:18Z</time></trkpt><trkpt lat="48.545533034391276" lon="3.352728991099631"><ele>145.0</ele><time>2026-04-13T08:18:20Z</time></trkpt><trkpt lat="48.54547691020314" lon="3.3526799889857575"><ele>145.0</ele><time>2026-04-13T08:18:21Z</time></trkpt><trkpt lat="48.54541853058355" lon="3.3526385967232737"><ele>145.0</ele><time>2026-04-13T08:18:22Z</time></trkpt><trkpt lat="48.54536081594691" lon="3.3525968236230086"><ele>145.0</ele><time>2026-04-13T08:18:23Z</time></trkpt><trkpt lat="48.54530270771749" lon="3.35255253518894"><ele>145.0</ele><time>2026-04-13T08:18:24Z</time></trkpt><trkpt lat="48.545244878137936" lon="3.3525129226869392"><ele>145.2</ele><time>2026-04-13T08:18:25Z</time></trkpt><trkpt lat="48.545185699487156" lon="3.352479232920058"><ele>145.4</ele><time>2026-04-13T08:18:26Z</time></trkpt><trkpt lat="48.54507128814334" lon="3.3524043085169097"><ele>145.6</ele><time>2026-04-13T08:18:28Z</time></trkpt><trkpt lat="48.544962486319534" lon="3.352305198201956"><ele>145.8</ele><time>2026-04-13T08:18:30Z</time></trkpt><trkpt lat="48.544847576091186" lon="3.35222585483556"><ele>146.0</ele><time>2026-04-13T08:18:32Z</time></trkpt><trkpt lat="48.544788652218955" lon="3.3521898091659668"><ele>146.0</ele><time>2026-04-13T08:18:33Z</time></trkpt><trkpt lat="48.54472899552298" lon="3.352152711378901"><ele>146.0</ele><time>2026-04-13T08:18:34Z</time></trkpt><trkpt lat="48.54467123250188" lon="3.3521086491615164"><ele>146.0</ele><time>2026-04-13T08:18:35Z</time></trkpt><trkpt lat="48.54456196958935" lon="3.352024929220318"><ele>146.0</ele><time>2026-04-13T08:18:37Z</time></trkpt><trkpt lat="48.54445577401571" lon="3.3519465471939913"><ele>146.0</ele><time>2026-04-13T08:18:39Z</time></trkpt><trkpt lat="48.54435184475038" lon="3.351874500531308"><ele>146.2</ele><time>2026-04-13T08:18:41Z</time></trkpt><trkpt lat="48.54425258550309" lon="3.3517944167923446"><ele>146.39999999999998</ele><time>2026-04-13T08:18:43Z</time></trkpt><trkpt lat="48.54415314186212" lon="3.3517272058448233"><ele>146.6</ele><time>2026-04-13T08:18:45Z</time></trkpt><trkpt lat="48.544058081097404" lon="3.3516573776366005"><ele>146.79999999999998</ele><time>2026-04-13T08:18:47Z</time></trkpt><trkpt lat="48.543958316787354" lon="3.351584977809591"><ele>147.0</ele><time>2026-04-13T08:18:49Z</time></trkpt><trkpt lat="48.5438486390754" lon="3.3515095520804383"><ele>147.0</ele><time>2026-04-13T08:18:51Z</time></trkpt><trkpt lat="48.54373890914321" lon="3.3514264441761448"><ele>147.0</ele><time>2026-04-13T08:18:53Z</time></trkpt><trkpt lat="48.54362599252583" lon="3.351347781811128"><ele>147.0</ele><time>2026-04-13T08:18:55Z</time></trkpt><trkpt lat="48.543567852099386" lon="3.3513070320730267"><ele>147.0</ele><time>2026-04-13T08:18:56Z</time></trkpt><trkpt lat="48.54345900041317" lon="3.3512306126007836"><ele>147.0</ele><time>2026-04-13T08:18:58Z</time></trkpt><trkpt lat="48.54335203021456" lon="3.3511547409977847"><ele>146.4</ele><time>2026-04-13T08:19:00Z</time></trkpt><trkpt lat="48.54324104465041" lon="3.3510761708223247"><ele>145.79999999999998</ele><time>2026-04-13T08:19:02Z</time></trkpt><trkpt lat="48.543181308810965" lon="3.351046117170047"><ele>145.2</ele><time>2026-04-13T08:19:03Z</time></trkpt><trkpt lat="48.543071900337004" lon="3.35096758203685"><ele>144.6</ele><time>2026-04-13T08:19:05Z</time></trkpt><trkpt lat="48.542967840679886" lon="3.3508852730693315"><ele>144.0</ele><time>2026-04-13T08:19:07Z</time></trkpt><trkpt lat="48.542868112825104" lon="3.3508133471311905"><ele>144.0</ele><time>2026-04-13T08:19:09Z</time></trkpt><trkpt lat="48.54277248777499" lon="3.350742985373876"><ele>144.0</ele><time>2026-04-13T08:19:11Z</time></trkpt><trkpt lat="48.54267835899853" lon="3.350685823475399"><ele>144.0</ele><time>2026-04-13T08:19:13Z</time></trkpt><trkpt lat="48.5425854695265" lon="3.350619250610175"><ele>144.0</ele><time>2026-04-13T08:19:15Z</time></trkpt><trkpt lat="48.542484693582765" lon="3.350555343581442"><ele>144.0</ele><time>2026-04-13T08:19:17Z</time></trkpt><trkpt lat="48.54238681665455" lon="3.35049978287302"><ele>143.8</ele><time>2026-04-13T08:19:19Z</time></trkpt><trkpt lat="48.54229262648003" lon="3.350458105437826"><ele>143.60000000000002</ele><time>2026-04-13T08:19:21Z</time></trkpt><trkpt lat="48.54218839810818" lon="3.350423598196389"><ele>143.4</ele><time>2026-04-13T08:19:23Z</time></trkpt><trkpt lat="48.5420878699795" lon="3.350375689901321"><ele>143.20000000000002</ele><time>2026-04-13T08:19:25Z</time></trkpt><trkpt lat="48.54199441789677" lon="3.3503275254814415"><ele>143.0</ele><time>2026-04-13T08:19:27Z</time></trkpt><trkpt lat="48.54189777959655" lon="3.350289337782371"><ele>143.5</ele><time>2026-04-13T08:19:29Z</time></trkpt><trkpt lat="48.541787844336845" lon="3.3502504543441054"><ele>144.0</ele><time>2026-04-13T08:19:31Z</time></trkpt><trkpt lat="48.541676781140914" lon="3.350213621372148"><ele>144.5</ele><time>2026-04-13T08:19:33Z</time></trkpt><trkpt lat="48.54156026968459" lon="3.3501707035605284"><ele>145.0</ele><time>2026-04-13T08:19:35Z</time></trkpt><trkpt lat="48.54144512185288" lon="3.35012205161228"><ele>145.0</ele><time>2026-04-13T08:19:37Z</time></trkpt><trkpt lat="48.54132927492305" lon="3.350049423904872"><ele>145.0</ele><time>2026-04-13T08:19:39Z</time></trkpt><trkpt lat="48.54126965881635" lon="3.3500178998848464"><ele>145.0</ele><time>2026-04-13T08:19:40Z</time></trkpt><trkpt lat="48.54120591248844" lon="3.3499908396974805"><ele>145.0</ele><time>2026-04-13T08:19:41Z</time></trkpt><trkpt lat="48.54108455220155" lon="3.3499476086201363"><ele>145.0</ele><time>2026-04-13T08:19:43Z</time></trkpt><trkpt lat="48.540963417137114" lon="3.349898239797702"><ele>144.8</ele><time>2026-04-13T08:19:45Z</time></trkpt><trkpt lat="48.54085053336625" lon="3.3498454270384945"><ele>144.6</ele><time>2026-04-13T08:19:47Z</time></trkpt><trkpt lat="48.540764889622345" lon="3.3498027158581176"><ele>144.4</ele><time>2026-04-13T08:19:49Z</time></trkpt><trkpt lat="48.54067614204958" lon="3.349767265597422"><ele>144.2</ele><time>2026-04-13T08:19:51Z</time></trkpt><trkpt lat="48.54058140181826" lon="3.34973766345967"><ele>144.0</ele><time>2026-04-13T08:19:53Z</time></trkpt><trkpt lat="48.54048750526465" lon="3.349717714422838"><ele>144.4</ele><time>2026-04-13T08:19:55Z</time></trkpt><trkpt lat="48.540391755302636" lon="3.3496782710540347"><ele>144.8</ele><time>2026-04-13T08:19:57Z</time></trkpt><trkpt lat="48.540300303222196" lon="3.349618868140818"><ele>145.2</ele><time>2026-04-13T08:19:59Z</time></trkpt><trkpt lat="48.540198780136635" lon="3.34958776824877"><ele>145.6</ele><time>2026-04-13T08:20:01Z</time></trkpt><trkpt lat="48.54010146325626" lon="3.3495595221415666"><ele>146.0</ele><time>2026-04-13T08:20:03Z</time></trkpt><trkpt lat="48.54000549651085" lon="3.3495351936257824"><ele>146.16666666666666</ele><time>2026-04-13T08:20:05Z</time></trkpt><trkpt lat="48.53991243729172" lon="3.3495034458039115"><ele>146.33333333333331</ele><time>2026-04-13T08:20:07Z</time></trkpt><trkpt lat="48.539824926681746" lon="3.3494645041194304"><ele>146.5</ele><time>2026-04-13T08:20:09Z</time></trkpt><trkpt lat="48.539752709098885" lon="3.349431363902531"><ele>146.66666666666666</ele><time>2026-04-13T08:20:11Z</time></trkpt><trkpt lat="48.53966898488107" lon="3.349396045908555"><ele>146.83333333333334</ele><time>2026-04-13T08:20:22Z</time></trkpt><trkpt lat="48.539604406952385" lon="3.3493692166330975"><ele>147.0</ele><time>2026-04-13T08:20:24Z</time></trkpt><trkpt lat="48.53952863300822" lon="3.349342797683545"><ele>147.0</ele><time>2026-04-13T08:20:26Z</time></trkpt><trkpt lat="48.539438461775255" lon="3.3493353491696563"><ele>147.0</ele><time>2026-04-13T08:20:28Z</time></trkpt><trkpt lat="48.5393399496762" lon="3.3493199429931964"><ele>147.0</ele><time>2026-04-13T08:20:30Z</time></trkpt><trkpt lat="48.5392474889255" lon="3.3492832884770958"><ele>147.0</ele><time>2026-04-13T08:20:32Z</time></trkpt><trkpt lat="48.53913403074992" lon="3.349237589906506"><ele>147.0</ele><time>2026-04-13T08:20:34Z</time></trkpt><trkpt lat="48.539028977741125" lon="3.3491905321284836"><ele>147.0</ele><time>2026-04-13T08:20:36Z</time></trkpt><trkpt lat="48.53893338003818" lon="3.349153747799936"><ele>147.0</ele><time>2026-04-13T08:20:38Z</time></trkpt><trkpt lat="48.53883365910759" lon="3.349095792160418"><ele>147.0</ele><time>2026-04-13T08:20:40Z</time></trkpt><trkpt lat="48.53872466025276" lon="3.349074583951948"><ele>147.0</ele><time>2026-04-13T08:20:42Z</time></trkpt><trkpt lat="48.53861879808389" lon="3.34904430172335"><ele>147.0</ele><time>2026-04-13T08:20:44Z</time></trkpt><trkpt lat="48.538518426867" lon="3.3490070730040764"><ele>147.25</ele><time>2026-04-13T08:20:46Z</time></trkpt><trkpt lat="48.53840815919042" lon="3.3489714974625406"><ele>147.5</ele><time>2026-04-13T08:20:48Z</time></trkpt><trkpt lat="48.538295925343526" lon="3.348936356065259"><ele>147.75</ele><time>2026-04-13T08:20:50Z</time></trkpt><trkpt lat="48.53817738629312" lon="3.348903358972954"><ele>148.0</ele><time>2026-04-13T08:20:52Z</time></trkpt><trkpt lat="48.53806596556329" lon="3.348867462239117"><ele>148.0</ele><time>2026-04-13T08:20:54Z</time></trkpt><trkpt lat="48.53794746982916" lon="3.3488293941155707"><ele>148.0</ele><time>2026-04-13T08:20:56Z</time></trkpt><trkpt lat="48.53783464699437" lon="3.348813339755621"><ele>148.0</ele><time>2026-04-13T08:20:58Z</time></trkpt><trkpt lat="48.53772279911904" lon="3.348779849594079"><ele>148.0</ele><time>2026-04-13T08:21:00Z</time></trkpt><trkpt lat="48.53762366364079" lon="3.3487550804199553"><ele>148.0</ele><time>2026-04-13T08:21:02Z</time></trkpt><trkpt lat="48.53751836466616" lon="3.34874061813687"><ele>148.20000000000002</ele><time>2026-04-13T08:21:04Z</time></trkpt><trkpt lat="48.53741582099554" lon="3.348682610397877"><ele>148.4</ele><time>2026-04-13T08:21:06Z</time></trkpt><trkpt lat="48.53730652853179" lon="3.3486371006976205"><ele>148.60000000000002</ele><time>2026-04-13T08:21:08Z</time></trkpt><trkpt lat="48.53720345409611" lon="3.3485759719666355"><ele>148.8</ele><time>2026-04-13T08:21:10Z</time></trkpt><trkpt lat="48.53710018239931" lon="3.3485244095008904"><ele>149.0</ele><time>2026-04-13T08:21:12Z</time></trkpt><trkpt lat="48.536995541267544" lon="3.348480625502777"><ele>149.2</ele><time>2026-04-13T08:21:14Z</time></trkpt><trkpt lat="48.53688913315637" lon="3.348433524124223"><ele>149.4</ele><time>2026-04-13T08:21:16Z</time></trkpt><trkpt lat="48.53678790040967" lon="3.3483740210980266"><ele>149.6</ele><time>2026-04-13T08:21:18Z</time></trkpt><trkpt lat="48.53668182448475" lon="3.34832028441601"><ele>149.8</ele><time>2026-04-13T08:21:20Z</time></trkpt><trkpt lat="48.53659978709428" lon="3.348280715515766"><ele>150.0</ele><time>2026-04-13T08:21:22Z</time></trkpt><trkpt lat="48.53650794785024" lon="3.3482480078581407"><ele>150.0</ele><time>2026-04-13T08:21:24Z</time></trkpt><trkpt lat="48.536404389949084" lon="3.3482107194239337"><ele>150.0</ele><time>2026-04-13T08:21:26Z</time></trkpt><trkpt lat="48.53629842621681" lon="3.3481814217709616"><ele>150.0</ele><time>2026-04-13T08:21:28Z</time></trkpt><trkpt lat="48.536194559241764" lon="3.348137639420642"><ele>150.0</ele><time>2026-04-13T08:21:30Z</time></trkpt><trkpt lat="48.53608920143855" lon="3.348096600054262"><ele>150.0</ele><time>2026-04-13T08:21:32Z</time></trkpt><trkpt lat="48.53598227457852" lon="3.3480599418063366"><ele>150.5</ele><time>2026-04-13T08:21:34Z</time></trkpt><trkpt lat="48.535872104110105" lon="3.3480265363509565"><ele>151.0</ele><time>2026-04-13T08:21:36Z</time></trkpt><trkpt lat="48.535757067778576" lon="3.348002935723165"><ele>151.5</ele><time>2026-04-13T08:21:38Z</time></trkpt><trkpt lat="48.53564406017458" lon="3.3479710972495407"><ele>152.0</ele><time>2026-04-13T08:21:40Z</time></trkpt><trkpt lat="48.5355284803505" lon="3.3479438053469615"><ele>152.0</ele><time>2026-04-13T08:21:42Z</time></trkpt><trkpt lat="48.535417969973594" lon="3.3479099992166166"><ele>152.0</ele><time>2026-04-13T08:21:44Z</time></trkpt><trkpt lat="48.53531114738235" lon="3.347887032560703"><ele>152.0</ele><time>2026-04-13T08:21:46Z</time></trkpt><trkpt lat="48.535206060220794" lon="3.3478605572053133"><ele>152.0</ele><time>2026-04-13T08:21:48Z</time></trkpt><trkpt lat="48.53510645745793" lon="3.347823156314993"><ele>152.0</ele><time>2026-04-13T08:21:50Z</time></trkpt><trkpt lat="48.535005470008834" lon="3.347795410386338"><ele>152.6</ele><time>2026-04-13T08:21:52Z</time></trkpt><trkpt lat="48.53490463861059" lon="3.3477631531791805"><ele>153.2</ele><time>2026-04-13T08:21:54Z</time></trkpt><trkpt lat="48.534803424855596" lon="3.3477383607061695"><ele>153.8</ele><time>2026-04-13T08:21:56Z</time></trkpt><trkpt lat="48.53470276608204" lon="3.347703236988834"><ele>154.4</ele><time>2026-04-13T08:21:58Z</time></trkpt><trkpt lat="48.53460601006244" lon="3.347675497775676"><ele>155.0</ele><time>2026-04-13T08:22:00Z</time></trkpt><trkpt lat="48.53451269978497" lon="3.347656620744712"><ele>155.6</ele><time>2026-04-13T08:22:02Z</time></trkpt><trkpt lat="48.534416176312845" lon="3.3476260205972745"><ele>156.2</ele><time>2026-04-13T08:22:04Z</time></trkpt><trkpt lat="48.534326265233304" lon="3.347591435809241"><ele>156.8</ele><time>2026-04-13T08:22:06Z</time></trkpt><trkpt lat="48.53423652277923" lon="3.3475578885666093"><ele>157.4</ele><time>2026-04-13T08:22:08Z</time></trkpt><trkpt lat="48.53414680160107" lon="3.3475029397133667"><ele>158.0</ele><time>2026-04-13T08:22:10Z</time></trkpt><trkpt lat="48.53406970402976" lon="3.3474244331776464"><ele>158.0</ele><time>2026-04-13T08:22:12Z</time></trkpt><trkpt lat="48.53400114364477" lon="3.3473429596748203"><ele>158.0</ele><time>2026-04-13T08:22:14Z</time></trkpt><trkpt lat="48.5339421769891" lon="3.34723916001231"><ele>158.0</ele><time>2026-04-13T08:22:16Z</time></trkpt><trkpt lat="48.533854177408834" lon="3.34719808192174"><ele>158.0</ele><time>2026-04-13T08:22:18Z</time></trkpt><trkpt lat="48.53374847811005" lon="3.3471698166711823"><ele>158.0</ele><time>2026-04-13T08:22:20Z</time></trkpt><trkpt lat="48.53364003043509" lon="3.347145731733701"><ele>157.4</ele><time>2026-04-13T08:22:22Z</time></trkpt><trkpt lat="48.53352562611596" lon="3.347105909481131"><ele>156.8</ele><time>2026-04-13T08:22:24Z</time></trkpt><trkpt lat="48.533462876757014" lon="3.347083955758272"><ele>156.2</ele><time>2026-04-13T08:22:25Z</time></trkpt><trkpt lat="48.5333363811782" lon="3.3470660617236456"><ele>155.6</ele><time>2026-04-13T08:22:27Z</time></trkpt><trkpt lat="48.533270980986146" lon="3.3470647964293154"><ele>155.0</ele><time>2026-04-13T08:22:28Z</time></trkpt><trkpt lat="48.533147770090515" lon="3.347034939360286"><ele>155.0</ele><time>2026-04-13T08:22:30Z</time></trkpt><trkpt lat="48.53308739228868" lon="3.347002504907581"><ele>155.0</ele><time>2026-04-13T08:22:31Z</time></trkpt><trkpt lat="48.53302710090378" lon="3.3469730933585815"><ele>155.0</ele><time>2026-04-13T08:22:32Z</time></trkpt><trkpt lat="48.53296417426397" lon="3.3469580664897642"><ele>155.0</ele><time>2026-04-13T08:22:33Z</time></trkpt><trkpt lat="48.53289882335397" lon="3.346946418483136"><ele>155.0</ele><time>2026-04-13T08:22:34Z</time></trkpt><trkpt lat="48.532833696857764" lon="3.3469373782222274"><ele>155.0</ele><time>2026-04-13T08:22:35Z</time></trkpt><trkpt lat="48.53276442331592" lon="3.346927440358795"><ele>155.0</ele><time>2026-04-13T08:22:36Z</time></trkpt><trkpt lat="48.532697375278616" lon="3.346917302594005"><ele>154.71428571428572</ele><time>2026-04-13T08:22:37Z</time></trkpt><trkpt lat="48.532632207639395" lon="3.346907523678007"><ele>154.42857142857142</ele><time>2026-04-13T08:22:38Z</time></trkpt><trkpt lat="48.532567471759606" lon="3.3468943689140866"><ele>154.14285714285714</ele><time>2026-04-13T08:22:39Z</time></trkpt><trkpt lat="48.53250124211726" lon="3.346868913671116"><ele>153.85714285714286</ele><time>2026-04-13T08:22:40Z</time></trkpt><trkpt lat="48.532438274099384" lon="3.3468538311791765"><ele>153.57142857142858</ele><time>2026-04-13T08:22:41Z</time></trkpt><trkpt lat="48.532373189571246" lon="3.3468397631509386"><ele>153.28571428571428</ele><time>2026-04-13T08:22:42Z</time></trkpt><trkpt lat="48.53230738086994" lon="3.3468289217356495"><ele>153.0</ele><time>2026-04-13T08:22:43Z</time></trkpt><trkpt lat="48.53223970493563" lon="3.346812722809474"><ele>153.0</ele><time>2026-04-13T08:22:44Z</time></trkpt><trkpt lat="48.53216933720167" lon="3.346791493513915"><ele>153.0</ele><time>2026-04-13T08:22:45Z</time></trkpt><trkpt lat="48.532097564382305" lon="3.346775040736699"><ele>153.0</ele><time>2026-04-13T08:22:46Z</time></trkpt><trkpt lat="48.532020743223555" lon="3.346760314200972"><ele>153.0</ele><time>2026-04-13T08:22:47Z</time></trkpt><trkpt lat="48.531942322286085" lon="3.346743179443941"><ele>153.0</ele><time>2026-04-13T08:22:48Z</time></trkpt><trkpt lat="48.531861985471394" lon="3.346726487849135"><ele>153.0</ele><time>2026-04-13T08:22:49Z</time></trkpt><trkpt lat="48.53178228129413" lon="3.3467086112548827"><ele>152.5</ele><time>2026-04-13T08:22:50Z</time></trkpt><trkpt lat="48.53170043484061" lon="3.3466881927623024"><ele>152.0</ele><time>2026-04-13T08:22:51Z</time></trkpt><trkpt lat="48.53161599449252" lon="3.346670699778709"><ele>151.5</ele><time>2026-04-13T08:22:52Z</time></trkpt><trkpt lat="48.53153155465688" lon="3.3466536836253655"><ele>151.0</ele><time>2026-04-13T08:22:53Z</time></trkpt><trkpt lat="48.53144701828392" lon="3.346635774872668"><ele>150.5</ele><time>2026-04-13T08:22:54Z</time></trkpt><trkpt lat="48.53136174951554" lon="3.3466270527899873"><ele>150.0</ele><time>2026-04-13T08:22:55Z</time></trkpt><trkpt lat="48.531279359593405" lon="3.3466213022463784"><ele>149.5</ele><time>2026-04-13T08:22:56Z</time></trkpt><trkpt lat="48.53119598926512" lon="3.346602031337402"><ele>149.0</ele><time>2026-04-13T08:22:57Z</time></trkpt><trkpt lat="48.53111296768294" lon="3.346576538631738"><ele>148.5</ele><time>2026-04-13T08:22:58Z</time></trkpt><trkpt lat="48.53103108347265" lon="3.3465563261598317"><ele>148.0</ele><time>2026-04-13T08:22:59Z</time></trkpt><trkpt lat="48.53094981600294" lon="3.3465377362292017"><ele>147.5</ele><time>2026-04-13T08:23:00Z</time></trkpt><trkpt lat="48.53086528674742" lon="3.3465175310292237"><ele>147.0</ele><time>2026-04-13T08:23:01Z</time></trkpt><trkpt lat="48.53078350031083" lon="3.346492160849136"><ele>147.0</ele><time>2026-04-13T08:23:02Z</time></trkpt><trkpt lat="48.53070335639408" lon="3.3464748115648075"><ele>147.0</ele><time>2026-04-13T08:23:03Z</time></trkpt><trkpt lat="48.53061889870453" lon="3.3464616204609676"><ele>147.0</ele><time>2026-04-13T08:23:04Z</time></trkpt><trkpt lat="48.530535533191305" lon="3.3464450062296582"><ele>147.0</ele><time>2026-04-13T08:23:05Z</time></trkpt><trkpt lat="48.530452374615564" lon="3.346428018534725"><ele>147.0</ele><time>2026-04-13T08:23:06Z</time></trkpt><trkpt lat="48.530371871049674" lon="3.346410650574266"><ele>147.0</ele><time>2026-04-13T08:23:07Z</time></trkpt><trkpt lat="48.53029262885779" lon="3.3463976251201837"><ele>146.66666666666666</ele><time>2026-04-13T08:23:08Z</time></trkpt><trkpt lat="48.530214727403596" lon="3.3463852101008507"><ele>146.33333333333334</ele><time>2026-04-13T08:23:09Z</time></trkpt><trkpt lat="48.53013877382926" lon="3.3463664076312214"><ele>146.0</ele><time>2026-04-13T08:23:10Z</time></trkpt><trkpt lat="48.53006207311406" lon="3.346346628988472"><ele>145.66666666666669</ele><time>2026-04-13T08:23:11Z</time></trkpt><trkpt lat="48.5299818827163" lon="3.346328926425833"><ele>145.33333333333334</ele><time>2026-04-13T08:23:12Z</time></trkpt><trkpt lat="48.529900317973876" lon="3.3463113444800086"><ele>145.0</ele><time>2026-04-13T08:23:13Z</time></trkpt><trkpt lat="48.52981609233664" lon="3.3462947501867033"><ele>145.0</ele><time>2026-04-13T08:23:14Z</time></trkpt><trkpt lat="48.529730647326076" lon="3.34627704305811"><ele>145.0</ele><time>2026-04-13T08:23:15Z</time></trkpt><trkpt lat="48.52964478182542" lon="3.346258806795176"><ele>145.0</ele><time>2026-04-13T08:23:16Z</time></trkpt><trkpt lat="48.529560070679146" lon="3.34624270961408"><ele>145.0</ele><time>2026-04-13T08:23:17Z</time></trkpt><trkpt lat="48.529473117965516" lon="3.3462237497261795"><ele>145.0</ele><time>2026-04-13T08:23:18Z</time></trkpt><trkpt lat="48.529387774417145" lon="3.346206520274397"><ele>145.0</ele><time>2026-04-13T08:23:19Z</time></trkpt><trkpt lat="48.52930236148372" lon="3.346187643706285"><ele>144.66666666666669</ele><time>2026-04-13T08:23:20Z</time></trkpt><trkpt lat="48.52921584724286" lon="3.3461698352917475"><ele>144.33333333333334</ele><time>2026-04-13T08:23:21Z</time></trkpt><trkpt lat="48.52912988048871" lon="3.346151607221298"><ele>144.0</ele><time>2026-04-13T08:23:22Z</time></trkpt><trkpt lat="48.52904261834194" lon="3.3461332401812367"><ele>143.66666666666666</ele><time>2026-04-13T08:23:23Z</time></trkpt><trkpt lat="48.52895589551265" lon="3.34611883985269"><ele>143.33333333333331</ele><time>2026-04-13T08:23:24Z</time></trkpt><trkpt lat="48.5288712708795" lon="3.3461027728429293"><ele>143.0</ele><time>2026-04-13T08:23:25Z</time></trkpt><trkpt lat="48.52878539766375" lon="3.346087771036703"><ele>142.66666666666666</ele><time>2026-04-13T08:23:26Z</time></trkpt><trkpt lat="48.52870108013468" lon="3.3460749611035636"><ele>142.33333333333331</ele><time>2026-04-13T08:23:27Z</time></trkpt><trkpt lat="48.528617160453805" lon="3.346046499479277"><ele>142.0</ele><time>2026-04-13T08:23:28Z</time></trkpt><trkpt lat="48.52853186353863" lon="3.3460260592981244"><ele>141.66666666666666</ele><time>2026-04-13T08:23:29Z</time></trkpt><trkpt lat="48.52844993636549" lon="3.3460093490646785"><ele>141.33333333333334</ele><time>2026-04-13T08:23:30Z</time></trkpt><trkpt lat="48.528366889190295" lon="3.3459918793495773"><ele>141.0</ele><time>2026-04-13T08:23:31Z</time></trkpt><trkpt lat="48.52828509585124" lon="3.3459773877705294"><ele>141.0</ele><time>2026-04-13T08:23:32Z</time></trkpt><trkpt lat="48.528199736010315" lon="3.3459577695355107"><ele>141.0</ele><time>2026-04-13T08:23:33Z</time></trkpt><trkpt lat="48.528112634615816" lon="3.345937540142853"><ele>141.0</ele><time>2026-04-13T08:23:34Z</time></trkpt><trkpt lat="48.52802504011181" lon="3.345917165596843"><ele>141.0</ele><time>2026-04-13T08:23:35Z</time></trkpt><trkpt lat="48.52793600282946" lon="3.345898748697"><ele>141.0</ele><time>2026-04-13T08:23:36Z</time></trkpt><trkpt lat="48.52784585489627" lon="3.3458802681622815"><ele>141.0</ele><time>2026-04-13T08:23:37Z</time></trkpt><trkpt lat="48.527757155421746" lon="3.345861699051152"><ele>140.5</ele><time>2026-04-13T08:23:38Z</time></trkpt><trkpt lat="48.52767135783077" lon="3.345844228445684"><ele>140.0</ele><time>2026-04-13T08:23:39Z</time></trkpt><trkpt lat="48.52758811707209" lon="3.345827058259742"><ele>139.5</ele><time>2026-04-13T08:23:40Z</time></trkpt><trkpt lat="48.52750609618006" lon="3.345810112471383"><ele>139.0</ele><time>2026-04-13T08:23:41Z</time></trkpt><trkpt lat="48.52742689576299" lon="3.34579468155687"><ele>138.5</ele><time>2026-04-13T08:23:42Z</time></trkpt><trkpt lat="48.5273476995324" lon="3.3457818209860104"><ele>138.0</ele><time>2026-04-13T08:23:43Z</time></trkpt><trkpt lat="48.527264939920556" lon="3.345772091229433"><ele>138.0</ele><time>2026-04-13T08:23:44Z</time></trkpt><trkpt lat="48.527187475208045" lon="3.3457573988841776"><ele>138.0</ele><time>2026-04-13T08:23:45Z</time></trkpt><trkpt lat="48.5271078077624" lon="3.345738750322002"><ele>138.0</ele><time>2026-04-13T08:23:46Z</time></trkpt><trkpt lat="48.527025736666424" lon="3.3457208504728557"><ele>138.0</ele><time>2026-04-13T08:23:47Z</time></trkpt><trkpt lat="48.526943286672804" lon="3.345703467711175"><ele>138.0</ele><time>2026-04-13T08:23:48Z</time></trkpt><trkpt lat="48.52686256968531" lon="3.3456887613948343"><ele>138.0</ele><time>2026-04-13T08:23:49Z</time></trkpt><trkpt lat="48.526782092924755" lon="3.3456716243754445"><ele>138.0</ele><time>2026-04-13T08:23:50Z</time></trkpt><trkpt lat="48.526697928673734" lon="3.3456574235263514"><ele>138.0</ele><time>2026-04-13T08:23:51Z</time></trkpt><trkpt lat="48.526616813423885" lon="3.345641910741005"><ele>138.0</ele><time>2026-04-13T08:23:52Z</time></trkpt><trkpt lat="48.52653796610958" lon="3.3456261882190286"><ele>138.0</ele><time>2026-04-13T08:23:53Z</time></trkpt><trkpt lat="48.52645996712253" lon="3.345610219406517"><ele>138.0</ele><time>2026-04-13T08:23:54Z</time></trkpt><trkpt lat="48.52638208440903" lon="3.345592484591023"><ele>138.0</ele><time>2026-04-13T08:23:55Z</time></trkpt><trkpt lat="48.52630551591773" lon="3.3455729563201952"><ele>138.42857142857144</ele><time>2026-04-13T08:23:56Z</time></trkpt><trkpt lat="48.52622754510361" lon="3.345558106824202"><ele>138.85714285714286</ele><time>2026-04-13T08:23:57Z</time></trkpt><trkpt lat="48.52615102492069" lon="3.3455408310773644"><ele>139.28571428571428</ele><time>2026-04-13T08:23:58Z</time></trkpt><trkpt lat="48.526079137671545" lon="3.345524546845229"><ele>139.71428571428572</ele><time>2026-04-13T08:23:59Z</time></trkpt><trkpt lat="48.52601006139132" lon="3.3455110380157147"><ele>140.14285714285714</ele><time>2026-04-13T08:24:00Z</time></trkpt><trkpt lat="48.52594425436778" lon="3.345494665642131"><ele>140.57142857142858</ele><time>2026-04-13T08:24:01Z</time></trkpt><trkpt lat="48.525875318265214" lon="3.345479919323191"><ele>141.0</ele><time>2026-04-13T08:24:02Z</time></trkpt><trkpt lat="48.52580576450952" lon="3.345465514220717"><ele>141.0</ele><time>2026-04-13T08:24:03Z</time></trkpt><trkpt lat="48.52573717702338" lon="3.345449553203539"><ele>141.0</ele><time>2026-04-13T08:24:04Z</time></trkpt><trkpt lat="48.5256677436344" lon="3.3454340502581252"><ele>141.0</ele><time>2026-04-13T08:24:05Z</time></trkpt><trkpt lat="48.52559880437272" lon="3.3454178948648003"><ele>141.0</ele><time>2026-04-13T08:24:06Z</time></trkpt><trkpt lat="48.52553216534651" lon="3.3454054570297047"><ele>141.0</ele><time>2026-04-13T08:24:07Z</time></trkpt><trkpt lat="48.525465514258315" lon="3.345393037991957"><ele>141.0</ele><time>2026-04-13T08:24:08Z</time></trkpt><trkpt lat="48.52539724456007" lon="3.3453776792760093"><ele>141.0</ele><time>2026-04-13T08:24:09Z</time></trkpt><trkpt lat="48.52533253371958" lon="3.345363260085139"><ele>141.42857142857144</ele><time>2026-04-13T08:24:10Z</time></trkpt><trkpt lat="48.52526521147973" lon="3.345348352727202"><ele>141.85714285714286</ele><time>2026-04-13T08:24:11Z</time></trkpt><trkpt lat="48.52519958001481" lon="3.345333122275552"><ele>142.28571428571428</ele><time>2026-04-13T08:24:12Z</time></trkpt><trkpt lat="48.52513709368506" lon="3.3453172807539473"><ele>142.71428571428572</ele><time>2026-04-13T08:24:13Z</time></trkpt><trkpt lat="48.525073116037355" lon="3.3452987910398804"><ele>143.14285714285714</ele><time>2026-04-13T08:24:14Z</time></trkpt><trkpt lat="48.525010280650896" lon="3.3452749670266133"><ele>143.57142857142858</ele><time>2026-04-13T08:24:15Z</time></trkpt><trkpt lat="48.524948371762235" lon="3.3452554168652653"><ele>144.0</ele><time>2026-04-13T08:24:16Z</time></trkpt><trkpt lat="48.52488420970891" lon="3.345235389014464"><ele>144.00000000000003</ele><time>2026-04-13T08:24:17Z</time></trkpt><trkpt lat="48.52482288266494" lon="3.34520818512174"><ele>144.0</ele><time>2026-04-13T08:24:18Z</time></trkpt><trkpt lat="48.524762147604434" lon="3.345181784382867"><ele>144.0</ele><time>2026-04-13T08:24:19Z</time></trkpt><trkpt lat="48.52470070271575" lon="3.3451549384844235"><ele>144.0</ele><time>2026-04-13T08:24:20Z</time></trkpt><trkpt lat="48.52463931247166" lon="3.3451309989628255"><ele>144.0</ele><time>2026-04-13T08:24:21Z</time></trkpt><trkpt lat="48.52457423437116" lon="3.3451056081377644"><ele>144.00000000000003</ele><time>2026-04-13T08:24:22Z</time></trkpt><trkpt lat="48.52446631287416" lon="3.3450516341304417"><ele>144.0</ele><time>2026-04-13T08:24:24Z</time></trkpt><trkpt lat="48.524346709772736" lon="3.3449989202764185"><ele>144.0</ele><time>2026-04-13T08:24:26Z</time></trkpt><trkpt lat="48.52428559806265" lon="3.34497063299877"><ele>144.0</ele><time>2026-04-13T08:24:27Z</time></trkpt><trkpt lat="48.524163785317334" lon="3.3449174182567143"><ele>144.0</ele><time>2026-04-13T08:24:29Z</time></trkpt><trkpt lat="48.524100104735176" lon="3.3448902246425836"><ele>144.0</ele><time>2026-04-13T08:24:30Z</time></trkpt><trkpt lat="48.524038020353665" lon="3.3448646637672"><ele>144.0</ele><time>2026-04-13T08:24:31Z</time></trkpt><trkpt lat="48.523977141956905" lon="3.3448340109799415"><ele>144.0</ele><time>2026-04-13T08:24:32Z</time></trkpt><trkpt lat="48.523914675831236" lon="3.3448041646503106"><ele>144.00000000000003</ele><time>2026-04-13T08:24:33Z</time></trkpt><trkpt lat="48.52385243306147" lon="3.3447724642286283"><ele>144.0</ele><time>2026-04-13T08:24:34Z</time></trkpt><trkpt lat="48.523790533700556" lon="3.3447476732673955"><ele>144.0</ele><time>2026-04-13T08:24:35Z</time></trkpt><trkpt lat="48.523725616148205" lon="3.344719075017632"><ele>144.0</ele><time>2026-04-13T08:24:36Z</time></trkpt><trkpt lat="48.523664731953005" lon="3.3446881801952437"><ele>144.0</ele><time>2026-04-13T08:24:37Z</time></trkpt><trkpt lat="48.52360296512007" lon="3.3446574790015227"><ele>144.00000000000003</ele><time>2026-04-13T08:24:38Z</time></trkpt><trkpt lat="48.52354019771339" lon="3.3446273294873476"><ele>144.0</ele><time>2026-04-13T08:24:39Z</time></trkpt><trkpt lat="48.52347804271643" lon="3.344605744676163"><ele>144.2</ele><time>2026-04-13T08:24:40Z</time></trkpt><trkpt lat="48.523365321984244" lon="3.3445444772920565"><ele>144.4</ele><time>2026-04-13T08:24:42Z</time></trkpt><trkpt lat="48.523253517644314" lon="3.344489888156141"><ele>144.6</ele><time>2026-04-13T08:24:44Z</time></trkpt><trkpt lat="48.523146224004385" lon="3.344445101114308"><ele>144.8</ele><time>2026-04-13T08:24:46Z</time></trkpt><trkpt lat="48.52305628249537" lon="3.3444038212629583"><ele>145.0</ele><time>2026-04-13T08:24:48Z</time></trkpt><trkpt lat="48.52295768432445" lon="3.344362349270697"><ele>144.8</ele><time>2026-04-13T08:24:50Z</time></trkpt><trkpt lat="48.522860190535425" lon="3.344308079256603"><ele>144.6</ele><time>2026-04-13T08:24:52Z</time></trkpt><trkpt lat="48.522760070222375" lon="3.3442595794869114"><ele>144.4</ele><time>2026-04-13T08:24:54Z</time></trkpt><trkpt lat="48.52266263422021" lon="3.34420923050316"><ele>144.2</ele><time>2026-04-13T08:24:56Z</time></trkpt><trkpt lat="48.5225586182762" lon="3.3441582670293966"><ele>144.0</ele><time>2026-04-13T08:24:58Z</time></trkpt><trkpt lat="48.52244912891408" lon="3.3441090134437053"><ele>144.0</ele><time>2026-04-13T08:25:00Z</time></trkpt><trkpt lat="48.52233752162873" lon="3.344054413440851"><ele>144.0</ele><time>2026-04-13T08:25:02Z</time></trkpt><trkpt lat="48.52222092314726" lon="3.3439948245249673"><ele>144.0</ele><time>2026-04-13T08:25:04Z</time></trkpt><trkpt lat="48.52215958915199" lon="3.343966643031516"><ele>144.0</ele><time>2026-04-13T08:25:05Z</time></trkpt><trkpt lat="48.522098714062814" lon="3.343940046428264"><ele>144.0</ele><time>2026-04-13T08:25:06Z</time></trkpt><trkpt lat="48.52203546155656" lon="3.343911750185124"><ele>144.0</ele><time>2026-04-13T08:25:07Z</time></trkpt><trkpt lat="48.5219154467943" lon="3.3438518103922164"><ele>144.33333333333334</ele><time>2026-04-13T08:25:09Z</time></trkpt><trkpt lat="48.521795365269135" lon="3.3437904107292042"><ele>144.66666666666666</ele><time>2026-04-13T08:25:11Z</time></trkpt><trkpt lat="48.52173472718788" lon="3.3437618942389142"><ele>145.0</ele><time>2026-04-13T08:25:12Z</time></trkpt><trkpt lat="48.521612758101526" lon="3.3437059393618958"><ele>145.33333333333331</ele><time>2026-04-13T08:25:14Z</time></trkpt><trkpt lat="48.52155079435251" lon="3.34367513482297"><ele>145.66666666666666</ele><time>2026-04-13T08:25:15Z</time></trkpt><trkpt lat="48.5214898336459" lon="3.343646880386884"><ele>146.0</ele><time>2026-04-13T08:25:16Z</time></trkpt><trkpt lat="48.5214273370378" lon="3.343616163665152"><ele>146.0</ele><time>2026-04-13T08:25:17Z</time></trkpt><trkpt lat="48.52130661869251" lon="3.3435561641283718"><ele>146.0</ele><time>2026-04-13T08:25:19Z</time></trkpt><trkpt lat="48.521244196950164" lon="3.3435297567907964"><ele>146.0</ele><time>2026-04-13T08:25:20Z</time></trkpt><trkpt lat="48.52112526298296" lon="3.3434718585727783"><ele>146.0</ele><time>2026-04-13T08:25:22Z</time></trkpt><trkpt lat="48.52106385919035" lon="3.343441364772474"><ele>146.0</ele><time>2026-04-13T08:25:23Z</time></trkpt><trkpt lat="48.52094423792677" lon="3.3433832314812584"><ele>146.14285714285714</ele><time>2026-04-13T08:25:25Z</time></trkpt><trkpt lat="48.52088311268696" lon="3.3433565056134134"><ele>146.28571428571428</ele><time>2026-04-13T08:25:26Z</time></trkpt><trkpt lat="48.520822767169015" lon="3.3433226613541054"><ele>146.42857142857144</ele><time>2026-04-13T08:25:27Z</time></trkpt><trkpt lat="48.52076197646526" lon="3.343294758623595"><ele>146.57142857142856</ele><time>2026-04-13T08:25:28Z</time></trkpt><trkpt lat="48.520702432570296" lon="3.3432619099028997"><ele>146.71428571428572</ele><time>2026-04-13T08:25:29Z</time></trkpt><trkpt lat="48.52064106123059" lon="3.343236691565419"><ele>146.85714285714286</ele><time>2026-04-13T08:25:30Z</time></trkpt><trkpt lat="48.52052292430358" lon="3.3431924387415646"><ele>147.0</ele><time>2026-04-13T08:25:32Z</time></trkpt><trkpt lat="48.52040585820496" lon="3.3431261099595977"><ele>147.4</ele><time>2026-04-13T08:25:34Z</time></trkpt><trkpt lat="48.52034717147713" lon="3.343089462237493"><ele>147.79999999999998</ele><time>2026-04-13T08:25:35Z</time></trkpt><trkpt lat="48.52023596371152" lon="3.3430108213657426"><ele>148.2</ele><time>2026-04-13T08:25:37Z</time></trkpt><trkpt lat="48.52012484864622" lon="3.3429413162678157"><ele>148.6</ele><time>2026-04-13T08:25:39Z</time></trkpt><trkpt lat="48.52001495580217" lon="3.3428682657829234"><ele>149.0</ele><time>2026-04-13T08:25:41Z</time></trkpt><trkpt lat="48.51990610747671" lon="3.3428010311538325"><ele>149.0</ele><time>2026-04-13T08:25:43Z</time></trkpt><trkpt lat="48.51980722617582" lon="3.3427253581593095"><ele>149.0</ele><time>2026-04-13T08:25:45Z</time></trkpt><trkpt lat="48.519709749587136" lon="3.3426614335684675"><ele>149.0</ele><time>2026-04-13T08:25:47Z</time></trkpt><trkpt lat="48.519613304945956" lon="3.342609568081396"><ele>149.0</ele><time>2026-04-13T08:25:49Z</time></trkpt><trkpt lat="48.51951672460987" lon="3.3425379629898835"><ele>149.0</ele><time>2026-04-13T08:25:51Z</time></trkpt><trkpt lat="48.519421434063204" lon="3.342469831708177"><ele>149.6</ele><time>2026-04-13T08:25:53Z</time></trkpt><trkpt lat="48.51932082849181" lon="3.342406519744536"><ele>150.2</ele><time>2026-04-13T08:25:55Z</time></trkpt><trkpt lat="48.51921897062853" lon="3.3423423044025142"><ele>150.79999999999998</ele><time>2026-04-13T08:25:57Z</time></trkpt><trkpt lat="48.519115273329554" lon="3.3422867278104404"><ele>151.4</ele><time>2026-04-13T08:25:59Z</time></trkpt><trkpt lat="48.51901121351118" lon="3.3422315858890386"><ele>152.0</ele><time>2026-04-13T08:26:01Z</time></trkpt><trkpt lat="48.51891015563953" lon="3.342172307914106"><ele>152.2</ele><time>2026-04-13T08:26:03Z</time></trkpt><trkpt lat="48.51880568760229" lon="3.3421128063480783"><ele>152.39999999999998</ele><time>2026-04-13T08:26:05Z</time></trkpt><trkpt lat="48.51870410888419" lon="3.342061772170597"><ele>152.60000000000002</ele><time>2026-04-13T08:26:07Z</time></trkpt><trkpt lat="48.51860825445655" lon="3.34201011252091"><ele>152.8</ele><time>2026-04-13T08:26:09Z</time></trkpt><trkpt lat="48.51851582363163" lon="3.3419744318243234"><ele>153.0</ele><time>2026-04-13T08:26:11Z</time></trkpt><trkpt lat="48.518429393161135" lon="3.3419249214963704"><ele>153.0</ele><time>2026-04-13T08:26:13Z</time></trkpt><trkpt lat="48.51834194763536" lon="3.3418713003973863"><ele>153.0</ele><time>2026-04-13T08:26:15Z</time></trkpt><trkpt lat="48.5182485904569" lon="3.3418277205666866"><ele>153.0</ele><time>2026-04-13T08:26:17Z</time></trkpt><trkpt lat="48.51815689818286" lon="3.3417781714454673"><ele>153.0</ele><time>2026-04-13T08:26:19Z</time></trkpt><trkpt lat="48.518063487398784" lon="3.3417320240302177"><ele>153.0</ele><time>2026-04-13T08:26:21Z</time></trkpt><trkpt lat="48.51796586867174" lon="3.3417009576905485"><ele>153.4</ele><time>2026-04-13T08:26:23Z</time></trkpt><trkpt lat="48.51786465628525" lon="3.341659141165316"><ele>153.8</ele><time>2026-04-13T08:26:25Z</time></trkpt><trkpt lat="48.517764514207784" lon="3.341624508926648"><ele>154.2</ele><time>2026-04-13T08:26:27Z</time></trkpt><trkpt lat="48.51766335896225" lon="3.341593550970865"><ele>154.6</ele><time>2026-04-13T08:26:29Z</time></trkpt><trkpt lat="48.517563764972735" lon="3.3415640435599885"><ele>155.0</ele><time>2026-04-13T08:26:31Z</time></trkpt><trkpt lat="48.517457382925436" lon="3.3415306647261898"><ele>155.0</ele><time>2026-04-13T08:26:33Z</time></trkpt><trkpt lat="48.517348948345834" lon="3.341499783889944"><ele>155.0</ele><time>2026-04-13T08:26:35Z</time></trkpt><trkpt lat="48.51724277902826" lon="3.3414674769443877"><ele>155.0</ele><time>2026-04-13T08:26:37Z</time></trkpt><trkpt lat="48.51713405361493" lon="3.3414353983626586"><ele>155.0</ele><time>2026-04-13T08:26:39Z</time></trkpt><trkpt lat="48.51702513694532" lon="3.3414048408936363"><ele>155.0</ele><time>2026-04-13T08:26:41Z</time></trkpt><trkpt lat="48.516915517556505" lon="3.3413719389214958"><ele>155.5</ele><time>2026-04-13T08:26:43Z</time></trkpt><trkpt lat="48.51680219266799" lon="3.341341158423931"><ele>156.0</ele><time>2026-04-13T08:26:45Z</time></trkpt><trkpt lat="48.516687827332625" lon="3.341306128798945"><ele>156.5</ele><time>2026-04-13T08:26:47Z</time></trkpt><trkpt lat="48.5165715162282" lon="3.341269816478373"><ele>157.0</ele><time>2026-04-13T08:26:49Z</time></trkpt><trkpt lat="48.51645521055872" lon="3.3412322961388137"><ele>157.0</ele><time>2026-04-13T08:26:51Z</time></trkpt><trkpt lat="48.51633438249392" lon="3.3411976910438876"><ele>157.0</ele><time>2026-04-13T08:26:53Z</time></trkpt><trkpt lat="48.51621166531148" lon="3.3411639263382127"><ele>157.0</ele><time>2026-04-13T08:26:55Z</time></trkpt><trkpt lat="48.51609213160009" lon="3.3411270638994863"><ele>157.0</ele><time>2026-04-13T08:26:57Z</time></trkpt><trkpt lat="48.5160310640984" lon="3.3411035673135245"><ele>157.0</ele><time>2026-04-13T08:26:58Z</time></trkpt><trkpt lat="48.515969032203486" lon="3.341083221769956"><ele>157.16666666666669</ele><time>2026-04-13T08:26:59Z</time></trkpt><trkpt lat="48.515907378387475" lon="3.3410633382381647"><ele>157.33333333333334</ele><time>2026-04-13T08:27:00Z</time></trkpt><trkpt lat="48.51578397342083" lon="3.341028107663782"><ele>157.5</ele><time>2026-04-13T08:27:02Z</time></trkpt><trkpt lat="48.515721110220774" lon="3.3410150086660284"><ele>157.66666666666666</ele><time>2026-04-13T08:27:03Z</time></trkpt><trkpt lat="48.5156564364933" lon="3.341001736798006"><ele>157.83333333333331</ele><time>2026-04-13T08:27:04Z</time></trkpt><trkpt lat="48.51558912388549" lon="3.3409883406437557"><ele>158.0</ele><time>2026-04-13T08:27:05Z</time></trkpt><trkpt lat="48.51552181926044" lon="3.34097323369198"><ele>158.00000000000003</ele><time>2026-04-13T08:27:06Z</time></trkpt><trkpt lat="48.51545235588253" lon="3.3409623241073763"><ele>158.0</ele><time>2026-04-13T08:27:07Z</time></trkpt><trkpt lat="48.51538525922663" lon="3.3409528736520673"><ele>158.0</ele><time>2026-04-13T08:27:08Z</time></trkpt><trkpt lat="48.51531679045937" lon="3.3409454936293144"><ele>158.0</ele><time>2026-04-13T08:27:09Z</time></trkpt><trkpt lat="48.515248610869726" lon="3.340931876482322"><ele>158.0</ele><time>2026-04-13T08:27:10Z</time></trkpt><trkpt lat="48.51517800813012" lon="3.3409169386730566"><ele>158.00000000000003</ele><time>2026-04-13T08:27:11Z</time></trkpt><trkpt lat="48.51510649999774" lon="3.3409029317690995"><ele>158.0</ele><time>2026-04-13T08:27:12Z</time></trkpt><trkpt lat="48.5150320383908" lon="3.340889433032933"><ele>157.83333333333331</ele><time>2026-04-13T08:27:13Z</time></trkpt><trkpt lat="48.51495551360847" lon="3.340878692577862"><ele>157.66666666666666</ele><time>2026-04-13T08:27:14Z</time></trkpt><trkpt lat="48.51487753681979" lon="3.340867597651072"><ele>157.5</ele><time>2026-04-13T08:27:15Z</time></trkpt><trkpt lat="48.5147979309424" lon="3.34085274167561"><ele>157.33333333333334</ele><time>2026-04-13T08:27:16Z</time></trkpt><trkpt lat="48.514719008167845" lon="3.340835088860822"><ele>157.16666666666669</ele><time>2026-04-13T08:27:17Z</time></trkpt><trkpt lat="48.514639538785495" lon="3.340818387148672"><ele>157.0</ele><time>2026-04-13T08:27:18Z</time></trkpt><trkpt lat="48.514559984519856" lon="3.340799807131153"><ele>156.66666666666669</ele><time>2026-04-13T08:27:19Z</time></trkpt><trkpt lat="48.5144832504009" lon="3.340782772131026"><ele>156.33333333333334</ele><time>2026-04-13T08:27:20Z</time></trkpt><trkpt lat="48.514406875969634" lon="3.3407642699342723"><ele>156.0</ele><time>2026-04-13T08:27:21Z</time></trkpt><trkpt lat="48.51433088416778" lon="3.340744360974004"><ele>155.66666666666666</ele><time>2026-04-13T08:27:22Z</time></trkpt><trkpt lat="48.51425575768014" lon="3.340724008985504"><ele>155.33333333333331</ele><time>2026-04-13T08:27:23Z</time></trkpt><trkpt lat="48.51417755278481" lon="3.340707826258494"><ele>155.0</ele><time>2026-04-13T08:27:24Z</time></trkpt><trkpt lat="48.51410215278628" lon="3.340692399452312"><ele>155.0</ele><time>2026-04-13T08:27:25Z</time></trkpt><trkpt lat="48.514027741615195" lon="3.340673442453057"><ele>155.0</ele><time>2026-04-13T08:27:26Z</time></trkpt><trkpt lat="48.51395287252371" lon="3.340655181993269"><ele>155.0</ele><time>2026-04-13T08:27:27Z</time></trkpt><trkpt lat="48.5138780590657" lon="3.34063814336691"><ele>155.0</ele><time>2026-04-13T08:27:28Z</time></trkpt><trkpt lat="48.51380559274988" lon="3.3406208213763136"><ele>155.0</ele><time>2026-04-13T08:27:29Z</time></trkpt><trkpt lat="48.51372884171802" lon="3.3406018631220182"><ele>155.0</ele><time>2026-04-13T08:27:30Z</time></trkpt><trkpt lat="48.51365316524713" lon="3.3405831352833797"><ele>155.0</ele><time>2026-04-13T08:27:31Z</time></trkpt><trkpt lat="48.51357827416751" lon="3.340563032324918"><ele>155.0</ele><time>2026-04-13T08:27:32Z</time></trkpt><trkpt lat="48.51350248704641" lon="3.340544598368446"><ele>155.0</ele><time>2026-04-13T08:27:33Z</time></trkpt><trkpt lat="48.51342599085733" lon="3.340524480666128"><ele>155.0</ele><time>2026-04-13T08:27:34Z</time></trkpt><trkpt lat="48.51335107604777" lon="3.3405084100007936"><ele>155.0</ele><time>2026-04-13T08:27:35Z</time></trkpt><trkpt lat="48.513278019860984" lon="3.3405062050524053"><ele>155.0</ele><time>2026-04-13T08:27:36Z</time></trkpt><trkpt lat="48.513206934159975" lon="3.3404917207348537"><ele>155.0</ele><time>2026-04-13T08:27:37Z</time></trkpt><trkpt lat="48.51313626762614" lon="3.340469759136047"><ele>155.0</ele><time>2026-04-13T08:27:38Z</time></trkpt><trkpt lat="48.51306458901943" lon="3.3404403439254606"><ele>155.0</ele><time>2026-04-13T08:27:39Z</time></trkpt><trkpt lat="48.512991916872785" lon="3.340417390560594"><ele>155.0</ele><time>2026-04-13T08:27:40Z</time></trkpt><trkpt lat="48.512919762207595" lon="3.340400226609179"><ele>155.0</ele><time>2026-04-13T08:27:41Z</time></trkpt><trkpt lat="48.51284584267462" lon="3.340385392620064"><ele>155.0</ele><time>2026-04-13T08:27:42Z</time></trkpt><trkpt lat="48.51277342950146" lon="3.3403691936248654"><ele>155.0</ele><time>2026-04-13T08:27:43Z</time></trkpt><trkpt lat="48.51269945381585" lon="3.340355048959573"><ele>155.0</ele><time>2026-04-13T08:27:44Z</time></trkpt><trkpt lat="48.512625480627605" lon="3.3403364539675184"><ele>155.0</ele><time>2026-04-13T08:27:45Z</time></trkpt><trkpt lat="48.512551176817055" lon="3.340318547702424"><ele>155.0</ele><time>2026-04-13T08:27:46Z</time></trkpt><trkpt lat="48.51247520277105" lon="3.3402990304470337"><ele>155.0</ele><time>2026-04-13T08:27:47Z</time></trkpt><trkpt lat="48.51240222389888" lon="3.340282045570491"><ele>155.0</ele><time>2026-04-13T08:27:48Z</time></trkpt><trkpt lat="48.51232678728939" lon="3.340264596869244"><ele>155.0</ele><time>2026-04-13T08:27:49Z</time></trkpt><trkpt lat="48.51225412195588" lon="3.340245198922057"><ele>155.0</ele><time>2026-04-13T08:27:50Z</time></trkpt><trkpt lat="48.51217800512246" lon="3.3402256316711822"><ele>155.0</ele><time>2026-04-13T08:27:51Z</time></trkpt><trkpt lat="48.512101820273145" lon="3.340211630395356"><ele>155.0</ele><time>2026-04-13T08:27:52Z</time></trkpt><trkpt lat="48.512023512641065" lon="3.340191880535885"><ele>155.0</ele><time>2026-04-13T08:27:53Z</time></trkpt><trkpt lat="48.511947872442065" lon="3.3401647989232695"><ele>155.0</ele><time>2026-04-13T08:27:54Z</time></trkpt><trkpt lat="48.51187240590861" lon="3.340139007212236"><ele>155.0</ele><time>2026-04-13T08:27:55Z</time></trkpt><trkpt lat="48.51179579641019" lon="3.340117077445713"><ele>154.66666666666666</ele><time>2026-04-13T08:27:56Z</time></trkpt><trkpt lat="48.5117180407109" lon="3.340096670680694"><ele>154.33333333333331</ele><time>2026-04-13T08:27:57Z</time></trkpt><trkpt lat="48.511639008455475" lon="3.3400743748843573"><ele>154.0</ele><time>2026-04-13T08:27:58Z</time></trkpt><trkpt lat="48.51156474983201" lon="3.340051867266858"><ele>153.66666666666666</ele><time>2026-04-13T08:27:59Z</time></trkpt><trkpt lat="48.51148664526351" lon="3.3400267190182755"><ele>153.33333333333334</ele><time>2026-04-13T08:28:00Z</time></trkpt><trkpt lat="48.51140966130059" lon="3.3400024469558134"><ele>153.0</ele><time>2026-04-13T08:28:01Z</time></trkpt><trkpt lat="48.51133203000432" lon="3.33997719646249"><ele>153.0</ele><time>2026-04-13T08:28:02Z</time></trkpt><trkpt lat="48.51125560921326" lon="3.339964063806317"><ele>153.0</ele><time>2026-04-13T08:28:03Z</time></trkpt><trkpt lat="48.51117995504719" lon="3.3399394918123853"><ele>153.0</ele><time>2026-04-13T08:28:04Z</time></trkpt><trkpt lat="48.51110450469514" lon="3.3399091498374895"><ele>153.0</ele><time>2026-04-13T08:28:05Z</time></trkpt><trkpt lat="48.51102754621424" lon="3.339877504675815"><ele>153.0</ele><time>2026-04-13T08:28:06Z</time></trkpt><trkpt lat="48.51094944575235" lon="3.3398541851738908"><ele>153.0</ele><time>2026-04-13T08:28:07Z</time></trkpt><trkpt lat="48.51087197728823" lon="3.339834049060146"><ele>153.0</ele><time>2026-04-13T08:28:08Z</time></trkpt><trkpt lat="48.51079433085505" lon="3.339813311683461"><ele>153.0</ele><time>2026-04-13T08:28:09Z</time></trkpt><trkpt lat="48.51071756776663" lon="3.3397902451366517"><ele>153.0</ele><time>2026-04-13T08:28:10Z</time></trkpt><trkpt lat="48.51064046375144" lon="3.339767593878422"><ele>153.0</ele><time>2026-04-13T08:28:11Z</time></trkpt><trkpt lat="48.51056344764353" lon="3.33974622690534"><ele>153.0</ele><time>2026-04-13T08:28:12Z</time></trkpt><trkpt lat="48.51048517263835" lon="3.3397225796344387"><ele>153.0</ele><time>2026-04-13T08:28:13Z</time></trkpt><trkpt lat="48.51040633657359" lon="3.3396974249143296"><ele>153.0</ele><time>2026-04-13T08:28:14Z</time></trkpt><trkpt lat="48.51032865781235" lon="3.3396735209319566"><ele>153.0</ele><time>2026-04-13T08:28:15Z</time></trkpt><trkpt lat="48.510249095835974" lon="3.3396499988248816"><ele>153.0</ele><time>2026-04-13T08:28:16Z</time></trkpt><trkpt lat="48.51017107054572" lon="3.3396260191115905"><ele>153.0</ele><time>2026-04-13T08:28:17Z</time></trkpt><trkpt lat="48.51009157843325" lon="3.3396023193410196"><ele>153.0</ele><time>2026-04-13T08:28:18Z</time></trkpt><trkpt lat="48.51001570343901" lon="3.3395819102456157"><ele>153.0</ele><time>2026-04-13T08:28:19Z</time></trkpt><trkpt lat="48.50994059199243" lon="3.339562006136162"><ele>153.0</ele><time>2026-04-13T08:28:20Z</time></trkpt><trkpt lat="48.50986134958349" lon="3.3395440958499836"><ele>153.0</ele><time>2026-04-13T08:28:21Z</time></trkpt><trkpt lat="48.5097877987461" lon="3.3395225653933087"><ele>153.0</ele><time>2026-04-13T08:28:22Z</time></trkpt><trkpt lat="48.50971477935903" lon="3.3394980084447785"><ele>153.0</ele><time>2026-04-13T08:28:23Z</time></trkpt><trkpt lat="48.50964144917843" lon="3.339475269149566"><ele>153.0</ele><time>2026-04-13T08:28:24Z</time></trkpt><trkpt lat="48.50956796024987" lon="3.339458026426292"><ele>153.0</ele><time>2026-04-13T08:28:25Z</time></trkpt><trkpt lat="48.5094973886965" lon="3.339443301972995"><ele>153.0</ele><time>2026-04-13T08:28:26Z</time></trkpt><trkpt lat="48.50942678410115" lon="3.339428031176743"><ele>153.0</ele><time>2026-04-13T08:28:27Z</time></trkpt><trkpt lat="48.50935615369341" lon="3.33940934764014"><ele>153.0</ele><time>2026-04-13T08:28:28Z</time></trkpt><trkpt lat="48.509288448471075" lon="3.3393865060378762"><ele>153.0</ele><time>2026-04-13T08:28:29Z</time></trkpt><trkpt lat="48.50921990456917" lon="3.3393657124493124"><ele>153.0</ele><time>2026-04-13T08:28:30Z</time></trkpt><trkpt lat="48.509154995972196" lon="3.3393443412470667"><ele>153.0</ele><time>2026-04-13T08:28:31Z</time></trkpt><trkpt lat="48.5090907193712" lon="3.3393292158364307"><ele>153.0</ele><time>2026-04-13T08:28:32Z</time></trkpt><trkpt lat="48.5090245865182" lon="3.3393119324731138"><ele>153.0</ele><time>2026-04-13T08:28:33Z</time></trkpt><trkpt lat="48.50895910594554" lon="3.3392935012694327"><ele>153.0</ele><time>2026-04-13T08:28:34Z</time></trkpt><trkpt lat="48.50889377931149" lon="3.3392754539533938"><ele>153.0</ele><time>2026-04-13T08:28:35Z</time></trkpt><trkpt lat="48.50883003596351" lon="3.339256388447813"><ele>153.0</ele><time>2026-04-13T08:28:36Z</time></trkpt><trkpt lat="48.508765738155695" lon="3.3392391889124253"><ele>153.0</ele><time>2026-04-13T08:28:37Z</time></trkpt><trkpt lat="48.50870363626632" lon="3.3392224280002285"><ele>153.0</ele><time>2026-04-13T08:28:38Z</time></trkpt><trkpt lat="48.50863869116645" lon="3.3392076818531597"><ele>153.0</ele><time>2026-04-13T08:28:39Z</time></trkpt><trkpt lat="48.508576777872946" lon="3.3391894953003445"><ele>153.33333333333334</ele><time>2026-04-13T08:28:40Z</time></trkpt><trkpt lat="48.50851359296429" lon="3.339172769138035"><ele>153.66666666666666</ele><time>2026-04-13T08:28:41Z</time></trkpt><trkpt lat="48.50845105882221" lon="3.3391563796327177"><ele>154.0</ele><time>2026-04-13T08:28:42Z</time></trkpt><trkpt lat="48.50838881754745" lon="3.3391411851055675"><ele>154.33333333333331</ele><time>2026-04-13T08:28:43Z</time></trkpt><trkpt lat="48.50826677156149" lon="3.3391056212545465"><ele>154.66666666666666</ele><time>2026-04-13T08:28:45Z</time></trkpt><trkpt lat="48.508145109293466" lon="3.3390750155274995"><ele>155.0</ele><time>2026-04-13T08:28:47Z</time></trkpt><trkpt lat="48.50802435150388" lon="3.339037357845551"><ele>155.0</ele><time>2026-04-13T08:28:49Z</time></trkpt><trkpt lat="48.50796176839809" lon="3.3390235888717763"><ele>155.0</ele><time>2026-04-13T08:28:50Z</time></trkpt><trkpt lat="48.507843409429626" lon="3.3389926129366883"><ele>155.0</ele><time>2026-04-13T08:28:52Z</time></trkpt><trkpt lat="48.50772748522493" lon="3.338980185203902"><ele>155.0</ele><time>2026-04-13T08:28:54Z</time></trkpt><trkpt lat="48.507609940834115" lon="3.3389662125295883"><ele>155.0</ele><time>2026-04-13T08:28:56Z</time></trkpt><trkpt lat="48.5075473294883" lon="3.338944029748908"><ele>155.14285714285714</ele><time>2026-04-13T08:28:57Z</time></trkpt><trkpt lat="48.50748471557191" lon="3.338924625667954"><ele>155.28571428571428</ele><time>2026-04-13T08:28:58Z</time></trkpt><trkpt lat="48.50742174163006" lon="3.338908199659123"><ele>155.42857142857144</ele><time>2026-04-13T08:28:59Z</time></trkpt><trkpt lat="48.50735705375284" lon="3.33888967060152"><ele>155.57142857142856</ele><time>2026-04-13T08:29:00Z</time></trkpt><trkpt lat="48.507293880351725" lon="3.338867482620205"><ele>155.7142857142857</ele><time>2026-04-13T08:29:01Z</time></trkpt><trkpt lat="48.50722769808863" lon="3.338845738197072"><ele>155.85714285714286</ele><time>2026-04-13T08:29:02Z</time></trkpt><trkpt lat="48.50715994361506" lon="3.3388282261005657"><ele>156.0</ele><time>2026-04-13T08:29:03Z</time></trkpt><trkpt lat="48.50708916617663" lon="3.338811200131706"><ele>155.66666666666666</ele><time>2026-04-13T08:29:04Z</time></trkpt><trkpt lat="48.5070156732481" lon="3.338801125178465"><ele>155.33333333333334</ele><time>2026-04-13T08:29:05Z</time></trkpt><trkpt lat="48.50694167771018" lon="3.338791152085146"><ele>155.0</ele><time>2026-04-13T08:29:06Z</time></trkpt><trkpt lat="48.50686693409046" lon="3.338775791970962"><ele>154.66666666666669</ele><time>2026-04-13T08:29:07Z</time></trkpt><trkpt lat="48.50678792196842" lon="3.338757992675428"><ele>154.33333333333334</ele><time>2026-04-13T08:29:08Z</time></trkpt><trkpt lat="48.50670769888782" lon="3.338743825792582"><ele>154.0</ele><time>2026-04-13T08:29:09Z</time></trkpt><trkpt lat="48.50662577498292" lon="3.3387299631828067"><ele>154.0</ele><time>2026-04-13T08:29:10Z</time></trkpt><trkpt lat="48.506542806877476" lon="3.338716426303329"><ele>154.0</ele><time>2026-04-13T08:29:11Z</time></trkpt><trkpt lat="48.50645996427679" lon="3.338708796000618"><ele>154.0</ele><time>2026-04-13T08:29:12Z</time></trkpt><trkpt lat="48.50637516042996" lon="3.3386975321555807"><ele>154.0</ele><time>2026-04-13T08:29:13Z</time></trkpt><trkpt lat="48.50629213928961" lon="3.338678902278599"><ele>154.0</ele><time>2026-04-13T08:29:14Z</time></trkpt><trkpt lat="48.506207621575754" lon="3.3386566918033087"><ele>154.0</ele><time>2026-04-13T08:29:15Z</time></trkpt><trkpt lat="48.506121726269306" lon="3.3386392696456246"><ele>153.33333333333334</ele><time>2026-04-13T08:29:16Z</time></trkpt><trkpt lat="48.50603373082774" lon="3.338624951005744"><ele>152.66666666666669</ele><time>2026-04-13T08:29:17Z</time></trkpt><trkpt lat="48.50594826572721" lon="3.338605022611494"><ele>152.0</ele><time>2026-04-13T08:29:18Z</time></trkpt><trkpt lat="48.50586058723706" lon="3.338590072662324"><ele>151.33333333333334</ele><time>2026-04-13T08:29:19Z</time></trkpt><trkpt lat="48.50577274163431" lon="3.3385760827471564"><ele>150.66666666666666</ele><time>2026-04-13T08:29:20Z</time></trkpt><trkpt lat="48.50568516971676" lon="3.3385601452694473"><ele>150.0</ele><time>2026-04-13T08:29:21Z</time></trkpt><trkpt lat="48.5055951038731" lon="3.3385502009712273"><ele>150.0</ele><time>2026-04-13T08:29:22Z</time></trkpt><trkpt lat="48.505504751701515" lon="3.3385368828200264"><ele>150.0</ele><time>2026-04-13T08:29:23Z</time></trkpt><trkpt lat="48.50541705366845" lon="3.3385225013826294"><ele>150.0</ele><time>2026-04-13T08:29:24Z</time></trkpt><trkpt lat="48.505329515642245" lon="3.33851285073103"><ele>150.0</ele><time>2026-04-13T08:29:25Z</time></trkpt><trkpt lat="48.505244612754936" lon="3.3385033923466034"><ele>150.0</ele><time>2026-04-13T08:29:26Z</time></trkpt><trkpt lat="48.50515965903049" lon="3.33849453269762"><ele>150.0</ele><time>2026-04-13T08:29:27Z</time></trkpt><trkpt lat="48.50507073611558" lon="3.3384922125502197"><ele>150.2</ele><time>2026-04-13T08:29:28Z</time></trkpt><trkpt lat="48.504976871797915" lon="3.338491773602306"><ele>150.4</ele><time>2026-04-13T08:29:29Z</time></trkpt><trkpt lat="48.50488383520551" lon="3.338491697118682"><ele>150.6</ele><time>2026-04-13T08:29:30Z</time></trkpt><trkpt lat="48.504791147787174" lon="3.338485403645838"><ele>150.8</ele><time>2026-04-13T08:29:31Z</time></trkpt><trkpt lat="48.50469407587236" lon="3.3384882219888143"><ele>151.0</ele><time>2026-04-13T08:29:32Z</time></trkpt><trkpt lat="48.50459896246179" lon="3.338499306983107"><ele>151.4</ele><time>2026-04-13T08:29:33Z</time></trkpt><trkpt lat="48.50450379672299" lon="3.338508703993134"><ele>151.8</ele><time>2026-04-13T08:29:34Z</time></trkpt><trkpt lat="48.50441146964819" lon="3.3385123261442367"><ele>152.20000000000002</ele><time>2026-04-13T08:29:35Z</time></trkpt><trkpt lat="48.50431761509413" lon="3.3385396289449782"><ele>152.6</ele><time>2026-04-13T08:29:36Z</time></trkpt><trkpt lat="48.50422569565583" lon="3.3385490040821573"><ele>153.0</ele><time>2026-04-13T08:29:37Z</time></trkpt><trkpt lat="48.50413085416334" lon="3.3385724918840567"><ele>153.0</ele><time>2026-04-13T08:29:38Z</time></trkpt><trkpt lat="48.50403767551677" lon="3.3385848330320593"><ele>153.0</ele><time>2026-04-13T08:29:39Z</time></trkpt><trkpt lat="48.50394326982377" lon="3.338599188588405"><ele>153.0</ele><time>2026-04-13T08:29:40Z</time></trkpt><trkpt lat="48.50385033550546" lon="3.3386140444641574"><ele>153.0</ele><time>2026-04-13T08:29:41Z</time></trkpt><trkpt lat="48.503753245350445" lon="3.3386206475218434"><ele>153.0</ele><time>2026-04-13T08:29:42Z</time></trkpt><trkpt lat="48.50365635533846" lon="3.3386209001028506"><ele>151.20000000000002</ele><time>2026-04-13T08:29:43Z</time></trkpt><trkpt lat="48.50355925715542" lon="3.3386199372739775"><ele>149.4</ele><time>2026-04-13T08:29:44Z</time></trkpt><trkpt lat="48.50346253318974" lon="3.338605262533972"><ele>147.60000000000002</ele><time>2026-04-13T08:29:45Z</time></trkpt><trkpt lat="48.50336362229272" lon="3.338590886960777"><ele>145.8</ele><time>2026-04-13T08:29:46Z</time></trkpt><trkpt lat="48.503266431397506" lon="3.3385767167944724"><ele>144.0</ele><time>2026-04-13T08:29:47Z</time></trkpt><trkpt lat="48.503170354527654" lon="3.3385524642441395"><ele>144.0</ele><time>2026-04-13T08:29:48Z</time></trkpt><trkpt lat="48.5030738823743" lon="3.338526734883962"><ele>144.0</ele><time>2026-04-13T08:29:49Z</time></trkpt><trkpt lat="48.502978180563176" lon="3.3384997492278394"><ele>144.0</ele><time>2026-04-13T08:29:50Z</time></trkpt><trkpt lat="48.50288208908993" lon="3.338468293942516"><ele>144.0</ele><time>2026-04-13T08:29:51Z</time></trkpt><trkpt lat="48.50278679400455" lon="3.338432373579563"><ele>144.0</ele><time>2026-04-13T08:29:52Z</time></trkpt><trkpt lat="48.502688700672024" lon="3.3383995638808264"><ele>143.0</ele><time>2026-04-13T08:29:53Z</time></trkpt><trkpt lat="48.50259173131615" lon="3.338364353551093"><ele>142.0</ele><time>2026-04-13T08:29:54Z</time></trkpt><trkpt lat="48.50249226589469" lon="3.3383283343756482"><ele>141.0</ele><time>2026-04-13T08:29:55Z</time></trkpt><trkpt lat="48.502392676297454" lon="3.338292218423563"><ele>140.0</ele><time>2026-04-13T08:29:56Z</time></trkpt><trkpt lat="48.50229280049654" lon="3.3382572913664017"><ele>139.0</ele><time>2026-04-13T08:29:57Z</time></trkpt><trkpt lat="48.50219393369018" lon="3.3382209674049674"><ele>139.0</ele><time>2026-04-13T08:29:58Z</time></trkpt><trkpt lat="48.502097051623586" lon="3.3381917820885323"><ele>139.0</ele><time>2026-04-13T08:29:59Z</time></trkpt><trkpt lat="48.50199937639743" lon="3.338160148434549"><ele>139.0</ele><time>2026-04-13T08:30:00Z</time></trkpt><trkpt lat="48.50190488652952" lon="3.338124590969293"><ele>139.0</ele><time>2026-04-13T08:30:01Z</time></trkpt><trkpt lat="48.50180941012916" lon="3.3380925762193483"><ele>139.0</ele><time>2026-04-13T08:30:02Z</time></trkpt><trkpt lat="48.501716726007366" lon="3.3380618407818483"><ele>138.6</ele><time>2026-04-13T08:30:03Z</time></trkpt><trkpt lat="48.50162600242151" lon="3.3380336711471914"><ele>138.2</ele><time>2026-04-13T08:30:04Z</time></trkpt><trkpt lat="48.501533620220066" lon="3.338014137734492"><ele>137.79999999999998</ele><time>2026-04-13T08:30:05Z</time></trkpt><trkpt lat="48.50144275057674" lon="3.338006567786212"><ele>137.4</ele><time>2026-04-13T08:30:06Z</time></trkpt><trkpt lat="48.50135354533361" lon="3.3380181026580042"><ele>137.0</ele><time>2026-04-13T08:30:07Z</time></trkpt><trkpt lat="48.50126694084004" lon="3.33805450788525"><ele>135.0</ele><time>2026-04-13T08:30:08Z</time></trkpt><trkpt lat="48.501185357481305" lon="3.3381174102544957"><ele>133.0</ele><time>2026-04-13T08:30:09Z</time></trkpt><trkpt lat="48.50111337570493" lon="3.3382025736631733"><ele>131.0</ele><time>2026-04-13T08:30:10Z</time></trkpt><trkpt lat="48.50104902009519" lon="3.3383062680577473"><ele>129.0</ele><time>2026-04-13T08:30:11Z</time></trkpt><trkpt lat="48.50099035497484" lon="3.3384167179923905"><ele>127.0</ele><time>2026-04-13T08:30:12Z</time></trkpt><trkpt lat="48.500940262319084" lon="3.3385429799957853"><ele>127.0</ele><time>2026-04-13T08:30:13Z</time></trkpt><trkpt lat="48.500888850383845" lon="3.3386722775499353"><ele>126.99999999999999</ele><time>2026-04-13T08:30:14Z</time></trkpt><trkpt lat="48.5008349494394" lon="3.3388026453970507"><ele>126.99999999999999</ele><time>2026-04-13T08:30:15Z</time></trkpt><trkpt lat="48.500780162707166" lon="3.338930892487774"><ele>127.0</ele><time>2026-04-13T08:30:16Z</time></trkpt><trkpt lat="48.50072228116798" lon="3.3390572438248163"><ele>127.0</ele><time>2026-04-13T08:30:17Z</time></trkpt><trkpt lat="48.500657204271214" lon="3.339175932280302"><ele>127.6</ele><time>2026-04-13T08:30:18Z</time></trkpt><trkpt lat="48.50058650869128" lon="3.339283140848933"><ele>128.2</ele><time>2026-04-13T08:30:19Z</time></trkpt><trkpt lat="48.50051423203324" lon="3.339388328323702"><ele>128.8</ele><time>2026-04-13T08:30:20Z</time></trkpt><trkpt lat="48.50043865887177" lon="3.3394949886971856"><ele>129.4</ele><time>2026-04-13T08:30:21Z</time></trkpt><trkpt lat="48.50036240655693" lon="3.3396040834015035"><ele>130.0</ele><time>2026-04-13T08:30:22Z</time></trkpt><trkpt lat="48.50028696588988" lon="3.3397151450767084"><ele>127.8</ele><time>2026-04-13T08:30:23Z</time></trkpt><trkpt lat="48.500211532194996" lon="3.339824983058566"><ele>125.6</ele><time>2026-04-13T08:30:24Z</time></trkpt><trkpt lat="48.50013661615276" lon="3.339933980968242"><ele>123.4</ele><time>2026-04-13T08:30:25Z</time></trkpt><trkpt lat="48.50006022337097" lon="3.3400404756271316"><ele>121.2</ele><time>2026-04-13T08:30:26Z</time></trkpt><trkpt lat="48.49998106565056" lon="3.3401423036767417"><ele>119.0</ele><time>2026-04-13T08:30:27Z</time></trkpt><trkpt lat="48.49989676438483" lon="3.340230707368634"><ele>119.0</ele><time>2026-04-13T08:30:28Z</time></trkpt><trkpt lat="48.49980407168133" lon="3.340299287075561"><ele>119.0</ele><time>2026-04-13T08:30:29Z</time></trkpt><trkpt lat="48.49970704293848" lon="3.340349358769649"><ele>119.0</ele><time>2026-04-13T08:30:30Z</time></trkpt><trkpt lat="48.49960818420639" lon="3.3403897536751535"><ele>119.0</ele><time>2026-04-13T08:30:31Z</time></trkpt><trkpt lat="48.4995088468963" lon="3.3404281887516083"><ele>119.0</ele><time>2026-04-13T08:30:32Z</time></trkpt><trkpt lat="48.49940801937596" lon="3.34046101627962"><ele>118.80000000000001</ele><time>2026-04-13T08:30:33Z</time></trkpt><trkpt lat="48.49930580479319" lon="3.340487021466715"><ele>118.60000000000001</ele><time>2026-04-13T08:30:34Z</time></trkpt><trkpt lat="48.4992015156905" lon="3.3405120731482825"><ele>118.4</ele><time>2026-04-13T08:30:35Z</time></trkpt><trkpt lat="48.49909749009174" lon="3.3405373542483496"><ele>118.2</ele><time>2026-04-13T08:30:36Z</time></trkpt><trkpt lat="48.498992339112824" lon="3.340562311179154"><ele>118.0</ele><time>2026-04-13T08:30:37Z</time></trkpt><trkpt lat="48.49888656229455" lon="3.340585430376859"><ele>118.0</ele><time>2026-04-13T08:30:38Z</time></trkpt><trkpt lat="48.49878192598841" lon="3.3406104327926474"><ele>118.00000000000001</ele><time>2026-04-13T08:30:39Z</time></trkpt><trkpt lat="48.49867631828626" lon="3.3406444733791343"><ele>118.00000000000001</ele><time>2026-04-13T08:30:40Z</time></trkpt><trkpt lat="48.498574543687205" lon="3.340689803137431"><ele>118.0</ele><time>2026-04-13T08:30:41Z</time></trkpt><trkpt lat="48.49847422856008" lon="3.3407385843690522"><ele>118.0</ele><time>2026-04-13T08:30:42Z</time></trkpt><trkpt lat="48.49837790750586" lon="3.3407966493841452"><ele>115.4</ele><time>2026-04-13T08:30:43Z</time></trkpt><trkpt lat="48.498286532888386" lon="3.340861725283879"><ele>112.80000000000001</ele><time>2026-04-13T08:30:44Z</time></trkpt><trkpt lat="48.49819178885987" lon="3.340914384893784"><ele>110.2</ele><time>2026-04-13T08:30:45Z</time></trkpt><trkpt lat="48.498099604023814" lon="3.3409692800157607"><ele>107.6</ele><time>2026-04-13T08:30:46Z</time></trkpt><trkpt lat="48.498007892672945" lon="3.3410278825694233"><ele>105.0</ele><time>2026-04-13T08:30:47Z</time></trkpt><trkpt lat="48.49791538978847" lon="3.341090381062023"><ele>104.6</ele><time>2026-04-13T08:30:48Z</time></trkpt><trkpt lat="48.497821668643915" lon="3.3411535958644207"><ele>104.2</ele><time>2026-04-13T08:30:49Z</time></trkpt><trkpt lat="48.497727920684696" lon="3.3412165150041604"><ele>103.80000000000001</ele><time>2026-04-13T08:30:50Z</time></trkpt><trkpt lat="48.49763280500885" lon="3.3412829840529352"><ele>103.4</ele><time>2026-04-13T08:30:51Z</time></trkpt><trkpt lat="48.497537827344054" lon="3.341355785083965"><ele>103.0</ele><time>2026-04-13T08:30:52Z</time></trkpt><trkpt lat="48.497441452572396" lon="3.34143571298647"><ele>103.0</ele><time>2026-04-13T08:30:53Z</time></trkpt><trkpt lat="48.49734612069294" lon="3.3415266351591577"><ele>103.0</ele><time>2026-04-13T08:30:54Z</time></trkpt><trkpt lat="48.49725247659931" lon="3.341616294712238"><ele>103.0</ele><time>2026-04-13T08:30:55Z</time></trkpt><trkpt lat="48.49715594851317" lon="3.34170287736458"><ele>103.0</ele><time>2026-04-13T08:30:56Z</time></trkpt><trkpt lat="48.49705895404374" lon="3.3417917024126584"><ele>103.0</ele><time>2026-04-13T08:30:57Z</time></trkpt><trkpt lat="48.49696100559816" lon="3.3418817345736036"><ele>101.5</ele><time>2026-04-13T08:30:58Z</time></trkpt><trkpt lat="48.49686071067476" lon="3.3419677873968547"><ele>100.0</ele><time>2026-04-13T08:30:59Z</time></trkpt><trkpt lat="48.496760451467026" lon="3.3420571529680654"><ele>98.5</ele><time>2026-04-13T08:31:00Z</time></trkpt><trkpt lat="48.49666178068126" lon="3.3421512013087047"><ele>97.0</ele><time>2026-04-13T08:31:01Z</time></trkpt><trkpt lat="48.4965603022972" lon="3.34224224116194"><ele>97.0</ele><time>2026-04-13T08:31:02Z</time></trkpt><trkpt lat="48.49646072583038" lon="3.3423314846794088"><ele>97.0</ele><time>2026-04-13T08:31:03Z</time></trkpt><trkpt lat="48.496360431683634" lon="3.3424148162172984"><ele>97.0</ele><time>2026-04-13T08:31:04Z</time></trkpt><trkpt lat="48.49626109544141" lon="3.342496242484939"><ele>97.0</ele><time>2026-04-13T08:31:05Z</time></trkpt><trkpt lat="48.49616278205809" lon="3.342572715516337"><ele>95.6</ele><time>2026-04-13T08:31:06Z</time></trkpt><trkpt lat="48.496066002434446" lon="3.3426495414845485"><ele>94.19999999999999</ele><time>2026-04-13T08:31:07Z</time></trkpt><trkpt lat="48.49597323884717" lon="3.3427307336965604"><ele>92.8</ele><time>2026-04-13T08:31:08Z</time></trkpt><trkpt lat="48.49587822296749" lon="3.3428012468553425"><ele>91.4</ele><time>2026-04-13T08:31:09Z</time></trkpt><trkpt lat="48.49578562218459" lon="3.342866720596909"><ele>90.0</ele><time>2026-04-13T08:31:10Z</time></trkpt><trkpt lat="48.495697490011125" lon="3.342934844976174"><ele>90.0</ele><time>2026-04-13T08:31:11Z</time></trkpt><trkpt lat="48.49560523969897" lon="3.3429992769498305"><ele>90.0</ele><time>2026-04-13T08:31:12Z</time></trkpt><trkpt lat="48.495512385094834" lon="3.343061027670289"><ele>90.0</ele><time>2026-04-13T08:31:13Z</time></trkpt><trkpt lat="48.495415822735815" lon="3.3431148251491356"><ele>90.0</ele><time>2026-04-13T08:31:14Z</time></trkpt><trkpt lat="48.495316713404016" lon="3.3431615698781716"><ele>90.0</ele><time>2026-04-13T08:31:15Z</time></trkpt><trkpt lat="48.49521704591152" lon="3.3432012929557477"><ele>89.8</ele><time>2026-04-13T08:31:16Z</time></trkpt><trkpt lat="48.49511831151762" lon="3.34323980357394"><ele>89.6</ele><time>2026-04-13T08:31:17Z</time></trkpt><trkpt lat="48.495017773421885" lon="3.3432748907997256"><ele>89.4</ele><time>2026-04-13T08:31:18Z</time></trkpt><trkpt lat="48.49491787238288" lon="3.3432962195451528"><ele>89.2</ele><time>2026-04-13T08:31:19Z</time></trkpt><trkpt lat="48.49481820611204" lon="3.343306180381964"><ele>89.0</ele><time>2026-04-13T08:31:20Z</time></trkpt><trkpt lat="48.49471831126967" lon="3.343315072266071"><ele>89.0</ele><time>2026-04-13T08:31:21Z</time></trkpt><trkpt lat="48.49461881010368" lon="3.3433256151960986"><ele>89.0</ele><time>2026-04-13T08:31:22Z</time></trkpt><trkpt lat="48.49452009847058" lon="3.343332469270085"><ele>89.0</ele><time>2026-04-13T08:31:23Z</time></trkpt><trkpt lat="48.494421319779995" lon="3.3433330448642926"><ele>89.0</ele><time>2026-04-13T08:31:24Z</time></trkpt><trkpt lat="48.4943208662579" lon="3.3433328747044126"><ele>89.0</ele><time>2026-04-13T08:31:25Z</time></trkpt><trkpt lat="48.49421997080104" lon="3.343334107281215"><ele>88.4</ele><time>2026-04-13T08:31:26Z</time></trkpt><trkpt lat="48.49411744631872" lon="3.343337566691374"><ele>87.80000000000001</ele><time>2026-04-13T08:31:27Z</time></trkpt><trkpt lat="48.49401362801257" lon="3.34334820992889"><ele>87.19999999999999</ele><time>2026-04-13T08:31:28Z</time></trkpt><trkpt lat="48.49391131882551" lon="3.343362577389786"><ele>86.6</ele><time>2026-04-13T08:31:29Z</time></trkpt><trkpt lat="48.493809976372056" lon="3.343376623727539"><ele>86.0</ele><time>2026-04-13T08:31:30Z</time></trkpt><trkpt lat="48.49371128057494" lon="3.343401263653705"><ele>85.19999999999999</ele><time>2026-04-13T08:31:31Z</time></trkpt><trkpt lat="48.49361506898964" lon="3.3434357518454765"><ele>84.39999999999999</ele><time>2026-04-13T08:31:32Z</time></trkpt><trkpt lat="48.493517051432384" lon="3.3434619080428143"><ele>83.6</ele><time>2026-04-13T08:31:33Z</time></trkpt><trkpt lat="48.493416214885585" lon="3.343483438683732"><ele>82.8</ele><time>2026-04-13T08:31:34Z</time></trkpt><trkpt lat="48.49331766075321" lon="3.3435212269464283"><ele>82.0</ele><time>2026-04-13T08:31:35Z</time></trkpt><trkpt lat="48.49321857902461" lon="3.343565876884451"><ele>82.0</ele><time>2026-04-13T08:31:36Z</time></trkpt><trkpt lat="48.49312213964699" lon="3.3436100221347904"><ele>82.0</ele><time>2026-04-13T08:31:37Z</time></trkpt><trkpt lat="48.4930230741718" lon="3.343651657176486"><ele>82.0</ele><time>2026-04-13T08:31:38Z</time></trkpt><trkpt lat="48.49292674114956" lon="3.343702080490242"><ele>82.0</ele><time>2026-04-13T08:31:39Z</time></trkpt><trkpt lat="48.49283233718561" lon="3.3437564608633688"><ele>82.0</ele><time>2026-04-13T08:31:40Z</time></trkpt><trkpt lat="48.49273833366486" lon="3.3438145762861713"><ele>81.39999999999999</ele><time>2026-04-13T08:31:41Z</time></trkpt><trkpt lat="48.4926461480475" lon="3.3438775013240103"><ele>80.8</ele><time>2026-04-13T08:31:42Z</time></trkpt><trkpt lat="48.49255414715024" lon="3.343939322780471"><ele>80.2</ele><time>2026-04-13T08:31:43Z</time></trkpt><trkpt lat="48.49246680531042" lon="3.344014144165253"><ele>79.6</ele><time>2026-04-13T08:31:44Z</time></trkpt><trkpt lat="48.49237146698105" lon="3.3440843368132325"><ele>79.0</ele><time>2026-04-13T08:31:45Z</time></trkpt><trkpt lat="48.49227314725164" lon="3.3441515925033656"><ele>79.0</ele><time>2026-04-13T08:31:46Z</time></trkpt><trkpt lat="48.49217537432606" lon="3.344221374313466"><ele>79.0</ele><time>2026-04-13T08:31:47Z</time></trkpt><trkpt lat="48.49207644907978" lon="3.344293161745481"><ele>79.0</ele><time>2026-04-13T08:31:48Z</time></trkpt><trkpt lat="48.491977507938245" lon="3.3443672976929637"><ele>79.0</ele><time>2026-04-13T08:31:49Z</time></trkpt><trkpt lat="48.49187838514318" lon="3.3444431669764243"><ele>79.0</ele><time>2026-04-13T08:31:50Z</time></trkpt><trkpt lat="48.49177988206207" lon="3.3445221270214196"><ele>78.2</ele><time>2026-04-13T08:31:51Z</time></trkpt><trkpt lat="48.49167958513204" lon="3.3445973012855754"><ele>77.4</ele><time>2026-04-13T08:31:52Z</time></trkpt><trkpt lat="48.49157877422288" lon="3.344670262202117"><ele>76.6</ele><time>2026-04-13T08:31:53Z</time></trkpt><trkpt lat="48.49147772556592" lon="3.344744765893302"><ele>75.8</ele><time>2026-04-13T08:31:54Z</time></trkpt><trkpt lat="48.49137684205246" lon="3.3448196236581595"><ele>75.0</ele><time>2026-04-13T08:31:55Z</time></trkpt><trkpt lat="48.49127576686538" lon="3.3448980091611915"><ele>74.4</ele><time>2026-04-13T08:31:56Z</time></trkpt><trkpt lat="48.491175328692115" lon="3.3449734612221915"><ele>73.8</ele><time>2026-04-13T08:31:57Z</time></trkpt><trkpt lat="48.49107539345941" lon="3.3450454136561274"><ele>73.2</ele><time>2026-04-13T08:31:58Z</time></trkpt><trkpt lat="48.4909730668813" lon="3.3451091236828288"><ele>72.6</ele><time>2026-04-13T08:31:59Z</time></trkpt><trkpt lat="48.49086992216786" lon="3.3451666107936573"><ele>72.0</ele><time>2026-04-13T08:32:00Z</time></trkpt><trkpt lat="48.49076690540796" lon="3.345214075846228"><ele>72.0</ele><time>2026-04-13T08:32:01Z</time></trkpt><trkpt lat="48.49066310910504" lon="3.3452546530272866"><ele>72.0</ele><time>2026-04-13T08:32:02Z</time></trkpt><trkpt lat="48.49055846241814" lon="3.3452841439684655"><ele>72.0</ele><time>2026-04-13T08:32:03Z</time></trkpt><trkpt lat="48.490454187813725" lon="3.3453122017007337"><ele>72.0</ele><time>2026-04-13T08:32:04Z</time></trkpt><trkpt lat="48.490352520388036" lon="3.345337966388597"><ele>72.0</ele><time>2026-04-13T08:32:05Z</time></trkpt><trkpt lat="48.49025056441312" lon="3.3453606742416504"><ele>71.2</ele><time>2026-04-13T08:32:06Z</time></trkpt><trkpt lat="48.49014997851252" lon="3.345382676354006"><ele>70.4</ele><time>2026-04-13T08:32:07Z</time></trkpt><trkpt lat="48.4900499930763" lon="3.3454015822512115"><ele>69.6</ele><time>2026-04-13T08:32:08Z</time></trkpt><trkpt lat="48.48995043027351" lon="3.345420537531011"><ele>68.8</ele><time>2026-04-13T08:32:09Z</time></trkpt><trkpt lat="48.48985401820918" lon="3.345436498182443"><ele>68.0</ele><time>2026-04-13T08:32:10Z</time></trkpt><trkpt lat="48.489757885920554" lon="3.345448798338497"><ele>68.0</ele><time>2026-04-13T08:32:11Z</time></trkpt><trkpt lat="48.48966159263867" lon="3.3454619904052834"><ele>68.0</ele><time>2026-04-13T08:32:12Z</time></trkpt><trkpt lat="48.489566203944655" lon="3.345476926830777"><ele>68.0</ele><time>2026-04-13T08:32:13Z</time></trkpt><trkpt lat="48.48946991541545" lon="3.345491921516798"><ele>68.0</ele><time>2026-04-13T08:32:14Z</time></trkpt><trkpt lat="48.48937537256751" lon="3.345503899456092"><ele>68.0</ele><time>2026-04-13T08:32:15Z</time></trkpt><trkpt lat="48.48928114568706" lon="3.345520635572589"><ele>67.6</ele><time>2026-04-13T08:32:16Z</time></trkpt><trkpt lat="48.48919115421342" lon="3.34554427820322"><ele>67.19999999999999</ele><time>2026-04-13T08:32:17Z</time></trkpt><trkpt lat="48.48910025542582" lon="3.345558780177296"><ele>66.8</ele><time>2026-04-13T08:32:18Z</time></trkpt><trkpt lat="48.489011105636735" lon="3.345564549656592"><ele>66.39999999999999</ele><time>2026-04-13T08:32:19Z</time></trkpt><trkpt lat="48.48892171404203" lon="3.3455762092999737"><ele>66.0</ele><time>2026-04-13T08:32:20Z</time></trkpt><trkpt lat="48.48883382144567" lon="3.3455890281796195"><ele>65.83333333333333</ele><time>2026-04-13T08:32:21Z</time></trkpt><trkpt lat="48.48874626570384" lon="3.3456059933491744"><ele>65.66666666666667</ele><time>2026-04-13T08:32:22Z</time></trkpt><trkpt lat="48.488660852417034" lon="3.345619982270755"><ele>65.5</ele><time>2026-04-13T08:32:23Z</time></trkpt><trkpt lat="48.48857679270016" lon="3.3456362812342313"><ele>65.33333333333334</ele><time>2026-04-13T08:32:24Z</time></trkpt><trkpt lat="48.488495555458435" lon="3.3456509375080716"><ele>65.16666666666667</ele><time>2026-04-13T08:32:25Z</time></trkpt><trkpt lat="48.488412848352745" lon="3.345665218744404"><ele>65.0</ele><time>2026-04-13T08:32:26Z</time></trkpt><trkpt lat="48.48833273165966" lon="3.3456734740358156"><ele>65.0</ele><time>2026-04-13T08:32:27Z</time></trkpt><trkpt lat="48.488250616167676" lon="3.3456854201678268"><ele>65.0</ele><time>2026-04-13T08:32:28Z</time></trkpt><trkpt lat="48.48816879232153" lon="3.345701300500251"><ele>65.0</ele><time>2026-04-13T08:32:29Z</time></trkpt><trkpt lat="48.488089573525365" lon="3.345716665782374"><ele>65.0</ele><time>2026-04-13T08:32:30Z</time></trkpt><trkpt lat="48.48801372511739" lon="3.345721642155235"><ele>65.0</ele><time>2026-04-13T08:32:31Z</time></trkpt><trkpt lat="48.487930593422355" lon="3.3457340312337354"><ele>65.0</ele><time>2026-04-13T08:32:32Z</time></trkpt><trkpt lat="48.487849799660836" lon="3.345748968774082"><ele>64.83333333333334</ele><time>2026-04-13T08:32:33Z</time></trkpt><trkpt lat="48.487767648271266" lon="3.345770552246176"><ele>64.66666666666667</ele><time>2026-04-13T08:32:34Z</time></trkpt><trkpt lat="48.487688270833296" lon="3.345792315560078"><ele>64.5</ele><time>2026-04-13T08:32:35Z</time></trkpt><trkpt lat="48.48760816180075" lon="3.3458150118113648"><ele>64.33333333333333</ele><time>2026-04-13T08:32:36Z</time></trkpt><trkpt lat="48.48752641874258" lon="3.3458371990952442"><ele>64.16666666666666</ele><time>2026-04-13T08:32:37Z</time></trkpt><trkpt lat="48.48744805052493" lon="3.3458703540427663"><ele>64.0</ele><time>2026-04-13T08:32:38Z</time></trkpt><trkpt lat="48.48736868505265" lon="3.345896451061837"><ele>64.0</ele><time>2026-04-13T08:32:39Z</time></trkpt><trkpt lat="48.48729168900565" lon="3.3459139346479736"><ele>63.99999999999999</ele><time>2026-04-13T08:32:40Z</time></trkpt><trkpt lat="48.48721380876721" lon="3.345938266727055"><ele>64.0</ele><time>2026-04-13T08:32:41Z</time></trkpt><trkpt lat="48.48714224691264" lon="3.3459576713709547"><ele>64.0</ele><time>2026-04-13T08:32:42Z</time></trkpt><trkpt lat="48.48707121306174" lon="3.3459758175815444"><ele>63.99999999999999</ele><time>2026-04-13T08:32:43Z</time></trkpt><trkpt lat="48.48700111546759" lon="3.3459959135788155"><ele>64.0</ele><time>2026-04-13T08:32:44Z</time></trkpt><trkpt lat="48.4869326797037" lon="3.3460119852521824"><ele>64.0</ele><time>2026-04-13T08:32:45Z</time></trkpt><trkpt lat="48.486865743527844" lon="3.346028611540744"><ele>63.666666666666664</ele><time>2026-04-13T08:32:46Z</time></trkpt><trkpt lat="48.486801354212126" lon="3.3460523948194796"><ele>63.33333333333333</ele><time>2026-04-13T08:32:47Z</time></trkpt><trkpt lat="48.48673852481251" lon="3.34607083493626"><ele>63.0</ele><time>2026-04-13T08:32:48Z</time></trkpt><trkpt lat="48.48661589362913" lon="3.3461067429306945"><ele>62.66666666666667</ele><time>2026-04-13T08:32:50Z</time></trkpt><trkpt lat="48.48655040791877" lon="3.346114949383868"><ele>62.333333333333336</ele><time>2026-04-13T08:32:51Z</time></trkpt><trkpt lat="48.48648122713887" lon="3.34612189807413"><ele>62.0</ele><time>2026-04-13T08:32:52Z</time></trkpt><trkpt lat="48.48641183901937" lon="3.3461369048327896"><ele>62.0</ele><time>2026-04-13T08:32:53Z</time></trkpt><trkpt lat="48.48634096298297" lon="3.3461495751633072"><ele>62.00000000000001</ele><time>2026-04-13T08:32:54Z</time></trkpt><trkpt lat="48.48626905634289" lon="3.3461603822654333"><ele>62.0</ele><time>2026-04-13T08:32:55Z</time></trkpt><trkpt lat="48.48619586985703" lon="3.346172464488308"><ele>62.0</ele><time>2026-04-13T08:32:56Z</time></trkpt><trkpt lat="48.48612251041522" lon="3.3461792861045874"><ele>62.00000000000001</ele><time>2026-04-13T08:32:57Z</time></trkpt><trkpt lat="48.486046194255216" lon="3.3461829148759397"><ele>62.0</ele><time>2026-04-13T08:32:58Z</time></trkpt><trkpt lat="48.485970007269145" lon="3.3461875869388242"><ele>62.0</ele><time>2026-04-13T08:32:59Z</time></trkpt><trkpt lat="48.48589323574927" lon="3.346190436416108"><ele>61.66666666666667</ele><time>2026-04-13T08:33:00Z</time></trkpt><trkpt lat="48.48581459112676" lon="3.3461932551195956"><ele>61.333333333333336</ele><time>2026-04-13T08:33:01Z</time></trkpt><trkpt lat="48.485737229213704" lon="3.34620116278942"><ele>61.0</ele><time>2026-04-13T08:33:02Z</time></trkpt><trkpt lat="48.48565928239273" lon="3.346209910878966"><ele>60.66666666666667</ele><time>2026-04-13T08:33:03Z</time></trkpt><trkpt lat="48.485581281001025" lon="3.346216859384067"><ele>60.333333333333336</ele><time>2026-04-13T08:33:04Z</time></trkpt><trkpt lat="48.4855039789227" lon="3.3462240142376745"><ele>60.0</ele><time>2026-04-13T08:33:05Z</time></trkpt><trkpt lat="48.48542642734348" lon="3.3462289084790227"><ele>60.0</ele><time>2026-04-13T08:33:06Z</time></trkpt><trkpt lat="48.485353736309634" lon="3.34623189193928"><ele>60.0</ele><time>2026-04-13T08:33:07Z</time></trkpt><trkpt lat="48.48528002291547" lon="3.3462349681237202"><ele>60.0</ele><time>2026-04-13T08:33:08Z</time></trkpt><trkpt lat="48.485212219187176" lon="3.346241089865876"><ele>60.0</ele><time>2026-04-13T08:33:09Z</time></trkpt><trkpt lat="48.48514530899536" lon="3.3462431066481972"><ele>60.0</ele><time>2026-04-13T08:33:10Z</time></trkpt><trkpt lat="48.48507959931057" lon="3.3462502868930724"><ele>60.0</ele><time>2026-04-13T08:33:11Z</time></trkpt><trkpt lat="48.485014147206876" lon="3.3462538529637467"><ele>60.0</ele><time>2026-04-13T08:33:12Z</time></trkpt><trkpt lat="48.48488944302964" lon="3.3462584201594865"><ele>60.0</ele><time>2026-04-13T08:33:14Z</time></trkpt><trkpt lat="48.48476718443716" lon="3.346271414371"><ele>60.0</ele><time>2026-04-13T08:33:16Z</time></trkpt><trkpt lat="48.484653817954054" lon="3.3462747153559027"><ele>60.0</ele><time>2026-04-13T08:33:18Z</time></trkpt><trkpt lat="48.484581729188974" lon="3.3462620253567517"><ele>60.0</ele><time>2026-04-13T08:33:20Z</time></trkpt><trkpt lat="48.48451790458239" lon="3.346263635050985"><ele>60.0</ele><time>2026-04-13T08:33:22Z</time></trkpt><trkpt lat="48.484454251306836" lon="3.346286978842232"><ele>60.0</ele><time>2026-04-13T08:33:24Z</time></trkpt><trkpt lat="48.484372512940475" lon="3.346309773174723"><ele>60.2</ele><time>2026-04-13T08:33:26Z</time></trkpt><trkpt lat="48.4842733930635" lon="3.3463043262460093"><ele>60.4</ele><time>2026-04-13T08:33:28Z</time></trkpt><trkpt lat="48.48416542079012" lon="3.346299428008168"><ele>60.599999999999994</ele><time>2026-04-13T08:33:30Z</time></trkpt><trkpt lat="48.48405125591752" lon="3.3463096287841463"><ele>60.8</ele><time>2026-04-13T08:33:32Z</time></trkpt><trkpt lat="48.48394033003058" lon="3.3463124999837244"><ele>61.0</ele><time>2026-04-13T08:33:34Z</time></trkpt><trkpt lat="48.48383456516573" lon="3.346316981901228"><ele>61.0</ele><time>2026-04-13T08:33:36Z</time></trkpt><trkpt lat="48.483722924814266" lon="3.3463279733280133"><ele>60.99999999999999</ele><time>2026-04-13T08:33:38Z</time></trkpt><trkpt lat="48.483616259324805" lon="3.346334810670389"><ele>60.99999999999999</ele><time>2026-04-13T08:33:40Z</time></trkpt><trkpt lat="48.48351915096463" lon="3.3463776168875055"><ele>61.0</ele><time>2026-04-13T08:33:42Z</time></trkpt><trkpt lat="48.48341582820042" lon="3.346400820550062"><ele>61.0</ele><time>2026-04-13T08:33:44Z</time></trkpt><trkpt lat="48.483317626835486" lon="3.346456022817983"><ele>61.0</ele><time>2026-04-13T08:33:46Z</time></trkpt><trkpt lat="48.48321765590142" lon="3.346467147786703"><ele>60.99999999999999</ele><time>2026-04-13T08:33:48Z</time></trkpt><trkpt lat="48.483112689945315" lon="3.346505745277774"><ele>60.99999999999999</ele><time>2026-04-13T08:33:50Z</time></trkpt><trkpt lat="48.48300724976926" lon="3.3465347908495744"><ele>61.0</ele><time>2026-04-13T08:33:52Z</time></trkpt><trkpt lat="48.48290158810696" lon="3.3465673746263995"><ele>61.0</ele><time>2026-04-13T08:33:54Z</time></trkpt><trkpt lat="48.4828015889584" lon="3.346587721216627"><ele>60.8</ele><time>2026-04-13T08:33:56Z</time></trkpt><trkpt lat="48.48271876536202" lon="3.346493165652247"><ele>60.599999999999994</ele><time>2026-04-13T08:33:58Z</time></trkpt><trkpt lat="48.482700050617865" lon="3.3463301204223126"><ele>60.4</ele><time>2026-04-13T08:34:00Z</time></trkpt><trkpt lat="48.48267550256607" lon="3.346158515032868"><ele>60.2</ele><time>2026-04-13T08:34:02Z</time></trkpt><trkpt lat="48.4826381762492" lon="3.345988518340738"><ele>60.0</ele><time>2026-04-13T08:34:04Z</time></trkpt><trkpt lat="48.482605747291664" lon="3.345813198445139"><ele>59.75</ele><time>2026-04-13T08:34:06Z</time></trkpt><trkpt lat="48.4825792711839" lon="3.3456325271478136"><ele>59.5</ele><time>2026-04-13T08:34:08Z</time></trkpt><trkpt lat="48.48255090609329" lon="3.345450985438572"><ele>59.25</ele><time>2026-04-13T08:34:10Z</time></trkpt><trkpt lat="48.48251821204102" lon="3.3452706067132745"><ele>59.0</ele><time>2026-04-13T08:34:12Z</time></trkpt><trkpt lat="48.482480165317625" lon="3.3450862217048005"><ele>59.00000000000001</ele><time>2026-04-13T08:34:14Z</time></trkpt><trkpt lat="48.48244710415529" lon="3.344907813941134"><ele>59.0</ele><time>2026-04-13T08:34:16Z</time></trkpt><trkpt lat="48.482412735119986" lon="3.3447276019714205"><ele>59.0</ele><time>2026-04-13T08:34:18Z</time></trkpt><trkpt lat="48.48239248897021" lon="3.3446354137814"><ele>59.0</ele><time>2026-04-13T08:34:19Z</time></trkpt><trkpt lat="48.48237242153331" lon="3.3445428372445605"><ele>59.00000000000001</ele><time>2026-04-13T08:34:20Z</time></trkpt><trkpt lat="48.482349130815614" lon="3.3444528618686014"><ele>59.0</ele><time>2026-04-13T08:34:21Z</time></trkpt><trkpt lat="48.482301226732865" lon="3.344278311174655"><ele>59.0</ele><time>2026-04-13T08:34:23Z</time></trkpt><trkpt lat="48.48228758256808" lon="3.3441840866091956"><ele>59.0</ele><time>2026-04-13T08:34:24Z</time></trkpt><trkpt lat="48.48227187551786" lon="3.344090646527378"><ele>59.0</ele><time>2026-04-13T08:34:25Z</time></trkpt><trkpt lat="48.482252397627846" lon="3.3439977615474876"><ele>59.0</ele><time>2026-04-13T08:34:26Z</time></trkpt><trkpt lat="48.48223329519242" lon="3.3439032407402007"><ele>59.0</ele><time>2026-04-13T08:34:27Z</time></trkpt><trkpt lat="48.48221038314422" lon="3.3438077185613952"><ele>59.0</ele><time>2026-04-13T08:34:28Z</time></trkpt><trkpt lat="48.482189745999655" lon="3.343712115957138"><ele>59.0</ele><time>2026-04-13T08:34:29Z</time></trkpt><trkpt lat="48.48217137115041" lon="3.343612774290907"><ele>59.0</ele><time>2026-04-13T08:34:30Z</time></trkpt><trkpt lat="48.48215144573727" lon="3.3435122856699815"><ele>59.0</ele><time>2026-04-13T08:34:31Z</time></trkpt><trkpt lat="48.48212971719282" lon="3.3434143364876903"><ele>59.0</ele><time>2026-04-13T08:34:32Z</time></trkpt><trkpt lat="48.48211363835858" lon="3.343314241743655"><ele>59.0</ele><time>2026-04-13T08:34:33Z</time></trkpt><trkpt lat="48.48209970877925" lon="3.343217943797784"><ele>59.0</ele><time>2026-04-13T08:34:34Z</time></trkpt><trkpt lat="48.4820823475365" lon="3.343123465020731"><ele>59.0</ele><time>2026-04-13T08:34:35Z</time></trkpt><trkpt lat="48.48206015216197" lon="3.3430324088792855"><ele>59.0</ele><time>2026-04-13T08:34:36Z</time></trkpt><trkpt lat="48.48201096451844" lon="3.342867568704565"><ele>59.0</ele><time>2026-04-13T08:34:38Z</time></trkpt><trkpt lat="48.48199350468165" lon="3.342686287510178"><ele>59.0</ele><time>2026-04-13T08:34:40Z</time></trkpt><trkpt lat="48.48195735622013" lon="3.3425154414343456"><ele>59.0</ele><time>2026-04-13T08:34:42Z</time></trkpt><trkpt lat="48.48193888886958" lon="3.342341401198468"><ele>59.0</ele><time>2026-04-13T08:34:44Z</time></trkpt><trkpt lat="48.48193224153216" lon="3.3421561110032343"><ele>59.25</ele><time>2026-04-13T08:34:46Z</time></trkpt><trkpt lat="48.48192111323347" lon="3.3419677864948496"><ele>59.5</ele><time>2026-04-13T08:34:48Z</time></trkpt><trkpt lat="48.48191390040614" lon="3.3417795329605253"><ele>59.75</ele><time>2026-04-13T08:34:50Z</time></trkpt><trkpt lat="48.48190901627459" lon="3.3415907550703507"><ele>60.0</ele><time>2026-04-13T08:34:52Z</time></trkpt><trkpt lat="48.4818942178132" lon="3.3414056769801195"><ele>59.8</ele><time>2026-04-13T08:34:54Z</time></trkpt><trkpt lat="48.481912190008416" lon="3.3412178420565355"><ele>59.6</ele><time>2026-04-13T08:34:56Z</time></trkpt><trkpt lat="48.48191966602718" lon="3.3410244280570494"><ele>59.400000000000006</ele><time>2026-04-13T08:34:58Z</time></trkpt><trkpt lat="48.48192035186713" lon="3.3409274829789264"><ele>59.2</ele><time>2026-04-13T08:34:59Z</time></trkpt><trkpt lat="48.48192574752184" lon="3.3408264358850754"><ele>59.0</ele><time>2026-04-13T08:35:00Z</time></trkpt><trkpt lat="48.48193299895315" lon="3.3407253631379352"><ele>59.00000000000001</ele><time>2026-04-13T08:35:01Z</time></trkpt><trkpt lat="48.48193979385339" lon="3.3406218097972364"><ele>59.0</ele><time>2026-04-13T08:35:02Z</time></trkpt><trkpt lat="48.481944267377244" lon="3.340514714645482"><ele>59.0</ele><time>2026-04-13T08:35:03Z</time></trkpt><trkpt lat="48.48194647005823" lon="3.3404111879711293"><ele>59.0</ele><time>2026-04-13T08:35:04Z</time></trkpt><trkpt lat="48.481955808502704" lon="3.3403143609915165"><ele>59.00000000000001</ele><time>2026-04-13T08:35:05Z</time></trkpt><trkpt lat="48.481971384034956" lon="3.3402129098190763"><ele>59.0</ele><time>2026-04-13T08:35:06Z</time></trkpt><trkpt lat="48.48198972511314" lon="3.340030969465157"><ele>58.5</ele><time>2026-04-13T08:35:08Z</time></trkpt><trkpt lat="48.48200153064302" lon="3.3398531131739926"><ele>58.0</ele><time>2026-04-13T08:35:10Z</time></trkpt><trkpt lat="48.482017769545" lon="3.3396719211883124"><ele>57.5</ele><time>2026-04-13T08:35:12Z</time></trkpt><trkpt lat="48.48202342802129" lon="3.33948639419235"><ele>57.0</ele><time>2026-04-13T08:35:14Z</time></trkpt><trkpt lat="48.482054468016" lon="3.339308116556434"><ele>57.0</ele><time>2026-04-13T08:35:16Z</time></trkpt><trkpt lat="48.48206801305936" lon="3.339215144861431"><ele>56.99999999999999</ele><time>2026-04-13T08:35:17Z</time></trkpt><trkpt lat="48.48207214809915" lon="3.3391183499260975"><ele>57.0</ele><time>2026-04-13T08:35:18Z</time></trkpt><trkpt lat="48.48207587794379" lon="3.3390186349588182"><ele>57.0</ele><time>2026-04-13T08:35:19Z</time></trkpt><trkpt lat="48.48208950526279" lon="3.338922969898121"><ele>56.99999999999999</ele><time>2026-04-13T08:35:20Z</time></trkpt><trkpt lat="48.48210512343531" lon="3.338826562497095"><ele>57.0</ele><time>2026-04-13T08:35:21Z</time></trkpt><trkpt lat="48.482117367402175" lon="3.338725871158481"><ele>57.0</ele><time>2026-04-13T08:35:22Z</time></trkpt><trkpt lat="48.48212673470174" lon="3.3386277742149604"><ele>57.0</ele><time>2026-04-13T08:35:23Z</time></trkpt><trkpt lat="48.48213960982789" lon="3.3385335777206184"><ele>57.0</ele><time>2026-04-13T08:35:24Z</time></trkpt><trkpt lat="48.48215914318443" lon="3.3384364352824165"><ele>57.0</ele><time>2026-04-13T08:35:25Z</time></trkpt><trkpt lat="48.482180704907535" lon="3.338343340549853"><ele>57.0</ele><time>2026-04-13T08:35:26Z</time></trkpt><trkpt lat="48.48219904710618" lon="3.3382491141884"><ele>57.0</ele><time>2026-04-13T08:35:27Z</time></trkpt><trkpt lat="48.482233274937684" lon="3.3380705052855335"><ele>57.0</ele><time>2026-04-13T08:35:29Z</time></trkpt><trkpt lat="48.48227860340317" lon="3.3379004989771226"><ele>57.0</ele><time>2026-04-13T08:35:31Z</time></trkpt><trkpt lat="48.4823158383074" lon="3.3377319553449465"><ele>57.0</ele><time>2026-04-13T08:35:33Z</time></trkpt><trkpt lat="48.482353550683804" lon="3.337565533667797"><ele>57.0</ele><time>2026-04-13T08:35:35Z</time></trkpt><trkpt lat="48.48239509540036" lon="3.337400500122606"><ele>57.0</ele><time>2026-04-13T08:35:37Z</time></trkpt><trkpt lat="48.482426190409655" lon="3.337228460847377"><ele>56.857142857142854</ele><time>2026-04-13T08:35:39Z</time></trkpt><trkpt lat="48.482459338169775" lon="3.337050199806693"><ele>56.71428571428571</ele><time>2026-04-13T08:35:41Z</time></trkpt><trkpt lat="48.48248253659509" lon="3.3369598426226124"><ele>56.57142857142857</ele><time>2026-04-13T08:35:42Z</time></trkpt><trkpt lat="48.48250717584299" lon="3.3368708824716724"><ele>56.42857142857143</ele><time>2026-04-13T08:35:43Z</time></trkpt><trkpt lat="48.48252773865265" lon="3.3367768205740105"><ele>56.285714285714285</ele><time>2026-04-13T08:35:44Z</time></trkpt><trkpt lat="48.482542116487075" lon="3.336680043013511"><ele>56.14285714285714</ele><time>2026-04-13T08:35:45Z</time></trkpt><trkpt lat="48.48256096776021" lon="3.3365862888990123"><ele>56.0</ele><time>2026-04-13T08:35:46Z</time></trkpt><trkpt lat="48.4825835403527" lon="3.3364972665281534"><ele>56.0</ele><time>2026-04-13T08:35:47Z</time></trkpt><trkpt lat="48.48261460168429" lon="3.336323697284942"><ele>56.0</ele><time>2026-04-13T08:35:49Z</time></trkpt><trkpt lat="48.48264662612805" lon="3.3361577695784876"><ele>56.0</ele><time>2026-04-13T08:35:51Z</time></trkpt><trkpt lat="48.482674760886404" lon="3.3359855781695056"><ele>56.0</ele><time>2026-04-13T08:35:53Z</time></trkpt><trkpt lat="48.48270280766438" lon="3.3358121273622268"><ele>56.0</ele><time>2026-04-13T08:35:55Z</time></trkpt><trkpt lat="48.48272911383309" lon="3.335639467837535"><ele>55.99999999999999</ele><time>2026-04-13T08:35:57Z</time></trkpt><trkpt lat="48.48275636837347" lon="3.335459552714836"><ele>55.99999999999999</ele><time>2026-04-13T08:35:59Z</time></trkpt><trkpt lat="48.48278556988751" lon="3.335274765412055"><ele>56.0</ele><time>2026-04-13T08:36:01Z</time></trkpt><trkpt lat="48.48279825942168" lon="3.3351804717074853"><ele>56.0</ele><time>2026-04-13T08:36:02Z</time></trkpt><trkpt lat="48.48281143125171" lon="3.335085805175067"><ele>56.199999999999996</ele><time>2026-04-13T08:36:03Z</time></trkpt><trkpt lat="48.48284531572429" lon="3.3349040750697734"><ele>56.39999999999999</ele><time>2026-04-13T08:36:05Z</time></trkpt><trkpt lat="48.48286767400623" lon="3.33481230729059"><ele>56.6</ele><time>2026-04-13T08:36:06Z</time></trkpt><trkpt lat="48.482896711272744" lon="3.3347263251517276"><ele>56.8</ele><time>2026-04-13T08:36:07Z</time></trkpt><trkpt lat="48.48297513174855" lon="3.334591456143101"><ele>57.0</ele><time>2026-04-13T08:36:09Z</time></trkpt><trkpt lat="48.483072019201785" lon="3.3345111454592855"><ele>57.0</ele><time>2026-04-13T08:36:11Z</time></trkpt><trkpt lat="48.48316644817271" lon="3.3344625100758503"><ele>57.0</ele><time>2026-04-13T08:36:13Z</time></trkpt><trkpt lat="48.483256225111305" lon="3.3344187339232976"><ele>57.0</ele><time>2026-04-13T08:36:15Z</time></trkpt><trkpt lat="48.483342538733936" lon="3.3343614388607055"><ele>57.0</ele><time>2026-04-13T08:36:17Z</time></trkpt><trkpt lat="48.483426157709815" lon="3.3343138699353325"><ele>57.0</ele><time>2026-04-13T08:36:19Z</time></trkpt><trkpt lat="48.48350546577644" lon="3.334260081779989"><ele>57.0</ele><time>2026-04-13T08:36:21Z</time></trkpt><trkpt lat="48.483587236285864" lon="3.3342327218339913"><ele>57.0</ele><time>2026-04-13T08:36:23Z</time></trkpt><trkpt lat="48.48366561147694" lon="3.3341938453429902"><ele>57.0</ele><time>2026-04-13T08:36:25Z</time></trkpt><trkpt lat="48.48374363806744" lon="3.3341476662260936"><ele>57.0</ele><time>2026-04-13T08:36:27Z</time></trkpt><trkpt lat="48.4838297164113" lon="3.334105255065285"><ele>57.0</ele><time>2026-04-13T08:36:29Z</time></trkpt><trkpt lat="48.48391539092991" lon="3.334058981066281"><ele>57.0</ele><time>2026-04-13T08:36:31Z</time></trkpt><trkpt lat="48.48400707874068" lon="3.334008969202829"><ele>57.5</ele><time>2026-04-13T08:36:33Z</time></trkpt><trkpt lat="48.48408749664804" lon="3.3339613908498364"><ele>58.0</ele><time>2026-04-13T08:36:35Z</time></trkpt><trkpt lat="48.484167490779235" lon="3.333924330688474"><ele>58.5</ele><time>2026-04-13T08:36:37Z</time></trkpt><trkpt lat="48.48424969561347" lon="3.3338759904862068"><ele>59.0</ele><time>2026-04-13T08:36:39Z</time></trkpt><trkpt lat="48.484331751282575" lon="3.333814336251547"><ele>59.5</ele><time>2026-04-13T08:36:41Z</time></trkpt><trkpt lat="48.484400558370325" lon="3.333722877628466"><ele>60.0</ele><time>2026-04-13T08:36:43Z</time></trkpt><trkpt lat="48.48445823864345" lon="3.333609656430943"><ele>60.2</ele><time>2026-04-13T08:36:45Z</time></trkpt><trkpt lat="48.48449575445005" lon="3.333468788581542"><ele>60.4</ele><time>2026-04-13T08:36:47Z</time></trkpt><trkpt lat="48.48450735683755" lon="3.3333030314967926"><ele>60.599999999999994</ele><time>2026-04-13T08:36:49Z</time></trkpt><trkpt lat="48.48449528136117" lon="3.3331387680488467"><ele>60.8</ele><time>2026-04-13T08:36:51Z</time></trkpt><trkpt lat="48.48447082750218" lon="3.3329795964436184"><ele>61.0</ele><time>2026-04-13T08:36:53Z</time></trkpt><trkpt lat="48.48445116512365" lon="3.3328286333523556"><ele>61.4</ele><time>2026-04-13T08:36:55Z</time></trkpt><trkpt lat="48.48442644471368" lon="3.3326759136526283"><ele>61.8</ele><time>2026-04-13T08:36:57Z</time></trkpt><trkpt lat="48.48440127188621" lon="3.332523627249114"><ele>62.199999999999996</ele><time>2026-04-13T08:36:59Z</time></trkpt><trkpt lat="48.48437337735684" lon="3.332370765980431"><ele>62.599999999999994</ele><time>2026-04-13T08:37:01Z</time></trkpt><trkpt lat="48.48435182380188" lon="3.3322174586238766"><ele>63.0</ele><time>2026-04-13T08:37:03Z</time></trkpt><trkpt lat="48.48433148096028" lon="3.332063569384363"><ele>63.2</ele><time>2026-04-13T08:37:05Z</time></trkpt><trkpt lat="48.484303007420756" lon="3.331916404307643"><ele>63.4</ele><time>2026-04-13T08:37:07Z</time></trkpt><trkpt lat="48.48428600236906" lon="3.331762122238639"><ele>63.60000000000001</ele><time>2026-04-13T08:37:09Z</time></trkpt><trkpt lat="48.484258782700415" lon="3.3316165064281362"><ele>63.800000000000004</ele><time>2026-04-13T08:37:11Z</time></trkpt><trkpt lat="48.484232810024565" lon="3.3314681465980804"><ele>64.0</ele><time>2026-04-13T08:37:13Z</time></trkpt><trkpt lat="48.48421240815608" lon="3.331318153921907"><ele>64.2</ele><time>2026-04-13T08:37:15Z</time></trkpt><trkpt lat="48.484195544175876" lon="3.331163722299037"><ele>64.4</ele><time>2026-04-13T08:37:17Z</time></trkpt><trkpt lat="48.48416930043017" lon="3.331008547520706"><ele>64.6</ele><time>2026-04-13T08:37:19Z</time></trkpt><trkpt lat="48.48414337731568" lon="3.330850165367769"><ele>64.8</ele><time>2026-04-13T08:37:21Z</time></trkpt><trkpt lat="48.484118069939804" lon="3.3306894028825322"><ele>65.0</ele><time>2026-04-13T08:37:23Z</time></trkpt><trkpt lat="48.48409279993825" lon="3.330529965060101"><ele>65.2</ele><time>2026-04-13T08:37:25Z</time></trkpt><trkpt lat="48.48406819919455" lon="3.330358414395051"><ele>65.4</ele><time>2026-04-13T08:37:27Z</time></trkpt><trkpt lat="48.48403926060984" lon="3.330180885533715"><ele>65.6</ele><time>2026-04-13T08:37:29Z</time></trkpt><trkpt lat="48.48400836990019" lon="3.329998750115643"><ele>65.8</ele><time>2026-04-13T08:37:31Z</time></trkpt><trkpt lat="48.48399030914337" lon="3.329907580979661"><ele>66.0</ele><time>2026-04-13T08:37:32Z</time></trkpt><trkpt lat="48.4839586398795" lon="3.329760654633643"><ele>66.2</ele><time>2026-04-13T08:37:34Z</time></trkpt><trkpt lat="48.483943281845605" lon="3.3296493148727766"><ele>66.39999999999999</ele><time>2026-04-13T08:37:35Z</time></trkpt><trkpt lat="48.48390878834649" lon="3.329471574281133"><ele>66.6</ele><time>2026-04-13T08:37:37Z</time></trkpt><trkpt lat="48.483890845083366" lon="3.3292947555663863"><ele>66.8</ele><time>2026-04-13T08:37:39Z</time></trkpt><trkpt lat="48.48386755889597" lon="3.329114915960485"><ele>67.0</ele><time>2026-04-13T08:37:41Z</time></trkpt><trkpt lat="48.48384006566333" lon="3.328936403071021"><ele>67.25</ele><time>2026-04-13T08:37:43Z</time></trkpt><trkpt lat="48.48381547398061" lon="3.3287617449151585"><ele>67.5</ele><time>2026-04-13T08:37:45Z</time></trkpt><trkpt lat="48.483785708253265" lon="3.3285914542291226"><ele>67.75</ele><time>2026-04-13T08:37:47Z</time></trkpt><trkpt lat="48.48375675637244" lon="3.328425052192044"><ele>68.0</ele><time>2026-04-13T08:37:49Z</time></trkpt><trkpt lat="48.48373687655424" lon="3.328256350758827"><ele>67.6</ele><time>2026-04-13T08:37:51Z</time></trkpt><trkpt lat="48.48370773728411" lon="3.328090865257983"><ele>67.19999999999999</ele><time>2026-04-13T08:37:53Z</time></trkpt><trkpt lat="48.48368133866665" lon="3.327926635349178"><ele>66.8</ele><time>2026-04-13T08:37:55Z</time></trkpt><trkpt lat="48.48365856591109" lon="3.327767458890132"><ele>66.39999999999999</ele><time>2026-04-13T08:37:57Z</time></trkpt><trkpt lat="48.48363476153142" lon="3.327608180093892"><ele>66.0</ele><time>2026-04-13T08:37:59Z</time></trkpt><trkpt lat="48.483610959112454" lon="3.3274489834105574"><ele>66.0</ele><time>2026-04-13T08:38:01Z</time></trkpt><trkpt lat="48.48357937903886" lon="3.327294547111211"><ele>66.0</ele><time>2026-04-13T08:38:03Z</time></trkpt><trkpt lat="48.48355951591863" lon="3.3271356985431777"><ele>66.0</ele><time>2026-04-13T08:38:05Z</time></trkpt><trkpt lat="48.48354282487267" lon="3.3269749609299626"><ele>66.0</ele><time>2026-04-13T08:38:07Z</time></trkpt><trkpt lat="48.4835193873178" lon="3.3268055440117728"><ele>66.0</ele><time>2026-04-13T08:38:09Z</time></trkpt><trkpt lat="48.4834892514065" lon="3.3266343328646237"><ele>66.16666666666667</ele><time>2026-04-13T08:38:11Z</time></trkpt><trkpt lat="48.48346292652591" lon="3.32644962773643"><ele>66.33333333333333</ele><time>2026-04-13T08:38:13Z</time></trkpt><trkpt lat="48.48344394042326" lon="3.326356685027207"><ele>66.5</ele><time>2026-04-13T08:38:14Z</time></trkpt><trkpt lat="48.48343219036071" lon="3.3262620602282698"><ele>66.66666666666666</ele><time>2026-04-13T08:38:15Z</time></trkpt><trkpt lat="48.483419546562246" lon="3.326164320941594"><ele>66.83333333333333</ele><time>2026-04-13T08:38:16Z</time></trkpt><trkpt lat="48.48340522087389" lon="3.326068659997899"><ele>67.0</ele><time>2026-04-13T08:38:17Z</time></trkpt><trkpt lat="48.483390657508615" lon="3.3259710135437452"><ele>67.0</ele><time>2026-04-13T08:38:18Z</time></trkpt><trkpt lat="48.48337446755306" lon="3.325874169773633"><ele>67.0</ele><time>2026-04-13T08:38:19Z</time></trkpt><trkpt lat="48.48335784508278" lon="3.325778349361698"><ele>67.0</ele><time>2026-04-13T08:38:20Z</time></trkpt><trkpt lat="48.48334360188888" lon="3.3256810805206034"><ele>67.0</ele><time>2026-04-13T08:38:21Z</time></trkpt><trkpt lat="48.48332931674552" lon="3.3255789074712463"><ele>67.0</ele><time>2026-04-13T08:38:22Z</time></trkpt><trkpt lat="48.4833112993848" lon="3.3254798475160805"><ele>67.0</ele><time>2026-04-13T08:38:23Z</time></trkpt><trkpt lat="48.48329466486645" lon="3.3253782954021895"><ele>67.0</ele><time>2026-04-13T08:38:24Z</time></trkpt><trkpt lat="48.48327752383539" lon="3.325277204920569"><ele>67.0</ele><time>2026-04-13T08:38:25Z</time></trkpt><trkpt lat="48.48326523686342" lon="3.3251777600902126"><ele>67.0</ele><time>2026-04-13T08:38:26Z</time></trkpt><trkpt lat="48.48324767412169" lon="3.3250796067183153"><ele>67.0</ele><time>2026-04-13T08:38:27Z</time></trkpt><trkpt lat="48.48322489748825" lon="3.3248984711409846"><ele>67.0</ele><time>2026-04-13T08:38:29Z</time></trkpt><trkpt lat="48.483196984097425" lon="3.32472412539439"><ele>67.0</ele><time>2026-04-13T08:38:31Z</time></trkpt><trkpt lat="48.48316860320967" lon="3.324553562896052"><ele>67.0</ele><time>2026-04-13T08:38:33Z</time></trkpt><trkpt lat="48.48314294092775" lon="3.3243794675444485"><ele>67.0</ele><time>2026-04-13T08:38:35Z</time></trkpt><trkpt lat="48.483115615716684" lon="3.324210076193762"><ele>67.0</ele><time>2026-04-13T08:38:37Z</time></trkpt><trkpt lat="48.483088895742235" lon="3.324043868682499"><ele>67.0</ele><time>2026-04-13T08:38:39Z</time></trkpt><trkpt lat="48.4830611261668" lon="3.3238787531516887"><ele>67.0</ele><time>2026-04-13T08:38:41Z</time></trkpt><trkpt lat="48.4830389207988" lon="3.323712952832525"><ele>67.0</ele><time>2026-04-13T08:38:43Z</time></trkpt><trkpt lat="48.48301632536079" lon="3.3235428789333836"><ele>67.0</ele><time>2026-04-13T08:38:45Z</time></trkpt><trkpt lat="48.48298775908155" lon="3.3233727136607993"><ele>67.0</ele><time>2026-04-13T08:38:47Z</time></trkpt><trkpt lat="48.482965946684615" lon="3.323196103583221"><ele>66.57142857142857</ele><time>2026-04-13T08:38:49Z</time></trkpt><trkpt lat="48.48293920047444" lon="3.323018577159311"><ele>66.14285714285714</ele><time>2026-04-13T08:38:51Z</time></trkpt><trkpt lat="48.48292362067042" lon="3.3229263403853104"><ele>65.71428571428571</ele><time>2026-04-13T08:38:52Z</time></trkpt><trkpt lat="48.482907747953355" lon="3.322833342927127"><ele>65.28571428571428</ele><time>2026-04-13T08:38:53Z</time></trkpt><trkpt lat="48.48289320032623" lon="3.322736275563469"><ele>64.85714285714285</ele><time>2026-04-13T08:38:54Z</time></trkpt><trkpt lat="48.48287847519907" lon="3.322637325686121"><ele>64.42857142857143</ele><time>2026-04-13T08:38:55Z</time></trkpt><trkpt lat="48.48286430050156" lon="3.3225376357905567"><ele>64.0</ele><time>2026-04-13T08:38:56Z</time></trkpt><trkpt lat="48.482849323283126" lon="3.3224414660378767"><ele>64.0</ele><time>2026-04-13T08:38:57Z</time></trkpt><trkpt lat="48.48283337278824" lon="3.3223475866027616"><ele>63.99999999999999</ele><time>2026-04-13T08:38:58Z</time></trkpt><trkpt lat="48.482818618860925" lon="3.322252752963581"><ele>64.0</ele><time>2026-04-13T08:38:59Z</time></trkpt><trkpt lat="48.48280255442424" lon="3.322156081126566"><ele>64.0</ele><time>2026-04-13T08:39:00Z</time></trkpt><trkpt lat="48.48278600325578" lon="3.322058778854798"><ele>63.99999999999999</ele><time>2026-04-13T08:39:01Z</time></trkpt><trkpt lat="48.48276695678212" lon="3.321963554195549"><ele>64.0</ele><time>2026-04-13T08:39:02Z</time></trkpt><trkpt lat="48.48274680267617" lon="3.3218645354736847"><ele>64.0</ele><time>2026-04-13T08:39:03Z</time></trkpt><trkpt lat="48.4827279688905" lon="3.3217636030580513"><ele>64.0</ele><time>2026-04-13T08:39:04Z</time></trkpt><trkpt lat="48.48270853793792" lon="3.321663128021391"><ele>63.99999999999999</ele><time>2026-04-13T08:39:05Z</time></trkpt><trkpt lat="48.48268629969057" lon="3.321562844409892"><ele>64.0</ele><time>2026-04-13T08:39:06Z</time></trkpt><trkpt lat="48.482663077311045" lon="3.3214604800112664"><ele>64.0</ele><time>2026-04-13T08:39:07Z</time></trkpt><trkpt lat="48.48263769534681" lon="3.3213589761731868"><ele>63.99999999999999</ele><time>2026-04-13T08:39:08Z</time></trkpt><trkpt lat="48.48261300557951" lon="3.321254178875623"><ele>64.0</ele><time>2026-04-13T08:39:09Z</time></trkpt><trkpt lat="48.48258621078689" lon="3.3211511854854754"><ele>64.0</ele><time>2026-04-13T08:39:10Z</time></trkpt><trkpt lat="48.48255859686851" lon="3.3210502162726776"><ele>64.0</ele><time>2026-04-13T08:39:11Z</time></trkpt><trkpt lat="48.48253040399365" lon="3.320952756782819"><ele>63.99999999999999</ele><time>2026-04-13T08:39:12Z</time></trkpt><trkpt lat="48.48250400657653" lon="3.320853992085188"><ele>64.0</ele><time>2026-04-13T08:39:13Z</time></trkpt><trkpt lat="48.48247913018451" lon="3.3207566031353273"><ele>64.0</ele><time>2026-04-13T08:39:14Z</time></trkpt><trkpt lat="48.48245400554383" lon="3.320657790208317"><ele>63.99999999999999</ele><time>2026-04-13T08:39:15Z</time></trkpt><trkpt lat="48.482424985389905" lon="3.3205598454168563"><ele>64.0</ele><time>2026-04-13T08:39:16Z</time></trkpt><trkpt lat="48.48239927940718" lon="3.320464216673758"><ele>64.0</ele><time>2026-04-13T08:39:17Z</time></trkpt><trkpt lat="48.48237324408236" lon="3.3203712238756506"><ele>63.99999999999999</ele><time>2026-04-13T08:39:18Z</time></trkpt><trkpt lat="48.48234573866354" lon="3.3202750025258903"><ele>64.0</ele><time>2026-04-13T08:39:19Z</time></trkpt><trkpt lat="48.48232133286989" lon="3.3201826618625323"><ele>64.0</ele><time>2026-04-13T08:39:20Z</time></trkpt><trkpt lat="48.48229879587763" lon="3.3200890669594068"><ele>64.0</ele><time>2026-04-13T08:39:21Z</time></trkpt><trkpt lat="48.482254655122944" lon="3.3199185610807396"><ele>63.99999999999999</ele><time>2026-04-13T08:39:23Z</time></trkpt><trkpt lat="48.48220697115783" lon="3.3197486144907677"><ele>64.0</ele><time>2026-04-13T08:39:25Z</time></trkpt><trkpt lat="48.48216091353188" lon="3.3195796309169157"><ele>64.0</ele><time>2026-04-13T08:39:27Z</time></trkpt><trkpt lat="48.48211686947408" lon="3.3194026601209505"><ele>64.0</ele><time>2026-04-13T08:39:29Z</time></trkpt><trkpt lat="48.482068055998134" lon="3.319232500419314"><ele>64.0</ele><time>2026-04-13T08:39:31Z</time></trkpt><trkpt lat="48.48203296393489" lon="3.319062310265471"><ele>64.0</ele><time>2026-04-13T08:39:33Z</time></trkpt><trkpt lat="48.48197844157911" lon="3.318886389189257"><ele>63.857142857142854</ele><time>2026-04-13T08:39:35Z</time></trkpt><trkpt lat="48.4819527780749" lon="3.3187968133484955"><ele>63.71428571428571</ele><time>2026-04-13T08:39:36Z</time></trkpt><trkpt lat="48.48193005491525" lon="3.3187033546684916"><ele>63.57142857142857</ele><time>2026-04-13T08:39:37Z</time></trkpt><trkpt lat="48.48190750579488" lon="3.318610671448474"><ele>63.42857142857143</ele><time>2026-04-13T08:39:38Z</time></trkpt><trkpt lat="48.48188053379965" lon="3.3185167981494423"><ele>63.285714285714285</ele><time>2026-04-13T08:39:39Z</time></trkpt><trkpt lat="48.48185539873116" lon="3.3184223324247117"><ele>63.14285714285714</ele><time>2026-04-13T08:39:40Z</time></trkpt><trkpt lat="48.481830466090926" lon="3.3183287340142806"><ele>63.0</ele><time>2026-04-13T08:39:41Z</time></trkpt><trkpt lat="48.481805092405885" lon="3.3182349717263318"><ele>63.0</ele><time>2026-04-13T08:39:42Z</time></trkpt><trkpt lat="48.48177763360433" lon="3.3181389605243625"><ele>63.0</ele><time>2026-04-13T08:39:43Z</time></trkpt><trkpt lat="48.4817551539133" lon="3.3180436383010843"><ele>63.0</ele><time>2026-04-13T08:39:44Z</time></trkpt><trkpt lat="48.48173148321659" lon="3.3179524085404326"><ele>63.0</ele><time>2026-04-13T08:39:45Z</time></trkpt><trkpt lat="48.481705239121375" lon="3.317859480002194"><ele>63.0</ele><time>2026-04-13T08:39:46Z</time></trkpt><trkpt lat="48.48168249120743" lon="3.3177682969121203"><ele>63.0</ele><time>2026-04-13T08:39:47Z</time></trkpt><trkpt lat="48.48165869021021" lon="3.3176770761632697"><ele>63.0</ele><time>2026-04-13T08:39:48Z</time></trkpt><trkpt lat="48.48160807610494" lon="3.3174998201769816"><ele>63.2</ele><time>2026-04-13T08:39:50Z</time></trkpt><trkpt lat="48.48158496304605" lon="3.3174114261456804"><ele>63.4</ele><time>2026-04-13T08:39:51Z</time></trkpt><trkpt lat="48.48153869576084" lon="3.317237947498851"><ele>63.60000000000001</ele><time>2026-04-13T08:39:53Z</time></trkpt><trkpt lat="48.48149505794858" lon="3.3170716671706915"><ele>63.800000000000004</ele><time>2026-04-13T08:39:55Z</time></trkpt><trkpt lat="48.48145103016527" lon="3.3169060417678273"><ele>64.0</ele><time>2026-04-13T08:39:57Z</time></trkpt><trkpt lat="48.48140832972848" lon="3.3167370948987402"><ele>64.2</ele><time>2026-04-13T08:39:59Z</time></trkpt><trkpt lat="48.48136573723334" lon="3.316566219509233"><ele>64.4</ele><time>2026-04-13T08:40:01Z</time></trkpt><trkpt lat="48.48131818650202" lon="3.3163909399213303"><ele>64.6</ele><time>2026-04-13T08:40:03Z</time></trkpt><trkpt lat="48.48127176487597" lon="3.316212735425994"><ele>64.8</ele><time>2026-04-13T08:40:05Z</time></trkpt><trkpt lat="48.48124960414326" lon="3.3161215976298846"><ele>65.0</ele><time>2026-04-13T08:40:06Z</time></trkpt><trkpt lat="48.48122661925869" lon="3.3160308040952593"><ele>64.4</ele><time>2026-04-13T08:40:07Z</time></trkpt><trkpt lat="48.481207740602414" lon="3.3159370898700877"><ele>63.8</ele><time>2026-04-13T08:40:08Z</time></trkpt><trkpt lat="48.48115879013132" lon="3.3157627471239106"><ele>63.2</ele><time>2026-04-13T08:40:10Z</time></trkpt><trkpt lat="48.48111198154877" lon="3.315584454872006"><ele>62.6</ele><time>2026-04-13T08:40:12Z</time></trkpt><trkpt lat="48.48106566187243" lon="3.3154116390768626"><ele>62.0</ele><time>2026-04-13T08:40:14Z</time></trkpt><trkpt lat="48.481018413989226" lon="3.315238987021516"><ele>62.0</ele><time>2026-04-13T08:40:16Z</time></trkpt><trkpt lat="48.48099239995175" lon="3.315144807951959"><ele>62.00000000000001</ele><time>2026-04-13T08:40:17Z</time></trkpt><trkpt lat="48.480968968417194" lon="3.3150530301940058"><ele>62.0</ele><time>2026-04-13T08:40:18Z</time></trkpt><trkpt lat="48.48094493316133" lon="3.3149591801826683"><ele>62.0</ele><time>2026-04-13T08:40:19Z</time></trkpt><trkpt lat="48.48091916097428" lon="3.3148632326570926"><ele>62.00000000000001</ele><time>2026-04-13T08:40:20Z</time></trkpt><trkpt lat="48.48089357591682" lon="3.3147668934868824"><ele>62.0</ele><time>2026-04-13T08:40:21Z</time></trkpt><trkpt lat="48.48086898552785" lon="3.314672276386431"><ele>62.0</ele><time>2026-04-13T08:40:22Z</time></trkpt><trkpt lat="48.480843880099755" lon="3.31457543099458"><ele>62.142857142857146</ele><time>2026-04-13T08:40:23Z</time></trkpt><trkpt lat="48.480818907743696" lon="3.3144767286490016"><ele>62.28571428571429</ele><time>2026-04-13T08:40:24Z</time></trkpt><trkpt lat="48.48079343409057" lon="3.314381382379253"><ele>62.42857142857143</ele><time>2026-04-13T08:40:25Z</time></trkpt><trkpt lat="48.48076696975563" lon="3.3142836731043435"><ele>62.57142857142857</ele><time>2026-04-13T08:40:26Z</time></trkpt><trkpt lat="48.48074276877853" lon="3.314188024005005"><ele>62.714285714285715</ele><time>2026-04-13T08:40:27Z</time></trkpt><trkpt lat="48.48071686489223" lon="3.314090098887502"><ele>62.85714285714286</ele><time>2026-04-13T08:40:28Z</time></trkpt><trkpt lat="48.48069261029922" lon="3.3139938433817413"><ele>63.0</ele><time>2026-04-13T08:40:29Z</time></trkpt><trkpt lat="48.48066708729807" lon="3.313896719351235"><ele>63.14285714285714</ele><time>2026-04-13T08:40:30Z</time></trkpt><trkpt lat="48.48064203756938" lon="3.313799904457184"><ele>63.285714285714285</ele><time>2026-04-13T08:40:31Z</time></trkpt><trkpt lat="48.48061999961869" lon="3.3137018854707656"><ele>63.42857142857143</ele><time>2026-04-13T08:40:32Z</time></trkpt><trkpt lat="48.48059199876602" lon="3.3136077967343045"><ele>63.57142857142857</ele><time>2026-04-13T08:40:33Z</time></trkpt><trkpt lat="48.48056709224519" lon="3.313511424289954"><ele>63.71428571428571</ele><time>2026-04-13T08:40:34Z</time></trkpt><trkpt lat="48.480541311657625" lon="3.3134169451163134"><ele>63.857142857142854</ele><time>2026-04-13T08:40:35Z</time></trkpt><trkpt lat="48.48051709456276" lon="3.3133234484858725"><ele>64.0</ele><time>2026-04-13T08:40:36Z</time></trkpt><trkpt lat="48.48049080872529" lon="3.3132292380556168"><ele>64.0</ele><time>2026-04-13T08:40:37Z</time></trkpt><trkpt lat="48.480462761205786" lon="3.3131350246167357"><ele>63.99999999999999</ele><time>2026-04-13T08:40:38Z</time></trkpt><trkpt lat="48.4804334223261" lon="3.3130386327751578"><ele>64.0</ele><time>2026-04-13T08:40:39Z</time></trkpt><trkpt lat="48.48040228382012" lon="3.3129422707340583"><ele>64.0</ele><time>2026-04-13T08:40:40Z</time></trkpt><trkpt lat="48.48037068270906" lon="3.3128452224094476"><ele>63.99999999999999</ele><time>2026-04-13T08:40:41Z</time></trkpt><trkpt lat="48.480335752261134" lon="3.3127468846362285"><ele>64.0</ele><time>2026-04-13T08:40:42Z</time></trkpt><trkpt lat="48.48029728808314" lon="3.312652112107867"><ele>64.0</ele><time>2026-04-13T08:40:43Z</time></trkpt><trkpt lat="48.480257423434175" lon="3.312559765170816"><ele>63.857142857142854</ele><time>2026-04-13T08:40:44Z</time></trkpt><trkpt lat="48.48022086591592" lon="3.312463748597372"><ele>63.71428571428571</ele><time>2026-04-13T08:40:45Z</time></trkpt><trkpt lat="48.480182859095166" lon="3.312367498459184"><ele>63.57142857142857</ele><time>2026-04-13T08:40:46Z</time></trkpt><trkpt lat="48.48014294305673" lon="3.3122745706901053"><ele>63.42857142857143</ele><time>2026-04-13T08:40:47Z</time></trkpt><trkpt lat="48.48010397066327" lon="3.3121802949627117"><ele>63.285714285714285</ele><time>2026-04-13T08:40:48Z</time></trkpt><trkpt lat="48.4800607471055" lon="3.3120892506438273"><ele>63.14285714285714</ele><time>2026-04-13T08:40:49Z</time></trkpt><trkpt lat="48.48001547218895" lon="3.3119999088564644"><ele>63.0</ele><time>2026-04-13T08:40:50Z</time></trkpt><trkpt lat="48.479968402662436" lon="3.3119123365886036"><ele>63.0</ele><time>2026-04-13T08:40:51Z</time></trkpt><trkpt lat="48.47991931935314" lon="3.311824389262494"><ele>63.0</ele><time>2026-04-13T08:40:52Z</time></trkpt><trkpt lat="48.47986808224315" lon="3.311737895965474"><ele>63.0</ele><time>2026-04-13T08:40:53Z</time></trkpt><trkpt lat="48.47981806199474" lon="3.3116451520431216"><ele>63.0</ele><time>2026-04-13T08:40:54Z</time></trkpt><trkpt lat="48.47976842550089" lon="3.311552834217944"><ele>63.0</ele><time>2026-04-13T08:40:55Z</time></trkpt><trkpt lat="48.47971486321548" lon="3.311459454858626"><ele>63.0</ele><time>2026-04-13T08:40:56Z</time></trkpt><trkpt lat="48.47966090512765" lon="3.3113674693405195"><ele>63.666666666666664</ele><time>2026-04-13T08:40:57Z</time></trkpt><trkpt lat="48.47960664525421" lon="3.311277821684503"><ele>64.33333333333333</ele><time>2026-04-13T08:40:58Z</time></trkpt><trkpt lat="48.47955144111541" lon="3.31118664853933"><ele>65.0</ele><time>2026-04-13T08:40:59Z</time></trkpt><trkpt lat="48.4794944821073" lon="3.311099691680536"><ele>65.66666666666666</ele><time>2026-04-13T08:41:00Z</time></trkpt><trkpt lat="48.47943933927906" lon="3.311010788395259"><ele>66.33333333333333</ele><time>2026-04-13T08:41:01Z</time></trkpt><trkpt lat="48.47938893709723" lon="3.3109182615318513"><ele>67.0</ele><time>2026-04-13T08:41:02Z</time></trkpt><trkpt lat="48.47934040182123" lon="3.3108241739314495"><ele>66.5</ele><time>2026-04-13T08:41:03Z</time></trkpt><trkpt lat="48.47928972035525" lon="3.310734793729293"><ele>66.0</ele><time>2026-04-13T08:41:04Z</time></trkpt><trkpt lat="48.47923722779871" lon="3.3106481351732557"><ele>65.5</ele><time>2026-04-13T08:41:05Z</time></trkpt><trkpt lat="48.47918404172352" lon="3.31056306979008"><ele>65.0</ele><time>2026-04-13T08:41:06Z</time></trkpt><trkpt lat="48.47913213701714" lon="3.310477892205371"><ele>64.5</ele><time>2026-04-13T08:41:07Z</time></trkpt><trkpt lat="48.47908019747079" lon="3.310393258956437"><ele>64.0</ele><time>2026-04-13T08:41:08Z</time></trkpt><trkpt lat="48.47902885141647" lon="3.3103015010683685"><ele>63.99999999999999</ele><time>2026-04-13T08:41:09Z</time></trkpt><trkpt lat="48.478980450356055" lon="3.310213183870472"><ele>64.0</ele><time>2026-04-13T08:41:10Z</time></trkpt><trkpt lat="48.47892935985575" lon="3.3101259073708666"><ele>64.0</ele><time>2026-04-13T08:41:11Z</time></trkpt><trkpt lat="48.47887810930924" lon="3.310040182835952"><ele>64.0</ele><time>2026-04-13T08:41:12Z</time></trkpt><trkpt lat="48.478830093447606" lon="3.3099519244361657"><ele>63.99999999999999</ele><time>2026-04-13T08:41:13Z</time></trkpt><trkpt lat="48.478789393333585" lon="3.309858800823021"><ele>64.0</ele><time>2026-04-13T08:41:14Z</time></trkpt><trkpt lat="48.47874833642688" lon="3.3097602638783745"><ele>63.42857142857142</ele><time>2026-04-13T08:41:15Z</time></trkpt><trkpt lat="48.47870680866929" lon="3.3096657437041657"><ele>62.85714285714285</ele><time>2026-04-13T08:41:16Z</time></trkpt><trkpt lat="48.47866946232615" lon="3.309567257915758"><ele>62.285714285714285</ele><time>2026-04-13T08:41:17Z</time></trkpt><trkpt lat="48.47863834986474" lon="3.3094705862543132"><ele>61.71428571428571</ele><time>2026-04-13T08:41:18Z</time></trkpt><trkpt lat="48.47860800156197" lon="3.309371677203271"><ele>61.14285714285714</ele><time>2026-04-13T08:41:19Z</time></trkpt><trkpt lat="48.47858269890544" lon="3.309273642091564"><ele>60.57142857142857</ele><time>2026-04-13T08:41:20Z</time></trkpt><trkpt lat="48.47855964092703" lon="3.309183948772483"><ele>60.0</ele><time>2026-04-13T08:41:21Z</time></trkpt><trkpt lat="48.47854159464377" lon="3.3090865688656295"><ele>60.0</ele><time>2026-04-13T08:41:22Z</time></trkpt><trkpt lat="48.47852425604091" lon="3.3089912016337197"><ele>60.0</ele><time>2026-04-13T08:41:23Z</time></trkpt><trkpt lat="48.47850630627409" lon="3.3088976316545673"><ele>60.0</ele><time>2026-04-13T08:41:24Z</time></trkpt><trkpt lat="48.478479085168544" lon="3.308713792162333"><ele>60.0</ele><time>2026-04-13T08:41:26Z</time></trkpt><trkpt lat="48.47846196732582" lon="3.308535201014144"><ele>60.0</ele><time>2026-04-13T08:41:28Z</time></trkpt><trkpt lat="48.47843957445247" lon="3.3083771616422943"><ele>60.166666666666664</ele><time>2026-04-13T08:41:30Z</time></trkpt><trkpt lat="48.47842360627392" lon="3.308240048584"><ele>60.33333333333333</ele><time>2026-04-13T08:41:32Z</time></trkpt><trkpt lat="48.4784122821631" lon="3.308119569432808"><ele>60.5</ele><time>2026-04-13T08:41:34Z</time></trkpt><trkpt lat="48.478399342830386" lon="3.307999450502883"><ele>60.666666666666664</ele><time>2026-04-13T08:41:36Z</time></trkpt><trkpt lat="48.47838614221432" lon="3.3078830892719626"><ele>60.83333333333333</ele><time>2026-04-13T08:41:38Z</time></trkpt><trkpt lat="48.478376843934434" lon="3.307786871366696"><ele>61.0</ele><time>2026-04-13T08:41:40Z</time></trkpt><trkpt lat="48.47836210636095" lon="3.3076665771926157"><ele>61.0</ele><time>2026-04-13T08:41:43Z</time></trkpt><trkpt lat="48.47834881935833" lon="3.3075465943994455"><ele>60.99999999999999</ele><time>2026-04-13T08:41:46Z</time></trkpt><trkpt lat="48.47833362781911" lon="3.3074264444240744"><ele>60.99999999999999</ele><time>2026-04-13T08:41:48Z</time></trkpt><trkpt lat="48.478314851099825" lon="3.3072868585123363"><ele>61.0</ele><time>2026-04-13T08:41:50Z</time></trkpt><trkpt lat="48.47830025225916" lon="3.3071307929758813"><ele>61.0</ele><time>2026-04-13T08:41:52Z</time></trkpt><trkpt lat="48.47828158710901" lon="3.306959586747935"><ele>61.4</ele><time>2026-04-13T08:41:54Z</time></trkpt><trkpt lat="48.47826097290901" lon="3.306789629056987"><ele>61.8</ele><time>2026-04-13T08:41:56Z</time></trkpt><trkpt lat="48.47824320646468" lon="3.3066244819876225"><ele>62.199999999999996</ele><time>2026-04-13T08:41:58Z</time></trkpt><trkpt lat="48.478220561137014" lon="3.3064585943890785"><ele>62.599999999999994</ele><time>2026-04-13T08:42:00Z</time></trkpt><trkpt lat="48.47820275887297" lon="3.306293296287929"><ele>63.0</ele><time>2026-04-13T08:42:02Z</time></trkpt><trkpt lat="48.478182439293235" lon="3.3061269143124012"><ele>63.5</ele><time>2026-04-13T08:42:04Z</time></trkpt><trkpt lat="48.47815939519555" lon="3.3059558058602625"><ele>64.0</ele><time>2026-04-13T08:42:06Z</time></trkpt><trkpt lat="48.47813071015504" lon="3.3057828969215746"><ele>64.5</ele><time>2026-04-13T08:42:08Z</time></trkpt><trkpt lat="48.47810092420837" lon="3.3056032176689194"><ele>65.0</ele><time>2026-04-13T08:42:10Z</time></trkpt><trkpt lat="48.478062459541" lon="3.3054213801275822"><ele>65.83333333333334</ele><time>2026-04-13T08:42:12Z</time></trkpt><trkpt lat="48.47801012023712" lon="3.305246851969929"><ele>66.66666666666667</ele><time>2026-04-13T08:42:14Z</time></trkpt><trkpt lat="48.47798724372919" lon="3.3051544835968985"><ele>67.5</ele><time>2026-04-13T08:42:15Z</time></trkpt><trkpt lat="48.47796148182519" lon="3.3050627188835704"><ele>68.33333333333333</ele><time>2026-04-13T08:42:16Z</time></trkpt><trkpt lat="48.47793881859811" lon="3.3049688396065626"><ele>69.16666666666666</ele><time>2026-04-13T08:42:17Z</time></trkpt><trkpt lat="48.47790990828292" lon="3.3048807954091335"><ele>70.0</ele><time>2026-04-13T08:42:18Z</time></trkpt><trkpt lat="48.47787839249475" lon="3.3047911893174304"><ele>68.33333333333333</ele><time>2026-04-13T08:42:19Z</time></trkpt><trkpt lat="48.477852095454395" lon="3.304702069884072"><ele>66.66666666666666</ele><time>2026-04-13T08:42:20Z</time></trkpt><trkpt lat="48.47782744991757" lon="3.3046100216701086"><ele>65.0</ele><time>2026-04-13T08:42:21Z</time></trkpt><trkpt lat="48.47777053176478" lon="3.3044426821442565"><ele>63.33333333333333</ele><time>2026-04-13T08:42:23Z</time></trkpt><trkpt lat="48.477741050476105" lon="3.304356614741787"><ele>61.666666666666664</ele><time>2026-04-13T08:42:24Z</time></trkpt><trkpt lat="48.477710990957945" lon="3.304268286255647"><ele>60.0</ele><time>2026-04-13T08:42:25Z</time></trkpt><trkpt lat="48.477679531271704" lon="3.304180950752653"><ele>60.0</ele><time>2026-04-13T08:42:26Z</time></trkpt><trkpt lat="48.47765024726068" lon="3.3040926576969314"><ele>60.0</ele><time>2026-04-13T08:42:27Z</time></trkpt><trkpt lat="48.47762412884447" lon="3.304003677606529"><ele>60.0</ele><time>2026-04-13T08:42:28Z</time></trkpt><trkpt lat="48.47759391716586" lon="3.3039155826094966"><ele>60.0</ele><time>2026-04-13T08:42:29Z</time></trkpt><trkpt lat="48.47756616554248" lon="3.303828045152649"><ele>60.0</ele><time>2026-04-13T08:42:30Z</time></trkpt><trkpt lat="48.477536211728534" lon="3.30374117109612"><ele>60.0</ele><time>2026-04-13T08:42:31Z</time></trkpt><trkpt lat="48.477504802246536" lon="3.3036557498816195"><ele>60.0</ele><time>2026-04-13T08:42:32Z</time></trkpt><trkpt lat="48.47747630796159" lon="3.303569848831286"><ele>60.5</ele><time>2026-04-13T08:42:33Z</time></trkpt><trkpt lat="48.477414660741815" lon="3.303404816751214"><ele>61.0</ele><time>2026-04-13T08:42:35Z</time></trkpt><trkpt lat="48.47738620831488" lon="3.303316833948627"><ele>61.5</ele><time>2026-04-13T08:42:36Z</time></trkpt><trkpt lat="48.47735795336198" lon="3.3032309153329416"><ele>62.0</ele><time>2026-04-13T08:42:37Z</time></trkpt><trkpt lat="48.477328178671335" lon="3.303146020229959"><ele>62.5</ele><time>2026-04-13T08:42:38Z</time></trkpt><trkpt lat="48.47727022216351" lon="3.3029774893848525"><ele>63.0</ele><time>2026-04-13T08:42:40Z</time></trkpt><trkpt lat="48.477243179006" lon="3.302890903960962"><ele>62.5</ele><time>2026-04-13T08:42:41Z</time></trkpt><trkpt lat="48.47721641689899" lon="3.3028043267520055"><ele>62.0</ele><time>2026-04-13T08:42:42Z</time></trkpt><trkpt lat="48.477189501888944" lon="3.302716807648808"><ele>61.5</ele><time>2026-04-13T08:42:43Z</time></trkpt><trkpt lat="48.47714905588093" lon="3.302536525978239"><ele>61.0</ele><time>2026-04-13T08:42:45Z</time></trkpt><trkpt lat="48.47711923011189" lon="3.3023542926646945"><ele>60.5</ele><time>2026-04-13T08:42:47Z</time></trkpt><trkpt lat="48.47711100541396" lon="3.3022583886522106"><ele>60.0</ele><time>2026-04-13T08:42:48Z</time></trkpt><trkpt lat="48.477101212609156" lon="3.3021633522172915"><ele>60.0</ele><time>2026-04-13T08:42:49Z</time></trkpt><trkpt lat="48.477095366146685" lon="3.302066718027521"><ele>60.0</ele><time>2026-04-13T08:42:50Z</time></trkpt><trkpt lat="48.47708913775321" lon="3.301970065196904"><ele>60.0</ele><time>2026-04-13T08:42:51Z</time></trkpt><trkpt lat="48.47708597733885" lon="3.3018749254079665"><ele>60.0</ele><time>2026-04-13T08:42:52Z</time></trkpt><trkpt lat="48.4770876990321" lon="3.3016938770863584"><ele>60.0</ele><time>2026-04-13T08:42:54Z</time></trkpt><trkpt lat="48.47708614394796" lon="3.3015225846700864"><ele>60.0</ele><time>2026-04-13T08:42:56Z</time></trkpt><trkpt lat="48.477089762485754" lon="3.301353520764556"><ele>60.2</ele><time>2026-04-13T08:42:58Z</time></trkpt><trkpt lat="48.4770914806087" lon="3.301182048486063"><ele>60.4</ele><time>2026-04-13T08:43:00Z</time></trkpt><trkpt lat="48.477092922087046" lon="3.3010170609992486"><ele>60.599999999999994</ele><time>2026-04-13T08:43:02Z</time></trkpt><trkpt lat="48.47709823508173" lon="3.3008607418490423"><ele>60.8</ele><time>2026-04-13T08:43:04Z</time></trkpt><trkpt lat="48.47710293866881" lon="3.300704963985945"><ele>61.0</ele><time>2026-04-13T08:43:06Z</time></trkpt><trkpt lat="48.47710279929861" lon="3.300552397082716"><ele>63.199999999999996</ele><time>2026-04-13T08:43:08Z</time></trkpt><trkpt lat="48.477106735868574" lon="3.3004001655637762"><ele>65.39999999999999</ele><time>2026-04-13T08:43:10Z</time></trkpt><trkpt lat="48.47710274000347" lon="3.3002526485150327"><ele>67.6</ele><time>2026-04-13T08:43:12Z</time></trkpt><trkpt lat="48.47710489146683" lon="3.3001022780961518"><ele>69.8</ele><time>2026-04-13T08:43:14Z</time></trkpt><trkpt lat="48.477108138662764" lon="3.2999514588321612"><ele>72.0</ele><time>2026-04-13T08:43:16Z</time></trkpt><trkpt lat="48.47710389385019" lon="3.2998041338940634"><ele>70.6</ele><time>2026-04-13T08:43:18Z</time></trkpt><trkpt lat="48.477097672515065" lon="3.2996542062648557"><ele>69.2</ele><time>2026-04-13T08:43:20Z</time></trkpt><trkpt lat="48.47709260113763" lon="3.299499954566211"><ele>67.8</ele><time>2026-04-13T08:43:22Z</time></trkpt><trkpt lat="48.4770820884747" lon="3.299345634073327"><ele>66.4</ele><time>2026-04-13T08:43:24Z</time></trkpt><trkpt lat="48.47707595265998" lon="3.2991881004097667"><ele>65.0</ele><time>2026-04-13T08:43:26Z</time></trkpt><trkpt lat="48.47705974351506" lon="3.2990214439998673"><ele>65.16666666666667</ele><time>2026-04-13T08:43:28Z</time></trkpt><trkpt lat="48.47704440279902" lon="3.298846593413678"><ele>65.33333333333334</ele><time>2026-04-13T08:43:30Z</time></trkpt><trkpt lat="48.477024313793045" lon="3.298657116409558"><ele>65.5</ele><time>2026-04-13T08:43:32Z</time></trkpt><trkpt lat="48.477015270716436" lon="3.2985618862469157"><ele>65.66666666666667</ele><time>2026-04-13T08:43:33Z</time></trkpt><trkpt lat="48.47700258081793" lon="3.29846398721105"><ele>65.83333333333333</ele><time>2026-04-13T08:43:34Z</time></trkpt><trkpt lat="48.4769957238415" lon="3.2983659359992075"><ele>66.0</ele><time>2026-04-13T08:43:35Z</time></trkpt><trkpt lat="48.47698823646281" lon="3.298262026624236"><ele>66.0</ele><time>2026-04-13T08:43:36Z</time></trkpt><trkpt lat="48.476980525166745" lon="3.29815667845463"><ele>66.0</ele><time>2026-04-13T08:43:37Z</time></trkpt><trkpt lat="48.476975176138396" lon="3.298047290305793"><ele>66.0</ele><time>2026-04-13T08:43:38Z</time></trkpt><trkpt lat="48.4769623239827" lon="3.297935776241218"><ele>66.0</ele><time>2026-04-13T08:43:39Z</time></trkpt><trkpt lat="48.476946163571945" lon="3.297829359776583"><ele>66.0</ele><time>2026-04-13T08:43:40Z</time></trkpt><trkpt lat="48.47693464641564" lon="3.2977205795362914"><ele>66.0</ele><time>2026-04-13T08:43:41Z</time></trkpt><trkpt lat="48.47692200329634" lon="3.2976134695827457"><ele>66.0</ele><time>2026-04-13T08:43:42Z</time></trkpt><trkpt lat="48.47691425762041" lon="3.2975040081434908"><ele>65.85714285714286</ele><time>2026-04-13T08:43:43Z</time></trkpt><trkpt lat="48.47690355878253" lon="3.2973966646268402"><ele>65.71428571428572</ele><time>2026-04-13T08:43:44Z</time></trkpt><trkpt lat="48.47689448073547" lon="3.297292760489798"><ele>65.57142857142858</ele><time>2026-04-13T08:43:45Z</time></trkpt><trkpt lat="48.47688222442138" lon="3.2971873250596926"><ele>65.42857142857143</ele><time>2026-04-13T08:43:46Z</time></trkpt><trkpt lat="48.476863529019376" lon="3.2970827548464503"><ele>65.28571428571429</ele><time>2026-04-13T08:43:47Z</time></trkpt><trkpt lat="48.47684968523633" lon="3.2969843980519924"><ele>65.14285714285715</ele><time>2026-04-13T08:43:48Z</time></trkpt><trkpt lat="48.47684376421765" lon="3.2968828872634766"><ele>65.0</ele><time>2026-04-13T08:43:49Z</time></trkpt><trkpt lat="48.47683598409666" lon="3.296780545965965"><ele>65.00000000000001</ele><time>2026-04-13T08:43:50Z</time></trkpt><trkpt lat="48.47682861661283" lon="3.296677848728322"><ele>65.0</ele><time>2026-04-13T08:43:51Z</time></trkpt><trkpt lat="48.4768211203246" lon="3.2965767254755"><ele>65.0</ele><time>2026-04-13T08:43:52Z</time></trkpt><trkpt lat="48.476811502148074" lon="3.2964806812423726"><ele>65.0</ele><time>2026-04-13T08:43:53Z</time></trkpt><trkpt lat="48.47679771586889" lon="3.2963841953529727"><ele>65.0</ele><time>2026-04-13T08:43:54Z</time></trkpt><trkpt lat="48.476780188998774" lon="3.296287563991698"><ele>65.00000000000001</ele><time>2026-04-13T08:43:55Z</time></trkpt><trkpt lat="48.47676737166369" lon="3.296192513850085"><ele>65.0</ele><time>2026-04-13T08:43:56Z</time></trkpt><trkpt lat="48.47675998621095" lon="3.2960941540793183"><ele>64.8</ele><time>2026-04-13T08:43:57Z</time></trkpt><trkpt lat="48.47675068464187" lon="3.2959999881978255"><ele>64.6</ele><time>2026-04-13T08:43:58Z</time></trkpt><trkpt lat="48.47672896866473" lon="3.295818277009313"><ele>64.4</ele><time>2026-04-13T08:44:00Z</time></trkpt><trkpt lat="48.4767015646672" lon="3.2956459228463064"><ele>64.2</ele><time>2026-04-13T08:44:02Z</time></trkpt><trkpt lat="48.47669074707388" lon="3.295483974457884"><ele>64.0</ele><time>2026-04-13T08:44:04Z</time></trkpt><trkpt lat="48.47668809283356" lon="3.295326930631754"><ele>64.4</ele><time>2026-04-13T08:44:06Z</time></trkpt><trkpt lat="48.47666972580135" lon="3.2951784220320657"><ele>64.80000000000001</ele><time>2026-04-13T08:44:08Z</time></trkpt><trkpt lat="48.47665606763336" lon="3.29504138294383"><ele>65.19999999999999</ele><time>2026-04-13T08:44:10Z</time></trkpt><trkpt lat="48.476638169763234" lon="3.2948973729536464"><ele>65.6</ele><time>2026-04-13T08:44:12Z</time></trkpt><trkpt lat="48.47662585229819" lon="3.294752513187987"><ele>66.0</ele><time>2026-04-13T08:44:14Z</time></trkpt><trkpt lat="48.476612550959366" lon="3.2946059091995075"><ele>66.83333333333333</ele><time>2026-04-13T08:44:16Z</time></trkpt><trkpt lat="48.47659797038492" lon="3.2944689922168613"><ele>67.66666666666667</ele><time>2026-04-13T08:44:18Z</time></trkpt><trkpt lat="48.47659064140382" lon="3.2943468080157374"><ele>68.5</ele><time>2026-04-13T08:44:20Z</time></trkpt><trkpt lat="48.47658870243954" lon="3.2942115988509104"><ele>69.33333333333334</ele><time>2026-04-13T08:44:23Z</time></trkpt><trkpt lat="48.47657129743717" lon="3.294117370370978"><ele>70.16666666666667</ele><time>2026-04-13T08:44:25Z</time></trkpt><trkpt lat="48.47654057328651" lon="3.2940129797602853"><ele>71.0</ele><time>2026-04-13T08:44:27Z</time></trkpt><trkpt lat="48.476526752317184" lon="3.2938943453293934"><ele>71.33333333333334</ele><time>2026-04-13T08:44:29Z</time></trkpt><trkpt lat="48.47651454784051" lon="3.2937735099161833"><ele>71.66666666666667</ele><time>2026-04-13T08:44:31Z</time></trkpt><trkpt lat="48.4765022044699" lon="3.2936487679751636"><ele>72.0</ele><time>2026-04-13T08:44:33Z</time></trkpt><trkpt lat="48.47648265852492" lon="3.2935230162296953"><ele>72.33333333333333</ele><time>2026-04-13T08:44:35Z</time></trkpt><trkpt lat="48.47647078532443" lon="3.2933953117054973"><ele>72.66666666666666</ele><time>2026-04-13T08:44:37Z</time></trkpt><trkpt lat="48.476461223272125" lon="3.2932712749283244"><ele>73.0</ele><time>2026-04-13T08:44:39Z</time></trkpt><trkpt lat="48.47645114996322" lon="3.29314680491349"><ele>73.16666666666666</ele><time>2026-04-13T08:44:41Z</time></trkpt><trkpt lat="48.47643539194136" lon="3.2930215507199407"><ele>73.33333333333333</ele><time>2026-04-13T08:44:43Z</time></trkpt><trkpt lat="48.476422885584846" lon="3.292885520371814"><ele>73.5</ele><time>2026-04-13T08:44:45Z</time></trkpt><trkpt lat="48.4764108604382" lon="3.29275266175943"><ele>73.66666666666667</ele><time>2026-04-13T08:44:47Z</time></trkpt><trkpt lat="48.47639526137374" lon="3.2926215012076536"><ele>73.83333333333334</ele><time>2026-04-13T08:44:49Z</time></trkpt><trkpt lat="48.47637901918624" lon="3.292490269368028"><ele>74.0</ele><time>2026-04-13T08:44:51Z</time></trkpt><trkpt lat="48.476372358776466" lon="3.2923562814157634"><ele>74.2</ele><time>2026-04-13T08:44:53Z</time></trkpt><trkpt lat="48.47635688019647" lon="3.2922169764861495"><ele>74.4</ele><time>2026-04-13T08:44:55Z</time></trkpt><trkpt lat="48.476343605655174" lon="3.292083674761532"><ele>74.6</ele><time>2026-04-13T08:44:57Z</time></trkpt><trkpt lat="48.476329598505565" lon="3.291961285902723"><ele>74.8</ele><time>2026-04-13T08:44:59Z</time></trkpt><trkpt lat="48.4763138908289" lon="3.291826752381667"><ele>75.0</ele><time>2026-04-13T08:45:01Z</time></trkpt><trkpt lat="48.47629597988812" lon="3.2916866685932407"><ele>75.0</ele><time>2026-04-13T08:45:03Z</time></trkpt><trkpt lat="48.47627831768989" lon="3.2915422382299777"><ele>75.0</ele><time>2026-04-13T08:45:05Z</time></trkpt><trkpt lat="48.4762633711607" lon="3.2913973820120463"><ele>75.0</ele><time>2026-04-13T08:45:07Z</time></trkpt><trkpt lat="48.476246430837314" lon="3.2912528779596926"><ele>75.0</ele><time>2026-04-13T08:45:09Z</time></trkpt><trkpt lat="48.47622632691194" lon="3.2911043181942885"><ele>75.0</ele><time>2026-04-13T08:45:11Z</time></trkpt><trkpt lat="48.47621120566734" lon="3.2909526754514067"><ele>74.8</ele><time>2026-04-13T08:45:13Z</time></trkpt><trkpt lat="48.47619257344463" lon="3.290796883995191"><ele>74.6</ele><time>2026-04-13T08:45:15Z</time></trkpt><trkpt lat="48.476176077942284" lon="3.290636707642003"><ele>74.4</ele><time>2026-04-13T08:45:17Z</time></trkpt><trkpt lat="48.47615185819276" lon="3.290472650317793"><ele>74.2</ele><time>2026-04-13T08:45:19Z</time></trkpt><trkpt lat="48.47612863779056" lon="3.290317090956084"><ele>74.0</ele><time>2026-04-13T08:45:21Z</time></trkpt><trkpt lat="48.47610540306773" lon="3.290150698292188"><ele>74.0</ele><time>2026-04-13T08:45:23Z</time></trkpt><trkpt lat="48.476087072772124" lon="3.2899761139585486"><ele>74.0</ele><time>2026-04-13T08:45:25Z</time></trkpt><trkpt lat="48.476069279185424" lon="3.289810158578887"><ele>74.0</ele><time>2026-04-13T08:45:27Z</time></trkpt><trkpt lat="48.47603559214781" lon="3.28963544517225"><ele>74.0</ele><time>2026-04-13T08:45:29Z</time></trkpt><trkpt lat="48.476025179625154" lon="3.2894502982086475"><ele>74.0</ele><time>2026-04-13T08:45:31Z</time></trkpt><trkpt lat="48.476010026137196" lon="3.289267378985675"><ele>74.0</ele><time>2026-04-13T08:45:33Z</time></trkpt><trkpt lat="48.475990948875186" lon="3.289099685883148"><ele>74.0</ele><time>2026-04-13T08:45:35Z</time></trkpt><trkpt lat="48.47597344426284" lon="3.288944812665838"><ele>74.0</ele><time>2026-04-13T08:45:37Z</time></trkpt><trkpt lat="48.47595697338948" lon="3.2887895099388875"><ele>74.0</ele><time>2026-04-13T08:45:39Z</time></trkpt><trkpt lat="48.47594575071167" lon="3.2886166167368542"><ele>74.0</ele><time>2026-04-13T08:45:41Z</time></trkpt><trkpt lat="48.47593215127194" lon="3.2884381927827513"><ele>74.0</ele><time>2026-04-13T08:45:43Z</time></trkpt><trkpt lat="48.47591666108111" lon="3.288258429389903"><ele>74.0</ele><time>2026-04-13T08:45:45Z</time></trkpt><trkpt lat="48.47590743835186" lon="3.2880773750168513"><ele>74.0</ele><time>2026-04-13T08:45:47Z</time></trkpt><trkpt lat="48.47589480540337" lon="3.2878992962917133"><ele>74.0</ele><time>2026-04-13T08:45:49Z</time></trkpt><trkpt lat="48.475878937441536" lon="3.2877154476028214"><ele>74.0</ele><time>2026-04-13T08:45:51Z</time></trkpt><trkpt lat="48.47586486745279" lon="3.28752699422207"><ele>74.0</ele><time>2026-04-13T08:45:53Z</time></trkpt><trkpt lat="48.47585560107289" lon="3.287332884710809"><ele>74.0</ele><time>2026-04-13T08:45:55Z</time></trkpt><trkpt lat="48.47584981089673" lon="3.2872371090949386"><ele>74.0</ele><time>2026-04-13T08:45:56Z</time></trkpt><trkpt lat="48.47584185872528" lon="3.2871369777713433"><ele>74.0</ele><time>2026-04-13T08:45:57Z</time></trkpt><trkpt lat="48.47583315040687" lon="3.28703509050368"><ele>74.0</ele><time>2026-04-13T08:45:58Z</time></trkpt><trkpt lat="48.47582291073429" lon="3.2869277356063975"><ele>74.0</ele><time>2026-04-13T08:45:59Z</time></trkpt><trkpt lat="48.475815598755695" lon="3.286822861348262"><ele>74.0</ele><time>2026-04-13T08:46:00Z</time></trkpt><trkpt lat="48.47581451318737" lon="3.286717576166565"><ele>74.0</ele><time>2026-04-13T08:46:01Z</time></trkpt><trkpt lat="48.47580892151843" lon="3.28661578248671"><ele>74.0</ele><time>2026-04-13T08:46:02Z</time></trkpt><trkpt lat="48.47580271773941" lon="3.286512114088331"><ele>74.0</ele><time>2026-04-13T08:46:03Z</time></trkpt><trkpt lat="48.47579429382385" lon="3.2864086765769214"><ele>74.0</ele><time>2026-04-13T08:46:04Z</time></trkpt><trkpt lat="48.475786817409194" lon="3.286304973930014"><ele>74.0</ele><time>2026-04-13T08:46:05Z</time></trkpt><trkpt lat="48.47577867385747" lon="3.2862026678909193"><ele>74.0</ele><time>2026-04-13T08:46:06Z</time></trkpt><trkpt lat="48.47577034919565" lon="3.2861034209165085"><ele>74.0</ele><time>2026-04-13T08:46:07Z</time></trkpt><trkpt lat="48.475765328726126" lon="3.286002784895619"><ele>74.0</ele><time>2026-04-13T08:46:08Z</time></trkpt><trkpt lat="48.475757726237866" lon="3.285900286321309"><ele>74.0</ele><time>2026-04-13T08:46:09Z</time></trkpt><trkpt lat="48.47574902154669" lon="3.285798299450769"><ele>74.0</ele><time>2026-04-13T08:46:10Z</time></trkpt><trkpt lat="48.47573753423693" lon="3.2857007396607996"><ele>74.0</ele><time>2026-04-13T08:46:11Z</time></trkpt><trkpt lat="48.47572632466445" lon="3.2856008804838677"><ele>74.0</ele><time>2026-04-13T08:46:12Z</time></trkpt><trkpt lat="48.47572557783445" lon="3.285499685917087"><ele>74.0</ele><time>2026-04-13T08:46:13Z</time></trkpt><trkpt lat="48.47572373766536" lon="3.2853968763108536"><ele>74.0</ele><time>2026-04-13T08:46:14Z</time></trkpt><trkpt lat="48.47571608365895" lon="3.285293494764056"><ele>74.0</ele><time>2026-04-13T08:46:15Z</time></trkpt><trkpt lat="48.475708956022906" lon="3.2851887016400676"><ele>74.0</ele><time>2026-04-13T08:46:16Z</time></trkpt><trkpt lat="48.475702321628525" lon="3.2850868719251505"><ele>74.0</ele><time>2026-04-13T08:46:17Z</time></trkpt><trkpt lat="48.47569790976759" lon="3.2849882256978122"><ele>73.85714285714286</ele><time>2026-04-13T08:46:18Z</time></trkpt><trkpt lat="48.47569028214544" lon="3.2848883127849984"><ele>73.71428571428571</ele><time>2026-04-13T08:46:19Z</time></trkpt><trkpt lat="48.47568187580573" lon="3.284788939528213"><ele>73.57142857142857</ele><time>2026-04-13T08:46:20Z</time></trkpt><trkpt lat="48.47567540276787" lon="3.284691438778293"><ele>73.42857142857143</ele><time>2026-04-13T08:46:21Z</time></trkpt><trkpt lat="48.475669799014774" lon="3.2845941005182735"><ele>73.28571428571429</ele><time>2026-04-13T08:46:22Z</time></trkpt><trkpt lat="48.47566591020564" lon="3.284497503591209"><ele>73.14285714285714</ele><time>2026-04-13T08:46:23Z</time></trkpt><trkpt lat="48.475656852806665" lon="3.284396492879458"><ele>73.0</ele><time>2026-04-13T08:46:24Z</time></trkpt><trkpt lat="48.47564895584412" lon="3.284298283314363"><ele>73.0</ele><time>2026-04-13T08:46:25Z</time></trkpt><trkpt lat="48.475643341501446" lon="3.2842030087586167"><ele>73.0</ele><time>2026-04-13T08:46:26Z</time></trkpt><trkpt lat="48.47563318226532" lon="3.284019802883476"><ele>73.0</ele><time>2026-04-13T08:46:28Z</time></trkpt><trkpt lat="48.47562133418531" lon="3.2838371030260096"><ele>73.0</ele><time>2026-04-13T08:46:30Z</time></trkpt><trkpt lat="48.4756062069264" lon="3.2836511475464563"><ele>73.0</ele><time>2026-04-13T08:46:32Z</time></trkpt><trkpt lat="48.47559544403274" lon="3.2834645784204954"><ele>73.25</ele><time>2026-04-13T08:46:34Z</time></trkpt><trkpt lat="48.475582261271555" lon="3.283275590570703"><ele>73.5</ele><time>2026-04-13T08:46:36Z</time></trkpt><trkpt lat="48.47556667956391" lon="3.2830908417997837"><ele>73.75</ele><time>2026-04-13T08:46:38Z</time></trkpt><trkpt lat="48.475555468495564" lon="3.2829048354276"><ele>74.0</ele><time>2026-04-13T08:46:40Z</time></trkpt><trkpt lat="48.47554514570295" lon="3.2827231068305984"><ele>74.2</ele><time>2026-04-13T08:46:42Z</time></trkpt><trkpt lat="48.47553915191677" lon="3.282628197919794"><ele>74.4</ele><time>2026-04-13T08:46:43Z</time></trkpt><trkpt lat="48.475528949746476" lon="3.2824487134514118"><ele>74.6</ele><time>2026-04-13T08:46:45Z</time></trkpt><trkpt lat="48.47551857578428" lon="3.2822708197033865"><ele>74.8</ele><time>2026-04-13T08:46:47Z</time></trkpt><trkpt lat="48.47551098104122" lon="3.282092655410189"><ele>75.0</ele><time>2026-04-13T08:46:49Z</time></trkpt><trkpt lat="48.47550409948361" lon="3.281913785807144"><ele>75.0</ele><time>2026-04-13T08:46:51Z</time></trkpt><trkpt lat="48.475498472497506" lon="3.2817432463083147"><ele>75.0</ele><time>2026-04-13T08:46:53Z</time></trkpt><trkpt lat="48.47549155176612" lon="3.2815611670442566"><ele>75.0</ele><time>2026-04-13T08:46:55Z</time></trkpt><trkpt lat="48.47548371216434" lon="3.28137733428542"><ele>75.0</ele><time>2026-04-13T08:46:57Z</time></trkpt><trkpt lat="48.475476273388324" lon="3.281191953602611"><ele>74.99999999999999</ele><time>2026-04-13T08:46:59Z</time></trkpt><trkpt lat="48.47547200164601" lon="3.281093325427874"><ele>75.0</ele><time>2026-04-13T08:47:00Z</time></trkpt><trkpt lat="48.47546818807372" lon="3.2809922202037045"><ele>75.0</ele><time>2026-04-13T08:47:01Z</time></trkpt><trkpt lat="48.47546383023176" lon="3.2808885670055603"><ele>75.0</ele><time>2026-04-13T08:47:02Z</time></trkpt><trkpt lat="48.47545881313042" lon="3.280785362829306"><ele>75.0</ele><time>2026-04-13T08:47:03Z</time></trkpt><trkpt lat="48.47545521581144" lon="3.280683051173804"><ele>74.99999999999999</ele><time>2026-04-13T08:47:04Z</time></trkpt><trkpt lat="48.475451585080926" lon="3.2805746110412906"><ele>75.0</ele><time>2026-04-13T08:47:05Z</time></trkpt><trkpt lat="48.47544607310033" lon="3.280467809044838"><ele>75.0</ele><time>2026-04-13T08:47:06Z</time></trkpt><trkpt lat="48.47544113578102" lon="3.280363288620986"><ele>75.0</ele><time>2026-04-13T08:47:07Z</time></trkpt><trkpt lat="48.475432719665335" lon="3.280258815163692"><ele>75.0</ele><time>2026-04-13T08:47:08Z</time></trkpt><trkpt lat="48.475423540753994" lon="3.28015880268998"><ele>75.0</ele><time>2026-04-13T08:47:09Z</time></trkpt><trkpt lat="48.475420094063075" lon="3.2800603911740067"><ele>75.0</ele><time>2026-04-13T08:47:10Z</time></trkpt><trkpt lat="48.47541992936902" lon="3.2798749316872375"><ele>75.0</ele><time>2026-04-13T08:47:12Z</time></trkpt><trkpt lat="48.475412048806845" lon="3.2797050415226345"><ele>74.57142857142857</ele><time>2026-04-13T08:47:14Z</time></trkpt><trkpt lat="48.475404241607066" lon="3.2795243590509844"><ele>74.14285714285714</ele><time>2026-04-13T08:47:16Z</time></trkpt><trkpt lat="48.47540237261284" lon="3.27942729318715"><ele>73.71428571428572</ele><time>2026-04-13T08:47:17Z</time></trkpt><trkpt lat="48.475398066876146" lon="3.2793297796072323"><ele>73.28571428571428</ele><time>2026-04-13T08:47:18Z</time></trkpt><trkpt lat="48.475393873526066" lon="3.27923009940568"><ele>72.85714285714286</ele><time>2026-04-13T08:47:19Z</time></trkpt><trkpt lat="48.47539178279963" lon="3.279132150723114"><ele>72.42857142857143</ele><time>2026-04-13T08:47:20Z</time></trkpt><trkpt lat="48.47539040501025" lon="3.279029424257906"><ele>72.0</ele><time>2026-04-13T08:47:21Z</time></trkpt><trkpt lat="48.47538969218711" lon="3.278928245278888"><ele>71.85714285714286</ele><time>2026-04-13T08:47:22Z</time></trkpt><trkpt lat="48.475386706628846" lon="3.2788248867174294"><ele>71.71428571428572</ele><time>2026-04-13T08:47:23Z</time></trkpt><trkpt lat="48.47538558648224" lon="3.278723547839078"><ele>71.57142857142857</ele><time>2026-04-13T08:47:24Z</time></trkpt><trkpt lat="48.47538210818739" lon="3.2786182406806703"><ele>71.42857142857143</ele><time>2026-04-13T08:47:25Z</time></trkpt><trkpt lat="48.47537809695506" lon="3.2785148861382694"><ele>71.28571428571428</ele><time>2026-04-13T08:47:26Z</time></trkpt><trkpt lat="48.47537799407467" lon="3.2784107239550266"><ele>71.14285714285714</ele><time>2026-04-13T08:47:27Z</time></trkpt><trkpt lat="48.47537434981463" lon="3.278307318888631"><ele>71.0</ele><time>2026-04-13T08:47:28Z</time></trkpt><trkpt lat="48.475367766082" lon="3.2782070573108992"><ele>71.0</ele><time>2026-04-13T08:47:29Z</time></trkpt><trkpt lat="48.47537175102603" lon="3.2781084685617317"><ele>71.0</ele><time>2026-04-13T08:47:30Z</time></trkpt><trkpt lat="48.47538182443233" lon="3.278011867226694"><ele>71.0</ele><time>2026-04-13T08:47:31Z</time></trkpt><trkpt lat="48.47538753847353" lon="3.277913714496434"><ele>71.0</ele><time>2026-04-13T08:47:32Z</time></trkpt><trkpt lat="48.47539110218134" lon="3.27781793528382"><ele>71.0</ele><time>2026-04-13T08:47:33Z</time></trkpt><trkpt lat="48.47539922171764" lon="3.2777209098097986"><ele>71.0</ele><time>2026-04-13T08:47:34Z</time></trkpt><trkpt lat="48.475407253929944" lon="3.277616141586563"><ele>71.0</ele><time>2026-04-13T08:47:35Z</time></trkpt><trkpt lat="48.47541048369973" lon="3.277508164330644"><ele>71.0</ele><time>2026-04-13T08:47:36Z</time></trkpt><trkpt lat="48.47541129036782" lon="3.277395944051514"><ele>71.0</ele><time>2026-04-13T08:47:37Z</time></trkpt><trkpt lat="48.47541507794875" lon="3.2772883616263275"><ele>71.0</ele><time>2026-04-13T08:47:38Z</time></trkpt><trkpt lat="48.47542257715288" lon="3.277181514638981"><ele>71.0</ele><time>2026-04-13T08:47:39Z</time></trkpt><trkpt lat="48.47543022805309" lon="3.277074053289008"><ele>71.0</ele><time>2026-04-13T08:47:40Z</time></trkpt><trkpt lat="48.47543684469282" lon="3.2769705487617493"><ele>71.0</ele><time>2026-04-13T08:47:41Z</time></trkpt><trkpt lat="48.47544293505932" lon="3.276867538999373"><ele>71.0</ele><time>2026-04-13T08:47:42Z</time></trkpt><trkpt lat="48.475447627077216" lon="3.276764583326704"><ele>71.0</ele><time>2026-04-13T08:47:43Z</time></trkpt><trkpt lat="48.47544533974426" lon="3.2766653232470713"><ele>71.0</ele><time>2026-04-13T08:47:44Z</time></trkpt><trkpt lat="48.47545077360111" lon="3.2765649699638213"><ele>71.0</ele><time>2026-04-13T08:47:45Z</time></trkpt><trkpt lat="48.47545810081224" lon="3.2764622332436955"><ele>71.0</ele><time>2026-04-13T08:47:46Z</time></trkpt><trkpt lat="48.47546834443942" lon="3.2762702776838672"><ele>71.0</ele><time>2026-04-13T08:47:48Z</time></trkpt><trkpt lat="48.475474383269" lon="3.2761738161074647"><ele>71.0</ele><time>2026-04-13T08:47:49Z</time></trkpt><trkpt lat="48.47548111071475" lon="3.275987197924237"><ele>71.0</ele><time>2026-04-13T08:47:51Z</time></trkpt><trkpt lat="48.47550205700903" lon="3.2758037686614325"><ele>71.0</ele><time>2026-04-13T08:47:53Z</time></trkpt><trkpt lat="48.475523247274424" lon="3.275653958075148"><ele>71.0</ele><time>2026-04-13T08:47:55Z</time></trkpt><trkpt lat="48.47556514138486" lon="3.2755615830110374"><ele>71.0</ele><time>2026-04-13T08:47:57Z</time></trkpt><trkpt lat="48.47559642694894" lon="3.2754750228816936"><ele>71.0</ele><time>2026-04-13T08:47:59Z</time></trkpt><trkpt lat="48.47559759502552" lon="3.27534300162281"><ele>70.66666666666667</ele><time>2026-04-13T08:48:01Z</time></trkpt><trkpt lat="48.47554059676281" lon="3.275194190890245"><ele>70.33333333333334</ele><time>2026-04-13T08:48:03Z</time></trkpt><trkpt lat="48.47549370280978" lon="3.27501994012874"><ele>70.0</ele><time>2026-04-13T08:48:05Z</time></trkpt><trkpt lat="48.47546488647866" lon="3.2749322626427224"><ele>69.66666666666667</ele><time>2026-04-13T08:48:06Z</time></trkpt><trkpt lat="48.47543048925293" lon="3.2748451805185264"><ele>69.33333333333333</ele><time>2026-04-13T08:48:07Z</time></trkpt><trkpt lat="48.4753992532016" lon="3.2747583108449048"><ele>69.0</ele><time>2026-04-13T08:48:08Z</time></trkpt><trkpt lat="48.47536967196137" lon="3.2746637184989886"><ele>68.83333333333333</ele><time>2026-04-13T08:48:09Z</time></trkpt><trkpt lat="48.47534618633545" lon="3.2745716775468225"><ele>68.66666666666667</ele><time>2026-04-13T08:48:10Z</time></trkpt><trkpt lat="48.47531591949585" lon="3.2744764028366258"><ele>68.5</ele><time>2026-04-13T08:48:11Z</time></trkpt><trkpt lat="48.4752843852638" lon="3.274388983002714"><ele>68.33333333333334</ele><time>2026-04-13T08:48:12Z</time></trkpt><trkpt lat="48.47524835522877" lon="3.274306890945728"><ele>68.16666666666667</ele><time>2026-04-13T08:48:13Z</time></trkpt><trkpt lat="48.47519533755098" lon="3.2741443444173814"><ele>68.0</ele><time>2026-04-13T08:48:15Z</time></trkpt><trkpt lat="48.47514108933767" lon="3.273988913207334"><ele>68.4</ele><time>2026-04-13T08:48:17Z</time></trkpt><trkpt lat="48.47508879605982" lon="3.2738342861041283"><ele>68.8</ele><time>2026-04-13T08:48:19Z</time></trkpt><trkpt lat="48.47504174596879" lon="3.2736816292983066"><ele>69.2</ele><time>2026-04-13T08:48:21Z</time></trkpt><trkpt lat="48.474985621537115" lon="3.273546311201632"><ele>69.6</ele><time>2026-04-13T08:48:23Z</time></trkpt><trkpt lat="48.47493857614484" lon="3.273410279361407"><ele>70.0</ele><time>2026-04-13T08:48:25Z</time></trkpt><trkpt lat="48.474889286543984" lon="3.273271735293688"><ele>70.0</ele><time>2026-04-13T08:48:27Z</time></trkpt><trkpt lat="48.47483915670879" lon="3.273127623729246"><ele>70.0</ele><time>2026-04-13T08:48:29Z</time></trkpt><trkpt lat="48.474785212335824" lon="3.272988824195932"><ele>70.0</ele><time>2026-04-13T08:48:31Z</time></trkpt><trkpt lat="48.47473000857149" lon="3.2728464661747343"><ele>70.0</ele><time>2026-04-13T08:48:33Z</time></trkpt><trkpt lat="48.47467696633038" lon="3.272712700879342"><ele>70.0</ele><time>2026-04-13T08:48:35Z</time></trkpt><trkpt lat="48.47461999826133" lon="3.2725695354649313"><ele>70.4</ele><time>2026-04-13T08:48:37Z</time></trkpt><trkpt lat="48.47456734420875" lon="3.2724247401050994"><ele>70.8</ele><time>2026-04-13T08:48:39Z</time></trkpt><trkpt lat="48.474511032297144" lon="3.272274606202194"><ele>71.2</ele><time>2026-04-13T08:48:41Z</time></trkpt><trkpt lat="48.4744579325461" lon="3.272126378525355"><ele>71.6</ele><time>2026-04-13T08:48:43Z</time></trkpt><trkpt lat="48.47439739028244" lon="3.271989901889445"><ele>72.0</ele><time>2026-04-13T08:48:45Z</time></trkpt><trkpt lat="48.474348433196816" lon="3.271837220193559"><ele>72.25</ele><time>2026-04-13T08:48:47Z</time></trkpt><trkpt lat="48.47429106543799" lon="3.2716928134967875"><ele>72.5</ele><time>2026-04-13T08:48:49Z</time></trkpt><trkpt lat="48.4742367627142" lon="3.271546610459676"><ele>72.75</ele><time>2026-04-13T08:48:51Z</time></trkpt><trkpt lat="48.4741738326347" lon="3.271400914257986"><ele>73.0</ele><time>2026-04-13T08:48:53Z</time></trkpt><trkpt lat="48.47410946729176" lon="3.271246312300902"><ele>73.0</ele><time>2026-04-13T08:48:55Z</time></trkpt><trkpt lat="48.474031023772575" lon="3.271103139378904"><ele>73.0</ele><time>2026-04-13T08:48:57Z</time></trkpt><trkpt lat="48.47398065588057" lon="3.2710433593182198"><ele>73.0</ele><time>2026-04-13T08:48:58Z</time></trkpt><trkpt lat="48.47393178916831" lon="3.270982139039113"><ele>73.0</ele><time>2026-04-13T08:48:59Z</time></trkpt><trkpt lat="48.473885965243326" lon="3.270912569330217"><ele>73.0</ele><time>2026-04-13T08:49:00Z</time></trkpt><trkpt lat="48.47384128079691" lon="3.270840243584068"><ele>73.0</ele><time>2026-04-13T08:49:01Z</time></trkpt><trkpt lat="48.473794173959575" lon="3.2707717701287082"><ele>73.0</ele><time>2026-04-13T08:49:02Z</time></trkpt><trkpt lat="48.47374750078235" lon="3.2707006331173267"><ele>73.0</ele><time>2026-04-13T08:49:03Z</time></trkpt><trkpt lat="48.473700008785215" lon="3.270627286754185"><ele>73.0</ele><time>2026-04-13T08:49:04Z</time></trkpt><trkpt lat="48.47365686691102" lon="3.2705486882328687"><ele>73.0</ele><time>2026-04-13T08:49:05Z</time></trkpt><trkpt lat="48.47362291580402" lon="3.270461362306779"><ele>73.0</ele><time>2026-04-13T08:49:06Z</time></trkpt><trkpt lat="48.473592589221106" lon="3.270366994069989"><ele>73.0</ele><time>2026-04-13T08:49:07Z</time></trkpt><trkpt lat="48.47356013832697" lon="3.2702787558780173"><ele>73.0</ele><time>2026-04-13T08:49:08Z</time></trkpt><trkpt lat="48.47352690864659" lon="3.270189388675499"><ele>73.0</ele><time>2026-04-13T08:49:09Z</time></trkpt><trkpt lat="48.47349694140503" lon="3.270096605438121"><ele>73.0</ele><time>2026-04-13T08:49:10Z</time></trkpt><trkpt lat="48.47347132911974" lon="3.270000757807913"><ele>73.0</ele><time>2026-04-13T08:49:11Z</time></trkpt><trkpt lat="48.473445677719006" lon="3.269903080284981"><ele>73.0</ele><time>2026-04-13T08:49:12Z</time></trkpt><trkpt lat="48.473419094356665" lon="3.2698083566444933"><ele>73.0</ele><time>2026-04-13T08:49:13Z</time></trkpt><trkpt lat="48.473391997614335" lon="3.2697133820939173"><ele>73.0</ele><time>2026-04-13T08:49:14Z</time></trkpt><trkpt lat="48.47336665906563" lon="3.2696183405458306"><ele>73.0</ele><time>2026-04-13T08:49:15Z</time></trkpt><trkpt lat="48.473341045083046" lon="3.2695228289200835"><ele>73.0</ele><time>2026-04-13T08:49:16Z</time></trkpt><trkpt lat="48.473312790514285" lon="3.2694269876086315"><ele>72.85714285714286</ele><time>2026-04-13T08:49:17Z</time></trkpt><trkpt lat="48.47328433103105" lon="3.269333380321665"><ele>72.71428571428572</ele><time>2026-04-13T08:49:18Z</time></trkpt><trkpt lat="48.473258614384896" lon="3.2692368084352244"><ele>72.57142857142858</ele><time>2026-04-13T08:49:19Z</time></trkpt><trkpt lat="48.473229094088" lon="3.2691437929648606"><ele>72.42857142857143</ele><time>2026-04-13T08:49:20Z</time></trkpt><trkpt lat="48.47320051163209" lon="3.2690470613239553"><ele>72.28571428571429</ele><time>2026-04-13T08:49:21Z</time></trkpt><trkpt lat="48.47317322091822" lon="3.268950197890912"><ele>72.14285714285715</ele><time>2026-04-13T08:49:22Z</time></trkpt><trkpt lat="48.47314525478277" lon="3.268851276179801"><ele>72.0</ele><time>2026-04-13T08:49:23Z</time></trkpt><trkpt lat="48.47311473331979" lon="3.2687541788117507"><ele>72.00000000000001</ele><time>2026-04-13T08:49:24Z</time></trkpt><trkpt lat="48.47308699289026" lon="3.2686558950649913"><ele>72.0</ele><time>2026-04-13T08:49:25Z</time></trkpt><trkpt lat="48.47305825090995" lon="3.268556063483279"><ele>72.0</ele><time>2026-04-13T08:49:26Z</time></trkpt><trkpt lat="48.47303391458013" lon="3.2684622123839295"><ele>72.0</ele><time>2026-04-13T08:49:27Z</time></trkpt><trkpt lat="48.473008721052864" lon="3.268362431047788"><ele>72.0</ele><time>2026-04-13T08:49:28Z</time></trkpt><trkpt lat="48.472980304838636" lon="3.268268557796344"><ele>72.00000000000001</ele><time>2026-04-13T08:49:29Z</time></trkpt><trkpt lat="48.47294925642323" lon="3.2681726259529347"><ele>72.0</ele><time>2026-04-13T08:49:30Z</time></trkpt><trkpt lat="48.47292067831391" lon="3.26807950290214"><ele>72.00000000000001</ele><time>2026-04-13T08:49:31Z</time></trkpt><trkpt lat="48.47289125595395" lon="3.2679832636934023"><ele>72.0</ele><time>2026-04-13T08:49:32Z</time></trkpt><trkpt lat="48.47285980910708" lon="3.2678905244799865"><ele>72.0</ele><time>2026-04-13T08:49:33Z</time></trkpt><trkpt lat="48.472829495216814" lon="3.267795009519719"><ele>72.0</ele><time>2026-04-13T08:49:34Z</time></trkpt><trkpt lat="48.472795753669644" lon="3.2677031944404864"><ele>72.0</ele><time>2026-04-13T08:49:35Z</time></trkpt><trkpt lat="48.47275995424559" lon="3.2676108922653886"><ele>72.00000000000001</ele><time>2026-04-13T08:49:36Z</time></trkpt><trkpt lat="48.47272086380094" lon="3.267520098392043"><ele>72.0</ele><time>2026-04-13T08:49:37Z</time></trkpt><trkpt lat="48.47268271943032" lon="3.267428471977044"><ele>72.00000000000001</ele><time>2026-04-13T08:49:38Z</time></trkpt><trkpt lat="48.47263936795351" lon="3.267347948649059"><ele>72.0</ele><time>2026-04-13T08:49:39Z</time></trkpt><trkpt lat="48.47259674849662" lon="3.2672625318155593"><ele>72.0</ele><time>2026-04-13T08:49:40Z</time></trkpt><trkpt lat="48.47255696175934" lon="3.2671731870683125"><ele>72.0</ele><time>2026-04-13T08:49:41Z</time></trkpt><trkpt lat="48.47251197078572" lon="3.2670875118549474"><ele>72.0</ele><time>2026-04-13T08:49:42Z</time></trkpt><trkpt lat="48.47246774206821" lon="3.2670037074470955"><ele>72.00000000000001</ele><time>2026-04-13T08:49:43Z</time></trkpt><trkpt lat="48.47242218647166" lon="3.2669177535358433"><ele>72.0</ele><time>2026-04-13T08:49:44Z</time></trkpt><trkpt lat="48.47237242043013" lon="3.2668298515221266"><ele>72.0</ele><time>2026-04-13T08:49:45Z</time></trkpt><trkpt lat="48.472328885907324" lon="3.2667453964472952"><ele>72.0</ele><time>2026-04-13T08:49:46Z</time></trkpt><trkpt lat="48.47228326145805" lon="3.266658290123363"><ele>72.0</ele><time>2026-04-13T08:49:47Z</time></trkpt><trkpt lat="48.472235165480754" lon="3.2665681478198203"><ele>72.0</ele><time>2026-04-13T08:49:48Z</time></trkpt><trkpt lat="48.47218562907031" lon="3.2664795092645775"><ele>72.0</ele><time>2026-04-13T08:49:49Z</time></trkpt><trkpt lat="48.47213569340374" lon="3.2663901511803184"><ele>72.0</ele><time>2026-04-13T08:49:50Z</time></trkpt><trkpt lat="48.47208712074437" lon="3.2663047669355514"><ele>71.83333333333333</ele><time>2026-04-13T08:49:51Z</time></trkpt><trkpt lat="48.47203778209764" lon="3.2662179298517215"><ele>71.66666666666667</ele><time>2026-04-13T08:49:52Z</time></trkpt><trkpt lat="48.471991524001254" lon="3.2661304591950984"><ele>71.5</ele><time>2026-04-13T08:49:53Z</time></trkpt><trkpt lat="48.471942622179924" lon="3.266038900413619"><ele>71.33333333333334</ele><time>2026-04-13T08:49:54Z</time></trkpt><trkpt lat="48.47189839345609" lon="3.2659501466104315"><ele>71.16666666666667</ele><time>2026-04-13T08:49:55Z</time></trkpt><trkpt lat="48.47184887439852" lon="3.265860703766659"><ele>71.0</ele><time>2026-04-13T08:49:56Z</time></trkpt><trkpt lat="48.471805258776676" lon="3.26577499324244"><ele>71.0</ele><time>2026-04-13T08:49:57Z</time></trkpt><trkpt lat="48.47175487119457" lon="3.26568629489078"><ele>71.0</ele><time>2026-04-13T08:49:58Z</time></trkpt><trkpt lat="48.471707273825274" lon="3.2656006928341372"><ele>71.0</ele><time>2026-04-13T08:49:59Z</time></trkpt><trkpt lat="48.47165473025385" lon="3.26551396314028"><ele>71.0</ele><time>2026-04-13T08:50:00Z</time></trkpt><trkpt lat="48.47160750312516" lon="3.265426410005165"><ele>71.0</ele><time>2026-04-13T08:50:01Z</time></trkpt><trkpt lat="48.47155810932652" lon="3.2653342414921487"><ele>71.0</ele><time>2026-04-13T08:50:02Z</time></trkpt><trkpt lat="48.471508197479345" lon="3.265249032134886"><ele>71.0</ele><time>2026-04-13T08:50:03Z</time></trkpt><trkpt lat="48.47145155771538" lon="3.265170518963248"><ele>71.0</ele><time>2026-04-13T08:50:04Z</time></trkpt><trkpt lat="48.47140804867222" lon="3.2650843132939675"><ele>71.0</ele><time>2026-04-13T08:50:05Z</time></trkpt><trkpt lat="48.47136338357394" lon="3.264993912509215"><ele>71.0</ele><time>2026-04-13T08:50:06Z</time></trkpt><trkpt lat="48.47131842171463" lon="3.2649020215160003"><ele>71.0</ele><time>2026-04-13T08:50:07Z</time></trkpt><trkpt lat="48.471272976111365" lon="3.264813747799484"><ele>71.0</ele><time>2026-04-13T08:50:08Z</time></trkpt><trkpt lat="48.4712259365153" lon="3.2647228616121278"><ele>70.83333333333334</ele><time>2026-04-13T08:50:09Z</time></trkpt><trkpt lat="48.471178962716166" lon="3.2646310857214025"><ele>70.66666666666667</ele><time>2026-04-13T08:50:10Z</time></trkpt><trkpt lat="48.47113595675061" lon="3.2645372914106163"><ele>70.5</ele><time>2026-04-13T08:50:11Z</time></trkpt><trkpt lat="48.47109183408962" lon="3.264442690211202"><ele>70.33333333333333</ele><time>2026-04-13T08:50:12Z</time></trkpt><trkpt lat="48.47105345814467" lon="3.2643446050073894"><ele>70.16666666666666</ele><time>2026-04-13T08:50:13Z</time></trkpt><trkpt lat="48.47101520092457" lon="3.264243519857673"><ele>70.0</ele><time>2026-04-13T08:50:14Z</time></trkpt><trkpt lat="48.470977861643085" lon="3.2641415756934173"><ele>70.0</ele><time>2026-04-13T08:50:15Z</time></trkpt><trkpt lat="48.47094279323435" lon="3.2640370777017904"><ele>70.0</ele><time>2026-04-13T08:50:16Z</time></trkpt><trkpt lat="48.47090981817673" lon="3.26393488552858"><ele>70.0</ele><time>2026-04-13T08:50:17Z</time></trkpt><trkpt lat="48.47088273329854" lon="3.2638300607219612"><ele>70.0</ele><time>2026-04-13T08:50:18Z</time></trkpt><trkpt lat="48.47084998953816" lon="3.2637189632694596"><ele>70.0</ele><time>2026-04-13T08:50:19Z</time></trkpt><trkpt lat="48.47082390541108" lon="3.263619001638549"><ele>70.0</ele><time>2026-04-13T08:50:20Z</time></trkpt><trkpt lat="48.47079128022134" lon="3.263517828024447"><ele>70.0</ele><time>2026-04-13T08:50:21Z</time></trkpt><trkpt lat="48.470758223598686" lon="3.2634177135024296"><ele>70.0</ele><time>2026-04-13T08:50:22Z</time></trkpt><trkpt lat="48.470733813303575" lon="3.263317265442129"><ele>70.0</ele><time>2026-04-13T08:50:23Z</time></trkpt><trkpt lat="48.470705973501055" lon="3.263219592393269"><ele>70.0</ele><time>2026-04-13T08:50:24Z</time></trkpt><trkpt lat="48.47067799837715" lon="3.2631265295222263"><ele>70.0</ele><time>2026-04-13T08:50:25Z</time></trkpt><trkpt lat="48.470628834852036" lon="3.2629517434319784"><ele>70.0</ele><time>2026-04-13T08:50:27Z</time></trkpt><trkpt lat="48.4705796974486" lon="3.2627748654045092"><ele>69.85714285714286</ele><time>2026-04-13T08:50:29Z</time></trkpt><trkpt lat="48.47055435514852" lon="3.262679635923442"><ele>69.71428571428572</ele><time>2026-04-13T08:50:30Z</time></trkpt><trkpt lat="48.470526601700655" lon="3.2625865644093204"><ele>69.57142857142857</ele><time>2026-04-13T08:50:31Z</time></trkpt><trkpt lat="48.47049935865694" lon="3.26248921931864"><ele>69.42857142857143</ele><time>2026-04-13T08:50:32Z</time></trkpt><trkpt lat="48.47047034115174" lon="3.2623914549790167"><ele>69.28571428571429</ele><time>2026-04-13T08:50:33Z</time></trkpt><trkpt lat="48.470444889136225" lon="3.2622909921823946"><ele>69.14285714285714</ele><time>2026-04-13T08:50:34Z</time></trkpt><trkpt lat="48.470416353008105" lon="3.2621923531797643"><ele>69.0</ele><time>2026-04-13T08:50:35Z</time></trkpt><trkpt lat="48.470388339017134" lon="3.262092539881689"><ele>69.0</ele><time>2026-04-13T08:50:36Z</time></trkpt><trkpt lat="48.47036035773277" lon="3.261993575457824"><ele>69.0</ele><time>2026-04-13T08:50:37Z</time></trkpt><trkpt lat="48.47033214740254" lon="3.26188751274495"><ele>69.0</ele><time>2026-04-13T08:50:38Z</time></trkpt><trkpt lat="48.47030282964955" lon="3.2617885288853277"><ele>69.0</ele><time>2026-04-13T08:50:39Z</time></trkpt><trkpt lat="48.470273396170306" lon="3.2616875969641033"><ele>69.0</ele><time>2026-04-13T08:50:40Z</time></trkpt><trkpt lat="48.470243461956834" lon="3.261584085186119"><ele>69.0</ele><time>2026-04-13T08:50:41Z</time></trkpt><trkpt lat="48.470214814518975" lon="3.261481040354352"><ele>69.0</ele><time>2026-04-13T08:50:42Z</time></trkpt><trkpt lat="48.470185086760914" lon="3.2613758728769935"><ele>69.0</ele><time>2026-04-13T08:50:43Z</time></trkpt><trkpt lat="48.47015494561213" lon="3.26127589781467"><ele>69.0</ele><time>2026-04-13T08:50:44Z</time></trkpt><trkpt lat="48.470125013718736" lon="3.2611804266831528"><ele>69.0</ele><time>2026-04-13T08:50:45Z</time></trkpt><trkpt lat="48.47010010912985" lon="3.261087334648208"><ele>69.0</ele><time>2026-04-13T08:50:46Z</time></trkpt><trkpt lat="48.47007746656989" lon="3.2609933070610286"><ele>69.0</ele><time>2026-04-13T08:50:47Z</time></trkpt><trkpt lat="48.470052606588126" lon="3.2609039576178227"><ele>69.0</ele><time>2026-04-13T08:50:48Z</time></trkpt><trkpt lat="48.47002515214997" lon="3.2608151530742155"><ele>69.0</ele><time>2026-04-13T08:50:49Z</time></trkpt><trkpt lat="48.46999866973684" lon="3.260722352368352"><ele>69.0</ele><time>2026-04-13T08:50:50Z</time></trkpt><trkpt lat="48.46997255228063" lon="3.260626786375975"><ele>69.0</ele><time>2026-04-13T08:50:51Z</time></trkpt><trkpt lat="48.46994535686524" lon="3.2605293896035294"><ele>69.0</ele><time>2026-04-13T08:50:52Z</time></trkpt><trkpt lat="48.469919993196584" lon="3.260433392302163"><ele>69.0</ele><time>2026-04-13T08:50:53Z</time></trkpt><trkpt lat="48.469892494252846" lon="3.2603339862977423"><ele>69.0</ele><time>2026-04-13T08:50:54Z</time></trkpt><trkpt lat="48.469865040832666" lon="3.26023655955842"><ele>69.0</ele><time>2026-04-13T08:50:55Z</time></trkpt><trkpt lat="48.469838407495374" lon="3.2601421300554736"><ele>69.0</ele><time>2026-04-13T08:50:56Z</time></trkpt><trkpt lat="48.46980735640089" lon="3.2600474075140498"><ele>68.85714285714286</ele><time>2026-04-13T08:50:57Z</time></trkpt><trkpt lat="48.46977894618597" lon="3.2599501611612003"><ele>68.71428571428572</ele><time>2026-04-13T08:50:58Z</time></trkpt><trkpt lat="48.469755078167374" lon="3.2598537870813162"><ele>68.57142857142857</ele><time>2026-04-13T08:50:59Z</time></trkpt><trkpt lat="48.469726557107826" lon="3.2597544903334095"><ele>68.42857142857143</ele><time>2026-04-13T08:51:00Z</time></trkpt><trkpt lat="48.46969918526046" lon="3.2596585777914537"><ele>68.28571428571428</ele><time>2026-04-13T08:51:01Z</time></trkpt><trkpt lat="48.46967196561478" lon="3.2595609992765544"><ele>68.14285714285714</ele><time>2026-04-13T08:51:02Z</time></trkpt><trkpt lat="48.46964410507734" lon="3.2594636988938173"><ele>68.0</ele><time>2026-04-13T08:51:03Z</time></trkpt><trkpt lat="48.46961436725573" lon="3.25936762904347"><ele>67.85714285714285</ele><time>2026-04-13T08:51:04Z</time></trkpt><trkpt lat="48.46958446823707" lon="3.2592708347942096"><ele>67.71428571428571</ele><time>2026-04-13T08:51:05Z</time></trkpt><trkpt lat="48.4695563135156" lon="3.259178995985804"><ele>67.57142857142857</ele><time>2026-04-13T08:51:06Z</time></trkpt><trkpt lat="48.469521088306344" lon="3.2590880861290543"><ele>67.42857142857142</ele><time>2026-04-13T08:51:07Z</time></trkpt><trkpt lat="48.46948208547362" lon="3.259009852898098"><ele>67.28571428571428</ele><time>2026-04-13T08:51:08Z</time></trkpt><trkpt lat="48.469425187860494" lon="3.2589281980567173"><ele>67.14285714285714</ele><time>2026-04-13T08:51:09Z</time></trkpt><trkpt lat="48.46937576933452" lon="3.2588542572380073"><ele>67.0</ele><time>2026-04-13T08:51:10Z</time></trkpt><trkpt lat="48.4693157620015" lon="3.2587905170569744"><ele>67.0</ele><time>2026-04-13T08:51:11Z</time></trkpt><trkpt lat="48.46925546303381" lon="3.2587374707830525"><ele>67.0</ele><time>2026-04-13T08:51:12Z</time></trkpt><trkpt lat="48.469192900706226" lon="3.2586887127611157"><ele>67.0</ele><time>2026-04-13T08:51:13Z</time></trkpt><trkpt lat="48.469125918173376" lon="3.258634381898498"><ele>67.0</ele><time>2026-04-13T08:51:14Z</time></trkpt><trkpt lat="48.46906027961743" lon="3.25858240687364"><ele>67.0</ele><time>2026-04-13T08:51:15Z</time></trkpt><trkpt lat="48.46899633843164" lon="3.258533726802478"><ele>67.0</ele><time>2026-04-13T08:51:16Z</time></trkpt><trkpt lat="48.468931303626256" lon="3.2584850928301297"><ele>67.0</ele><time>2026-04-13T08:51:17Z</time></trkpt><trkpt lat="48.46886821319265" lon="3.258438696051896"><ele>67.0</ele><time>2026-04-13T08:51:18Z</time></trkpt><trkpt lat="48.46880669339726" lon="3.2583876167314423"><ele>67.0</ele><time>2026-04-13T08:51:19Z</time></trkpt><trkpt lat="48.4687469820015" lon="3.2583375652415607"><ele>67.0</ele><time>2026-04-13T08:51:20Z</time></trkpt><trkpt lat="48.468687066382664" lon="3.258289711050638"><ele>67.0</ele><time>2026-04-13T08:51:21Z</time></trkpt><trkpt lat="48.468628125364845" lon="3.258243191469686"><ele>67.0</ele><time>2026-04-13T08:51:22Z</time></trkpt><trkpt lat="48.46857032379106" lon="3.258194135864765"><ele>67.0</ele><time>2026-04-13T08:51:23Z</time></trkpt><trkpt lat="48.468512798868396" lon="3.258143114868289"><ele>67.0</ele><time>2026-04-13T08:51:24Z</time></trkpt><trkpt lat="48.468453675643204" lon="3.2580984782759965"><ele>67.2</ele><time>2026-04-13T08:51:25Z</time></trkpt><trkpt lat="48.468395501392955" lon="3.2580522317082274"><ele>67.4</ele><time>2026-04-13T08:51:26Z</time></trkpt><trkpt lat="48.46833443054493" lon="3.258010633644609"><ele>67.6</ele><time>2026-04-13T08:51:27Z</time></trkpt><trkpt lat="48.468219354691314" lon="3.2579436201397516"><ele>67.8</ele><time>2026-04-13T08:51:29Z</time></trkpt><trkpt lat="48.46810639791185" lon="3.2578826451815743"><ele>68.0</ele><time>2026-04-13T08:51:31Z</time></trkpt><trkpt lat="48.46798939206936" lon="3.257836981744341"><ele>67.83333333333334</ele><time>2026-04-13T08:51:33Z</time></trkpt><trkpt lat="48.46786918133246" lon="3.257779752588333"><ele>67.66666666666667</ele><time>2026-04-13T08:51:35Z</time></trkpt><trkpt lat="48.467805201981015" lon="3.257755438271652"><ele>67.5</ele><time>2026-04-13T08:51:36Z</time></trkpt><trkpt lat="48.467742573500935" lon="3.2577268445190115"><ele>67.33333333333333</ele><time>2026-04-13T08:51:37Z</time></trkpt><trkpt lat="48.46767613858289" lon="3.257701342753134"><ele>67.16666666666666</ele><time>2026-04-13T08:51:38Z</time></trkpt><trkpt lat="48.467611391268605" lon="3.257675390026506"><ele>67.0</ele><time>2026-04-13T08:51:39Z</time></trkpt><trkpt lat="48.46754574716763" lon="3.257645527270201"><ele>67.0</ele><time>2026-04-13T08:51:40Z</time></trkpt><trkpt lat="48.467480691390065" lon="3.2576182088723877"><ele>67.0</ele><time>2026-04-13T08:51:41Z</time></trkpt><trkpt lat="48.4674159983188" lon="3.257584676429529"><ele>67.0</ele><time>2026-04-13T08:51:42Z</time></trkpt><trkpt lat="48.46734865132842" lon="3.2575478050094513"><ele>67.0</ele><time>2026-04-13T08:51:43Z</time></trkpt><trkpt lat="48.46728167268059" lon="3.257503637605394"><ele>67.0</ele><time>2026-04-13T08:51:44Z</time></trkpt><trkpt lat="48.46722313155743" lon="3.2574389304751583"><ele>67.0</ele><time>2026-04-13T08:51:45Z</time></trkpt><trkpt lat="48.467180345782545" lon="3.2573459777036637"><ele>67.0</ele><time>2026-04-13T08:51:46Z</time></trkpt><trkpt lat="48.46715680419375" lon="3.25723645206681"><ele>66.71428571428572</ele><time>2026-04-13T08:51:47Z</time></trkpt><trkpt lat="48.46714984147173" lon="3.257121723770103"><ele>66.42857142857143</ele><time>2026-04-13T08:51:48Z</time></trkpt><trkpt lat="48.467145236002" lon="3.257010168485806"><ele>66.14285714285714</ele><time>2026-04-13T08:51:49Z</time></trkpt><trkpt lat="48.46714302583684" lon="3.2568988599790036"><ele>65.85714285714286</ele><time>2026-04-13T08:51:50Z</time></trkpt><trkpt lat="48.46713735819585" lon="3.2567902374519453"><ele>65.57142857142857</ele><time>2026-04-13T08:51:51Z</time></trkpt><trkpt lat="48.467132530423775" lon="3.2566838496281854"><ele>65.28571428571429</ele><time>2026-04-13T08:51:52Z</time></trkpt><trkpt lat="48.46712865429911" lon="3.2565742392972483"><ele>65.0</ele><time>2026-04-13T08:51:53Z</time></trkpt><trkpt lat="48.46712140157286" lon="3.2564663847215862"><ele>65.28571428571429</ele><time>2026-04-13T08:51:54Z</time></trkpt><trkpt lat="48.467111762919565" lon="3.2563630862205573"><ele>65.57142857142857</ele><time>2026-04-13T08:51:55Z</time></trkpt><trkpt lat="48.467093361422805" lon="3.2562617566876786"><ele>65.85714285714286</ele><time>2026-04-13T08:51:56Z</time></trkpt><trkpt lat="48.467076780213006" lon="3.256169080053218"><ele>66.14285714285714</ele><time>2026-04-13T08:51:57Z</time></trkpt><trkpt lat="48.467058157026706" lon="3.256073728385289"><ele>66.42857142857143</ele><time>2026-04-13T08:51:58Z</time></trkpt><trkpt lat="48.467036005653966" lon="3.255980682084924"><ele>66.71428571428572</ele><time>2026-04-13T08:51:59Z</time></trkpt><trkpt lat="48.46701150651354" lon="3.255889319012079"><ele>67.0</ele><time>2026-04-13T08:52:00Z</time></trkpt><trkpt lat="48.46697850747706" lon="3.2557090505007005"><ele>66.0</ele><time>2026-04-13T08:52:02Z</time></trkpt><trkpt lat="48.46694202238024" lon="3.255533833962006"><ele>65.0</ele><time>2026-04-13T08:52:04Z</time></trkpt><trkpt lat="48.466903598737204" lon="3.2553755396453683"><ele>64.0</ele><time>2026-04-13T08:52:06Z</time></trkpt><trkpt lat="48.466874085835975" lon="3.255221409593209"><ele>63.0</ele><time>2026-04-13T08:52:08Z</time></trkpt><trkpt lat="48.466848332366986" lon="3.255053772854753"><ele>63.0</ele><time>2026-04-13T08:52:10Z</time></trkpt><trkpt lat="48.46681467990282" lon="3.2548794946736264"><ele>63.0</ele><time>2026-04-13T08:52:12Z</time></trkpt><trkpt lat="48.46678612103583" lon="3.2546950316399634"><ele>63.0</ele><time>2026-04-13T08:52:14Z</time></trkpt><trkpt lat="48.46677170626177" lon="3.254600239334897"><ele>63.0</ele><time>2026-04-13T08:52:15Z</time></trkpt><trkpt lat="48.46675890884352" lon="3.2545046856477633"><ele>63.0</ele><time>2026-04-13T08:52:16Z</time></trkpt><trkpt lat="48.4667552183629" lon="3.2544031347076547"><ele>63.0</ele><time>2026-04-13T08:52:17Z</time></trkpt><trkpt lat="48.46676142081429" lon="3.254305546779966"><ele>62.666666666666664</ele><time>2026-04-13T08:52:18Z</time></trkpt><trkpt lat="48.466774976932555" lon="3.2542084955919304"><ele>62.33333333333333</ele><time>2026-04-13T08:52:19Z</time></trkpt><trkpt lat="48.466790844298636" lon="3.254110459362757"><ele>62.0</ele><time>2026-04-13T08:52:20Z</time></trkpt><trkpt lat="48.46680230457562" lon="3.2540127818454523"><ele>61.666666666666664</ele><time>2026-04-13T08:52:21Z</time></trkpt><trkpt lat="48.46683051001404" lon="3.253825380739605"><ele>61.33333333333333</ele><time>2026-04-13T08:52:23Z</time></trkpt><trkpt lat="48.46684561919993" lon="3.2537289955340856"><ele>61.0</ele><time>2026-04-13T08:52:24Z</time></trkpt><trkpt lat="48.46686161785024" lon="3.253634455828305"><ele>60.99999999999999</ele><time>2026-04-13T08:52:25Z</time></trkpt><trkpt lat="48.466875559365285" lon="3.2535404140469986"><ele>61.0</ele><time>2026-04-13T08:52:26Z</time></trkpt><trkpt lat="48.466885903500796" lon="3.2534444133365734"><ele>60.99999999999999</ele><time>2026-04-13T08:52:27Z</time></trkpt><trkpt lat="48.4669005922059" lon="3.253347769242436"><ele>60.99999999999999</ele><time>2026-04-13T08:52:28Z</time></trkpt><trkpt lat="48.46691711728109" lon="3.253249191903709"><ele>61.0</ele><time>2026-04-13T08:52:29Z</time></trkpt><trkpt lat="48.466934035578866" lon="3.253148400846892"><ele>60.99999999999999</ele><time>2026-04-13T08:52:30Z</time></trkpt><trkpt lat="48.46694896328604" lon="3.253046493939254"><ele>60.99999999999999</ele><time>2026-04-13T08:52:31Z</time></trkpt><trkpt lat="48.466964662253446" lon="3.252945913833907"><ele>61.0</ele><time>2026-04-13T08:52:32Z</time></trkpt><trkpt lat="48.46697930840607" lon="3.252847568917718"><ele>60.99999999999999</ele><time>2026-04-13T08:52:33Z</time></trkpt><trkpt lat="48.46699150422333" lon="3.2527531142867874"><ele>60.99999999999999</ele><time>2026-04-13T08:52:34Z</time></trkpt><trkpt lat="48.467032230670746" lon="3.2525851986093715"><ele>61.0</ele><time>2026-04-13T08:52:36Z</time></trkpt><trkpt lat="48.467131640291" lon="3.2524842214809273"><ele>61.0</ele><time>2026-04-13T08:52:38Z</time></trkpt><trkpt lat="48.467248293801845" lon="3.252463721845983"><ele>62.25</ele><time>2026-04-13T08:52:40Z</time></trkpt><trkpt lat="48.467369189840944" lon="3.252514252939133"><ele>63.5</ele><time>2026-04-13T08:52:42Z</time></trkpt><trkpt lat="48.467487298106306" lon="3.2525659579642188"><ele>64.75</ele><time>2026-04-13T08:52:44Z</time></trkpt><trkpt lat="48.467601391758635" lon="3.2526152064270883"><ele>66.0</ele><time>2026-04-13T08:52:46Z</time></trkpt><trkpt lat="48.46771101194986" lon="3.252696525182517"><ele>66.0</ele><time>2026-04-13T08:52:48Z</time></trkpt><trkpt lat="48.46781979753944" lon="3.2527741303073356"><ele>66.0</ele><time>2026-04-13T08:52:50Z</time></trkpt><trkpt lat="48.467928945886506" lon="3.252854002744"><ele>66.0</ele><time>2026-04-13T08:52:52Z</time></trkpt><trkpt lat="48.46798608302047" lon="3.2528976440948694"><ele>66.0</ele><time>2026-04-13T08:52:53Z</time></trkpt><trkpt lat="48.46809265381581" lon="3.252988882286462"><ele>66.0</ele><time>2026-04-13T08:52:55Z</time></trkpt><trkpt lat="48.46820783145451" lon="3.2530486836319787"><ele>66.0</ele><time>2026-04-13T08:52:57Z</time></trkpt><trkpt lat="48.468326535414825" lon="3.2530938533605123"><ele>66.0</ele><time>2026-04-13T08:52:59Z</time></trkpt><trkpt lat="48.46843984911882" lon="3.25312188758735"><ele>66.0</ele><time>2026-04-13T08:53:01Z</time></trkpt><trkpt lat="48.468552848502675" lon="3.253136119642125"><ele>66.0</ele><time>2026-04-13T08:53:03Z</time></trkpt><trkpt lat="48.46866712247117" lon="3.2531462811659244"><ele>66.25</ele><time>2026-04-13T08:53:05Z</time></trkpt><trkpt lat="48.46878185515521" lon="3.253152078516295"><ele>66.5</ele><time>2026-04-13T08:53:07Z</time></trkpt><trkpt lat="48.46889800309769" lon="3.2531631627924718"><ele>66.75</ele><time>2026-04-13T08:53:09Z</time></trkpt><trkpt lat="48.469012237125156" lon="3.2531734776517633"><ele>67.0</ele><time>2026-04-13T08:53:11Z</time></trkpt><trkpt lat="48.469121941548224" lon="3.253180596451464"><ele>67.0</ele><time>2026-04-13T08:53:13Z</time></trkpt><trkpt lat="48.469229955648835" lon="3.253192563835767"><ele>67.0</ele><time>2026-04-13T08:53:15Z</time></trkpt><trkpt lat="48.46933911936769" lon="3.2532040884945785"><ele>67.0</ele><time>2026-04-13T08:53:17Z</time></trkpt><trkpt lat="48.469448524859125" lon="3.2532135112925538"><ele>67.0</ele><time>2026-04-13T08:53:19Z</time></trkpt><trkpt lat="48.46954851275721" lon="3.253227434188746"><ele>67.0</ele><time>2026-04-13T08:53:21Z</time></trkpt><trkpt lat="48.46964957379281" lon="3.2532364011367485"><ele>67.0</ele><time>2026-04-13T08:53:23Z</time></trkpt><trkpt lat="48.469757189716056" lon="3.2532496821412504"><ele>67.0</ele><time>2026-04-13T08:53:25Z</time></trkpt><trkpt lat="48.46986802088618" lon="3.2532547475696862"><ele>67.0</ele><time>2026-04-13T08:53:27Z</time></trkpt><trkpt lat="48.46998112933937" lon="3.25327179782911"><ele>67.0</ele><time>2026-04-13T08:53:29Z</time></trkpt><trkpt lat="48.470097320937825" lon="3.25328106706036"><ele>67.0</ele><time>2026-04-13T08:53:31Z</time></trkpt><trkpt lat="48.4702022749309" lon="3.2532939486712706"><ele>67.0</ele><time>2026-04-13T08:53:33Z</time></trkpt><trkpt lat="48.470305125145195" lon="3.253303857382024"><ele>67.0</ele><time>2026-04-13T08:53:35Z</time></trkpt><trkpt lat="48.47041561459022" lon="3.253314936312698"><ele>67.0</ele><time>2026-04-13T08:53:37Z</time></trkpt><trkpt lat="48.470526087534424" lon="3.253316319802352"><ele>67.0</ele><time>2026-04-13T08:53:39Z</time></trkpt><trkpt lat="48.470634995718" lon="3.253333821715652"><ele>67.0</ele><time>2026-04-13T08:53:41Z</time></trkpt><trkpt lat="48.47074177994261" lon="3.253351953126177"><ele>66.8</ele><time>2026-04-13T08:53:43Z</time></trkpt><trkpt lat="48.47084117183293" lon="3.25335817056381"><ele>66.6</ele><time>2026-04-13T08:53:45Z</time></trkpt><trkpt lat="48.47093070964268" lon="3.253370933851625"><ele>66.39999999999999</ele><time>2026-04-13T08:53:47Z</time></trkpt><trkpt lat="48.47102597650273" lon="3.253374144528906"><ele>66.2</ele><time>2026-04-13T08:53:49Z</time></trkpt><trkpt lat="48.47112569380527" lon="3.2533796139860907"><ele>66.0</ele><time>2026-04-13T08:53:51Z</time></trkpt><trkpt lat="48.471224687540655" lon="3.2533924245141677"><ele>65.6</ele><time>2026-04-13T08:53:53Z</time></trkpt><trkpt lat="48.47132513813017" lon="3.2534008191074797"><ele>65.19999999999999</ele><time>2026-04-13T08:53:55Z</time></trkpt><trkpt lat="48.471432774548035" lon="3.2534118888687344"><ele>64.80000000000001</ele><time>2026-04-13T08:53:57Z</time></trkpt><trkpt lat="48.471545962383445" lon="3.2534218967130557"><ele>64.4</ele><time>2026-04-13T08:53:59Z</time></trkpt><trkpt lat="48.47165723872561" lon="3.253431669718286"><ele>64.0</ele><time>2026-04-13T08:54:01Z</time></trkpt><trkpt lat="48.471771833186516" lon="3.2534454874044916"><ele>64.0</ele><time>2026-04-13T08:54:03Z</time></trkpt><trkpt lat="48.471892452187724" lon="3.253458852186711"><ele>64.0</ele><time>2026-04-13T08:54:05Z</time></trkpt><trkpt lat="48.47201458061992" lon="3.2534757920390716"><ele>64.0</ele><time>2026-04-13T08:54:07Z</time></trkpt><trkpt lat="48.472138904978934" lon="3.2534853176399334"><ele>64.0</ele><time>2026-04-13T08:54:09Z</time></trkpt><trkpt lat="48.47220350670676" lon="3.2534888473666133"><ele>64.0</ele><time>2026-04-13T08:54:10Z</time></trkpt><trkpt lat="48.47226671974168" lon="3.253489075262523"><ele>64.5</ele><time>2026-04-13T08:54:11Z</time></trkpt><trkpt lat="48.472389293797434" lon="3.25349663214327"><ele>65.0</ele><time>2026-04-13T08:54:13Z</time></trkpt><trkpt lat="48.472452206185224" lon="3.25351115179551"><ele>65.5</ele><time>2026-04-13T08:54:14Z</time></trkpt><trkpt lat="48.47251539759099" lon="3.2535205551111663"><ele>66.0</ele><time>2026-04-13T08:54:15Z</time></trkpt><trkpt lat="48.47258002768047" lon="3.253528420757258"><ele>66.5</ele><time>2026-04-13T08:54:16Z</time></trkpt><trkpt lat="48.472705631161574" lon="3.2535400921481523"><ele>67.0</ele><time>2026-04-13T08:54:18Z</time></trkpt><trkpt lat="48.472826717987694" lon="3.253545472236509"><ele>67.25</ele><time>2026-04-13T08:54:20Z</time></trkpt><trkpt lat="48.47294819308547" lon="3.253544075668688"><ele>67.5</ele><time>2026-04-13T08:54:22Z</time></trkpt><trkpt lat="48.47307039057651" lon="3.2535244045422473"><ele>67.75</ele><time>2026-04-13T08:54:24Z</time></trkpt><trkpt lat="48.4731866983656" lon="3.2534752908244187"><ele>68.0</ele><time>2026-04-13T08:54:26Z</time></trkpt><trkpt lat="48.473308867263185" lon="3.253438471918849"><ele>68.0</ele><time>2026-04-13T08:54:28Z</time></trkpt><trkpt lat="48.47343151564595" lon="3.253404062666538"><ele>68.0</ele><time>2026-04-13T08:54:30Z</time></trkpt><trkpt lat="48.473550088801254" lon="3.253354724778007"><ele>68.0</ele><time>2026-04-13T08:54:32Z</time></trkpt><trkpt lat="48.47366965329768" lon="3.253309625285682"><ele>68.0</ele><time>2026-04-13T08:54:34Z</time></trkpt><trkpt lat="48.473787480297105" lon="3.2532685011558597"><ele>68.5</ele><time>2026-04-13T08:54:36Z</time></trkpt><trkpt lat="48.47390185977183" lon="3.253225542079494"><ele>69.0</ele><time>2026-04-13T08:54:38Z</time></trkpt><trkpt lat="48.47401492822716" lon="3.253182450052739"><ele>69.5</ele><time>2026-04-13T08:54:40Z</time></trkpt><trkpt lat="48.47412455765236" lon="3.2531416245855076"><ele>70.0</ele><time>2026-04-13T08:54:42Z</time></trkpt><trkpt lat="48.474228797379205" lon="3.253100707171615"><ele>70.2</ele><time>2026-04-13T08:54:44Z</time></trkpt><trkpt lat="48.47433359895528" lon="3.253064189349474"><ele>70.4</ele><time>2026-04-13T08:54:46Z</time></trkpt><trkpt lat="48.47443568032158" lon="3.253022773552046"><ele>70.6</ele><time>2026-04-13T08:54:48Z</time></trkpt><trkpt lat="48.4745369344487" lon="3.252987078268077"><ele>70.8</ele><time>2026-04-13T08:54:50Z</time></trkpt><trkpt lat="48.47463323144548" lon="3.2529505406659225"><ele>71.0</ele><time>2026-04-13T08:54:52Z</time></trkpt><trkpt lat="48.47473204650371" lon="3.252918697116376"><ele>71.0</ele><time>2026-04-13T08:54:54Z</time></trkpt><trkpt lat="48.47483125754059" lon="3.252878862299797"><ele>71.0</ele><time>2026-04-13T08:54:56Z</time></trkpt><trkpt lat="48.47492892458835" lon="3.252845566800866"><ele>71.0</ele><time>2026-04-13T08:54:58Z</time></trkpt><trkpt lat="48.47502338479702" lon="3.2528085574353254"><ele>71.0</ele><time>2026-04-13T08:55:00Z</time></trkpt><trkpt lat="48.47510668227207" lon="3.2527801155284184"><ele>71.0</ele><time>2026-04-13T08:55:02Z</time></trkpt><trkpt lat="48.475194090108026" lon="3.252745687869107"><ele>71.0</ele><time>2026-04-13T08:55:04Z</time></trkpt><trkpt lat="48.475290224064" lon="3.2527175956438077"><ele>71.0</ele><time>2026-04-13T08:55:06Z</time></trkpt><trkpt lat="48.47539084035773" lon="3.2526902494134076"><ele>71.0</ele><time>2026-04-13T08:55:08Z</time></trkpt><trkpt lat="48.47549212342804" lon="3.252661075469657"><ele>71.0</ele><time>2026-04-13T08:55:10Z</time></trkpt><trkpt lat="48.47559002801248" lon="3.2526283078196756"><ele>71.0</ele><time>2026-04-13T08:55:12Z</time></trkpt><trkpt lat="48.47568704462731" lon="3.2525976918423694"><ele>71.6</ele><time>2026-04-13T08:55:14Z</time></trkpt><trkpt lat="48.475787045940685" lon="3.2525794528353917"><ele>72.19999999999999</ele><time>2026-04-13T08:55:16Z</time></trkpt><trkpt lat="48.47588542662826" lon="3.2525580633936584"><ele>72.80000000000001</ele><time>2026-04-13T08:55:18Z</time></trkpt><trkpt lat="48.47597100589351" lon="3.252534780447223"><ele>73.4</ele><time>2026-04-13T08:55:20Z</time></trkpt><trkpt lat="48.4760553320998" lon="3.252509511367336"><ele>74.0</ele><time>2026-04-13T08:55:22Z</time></trkpt><trkpt lat="48.476146380259955" lon="3.2524847092820885"><ele>74.0</ele><time>2026-04-13T08:55:24Z</time></trkpt><trkpt lat="48.476245352391075" lon="3.252461358113985"><ele>74.0</ele><time>2026-04-13T08:55:26Z</time></trkpt><trkpt lat="48.47634997352013" lon="3.2524403497150045"><ele>74.0</ele><time>2026-04-13T08:55:28Z</time></trkpt><trkpt lat="48.47645365974943" lon="3.2524117214886963"><ele>74.0</ele><time>2026-04-13T08:55:30Z</time></trkpt><trkpt lat="48.47655836227651" lon="3.252391374304954"><ele>74.0</ele><time>2026-04-13T08:55:32Z</time></trkpt><trkpt lat="48.47665358760611" lon="3.2523695847936263"><ele>74.4</ele><time>2026-04-13T08:55:34Z</time></trkpt><trkpt lat="48.476745842437325" lon="3.2523535287828356"><ele>74.80000000000001</ele><time>2026-04-13T08:55:36Z</time></trkpt><trkpt lat="48.47684443677515" lon="3.25233739133681"><ele>75.19999999999999</ele><time>2026-04-13T08:55:38Z</time></trkpt><trkpt lat="48.476942878447566" lon="3.2523166533721035"><ele>75.6</ele><time>2026-04-13T08:55:40Z</time></trkpt><trkpt lat="48.47704333126834" lon="3.252302746974403"><ele>76.0</ele><time>2026-04-13T08:55:42Z</time></trkpt><trkpt lat="48.47714202464745" lon="3.2522793933431484"><ele>76.2</ele><time>2026-04-13T08:55:44Z</time></trkpt><trkpt lat="48.4772352068973" lon="3.2522695505664365"><ele>76.39999999999999</ele><time>2026-04-13T08:55:46Z</time></trkpt><trkpt lat="48.47732998811419" lon="3.2522542834379142"><ele>76.6</ele><time>2026-04-13T08:55:48Z</time></trkpt><trkpt lat="48.47741881160368" lon="3.2522351185795197"><ele>76.8</ele><time>2026-04-13T08:55:50Z</time></trkpt><trkpt lat="48.47750955008405" lon="3.2522147882238808"><ele>77.0</ele><time>2026-04-13T08:55:52Z</time></trkpt><trkpt lat="48.47760608730156" lon="3.252203134632894"><ele>77.0</ele><time>2026-04-13T08:55:54Z</time></trkpt><trkpt lat="48.477705504634265" lon="3.2521843074230325"><ele>77.0</ele><time>2026-04-13T08:55:56Z</time></trkpt><trkpt lat="48.477807545608236" lon="3.2521627094251775"><ele>77.0</ele><time>2026-04-13T08:55:58Z</time></trkpt><trkpt lat="48.477913274443466" lon="3.2521465041239916"><ele>77.0</ele><time>2026-04-13T08:56:00Z</time></trkpt><trkpt lat="48.478022534889234" lon="3.252114561452093"><ele>77.0</ele><time>2026-04-13T08:56:02Z</time></trkpt><trkpt lat="48.47813400064926" lon="3.2520726094586263"><ele>77.2</ele><time>2026-04-13T08:56:04Z</time></trkpt><trkpt lat="48.478236682023294" lon="3.252020847175004"><ele>77.4</ele><time>2026-04-13T08:56:06Z</time></trkpt><trkpt lat="48.47833743488322" lon="3.2519731247312937"><ele>77.6</ele><time>2026-04-13T08:56:08Z</time></trkpt><trkpt lat="48.47844042187501" lon="3.251928695627078"><ele>77.8</ele><time>2026-04-13T08:56:10Z</time></trkpt><trkpt lat="48.47854983455741" lon="3.251883694953636"><ele>78.0</ele><time>2026-04-13T08:56:12Z</time></trkpt><trkpt lat="48.47866805382815" lon="3.2518321444524694"><ele>78.0</ele><time>2026-04-13T08:56:14Z</time></trkpt><trkpt lat="48.478730612201005" lon="3.2518085593577846"><ele>78.0</ele><time>2026-04-13T08:56:15Z</time></trkpt><trkpt lat="48.478854307738736" lon="3.2517765807763337"><ele>78.0</ele><time>2026-04-13T08:56:17Z</time></trkpt><trkpt lat="48.4789791562936" lon="3.2517663105891472"><ele>78.0</ele><time>2026-04-13T08:56:19Z</time></trkpt><trkpt lat="48.47910234932355" lon="3.251757197137138"><ele>78.0</ele><time>2026-04-13T08:56:21Z</time></trkpt><trkpt lat="48.479224789605155" lon="3.251749325503935"><ele>78.0</ele><time>2026-04-13T08:56:23Z</time></trkpt><trkpt lat="48.47934836343127" lon="3.251740435500669"><ele>78.0</ele><time>2026-04-13T08:56:25Z</time></trkpt><trkpt lat="48.479468833965356" lon="3.2517428782741993"><ele>78.0</ele><time>2026-04-13T08:56:27Z</time></trkpt><trkpt lat="48.47953167199016" lon="3.251752320792569"><ele>78.0</ele><time>2026-04-13T08:56:28Z</time></trkpt><trkpt lat="48.47965058048266" lon="3.2517498466099406"><ele>78.0</ele><time>2026-04-13T08:56:30Z</time></trkpt><trkpt lat="48.47976708453409" lon="3.2517556748239835"><ele>78.0</ele><time>2026-04-13T08:56:32Z</time></trkpt><trkpt lat="48.47987965630562" lon="3.2517778944331854"><ele>78.0</ele><time>2026-04-13T08:56:34Z</time></trkpt><trkpt lat="48.48000224062378" lon="3.251798212668899"><ele>78.0</ele><time>2026-04-13T08:56:36Z</time></trkpt><trkpt lat="48.48012633895453" lon="3.2517962867031835"><ele>78.0</ele><time>2026-04-13T08:56:38Z</time></trkpt><trkpt lat="48.48018935335492" lon="3.251801902716915"><ele>78.0</ele><time>2026-04-13T08:56:39Z</time></trkpt><trkpt lat="48.480253797861984" lon="3.251805487329427"><ele>78.0</ele><time>2026-04-13T08:56:40Z</time></trkpt><trkpt lat="48.480382309337124" lon="3.2518143908520387"><ele>78.0</ele><time>2026-04-13T08:56:42Z</time></trkpt><trkpt lat="48.48045000523256" lon="3.251808901409054"><ele>78.0</ele><time>2026-04-13T08:56:43Z</time></trkpt><trkpt lat="48.480521443886545" lon="3.2518094980708447"><ele>78.0</ele><time>2026-04-13T08:56:44Z</time></trkpt><trkpt lat="48.48059241263734" lon="3.2518119925807536"><ele>78.0</ele><time>2026-04-13T08:56:45Z</time></trkpt><trkpt lat="48.48066546134413" lon="3.251817607632166"><ele>78.0</ele><time>2026-04-13T08:56:46Z</time></trkpt><trkpt lat="48.48074327602497" lon="3.251795972514443"><ele>78.0</ele><time>2026-04-13T08:56:47Z</time></trkpt><trkpt lat="48.48081628681357" lon="3.251790659569176"><ele>78.0</ele><time>2026-04-13T08:56:48Z</time></trkpt><trkpt lat="48.480895593613006" lon="3.2517747031443167"><ele>78.0</ele><time>2026-04-13T08:56:49Z</time></trkpt><trkpt lat="48.480979498071825" lon="3.251751663663028"><ele>78.0</ele><time>2026-04-13T08:56:50Z</time></trkpt><trkpt lat="48.481056156190746" lon="3.25171409601855"><ele>78.0</ele><time>2026-04-13T08:56:51Z</time></trkpt><trkpt lat="48.481135173379904" lon="3.2516717491027776"><ele>78.0</ele><time>2026-04-13T08:56:52Z</time></trkpt><trkpt lat="48.48121512304291" lon="3.251628016663681"><ele>76.83333333333333</ele><time>2026-04-13T08:56:53Z</time></trkpt><trkpt lat="48.48130057206751" lon="3.2515905839161268"><ele>75.66666666666667</ele><time>2026-04-13T08:56:54Z</time></trkpt><trkpt lat="48.481384965463825" lon="3.2515602222670705"><ele>74.5</ele><time>2026-04-13T08:56:55Z</time></trkpt><trkpt lat="48.481469434144685" lon="3.2515185964001487"><ele>73.33333333333334</ele><time>2026-04-13T08:56:56Z</time></trkpt><trkpt lat="48.48154776365547" lon="3.2514736179142854"><ele>72.16666666666667</ele><time>2026-04-13T08:56:57Z</time></trkpt><trkpt lat="48.48162086781562" lon="3.251426099647614"><ele>71.0</ele><time>2026-04-13T08:56:58Z</time></trkpt><trkpt lat="48.48170184058513" lon="3.2513880387847074"><ele>70.5</ele><time>2026-04-13T08:56:59Z</time></trkpt><trkpt lat="48.48178337397306" lon="3.2513612895897808"><ele>70.0</ele><time>2026-04-13T08:57:00Z</time></trkpt><trkpt lat="48.48186388519813" lon="3.251332339678002"><ele>69.5</ele><time>2026-04-13T08:57:01Z</time></trkpt><trkpt lat="48.48193798914282" lon="3.251296881215021"><ele>69.0</ele><time>2026-04-13T08:57:02Z</time></trkpt><trkpt lat="48.48201105720546" lon="3.251256576526729"><ele>68.5</ele><time>2026-04-13T08:57:03Z</time></trkpt><trkpt lat="48.48208396639517" lon="3.251215570786556"><ele>68.0</ele><time>2026-04-13T08:57:04Z</time></trkpt><trkpt lat="48.48215484780447" lon="3.2511761337684772"><ele>68.0</ele><time>2026-04-13T08:57:05Z</time></trkpt><trkpt lat="48.482223221324666" lon="3.251136640303246"><ele>68.0</ele><time>2026-04-13T08:57:06Z</time></trkpt><trkpt lat="48.48229111702612" lon="3.2511026676087624"><ele>68.0</ele><time>2026-04-13T08:57:07Z</time></trkpt><trkpt lat="48.482357169256204" lon="3.251070406950115"><ele>68.0</ele><time>2026-04-13T08:57:08Z</time></trkpt><trkpt lat="48.482419362649026" lon="3.251041285016668"><ele>68.0</ele><time>2026-04-13T08:57:09Z</time></trkpt><trkpt lat="48.48253021170962" lon="3.250979701350426"><ele>68.0</ele><time>2026-04-13T08:57:11Z</time></trkpt><trkpt lat="48.48264269642679" lon="3.2509398836887042"><ele>68.0</ele><time>2026-04-13T08:57:13Z</time></trkpt><trkpt lat="48.4827483116797" lon="3.250895075609412"><ele>68.0</ele><time>2026-04-13T08:57:15Z</time></trkpt><trkpt lat="48.482846151720615" lon="3.2508440599800954"><ele>68.0</ele><time>2026-04-13T08:57:17Z</time></trkpt><trkpt lat="48.48294867253602" lon="3.2508105489209447"><ele>68.0</ele><time>2026-04-13T08:57:19Z</time></trkpt><trkpt lat="48.48305375071714" lon="3.250778198453478"><ele>68.0</ele><time>2026-04-13T08:57:21Z</time></trkpt><trkpt lat="48.483154337612476" lon="3.250747073857398"><ele>67.6</ele><time>2026-04-13T08:57:23Z</time></trkpt><trkpt lat="48.48325257426806" lon="3.2507224686915124"><ele>67.19999999999999</ele><time>2026-04-13T08:57:25Z</time></trkpt><trkpt lat="48.48335458367115" lon="3.250692607171995"><ele>66.8</ele><time>2026-04-13T08:57:27Z</time></trkpt><trkpt lat="48.4834656345823" lon="3.2506552184646953"><ele>66.39999999999999</ele><time>2026-04-13T08:57:29Z</time></trkpt><trkpt lat="48.4835794527515" lon="3.250613130959236"><ele>66.0</ele><time>2026-04-13T08:57:31Z</time></trkpt><trkpt lat="48.48369337372132" lon="3.2505814552413113"><ele>66.33333333333333</ele><time>2026-04-13T08:57:33Z</time></trkpt><trkpt lat="48.48380772157961" lon="3.250550723945959"><ele>66.66666666666667</ele><time>2026-04-13T08:57:35Z</time></trkpt><trkpt lat="48.48392542514249" lon="3.25054060720534"><ele>67.0</ele><time>2026-04-13T08:57:37Z</time></trkpt><trkpt lat="48.48398913608114" lon="3.2505338574045135"><ele>67.33333333333334</ele><time>2026-04-13T08:57:38Z</time></trkpt><trkpt lat="48.48405290442847" lon="3.250525911045576"><ele>67.66666666666667</ele><time>2026-04-13T08:57:39Z</time></trkpt><trkpt lat="48.48411864307441" lon="3.250518068813755"><ele>68.0</ele><time>2026-04-13T08:57:40Z</time></trkpt><trkpt lat="48.484187297321654" lon="3.2505132801912624"><ele>67.99999999999999</ele><time>2026-04-13T08:57:41Z</time></trkpt><trkpt lat="48.48425510118567" lon="3.2505101281439193"><ele>68.0</ele><time>2026-04-13T08:57:42Z</time></trkpt><trkpt lat="48.484325935720285" lon="3.250507120091219"><ele>68.0</ele><time>2026-04-13T08:57:43Z</time></trkpt><trkpt lat="48.48439517959207" lon="3.2505033285343004"><ele>68.0</ele><time>2026-04-13T08:57:44Z</time></trkpt><trkpt lat="48.48446358255323" lon="3.2504964301044628"><ele>68.0</ele><time>2026-04-13T08:57:45Z</time></trkpt><trkpt lat="48.484529421668825" lon="3.2504800562505194"><ele>67.99999999999999</ele><time>2026-04-13T08:57:46Z</time></trkpt><trkpt lat="48.48459496966406" lon="3.250469861751401"><ele>68.0</ele><time>2026-04-13T08:57:47Z</time></trkpt><trkpt lat="48.48465840631956" lon="3.250468773424511"><ele>68.0</ele><time>2026-04-13T08:57:48Z</time></trkpt><trkpt lat="48.48472201962702" lon="3.2504665341556405"><ele>68.0</ele><time>2026-04-13T08:57:49Z</time></trkpt><trkpt lat="48.48484332677029" lon="3.2504418309280876"><ele>68.0</ele><time>2026-04-13T08:57:51Z</time></trkpt><trkpt lat="48.48496233378064" lon="3.2504206456362743"><ele>68.0</ele><time>2026-04-13T08:57:53Z</time></trkpt><trkpt lat="48.4850704713301" lon="3.2503903148769693"><ele>68.0</ele><time>2026-04-13T08:57:55Z</time></trkpt><trkpt lat="48.48518482107095" lon="3.2503767107751873"><ele>68.0</ele><time>2026-04-13T08:57:57Z</time></trkpt><trkpt lat="48.48530328319675" lon="3.2503579510823073"><ele>68.0</ele><time>2026-04-13T08:57:59Z</time></trkpt><trkpt lat="48.48541652658899" lon="3.250332365619207"><ele>68.0</ele><time>2026-04-13T08:58:01Z</time></trkpt><trkpt lat="48.485530670440845" lon="3.250315934961373"><ele>68.0</ele><time>2026-04-13T08:58:03Z</time></trkpt><trkpt lat="48.48564395220374" lon="3.2503246955287683"><ele>68.0</ele><time>2026-04-13T08:58:05Z</time></trkpt><trkpt lat="48.48575220903477" lon="3.250339927303541"><ele>68.0</ele><time>2026-04-13T08:58:07Z</time></trkpt><trkpt lat="48.485860871240476" lon="3.250367595511789"><ele>68.0</ele><time>2026-04-13T08:58:09Z</time></trkpt><trkpt lat="48.4859715633078" lon="3.2504104528857565"><ele>68.0</ele><time>2026-04-13T08:58:11Z</time></trkpt><trkpt lat="48.48609225389093" lon="3.2504516963376426"><ele>67.99999999999999</ele><time>2026-04-13T08:58:13Z</time></trkpt><trkpt lat="48.48615450190459" lon="3.2504761876223043"><ele>68.0</ele><time>2026-04-13T08:58:14Z</time></trkpt><trkpt lat="48.48621718299592" lon="3.250494793298313"><ele>68.0</ele><time>2026-04-13T08:58:15Z</time></trkpt><trkpt lat="48.48628310046789" lon="3.2505095128061816"><ele>68.0</ele><time>2026-04-13T08:58:16Z</time></trkpt><trkpt lat="48.486346824316875" lon="3.250521573969194"><ele>68.0</ele><time>2026-04-13T08:58:17Z</time></trkpt><trkpt lat="48.486414913116846" lon="3.250533849069776"><ele>67.99999999999999</ele><time>2026-04-13T08:58:18Z</time></trkpt><trkpt lat="48.486482483353825" lon="3.250542487151443"><ele>68.0</ele><time>2026-04-13T08:58:19Z</time></trkpt><trkpt lat="48.48655335849955" lon="3.250552179897605"><ele>67.83333333333334</ele><time>2026-04-13T08:58:20Z</time></trkpt><trkpt lat="48.48662460139267" lon="3.2505508258111084"><ele>67.66666666666667</ele><time>2026-04-13T08:58:21Z</time></trkpt><trkpt lat="48.486692573304396" lon="3.250533096960623"><ele>67.5</ele><time>2026-04-13T08:58:22Z</time></trkpt><trkpt lat="48.48675937437942" lon="3.2505214266155864"><ele>67.33333333333333</ele><time>2026-04-13T08:58:23Z</time></trkpt><trkpt lat="48.486822718765595" lon="3.2505137631891996"><ele>67.16666666666666</ele><time>2026-04-13T08:58:24Z</time></trkpt><trkpt lat="48.48694346978751" lon="3.2504832340833234"><ele>67.0</ele><time>2026-04-13T08:58:26Z</time></trkpt><trkpt lat="48.487058842508084" lon="3.250429414419434"><ele>67.75</ele><time>2026-04-13T08:58:28Z</time></trkpt><trkpt lat="48.487175895413756" lon="3.250381745954627"><ele>68.5</ele><time>2026-04-13T08:58:30Z</time></trkpt><trkpt lat="48.48728904053412" lon="3.250344851306711"><ele>69.25</ele><time>2026-04-13T08:58:32Z</time></trkpt><trkpt lat="48.487391882398306" lon="3.250303879546458"><ele>70.0</ele><time>2026-04-13T08:58:34Z</time></trkpt><trkpt lat="48.487495672717316" lon="3.2502638502791013"><ele>70.0</ele><time>2026-04-13T08:58:36Z</time></trkpt><trkpt lat="48.48759103344192" lon="3.2502282611237736"><ele>70.0</ele><time>2026-04-13T08:58:38Z</time></trkpt><trkpt lat="48.48768314548084" lon="3.250192852691478"><ele>70.0</ele><time>2026-04-13T08:58:40Z</time></trkpt><trkpt lat="48.487776193360254" lon="3.2501651712679718"><ele>70.0</ele><time>2026-04-13T08:58:42Z</time></trkpt><trkpt lat="48.48786380888566" lon="3.250130492061221"><ele>70.0</ele><time>2026-04-13T08:58:44Z</time></trkpt><trkpt lat="48.48794831890722" lon="3.2501034289812036"><ele>71.0</ele><time>2026-04-13T08:58:46Z</time></trkpt><trkpt lat="48.48803771260042" lon="3.250080612546625"><ele>72.0</ele><time>2026-04-13T08:58:48Z</time></trkpt><trkpt lat="48.488130436792446" lon="3.250059955228"><ele>73.0</ele><time>2026-04-13T08:58:50Z</time></trkpt><trkpt lat="48.488221307110145" lon="3.25003588755156"><ele>74.0</ele><time>2026-04-13T08:58:52Z</time></trkpt><trkpt lat="48.48830825699261" lon="3.2500117519789478"><ele>75.0</ele><time>2026-04-13T08:58:54Z</time></trkpt><trkpt lat="48.4883981884684" lon="3.24999013269238"><ele>75.0</ele><time>2026-04-13T08:58:56Z</time></trkpt><trkpt lat="48.48848887669372" lon="3.2499714715214822"><ele>75.0</ele><time>2026-04-13T08:58:58Z</time></trkpt><trkpt lat="48.4885781242124" lon="3.2499525410147663"><ele>75.0</ele><time>2026-04-13T08:59:00Z</time></trkpt><trkpt lat="48.488668965512026" lon="3.2499278801549245"><ele>75.0</ele><time>2026-04-13T08:59:02Z</time></trkpt><trkpt lat="48.48876443135582" lon="3.249902367863734"><ele>75.0</ele><time>2026-04-13T08:59:04Z</time></trkpt><trkpt lat="48.48886090572164" lon="3.2498850143891436"><ele>75.4</ele><time>2026-04-13T08:59:06Z</time></trkpt><trkpt lat="48.48895768267243" lon="3.249864216973613"><ele>75.8</ele><time>2026-04-13T08:59:08Z</time></trkpt><trkpt lat="48.48905732132949" lon="3.2498430004091174"><ele>76.2</ele><time>2026-04-13T08:59:10Z</time></trkpt><trkpt lat="48.489160364213895" lon="3.2498193306989025"><ele>76.6</ele><time>2026-04-13T08:59:12Z</time></trkpt><trkpt lat="48.48927024804052" lon="3.24980720617419"><ele>77.0</ele><time>2026-04-13T08:59:14Z</time></trkpt><trkpt lat="48.48938395508813" lon="3.249802006340383"><ele>77.0</ele><time>2026-04-13T08:59:16Z</time></trkpt><trkpt lat="48.48950472655267" lon="3.2498065737606505"><ele>77.0</ele><time>2026-04-13T08:59:18Z</time></trkpt><trkpt lat="48.48957070687874" lon="3.2498151130975454"><ele>77.0</ele><time>2026-04-13T08:59:19Z</time></trkpt><trkpt lat="48.489636780814045" lon="3.249819369943695"><ele>77.0</ele><time>2026-04-13T08:59:20Z</time></trkpt><trkpt lat="48.489705080267136" lon="3.24982853942481"><ele>77.0</ele><time>2026-04-13T08:59:21Z</time></trkpt><trkpt lat="48.4897733818616" lon="3.249839229850134"><ele>77.0</ele><time>2026-04-13T08:59:22Z</time></trkpt><trkpt lat="48.48984333411669" lon="3.2498499316751097"><ele>76.57142857142857</ele><time>2026-04-13T08:59:23Z</time></trkpt><trkpt lat="48.4899120116916" lon="3.249854225972711"><ele>76.14285714285714</ele><time>2026-04-13T08:59:24Z</time></trkpt><trkpt lat="48.48998097088095" lon="3.2498615915672997"><ele>75.71428571428572</ele><time>2026-04-13T08:59:25Z</time></trkpt><trkpt lat="48.490047550436174" lon="3.2498744439610032"><ele>75.28571428571428</ele><time>2026-04-13T08:59:26Z</time></trkpt><trkpt lat="48.49011400089031" lon="3.249888869462611"><ele>74.85714285714286</ele><time>2026-04-13T08:59:27Z</time></trkpt><trkpt lat="48.49017904025977" lon="3.249891596020373"><ele>74.42857142857143</ele><time>2026-04-13T08:59:28Z</time></trkpt><trkpt lat="48.49024269017331" lon="3.24989423497937"><ele>74.0</ele><time>2026-04-13T08:59:29Z</time></trkpt><trkpt lat="48.49036675425236" lon="3.2499083813787104"><ele>74.25</ele><time>2026-04-13T08:59:31Z</time></trkpt><trkpt lat="48.490490561338234" lon="3.2499342113908463"><ele>74.5</ele><time>2026-04-13T08:59:33Z</time></trkpt><trkpt lat="48.490615114426056" lon="3.2499522044504685"><ele>74.75</ele><time>2026-04-13T08:59:35Z</time></trkpt><trkpt lat="48.49073268318476" lon="3.2499615653936185"><ele>75.0</ele><time>2026-04-13T08:59:37Z</time></trkpt><trkpt lat="48.490848880901815" lon="3.249978756860298"><ele>75.0</ele><time>2026-04-13T08:59:39Z</time></trkpt><trkpt lat="48.49096818767153" lon="3.249997309280928"><ele>75.0</ele><time>2026-04-13T08:59:41Z</time></trkpt><trkpt lat="48.49108660307458" lon="3.250006078785258"><ele>75.0</ele><time>2026-04-13T08:59:43Z</time></trkpt><trkpt lat="48.49120357211851" lon="3.250032013263278"><ele>75.0</ele><time>2026-04-13T08:59:45Z</time></trkpt><trkpt lat="48.49132182746523" lon="3.2500411461966974"><ele>75.25</ele><time>2026-04-13T08:59:47Z</time></trkpt><trkpt lat="48.49143995425846" lon="3.2500530990933023"><ele>75.5</ele><time>2026-04-13T08:59:49Z</time></trkpt><trkpt lat="48.49155605809541" lon="3.2500619643580078"><ele>75.75</ele><time>2026-04-13T08:59:51Z</time></trkpt><trkpt lat="48.491669629394615" lon="3.250098079823043"><ele>76.0</ele><time>2026-04-13T08:59:53Z</time></trkpt><trkpt lat="48.491787776437285" lon="3.2501035248110965"><ele>76.0</ele><time>2026-04-13T08:59:55Z</time></trkpt><trkpt lat="48.4919092436972" lon="3.250117815266008"><ele>76.0</ele><time>2026-04-13T08:59:57Z</time></trkpt><trkpt lat="48.492038577121136" lon="3.2501371902644114"><ele>76.0</ele><time>2026-04-13T08:59:59Z</time></trkpt><trkpt lat="48.4921078135621" lon="3.250145637613052"><ele>76.0</ele><time>2026-04-13T09:00:00Z</time></trkpt><trkpt lat="48.49217756614067" lon="3.2501519224447213"><ele>76.0</ele><time>2026-04-13T09:00:01Z</time></trkpt><trkpt lat="48.492250095014846" lon="3.250159273689829"><ele>75.5</ele><time>2026-04-13T09:00:02Z</time></trkpt><trkpt lat="48.492324033016715" lon="3.2501700767354857"><ele>75.0</ele><time>2026-04-13T09:00:03Z</time></trkpt><trkpt lat="48.492400306782784" lon="3.2501790134143937"><ele>74.5</ele><time>2026-04-13T09:00:04Z</time></trkpt><trkpt lat="48.49247816228958" lon="3.2501847370923613"><ele>74.0</ele><time>2026-04-13T09:00:05Z</time></trkpt><trkpt lat="48.49255756980492" lon="3.250194437836639"><ele>73.5</ele><time>2026-04-13T09:00:06Z</time></trkpt><trkpt lat="48.492640506489074" lon="3.2502067795800977"><ele>73.0</ele><time>2026-04-13T09:00:07Z</time></trkpt><trkpt lat="48.49272234795419" lon="3.250219973021217"><ele>73.0</ele><time>2026-04-13T09:00:08Z</time></trkpt><trkpt lat="48.49280465813003" lon="3.2502283297026096"><ele>73.0</ele><time>2026-04-13T09:00:09Z</time></trkpt><trkpt lat="48.492887324330006" lon="3.2502399008095515"><ele>73.0</ele><time>2026-04-13T09:00:10Z</time></trkpt><trkpt lat="48.492970970116026" lon="3.2502504814702187"><ele>73.0</ele><time>2026-04-13T09:00:11Z</time></trkpt><trkpt lat="48.49305346990262" lon="3.250251026594499"><ele>73.0</ele><time>2026-04-13T09:00:12Z</time></trkpt><trkpt lat="48.493134915174174" lon="3.250234721113564"><ele>73.0</ele><time>2026-04-13T09:00:13Z</time></trkpt><trkpt lat="48.493217666951615" lon="3.2502208510069015"><ele>72.42857142857143</ele><time>2026-04-13T09:00:14Z</time></trkpt><trkpt lat="48.49329806230177" lon="3.250216002095399"><ele>71.85714285714286</ele><time>2026-04-13T09:00:15Z</time></trkpt><trkpt lat="48.49337519553816" lon="3.25021138776144"><ele>71.28571428571429</ele><time>2026-04-13T09:00:16Z</time></trkpt><trkpt lat="48.49345138541714" lon="3.250187603281133"><ele>70.71428571428572</ele><time>2026-04-13T09:00:17Z</time></trkpt><trkpt lat="48.49352101265433" lon="3.2501615872452616"><ele>70.14285714285715</ele><time>2026-04-13T09:00:18Z</time></trkpt><trkpt lat="48.493586548866915" lon="3.250136317323041"><ele>69.57142857142857</ele><time>2026-04-13T09:00:19Z</time></trkpt><trkpt lat="48.49364932824249" lon="3.2501109673071915"><ele>69.0</ele><time>2026-04-13T09:00:20Z</time></trkpt><trkpt lat="48.49371355162183" lon="3.2500907454426176"><ele>69.28571428571429</ele><time>2026-04-13T09:00:21Z</time></trkpt><trkpt lat="48.493779289595565" lon="3.250069578355265"><ele>69.57142857142858</ele><time>2026-04-13T09:00:22Z</time></trkpt><trkpt lat="48.49384181516413" lon="3.2500496564033714"><ele>69.85714285714286</ele><time>2026-04-13T09:00:23Z</time></trkpt><trkpt lat="48.49396325262784" lon="3.2500076425397655"><ele>70.14285714285714</ele><time>2026-04-13T09:00:25Z</time></trkpt><trkpt lat="48.49402564092048" lon="3.249985020933376"><ele>70.42857142857142</ele><time>2026-04-13T09:00:26Z</time></trkpt><trkpt lat="48.49408730932541" lon="3.249964050159578"><ele>70.71428571428571</ele><time>2026-04-13T09:00:27Z</time></trkpt><trkpt lat="48.4941496374595" lon="3.249941765642555"><ele>71.0</ele><time>2026-04-13T09:00:28Z</time></trkpt><trkpt lat="48.49421337601045" lon="3.2499195833708456"><ele>71.0</ele><time>2026-04-13T09:00:29Z</time></trkpt><trkpt lat="48.49427882501161" lon="3.2498977331341887"><ele>71.0</ele><time>2026-04-13T09:00:30Z</time></trkpt><trkpt lat="48.49434512434865" lon="3.249875969021229"><ele>71.0</ele><time>2026-04-13T09:00:31Z</time></trkpt><trkpt lat="48.49441371714583" lon="3.2498560539389945"><ele>71.0</ele><time>2026-04-13T09:00:32Z</time></trkpt><trkpt lat="48.49448013882619" lon="3.2498346446807385"><ele>71.0</ele><time>2026-04-13T09:00:33Z</time></trkpt><trkpt lat="48.49454480000069" lon="3.2498000022662645"><ele>71.0</ele><time>2026-04-13T09:00:34Z</time></trkpt><trkpt lat="48.49461189147526" lon="3.2497720164201493"><ele>71.0</ele><time>2026-04-13T09:00:35Z</time></trkpt><trkpt lat="48.49468111940197" lon="3.249750694024716"><ele>70.85714285714286</ele><time>2026-04-13T09:00:36Z</time></trkpt><trkpt lat="48.49474695414434" lon="3.2497299245747495"><ele>70.71428571428571</ele><time>2026-04-13T09:00:37Z</time></trkpt><trkpt lat="48.494811568964046" lon="3.2497105240818196"><ele>70.57142857142857</ele><time>2026-04-13T09:00:38Z</time></trkpt><trkpt lat="48.49487580883109" lon="3.249694021920351"><ele>70.42857142857143</ele><time>2026-04-13T09:00:39Z</time></trkpt><trkpt lat="48.49493959694883" lon="3.249672606410595"><ele>70.28571428571428</ele><time>2026-04-13T09:00:40Z</time></trkpt><trkpt lat="48.495003303630604" lon="3.249652190396375"><ele>70.14285714285714</ele><time>2026-04-13T09:00:41Z</time></trkpt><trkpt lat="48.49506766331045" lon="3.249635823509954"><ele>70.0</ele><time>2026-04-13T09:00:42Z</time></trkpt><trkpt lat="48.49513045562801" lon="3.2496165113728277"><ele>70.0</ele><time>2026-04-13T09:00:43Z</time></trkpt><trkpt lat="48.49525460318644" lon="3.2495897237548337"><ele>70.0</ele><time>2026-04-13T09:00:45Z</time></trkpt><trkpt lat="48.49531836443199" lon="3.249575137851279"><ele>70.0</ele><time>2026-04-13T09:00:46Z</time></trkpt><trkpt lat="48.49538234075694" lon="3.249559541143363"><ele>70.0</ele><time>2026-04-13T09:00:47Z</time></trkpt><trkpt lat="48.495486014287906" lon="3.2495344676831714"><ele>70.0</ele><time>2026-04-13T09:00:49Z</time></trkpt><trkpt lat="48.49558959078731" lon="3.2495105305750798"><ele>70.0</ele><time>2026-04-13T09:00:51Z</time></trkpt><trkpt lat="48.4957131556706" lon="3.24950740176684"><ele>70.0</ele><time>2026-04-13T09:00:53Z</time></trkpt><trkpt lat="48.49577852177604" lon="3.249508464311938"><ele>70.0</ele><time>2026-04-13T09:00:54Z</time></trkpt><trkpt lat="48.49584511144596" lon="3.2495070753043116"><ele>70.0</ele><time>2026-04-13T09:00:55Z</time></trkpt><trkpt lat="48.49591439975281" lon="3.2495096019767375"><ele>70.0</ele><time>2026-04-13T09:00:56Z</time></trkpt><trkpt lat="48.49598526312096" lon="3.249516510420029"><ele>70.0</ele><time>2026-04-13T09:00:57Z</time></trkpt><trkpt lat="48.496057821759614" lon="3.2495210585722303"><ele>70.0</ele><time>2026-04-13T09:00:58Z</time></trkpt><trkpt lat="48.49613340378959" lon="3.2495255561773297"><ele>70.0</ele><time>2026-04-13T09:00:59Z</time></trkpt><trkpt lat="48.4962089971333" lon="3.2495291581118186"><ele>70.0</ele><time>2026-04-13T09:01:00Z</time></trkpt><trkpt lat="48.49628689253208" lon="3.2495419069919627"><ele>70.0</ele><time>2026-04-13T09:01:01Z</time></trkpt><trkpt lat="48.49636387251283" lon="3.2495496158436112"><ele>70.0</ele><time>2026-04-13T09:01:02Z</time></trkpt><trkpt lat="48.496442289091426" lon="3.2495479061434414"><ele>70.0</ele><time>2026-04-13T09:01:03Z</time></trkpt><trkpt lat="48.49651697475042" lon="3.249560788188774"><ele>69.66666666666666</ele><time>2026-04-13T09:01:04Z</time></trkpt><trkpt lat="48.496589091810165" lon="3.2495723593200183"><ele>69.33333333333333</ele><time>2026-04-13T09:01:05Z</time></trkpt><trkpt lat="48.49665746191005" lon="3.2495789968516875"><ele>69.0</ele><time>2026-04-13T09:01:06Z</time></trkpt><trkpt lat="48.49672524027078" lon="3.2495864089517403"><ele>68.66666666666667</ele><time>2026-04-13T09:01:07Z</time></trkpt><trkpt lat="48.496789805444834" lon="3.2495945050852155"><ele>68.33333333333334</ele><time>2026-04-13T09:01:08Z</time></trkpt><trkpt lat="48.49690265909632" lon="3.2496162967670505"><ele>68.0</ele><time>2026-04-13T09:01:10Z</time></trkpt><trkpt lat="48.497021285868854" lon="3.2496354244556973"><ele>68.75</ele><time>2026-04-13T09:01:12Z</time></trkpt><trkpt lat="48.49713828049665" lon="3.249636331975979"><ele>69.5</ele><time>2026-04-13T09:01:14Z</time></trkpt><trkpt lat="48.49725052104958" lon="3.249632537860532"><ele>70.25</ele><time>2026-04-13T09:01:16Z</time></trkpt><trkpt lat="48.49736811750641" lon="3.2496213550335065"><ele>71.0</ele><time>2026-04-13T09:01:18Z</time></trkpt><trkpt lat="48.49748591197785" lon="3.24959088089824"><ele>71.0</ele><time>2026-04-13T09:01:20Z</time></trkpt><trkpt lat="48.49760487309681" lon="3.24956333135616"><ele>71.0</ele><time>2026-04-13T09:01:22Z</time></trkpt><trkpt lat="48.49767279468962" lon="3.2495298198169125"><ele>71.0</ele><time>2026-04-13T09:01:23Z</time></trkpt><trkpt lat="48.49778904905378" lon="3.2495007672425245"><ele>71.0</ele><time>2026-04-13T09:01:25Z</time></trkpt><trkpt lat="48.49785171592927" lon="3.249482191896676"><ele>71.0</ele><time>2026-04-13T09:01:26Z</time></trkpt><trkpt lat="48.497973388556346" lon="3.2494434591708075"><ele>70.6</ele><time>2026-04-13T09:01:28Z</time></trkpt><trkpt lat="48.49808740958929" lon="3.2493995378724283"><ele>70.19999999999999</ele><time>2026-04-13T09:01:30Z</time></trkpt><trkpt lat="48.49820462113638" lon="3.2493732452237105"><ele>69.80000000000001</ele><time>2026-04-13T09:01:32Z</time></trkpt><trkpt lat="48.498332211136415" lon="3.249369747861276"><ele>69.4</ele><time>2026-04-13T09:01:34Z</time></trkpt><trkpt lat="48.49839731093409" lon="3.249366991411789"><ele>69.0</ele><time>2026-04-13T09:01:35Z</time></trkpt><trkpt lat="48.498461380673405" lon="3.2493548216047943"><ele>69.0</ele><time>2026-04-13T09:01:36Z</time></trkpt><trkpt lat="48.49852580420097" lon="3.2493418847962983"><ele>69.0</ele><time>2026-04-13T09:01:37Z</time></trkpt><trkpt lat="48.498592971952384" lon="3.249337987207774"><ele>69.0</ele><time>2026-04-13T09:01:38Z</time></trkpt><trkpt lat="48.498660679374574" lon="3.2493349781234793"><ele>69.0</ele><time>2026-04-13T09:01:39Z</time></trkpt><trkpt lat="48.498728513765954" lon="3.249329855988061"><ele>69.0</ele><time>2026-04-13T09:01:40Z</time></trkpt><trkpt lat="48.49879593739369" lon="3.249325500898132"><ele>69.0</ele><time>2026-04-13T09:01:41Z</time></trkpt><trkpt lat="48.49886023774678" lon="3.2493209521736937"><ele>69.0</ele><time>2026-04-13T09:01:42Z</time></trkpt><trkpt lat="48.49892417077484" lon="3.249314974755247"><ele>69.0</ele><time>2026-04-13T09:01:43Z</time></trkpt><trkpt lat="48.49904857160813" lon="3.249311021695188"><ele>69.0</ele><time>2026-04-13T09:01:45Z</time></trkpt><trkpt lat="48.49911407675155" lon="3.2493055599295717"><ele>69.0</ele><time>2026-04-13T09:01:46Z</time></trkpt><trkpt lat="48.499178643193716" lon="3.2493024513110083"><ele>69.0</ele><time>2026-04-13T09:01:47Z</time></trkpt><trkpt lat="48.49924498861" lon="3.2492971473351444"><ele>69.0</ele><time>2026-04-13T09:01:48Z</time></trkpt><trkpt lat="48.49931416754253" lon="3.249290886619583"><ele>69.0</ele><time>2026-04-13T09:01:49Z</time></trkpt><trkpt lat="48.49938071554327" lon="3.2492864606037344"><ele>69.0</ele><time>2026-04-13T09:01:50Z</time></trkpt><trkpt lat="48.49945124823535" lon="3.2492761880886305"><ele>69.0</ele><time>2026-04-13T09:01:51Z</time></trkpt><trkpt lat="48.49952128532223" lon="3.2492651990457957"><ele>69.0</ele><time>2026-04-13T09:01:52Z</time></trkpt><trkpt lat="48.49958924328275" lon="3.249255504725835"><ele>69.0</ele><time>2026-04-13T09:01:53Z</time></trkpt><trkpt lat="48.4996576454098" lon="3.2492399268311947"><ele>69.0</ele><time>2026-04-13T09:01:54Z</time></trkpt><trkpt lat="48.499723657530126" lon="3.2492323809045045"><ele>69.0</ele><time>2026-04-13T09:01:55Z</time></trkpt><trkpt lat="48.49979020228007" lon="3.2492224362747946"><ele>69.0</ele><time>2026-04-13T09:01:56Z</time></trkpt><trkpt lat="48.49991641399508" lon="3.2491889705987407"><ele>69.0</ele><time>2026-04-13T09:01:58Z</time></trkpt><trkpt lat="48.499980657009836" lon="3.249177778204749"><ele>69.0</ele><time>2026-04-13T09:01:59Z</time></trkpt><trkpt lat="48.50004377953061" lon="3.2491676155861438"><ele>69.0</ele><time>2026-04-13T09:02:00Z</time></trkpt><trkpt lat="48.50011126840155" lon="3.2491596009154406"><ele>69.0</ele><time>2026-04-13T09:02:01Z</time></trkpt><trkpt lat="48.50017666016361" lon="3.249144210722493"><ele>69.0</ele><time>2026-04-13T09:02:02Z</time></trkpt><trkpt lat="48.50024132679558" lon="3.249116843936408"><ele>69.0</ele><time>2026-04-13T09:02:03Z</time></trkpt><trkpt lat="48.50031043345878" lon="3.2490915289180853"><ele>69.0</ele><time>2026-04-13T09:02:04Z</time></trkpt><trkpt lat="48.500379445132005" lon="3.2490831704323133"><ele>69.14285714285714</ele><time>2026-04-13T09:02:05Z</time></trkpt><trkpt lat="48.5004515761484" lon="3.249073856394739"><ele>69.28571428571429</ele><time>2026-04-13T09:02:06Z</time></trkpt><trkpt lat="48.50052467403585" lon="3.2490540213623933"><ele>69.42857142857143</ele><time>2026-04-13T09:02:07Z</time></trkpt><trkpt lat="48.50059448543812" lon="3.2490332030211566"><ele>69.57142857142857</ele><time>2026-04-13T09:02:08Z</time></trkpt><trkpt lat="48.500665056283296" lon="3.2490116663830735"><ele>69.71428571428572</ele><time>2026-04-13T09:02:09Z</time></trkpt><trkpt lat="48.50073761846634" lon="3.248995209734794"><ele>69.85714285714286</ele><time>2026-04-13T09:02:10Z</time></trkpt><trkpt lat="48.50081052793949" lon="3.248983086737724"><ele>70.0</ele><time>2026-04-13T09:02:11Z</time></trkpt><trkpt lat="48.50088423490823" lon="3.2489811966876445"><ele>70.0</ele><time>2026-04-13T09:02:12Z</time></trkpt><trkpt lat="48.50095836318796" lon="3.2489688364462017"><ele>70.0</ele><time>2026-04-13T09:02:13Z</time></trkpt><trkpt lat="48.5010311525313" lon="3.248953590236096"><ele>70.0</ele><time>2026-04-13T09:02:14Z</time></trkpt><trkpt lat="48.50110762254122" lon="3.2489524148261353"><ele>70.0</ele><time>2026-04-13T09:02:15Z</time></trkpt><trkpt lat="48.50118090007758" lon="3.2489573055623615"><ele>70.0</ele><time>2026-04-13T09:02:16Z</time></trkpt><trkpt lat="48.50125411659082" lon="3.2489667004684244"><ele>70.0</ele><time>2026-04-13T09:02:17Z</time></trkpt><trkpt lat="48.50132320615038" lon="3.248993734053933"><ele>70.0</ele><time>2026-04-13T09:02:18Z</time></trkpt><trkpt lat="48.50139186901507" lon="3.2490262084139547"><ele>69.85714285714286</ele><time>2026-04-13T09:02:19Z</time></trkpt><trkpt lat="48.5014606171319" lon="3.2490626082842495"><ele>69.71428571428572</ele><time>2026-04-13T09:02:20Z</time></trkpt><trkpt lat="48.501528271360414" lon="3.249096337512194"><ele>69.57142857142857</ele><time>2026-04-13T09:02:21Z</time></trkpt><trkpt lat="48.50158839974321" lon="3.2491442754356923"><ele>69.42857142857143</ele><time>2026-04-13T09:02:22Z</time></trkpt><trkpt lat="48.50164950053804" lon="3.249192672876481"><ele>69.28571428571429</ele><time>2026-04-13T09:02:23Z</time></trkpt><trkpt lat="48.50170428595853" lon="3.2492491397537164"><ele>69.14285714285714</ele><time>2026-04-13T09:02:24Z</time></trkpt><trkpt lat="48.50175935156484" lon="3.249308432408209"><ele>69.0</ele><time>2026-04-13T09:02:25Z</time></trkpt><trkpt lat="48.50181281444907" lon="3.249367360887383"><ele>69.0</ele><time>2026-04-13T09:02:26Z</time></trkpt><trkpt lat="48.50186642671645" lon="3.2494212789601202"><ele>69.0</ele><time>2026-04-13T09:02:27Z</time></trkpt><trkpt lat="48.501922993546984" lon="3.249480646598387"><ele>69.0</ele><time>2026-04-13T09:02:28Z</time></trkpt><trkpt lat="48.50197691735315" lon="3.249532962663275"><ele>69.0</ele><time>2026-04-13T09:02:29Z</time></trkpt><trkpt lat="48.50203243724982" lon="3.249587337744202"><ele>69.0</ele><time>2026-04-13T09:02:30Z</time></trkpt><trkpt lat="48.502090555399" lon="3.2496337665653754"><ele>69.0</ele><time>2026-04-13T09:02:31Z</time></trkpt><trkpt lat="48.50214646381576" lon="3.2496815992892505"><ele>69.0</ele><time>2026-04-13T09:02:32Z</time></trkpt><trkpt lat="48.50220049971417" lon="3.249731814578523"><ele>69.0</ele><time>2026-04-13T09:02:33Z</time></trkpt><trkpt lat="48.50225455500528" lon="3.2497837737219792"><ele>69.0</ele><time>2026-04-13T09:02:34Z</time></trkpt><trkpt lat="48.50230346835372" lon="3.249847582458918"><ele>69.0</ele><time>2026-04-13T09:02:35Z</time></trkpt><trkpt lat="48.50234751411262" lon="3.2499171217241756"><ele>69.0</ele><time>2026-04-13T09:02:36Z</time></trkpt><trkpt lat="48.50245302380468" lon="3.2500219356916284"><ele>69.0</ele><time>2026-04-13T09:02:38Z</time></trkpt><trkpt lat="48.5025599547619" lon="3.250123248299325"><ele>69.0</ele><time>2026-04-13T09:02:40Z</time></trkpt><trkpt lat="48.50265917924965" lon="3.250230704929943"><ele>69.0</ele><time>2026-04-13T09:02:42Z</time></trkpt><trkpt lat="48.502754375340025" lon="3.2503230532909644"><ele>69.0</ele><time>2026-04-13T09:02:44Z</time></trkpt><trkpt lat="48.50284984682545" lon="3.2504162314947425"><ele>69.0</ele><time>2026-04-13T09:02:46Z</time></trkpt><trkpt lat="48.50296066872238" lon="3.2504990925267196"><ele>69.0</ele><time>2026-04-13T09:02:48Z</time></trkpt><trkpt lat="48.50301895135721" lon="3.250540087575912"><ele>69.0</ele><time>2026-04-13T09:02:49Z</time></trkpt><trkpt lat="48.50313502619956" lon="3.250615695894224"><ele>68.85714285714286</ele><time>2026-04-13T09:02:51Z</time></trkpt><trkpt lat="48.503200701771085" lon="3.25063436049513"><ele>68.71428571428572</ele><time>2026-04-13T09:02:52Z</time></trkpt><trkpt lat="48.50326789904876" lon="3.2506440723826846"><ele>68.57142857142857</ele><time>2026-04-13T09:02:53Z</time></trkpt><trkpt lat="48.5033336238525" lon="3.250656605147426"><ele>68.42857142857143</ele><time>2026-04-13T09:02:54Z</time></trkpt><trkpt lat="48.50340058831032" lon="3.2506791070620746"><ele>68.28571428571428</ele><time>2026-04-13T09:02:55Z</time></trkpt><trkpt lat="48.5034650848962" lon="3.2506995789983963"><ele>68.14285714285714</ele><time>2026-04-13T09:02:56Z</time></trkpt><trkpt lat="48.50353243460012" lon="3.2507079501701424"><ele>68.0</ele><time>2026-04-13T09:02:57Z</time></trkpt><trkpt lat="48.50360177475409" lon="3.2506985254873704"><ele>68.0</ele><time>2026-04-13T09:02:58Z</time></trkpt><trkpt lat="48.50366854732513" lon="3.2506812939312963"><ele>68.0</ele><time>2026-04-13T09:02:59Z</time></trkpt><trkpt lat="48.50373376807754" lon="3.250656987260163"><ele>68.0</ele><time>2026-04-13T09:03:00Z</time></trkpt><trkpt lat="48.503796478148985" lon="3.250628312335312"><ele>68.0</ele><time>2026-04-13T09:03:01Z</time></trkpt><trkpt lat="48.503859849951795" lon="3.2506010143853414"><ele>68.0</ele><time>2026-04-13T09:03:02Z</time></trkpt><trkpt lat="48.50397916663912" lon="3.2505474962738905"><ele>68.0</ele><time>2026-04-13T09:03:04Z</time></trkpt><trkpt lat="48.50408575810332" lon="3.2504744271309294"><ele>68.2</ele><time>2026-04-13T09:03:06Z</time></trkpt><trkpt lat="48.50418557787737" lon="3.250398682595253"><ele>68.4</ele><time>2026-04-13T09:03:08Z</time></trkpt><trkpt lat="48.50428398957984" lon="3.2503316218109193"><ele>68.60000000000001</ele><time>2026-04-13T09:03:10Z</time></trkpt><trkpt lat="48.50437311871168" lon="3.250250471101815"><ele>68.8</ele><time>2026-04-13T09:03:12Z</time></trkpt><trkpt lat="48.5044628694138" lon="3.250176126446643"><ele>69.0</ele><time>2026-04-13T09:03:14Z</time></trkpt><trkpt lat="48.50456470334873" lon="3.2501164744787006"><ele>69.5</ele><time>2026-04-13T09:03:16Z</time></trkpt><trkpt lat="48.50466797057521" lon="3.2500689275561823"><ele>70.0</ele><time>2026-04-13T09:03:18Z</time></trkpt><trkpt lat="48.50477987341108" lon="3.250057545642164"><ele>70.5</ele><time>2026-04-13T09:03:20Z</time></trkpt><trkpt lat="48.50489350320309" lon="3.2500494055282347"><ele>71.0</ele><time>2026-04-13T09:03:22Z</time></trkpt><trkpt lat="48.50501196164528" lon="3.2500654980099135"><ele>71.0</ele><time>2026-04-13T09:03:24Z</time></trkpt><trkpt lat="48.505125825488385" lon="3.2500888380181325"><ele>71.0</ele><time>2026-04-13T09:03:26Z</time></trkpt><trkpt lat="48.50524294233022" lon="3.25012174123205"><ele>71.0</ele><time>2026-04-13T09:03:28Z</time></trkpt><trkpt lat="48.505356646049215" lon="3.250162867280363"><ele>71.0</ele><time>2026-04-13T09:03:30Z</time></trkpt><trkpt lat="48.505471659819975" lon="3.250177179976777"><ele>70.5</ele><time>2026-04-13T09:03:32Z</time></trkpt><trkpt lat="48.505584190382585" lon="3.250218011062801"><ele>70.0</ele><time>2026-04-13T09:03:34Z</time></trkpt><trkpt lat="48.50569333701426" lon="3.2502670572132364"><ele>69.5</ele><time>2026-04-13T09:03:36Z</time></trkpt><trkpt lat="48.50581106511694" lon="3.250295713316841"><ele>69.0</ele><time>2026-04-13T09:03:38Z</time></trkpt><trkpt lat="48.505923168163946" lon="3.250358346334982"><ele>69.0</ele><time>2026-04-13T09:03:40Z</time></trkpt><trkpt lat="48.506027519182766" lon="3.250409914255058"><ele>69.0</ele><time>2026-04-13T09:03:42Z</time></trkpt><trkpt lat="48.50612826090311" lon="3.250466700411496"><ele>69.0</ele><time>2026-04-13T09:03:44Z</time></trkpt><trkpt lat="48.50621994707402" lon="3.250530941601581"><ele>69.0</ele><time>2026-04-13T09:03:46Z</time></trkpt><trkpt lat="48.50631000045385" lon="3.2506320809400773"><ele>69.0</ele><time>2026-04-13T09:03:48Z</time></trkpt><trkpt lat="48.50640697605874" lon="3.2507360797260096"><ele>69.0</ele><time>2026-04-13T09:03:50Z</time></trkpt><trkpt lat="48.50649996554317" lon="3.2508562553541465"><ele>69.0</ele><time>2026-04-13T09:03:52Z</time></trkpt><trkpt lat="48.506584448896625" lon="3.250985252586816"><ele>69.0</ele><time>2026-04-13T09:03:54Z</time></trkpt><trkpt lat="48.506671869837234" lon="3.25111462721887"><ele>69.0</ele><time>2026-04-13T09:03:56Z</time></trkpt><trkpt lat="48.50675697251053" lon="3.2512506034319086"><ele>69.0</ele><time>2026-04-13T09:03:58Z</time></trkpt><trkpt lat="48.50684270983715" lon="3.2513878981789355"><ele>69.0</ele><time>2026-04-13T09:04:00Z</time></trkpt><trkpt lat="48.50688820526605" lon="3.251455125531682"><ele>69.0</ele><time>2026-04-13T09:04:01Z</time></trkpt><trkpt lat="48.506932396342535" lon="3.2515240759489816"><ele>69.0</ele><time>2026-04-13T09:04:02Z</time></trkpt><trkpt lat="48.50697617245016" lon="3.2515926114593134"><ele>69.0</ele><time>2026-04-13T09:04:03Z</time></trkpt><trkpt lat="48.50702031626911" lon="3.251665617093103"><ele>69.0</ele><time>2026-04-13T09:04:04Z</time></trkpt><trkpt lat="48.50710314311941" lon="3.2518073010145727"><ele>69.5</ele><time>2026-04-13T09:04:06Z</time></trkpt><trkpt lat="48.50718677763414" lon="3.2519336476680585"><ele>70.0</ele><time>2026-04-13T09:04:08Z</time></trkpt><trkpt lat="48.50726514488671" lon="3.2520651894244454"><ele>70.5</ele><time>2026-04-13T09:04:10Z</time></trkpt><trkpt lat="48.50734795686031" lon="3.252178999422429"><ele>71.0</ele><time>2026-04-13T09:04:12Z</time></trkpt><trkpt lat="48.507426174040205" lon="3.2523082759353796"><ele>71.5</ele><time>2026-04-13T09:04:14Z</time></trkpt><trkpt lat="48.5075043600391" lon="3.252449979955226"><ele>72.0</ele><time>2026-04-13T09:04:16Z</time></trkpt><trkpt lat="48.50758109401014" lon="3.2525823660179025"><ele>72.5</ele><time>2026-04-13T09:04:18Z</time></trkpt><trkpt lat="48.507660115432856" lon="3.2527111163333027"><ele>73.0</ele><time>2026-04-13T09:04:20Z</time></trkpt><trkpt lat="48.507741962933935" lon="3.2528399879253684"><ele>73.0</ele><time>2026-04-13T09:04:22Z</time></trkpt><trkpt lat="48.50782689599692" lon="3.252962671066879"><ele>73.0</ele><time>2026-04-13T09:04:24Z</time></trkpt><trkpt lat="48.507902023237186" lon="3.2530942975049757"><ele>73.0</ele><time>2026-04-13T09:04:26Z</time></trkpt><trkpt lat="48.508003491374915" lon="3.2531670561907537"><ele>73.0</ele><time>2026-04-13T09:04:28Z</time></trkpt><trkpt lat="48.508109642309435" lon="3.253172451147559"><ele>73.0</ele><time>2026-04-13T09:04:30Z</time></trkpt><trkpt lat="48.50822790805837" lon="3.2531420178015047"><ele>73.0</ele><time>2026-04-13T09:04:32Z</time></trkpt><trkpt lat="48.50834890053968" lon="3.253117505292948"><ele>73.0</ele><time>2026-04-13T09:04:34Z</time></trkpt><trkpt lat="48.50846731784677" lon="3.253085953260151"><ele>73.0</ele><time>2026-04-13T09:04:36Z</time></trkpt><trkpt lat="48.50858717465388" lon="3.2530568324439564"><ele>73.0</ele><time>2026-04-13T09:04:38Z</time></trkpt><trkpt lat="48.508708622188536" lon="3.2530259740711553"><ele>73.0</ele><time>2026-04-13T09:04:40Z</time></trkpt><trkpt lat="48.5088307173401" lon="3.252995104882779"><ele>73.0</ele><time>2026-04-13T09:04:42Z</time></trkpt><trkpt lat="48.50895574172781" lon="3.2529598288321333"><ele>73.0</ele><time>2026-04-13T09:04:44Z</time></trkpt><trkpt lat="48.50902000628192" lon="3.2529445845208937"><ele>73.0</ele><time>2026-04-13T09:04:45Z</time></trkpt><trkpt lat="48.50908354298208" lon="3.2529288556677485"><ele>73.2</ele><time>2026-04-13T09:04:46Z</time></trkpt><trkpt lat="48.509146220798904" lon="3.2529110500180605"><ele>73.4</ele><time>2026-04-13T09:04:47Z</time></trkpt><trkpt lat="48.50920980370691" lon="3.252896581093869"><ele>73.60000000000001</ele><time>2026-04-13T09:04:48Z</time></trkpt><trkpt lat="48.50933089301712" lon="3.252859837830574"><ele>73.8</ele><time>2026-04-13T09:04:50Z</time></trkpt><trkpt lat="48.509448513361974" lon="3.2528205220427533"><ele>74.0</ele><time>2026-04-13T09:04:52Z</time></trkpt><trkpt lat="48.50956376916571" lon="3.252784650655027"><ele>74.0</ele><time>2026-04-13T09:04:54Z</time></trkpt><trkpt lat="48.50967695757173" lon="3.25273766843323"><ele>74.0</ele><time>2026-04-13T09:04:56Z</time></trkpt><trkpt lat="48.50979089320897" lon="3.2526869218000876"><ele>74.0</ele><time>2026-04-13T09:04:58Z</time></trkpt><trkpt lat="48.509910595017274" lon="3.25264322713173"><ele>74.0</ele><time>2026-04-13T09:05:00Z</time></trkpt><trkpt lat="48.510025776588805" lon="3.2525979601230324"><ele>74.0</ele><time>2026-04-13T09:05:02Z</time></trkpt><trkpt lat="48.510138491202106" lon="3.2525491792861376"><ele>74.0</ele><time>2026-04-13T09:05:04Z</time></trkpt><trkpt lat="48.51024758523518" lon="3.2524982031763985"><ele>74.0</ele><time>2026-04-13T09:05:06Z</time></trkpt><trkpt lat="48.5103521415698" lon="3.252445483170943"><ele>74.0</ele><time>2026-04-13T09:05:08Z</time></trkpt><trkpt lat="48.51045269498442" lon="3.2524014206408434"><ele>74.0</ele><time>2026-04-13T09:05:10Z</time></trkpt><trkpt lat="48.510562141764005" lon="3.252341436587411"><ele>73.75</ele><time>2026-04-13T09:05:12Z</time></trkpt><trkpt lat="48.510678703081865" lon="3.252272089380021"><ele>73.5</ele><time>2026-04-13T09:05:14Z</time></trkpt><trkpt lat="48.51078989596994" lon="3.252196261046204"><ele>73.25</ele><time>2026-04-13T09:05:16Z</time></trkpt><trkpt lat="48.51090211421895" lon="3.2521378907346086"><ele>73.0</ele><time>2026-04-13T09:05:18Z</time></trkpt><trkpt lat="48.51100647508203" lon="3.2520699739816976"><ele>73.0</ele><time>2026-04-13T09:05:20Z</time></trkpt><trkpt lat="48.51110338245388" lon="3.2520118954395296"><ele>73.0</ele><time>2026-04-13T09:05:22Z</time></trkpt><trkpt lat="48.51118479587675" lon="3.2519469862372845"><ele>73.0</ele><time>2026-04-13T09:05:24Z</time></trkpt><trkpt lat="48.51126170861141" lon="3.2518989566184318"><ele>73.0</ele><time>2026-04-13T09:05:26Z</time></trkpt><trkpt lat="48.51132969687805" lon="3.2518503400000944"><ele>73.0</ele><time>2026-04-13T09:05:28Z</time></trkpt><trkpt lat="48.51139468271376" lon="3.251812157041078"><ele>73.0</ele><time>2026-04-13T09:05:30Z</time></trkpt><trkpt lat="48.51146164539059" lon="3.2517638326899805"><ele>72.83333333333333</ele><time>2026-04-13T09:05:32Z</time></trkpt><trkpt lat="48.51152876517898" lon="3.2517131305891036"><ele>72.66666666666666</ele><time>2026-04-13T09:05:34Z</time></trkpt><trkpt lat="48.51160044315014" lon="3.251671594621748"><ele>72.5</ele><time>2026-04-13T09:05:36Z</time></trkpt><trkpt lat="48.5116681898048" lon="3.2516225768310822"><ele>72.33333333333333</ele><time>2026-04-13T09:05:38Z</time></trkpt><trkpt lat="48.51173219252624" lon="3.2515642362761548"><ele>72.16666666666667</ele><time>2026-04-13T09:05:40Z</time></trkpt><trkpt lat="48.51179547809894" lon="3.251495570232459"><ele>72.0</ele><time>2026-04-13T09:05:42Z</time></trkpt><trkpt lat="48.51184639911382" lon="3.251412028757775"><ele>72.0</ele><time>2026-04-13T09:05:44Z</time></trkpt><trkpt lat="48.511898624203724" lon="3.2513225549153923"><ele>72.0</ele><time>2026-04-13T09:05:46Z</time></trkpt><trkpt lat="48.51195251601148" lon="3.2512353563616068"><ele>72.0</ele><time>2026-04-13T09:05:48Z</time></trkpt><trkpt lat="48.51199445013143" lon="3.2511302006468346"><ele>72.0</ele><time>2026-04-13T09:05:50Z</time></trkpt><trkpt lat="48.51202242910723" lon="3.2510326921708645"><ele>72.0</ele><time>2026-04-13T09:05:53Z</time></trkpt><trkpt lat="48.51204630167695" lon="3.2509283118903927"><ele>72.0</ele><time>2026-04-13T09:05:54Z</time></trkpt><trkpt lat="48.512077246306895" lon="3.2508182956650384"><ele>72.66666666666667</ele><time>2026-04-13T09:05:56Z</time></trkpt><trkpt lat="48.5120993367451" lon="3.250717454184764"><ele>73.33333333333333</ele><time>2026-04-13T09:05:58Z</time></trkpt><trkpt lat="48.51213715513189" lon="3.250632413633918"><ele>74.0</ele><time>2026-04-13T09:06:00Z</time></trkpt><trkpt lat="48.5121988665107" lon="3.250596396420403"><ele>74.66666666666666</ele><time>2026-04-13T09:06:02Z</time></trkpt><trkpt lat="48.51229160950801" lon="3.2505831443078956"><ele>75.33333333333333</ele><time>2026-04-13T09:06:05Z</time></trkpt><trkpt lat="48.51237566483378" lon="3.2505894758121876"><ele>76.0</ele><time>2026-04-13T09:06:08Z</time></trkpt><trkpt lat="48.51246114918232" lon="3.250569933084684"><ele>76.0</ele><time>2026-04-13T09:06:11Z</time></trkpt><trkpt lat="48.512543394121344" lon="3.250518994550955"><ele>76.0</ele><time>2026-04-13T09:06:14Z</time></trkpt><trkpt lat="48.51262051155238" lon="3.2504765788268655"><ele>76.0</ele><time>2026-04-13T09:06:17Z</time></trkpt><trkpt lat="48.512687718529996" lon="3.2504461094605355"><ele>76.0</ele><time>2026-04-13T09:06:20Z</time></trkpt><trkpt lat="48.51275138397459" lon="3.2503995915633688"><ele>76.0</ele><time>2026-04-13T09:06:23Z</time></trkpt><trkpt lat="48.5128342614169" lon="3.2503634860397854"><ele>76.0</ele><time>2026-04-13T09:06:26Z</time></trkpt><trkpt lat="48.51289394941234" lon="3.2503323666641317"><ele>76.85714285714285</ele><time>2026-04-13T09:06:28Z</time></trkpt><trkpt lat="48.51295748333129" lon="3.2502975964415874"><ele>77.71428571428572</ele><time>2026-04-13T09:06:30Z</time></trkpt><trkpt lat="48.51301629941115" lon="3.250255743672812"><ele>78.57142857142857</ele><time>2026-04-13T09:06:32Z</time></trkpt><trkpt lat="48.51307844371826" lon="3.2502024653518293"><ele>79.42857142857142</ele><time>2026-04-13T09:06:34Z</time></trkpt><trkpt lat="48.513137582892014" lon="3.250136796563453"><ele>80.28571428571428</ele><time>2026-04-13T09:06:36Z</time></trkpt><trkpt lat="48.51319719904893" lon="3.250070605031541"><ele>81.14285714285714</ele><time>2026-04-13T09:06:38Z</time></trkpt><trkpt lat="48.513255632088594" lon="3.2500048122153897"><ele>82.0</ele><time>2026-04-13T09:06:40Z</time></trkpt><trkpt lat="48.51331314943441" lon="3.2499468469518384"><ele>82.0</ele><time>2026-04-13T09:06:42Z</time></trkpt><trkpt lat="48.513363558407704" lon="3.249874416957879"><ele>82.0</ele><time>2026-04-13T09:06:44Z</time></trkpt><trkpt lat="48.513439407943586" lon="3.2497969457535287"><ele>82.0</ele><time>2026-04-13T09:06:47Z</time></trkpt><trkpt lat="48.513486813557186" lon="3.2497198431046064"><ele>82.0</ele><time>2026-04-13T09:06:49Z</time></trkpt><trkpt lat="48.51354044082276" lon="3.2496490909484237"><ele>82.0</ele><time>2026-04-13T09:06:51Z</time></trkpt><trkpt lat="48.51360059472207" lon="3.249579611195747"><ele>82.0</ele><time>2026-04-13T09:06:53Z</time></trkpt><trkpt lat="48.51366178757483" lon="3.2494945442998446"><ele>82.33333333333333</ele><time>2026-04-13T09:06:55Z</time></trkpt><trkpt lat="48.513724856675914" lon="3.249416580295224"><ele>82.66666666666666</ele><time>2026-04-13T09:06:57Z</time></trkpt><trkpt lat="48.51378799732125" lon="3.249343512473308"><ele>83.0</ele><time>2026-04-13T09:06:59Z</time></trkpt><trkpt lat="48.51385262472176" lon="3.249264450592622"><ele>83.33333333333333</ele><time>2026-04-13T09:07:01Z</time></trkpt><trkpt lat="48.513926995678055" lon="3.2491894189586747"><ele>83.66666666666667</ele><time>2026-04-13T09:07:03Z</time></trkpt><trkpt lat="48.51400821270945" lon="3.249096998355612"><ele>84.0</ele><time>2026-04-13T09:07:05Z</time></trkpt><trkpt lat="48.514097388743345" lon="3.248992440724126"><ele>82.8</ele><time>2026-04-13T09:07:07Z</time></trkpt><trkpt lat="48.514116997037405" lon="3.2488952309852737"><ele>81.60000000000001</ele><time>2026-04-13T09:07:08Z</time></trkpt><trkpt lat="48.514211683121545" lon="3.248780428268234"><ele>80.4</ele><time>2026-04-13T09:07:10Z</time></trkpt><trkpt lat="48.51430767646382" lon="3.2486640405626632"><ele>79.2</ele><time>2026-04-13T09:07:12Z</time></trkpt><trkpt lat="48.51435737305935" lon="3.2486039380575504"><ele>78.0</ele><time>2026-04-13T09:07:13Z</time></trkpt><trkpt lat="48.51445549863764" lon="3.248485276332168"><ele>78.0</ele><time>2026-04-13T09:07:15Z</time></trkpt><trkpt lat="48.51454546090643" lon="3.2483764863707916"><ele>78.0</ele><time>2026-04-13T09:07:17Z</time></trkpt><trkpt lat="48.51463976030702" lon="3.2482899080054244"><ele>78.0</ele><time>2026-04-13T09:07:19Z</time></trkpt><trkpt lat="48.51470995141635" lon="3.248164674302284"><ele>78.0</ele><time>2026-04-13T09:07:21Z</time></trkpt><trkpt lat="48.5147778550738" lon="3.2480535700202187"><ele>78.0</ele><time>2026-04-13T09:07:23Z</time></trkpt><trkpt lat="48.514842933160715" lon="3.2479368472303953"><ele>77.75</ele><time>2026-04-13T09:07:25Z</time></trkpt><trkpt lat="48.51492322593261" lon="3.2478312206576416"><ele>77.5</ele><time>2026-04-13T09:07:27Z</time></trkpt><trkpt lat="48.514994861549916" lon="3.2476981989269893"><ele>77.25</ele><time>2026-04-13T09:07:29Z</time></trkpt><trkpt lat="48.51507334032108" lon="3.2475713991577"><ele>77.0</ele><time>2026-04-13T09:07:31Z</time></trkpt><trkpt lat="48.515137434801275" lon="3.247423210285934"><ele>77.0</ele><time>2026-04-13T09:07:33Z</time></trkpt><trkpt lat="48.51520949221369" lon="3.247298340889111"><ele>77.0</ele><time>2026-04-13T09:07:35Z</time></trkpt><trkpt lat="48.51527116172675" lon="3.247186635128436"><ele>77.0</ele><time>2026-04-13T09:07:37Z</time></trkpt><trkpt lat="48.51534451959342" lon="3.2470874253747497"><ele>77.0</ele><time>2026-04-13T09:07:39Z</time></trkpt><trkpt lat="48.51540012111942" lon="3.246979798047376"><ele>77.0</ele><time>2026-04-13T09:07:41Z</time></trkpt><trkpt lat="48.51543564446172" lon="3.2468757221506768"><ele>76.66666666666667</ele><time>2026-04-13T09:07:44Z</time></trkpt><trkpt lat="48.51545054632058" lon="3.246751659617974"><ele>76.33333333333334</ele><time>2026-04-13T09:07:47Z</time></trkpt><trkpt lat="48.515487625742246" lon="3.2466723062099017"><ele>76.0</ele><time>2026-04-13T09:07:49Z</time></trkpt><trkpt lat="48.51556328553357" lon="3.246641950642752"><ele>75.66666666666667</ele><time>2026-04-13T09:07:51Z</time></trkpt><trkpt lat="48.51566345121814" lon="3.246640304004266"><ele>75.33333333333333</ele><time>2026-04-13T09:07:53Z</time></trkpt><trkpt lat="48.515763879789695" lon="3.246615398788809"><ele>75.0</ele><time>2026-04-13T09:07:55Z</time></trkpt><trkpt lat="48.51586025389982" lon="3.2465865172986685"><ele>75.0</ele><time>2026-04-13T09:07:57Z</time></trkpt><trkpt lat="48.5159694008667" lon="3.2465845047249777"><ele>75.0</ele><time>2026-04-13T09:07:59Z</time></trkpt><trkpt lat="48.516065912432246" lon="3.246574408801581"><ele>75.0</ele><time>2026-04-13T09:08:01Z</time></trkpt><trkpt lat="48.51615357247155" lon="3.2465602390735246"><ele>75.0</ele><time>2026-04-13T09:08:03Z</time></trkpt><trkpt lat="48.516234644914704" lon="3.246539248468335"><ele>75.0</ele><time>2026-04-13T09:08:05Z</time></trkpt><trkpt lat="48.516302335424484" lon="3.24650297885741"><ele>75.0</ele><time>2026-04-13T09:08:07Z</time></trkpt><trkpt lat="48.51637969174127" lon="3.2464491759940084"><ele>75.0</ele><time>2026-04-13T09:08:11Z</time></trkpt><trkpt lat="48.516438655479725" lon="3.246383257224535"><ele>75.0</ele><time>2026-04-13T09:08:13Z</time></trkpt><trkpt lat="48.51650610265841" lon="3.2462798222251523"><ele>75.0</ele><time>2026-04-13T09:08:15Z</time></trkpt><trkpt lat="48.51658996660739" lon="3.2461710882579684"><ele>75.0</ele><time>2026-04-13T09:08:17Z</time></trkpt><trkpt lat="48.51666911936464" lon="3.2460550697236723"><ele>75.0</ele><time>2026-04-13T09:08:19Z</time></trkpt><trkpt lat="48.51676052532777" lon="3.2459512716985057"><ele>75.0</ele><time>2026-04-13T09:08:21Z</time></trkpt><trkpt lat="48.51685178836823" lon="3.2458324994680736"><ele>75.0</ele><time>2026-04-13T09:08:23Z</time></trkpt><trkpt lat="48.51694451308858" lon="3.2457186752611826"><ele>75.0</ele><time>2026-04-13T09:08:25Z</time></trkpt><trkpt lat="48.51702523260314" lon="3.2455981414885904"><ele>75.0</ele><time>2026-04-13T09:08:27Z</time></trkpt><trkpt lat="48.51710166870332" lon="3.2454894138707924"><ele>75.0</ele><time>2026-04-13T09:08:29Z</time></trkpt><trkpt lat="48.51718987637937" lon="3.2453789799683173"><ele>75.0</ele><time>2026-04-13T09:08:31Z</time></trkpt><trkpt lat="48.517285887223224" lon="3.2452760560296645"><ele>75.0</ele><time>2026-04-13T09:08:33Z</time></trkpt><trkpt lat="48.51737338897115" lon="3.2451572949845673"><ele>75.0</ele><time>2026-04-13T09:08:35Z</time></trkpt><trkpt lat="48.517466082640944" lon="3.245053196168017"><ele>75.0</ele><time>2026-04-13T09:08:37Z</time></trkpt><trkpt lat="48.517548515926705" lon="3.2449712418657444"><ele>75.0</ele><time>2026-04-13T09:08:39Z</time></trkpt><trkpt lat="48.51763008991162" lon="3.2449235495022197"><ele>75.0</ele><time>2026-04-13T09:08:41Z</time></trkpt><trkpt lat="48.51771490626383" lon="3.244873029640595"><ele>75.0</ele><time>2026-04-13T09:08:43Z</time></trkpt><trkpt lat="48.51780480785942" lon="3.244838638571532"><ele>75.0</ele><time>2026-04-13T09:08:45Z</time></trkpt><trkpt lat="48.517882565653515" lon="3.244796433995786"><ele>74.6</ele><time>2026-04-13T09:08:47Z</time></trkpt><trkpt lat="48.51794771142706" lon="3.2447014133645675"><ele>74.2</ele><time>2026-04-13T09:08:49Z</time></trkpt><trkpt lat="48.51802827735781" lon="3.244620551652821"><ele>73.8</ele><time>2026-04-13T09:08:51Z</time></trkpt><trkpt lat="48.5180973159098" lon="3.244526920175752"><ele>73.4</ele><time>2026-04-13T09:08:53Z</time></trkpt><trkpt lat="48.51816098794206" lon="3.2444194280194734"><ele>73.0</ele><time>2026-04-13T09:08:55Z</time></trkpt><trkpt lat="48.51823613937632" lon="3.2443217238976114"><ele>73.0</ele><time>2026-04-13T09:08:57Z</time></trkpt><trkpt lat="48.518299828174804" lon="3.2442139039231823"><ele>73.0</ele><time>2026-04-13T09:08:59Z</time></trkpt><trkpt lat="48.51836710655677" lon="3.2441062940051024"><ele>73.0</ele><time>2026-04-13T09:09:01Z</time></trkpt><trkpt lat="48.51843487830724" lon="3.243989988720955"><ele>73.0</ele><time>2026-04-13T09:09:03Z</time></trkpt><trkpt lat="48.518505977569866" lon="3.243870399208259"><ele>73.0</ele><time>2026-04-13T09:09:05Z</time></trkpt><trkpt lat="48.51858200481782" lon="3.243751537298512"><ele>73.0</ele><time>2026-04-13T09:09:07Z</time></trkpt><trkpt lat="48.51865553580196" lon="3.2436298182018852"><ele>73.0</ele><time>2026-04-13T09:09:09Z</time></trkpt><trkpt lat="48.51873056334632" lon="3.24350196265858"><ele>73.0</ele><time>2026-04-13T09:09:11Z</time></trkpt><trkpt lat="48.51880885754746" lon="3.2433842574876053"><ele>73.0</ele><time>2026-04-13T09:09:13Z</time></trkpt><trkpt lat="48.51887997809307" lon="3.2432606730477924"><ele>73.0</ele><time>2026-04-13T09:09:15Z</time></trkpt><trkpt lat="48.51894865000279" lon="3.2431392845214995"><ele>73.0</ele><time>2026-04-13T09:09:17Z</time></trkpt><trkpt lat="48.51901560539863" lon="3.2430162346122717"><ele>73.0</ele><time>2026-04-13T09:09:19Z</time></trkpt><trkpt lat="48.51907773815147" lon="3.242896142020796"><ele>73.0</ele><time>2026-04-13T09:09:21Z</time></trkpt><trkpt lat="48.51913288378369" lon="3.242778580026242"><ele>73.0</ele><time>2026-04-13T09:09:23Z</time></trkpt><trkpt lat="48.51919076207877" lon="3.242664141304621"><ele>73.0</ele><time>2026-04-13T09:09:25Z</time></trkpt><trkpt lat="48.51925498512904" lon="3.242538281597098"><ele>73.0</ele><time>2026-04-13T09:09:27Z</time></trkpt><trkpt lat="48.51931515988953" lon="3.2424262979533385"><ele>73.0</ele><time>2026-04-13T09:09:29Z</time></trkpt><trkpt lat="48.519367578640214" lon="3.2423115804809015"><ele>73.0</ele><time>2026-04-13T09:09:31Z</time></trkpt><trkpt lat="48.51942977475603" lon="3.242211709020239"><ele>73.0</ele><time>2026-04-13T09:09:33Z</time></trkpt><trkpt lat="48.519475065861585" lon="3.242106184403216"><ele>73.0</ele><time>2026-04-13T09:09:35Z</time></trkpt><trkpt lat="48.519510855784475" lon="3.242016256147519"><ele>73.0</ele><time>2026-04-13T09:09:38Z</time></trkpt><trkpt lat="48.51954590192745" lon="3.241910950984258"><ele>72.6</ele><time>2026-04-13T09:10:01Z</time></trkpt><trkpt lat="48.51959588642063" lon="3.2418043540136976"><ele>72.19999999999999</ele><time>2026-04-13T09:10:03Z</time></trkpt><trkpt lat="48.519655438330666" lon="3.24169286690563"><ele>71.8</ele><time>2026-04-13T09:10:05Z</time></trkpt><trkpt lat="48.519755281538814" lon="3.24168604748561"><ele>71.39999999999999</ele><time>2026-04-13T09:10:07Z</time></trkpt><trkpt lat="48.5198634850088" lon="3.241805098050459"><ele>71.0</ele><time>2026-04-13T09:10:09Z</time></trkpt><trkpt lat="48.519967307882254" lon="3.2419046872044412"><ele>71.0</ele><time>2026-04-13T09:10:11Z</time></trkpt><trkpt lat="48.52002165985478" lon="3.241956254696123"><ele>71.0</ele><time>2026-04-13T09:10:12Z</time></trkpt><trkpt lat="48.520074559702856" lon="3.242008095859567"><ele>71.0</ele><time>2026-04-13T09:10:13Z</time></trkpt><trkpt lat="48.520124860178825" lon="3.242065717146742"><ele>71.0</ele><time>2026-04-13T09:10:14Z</time></trkpt><trkpt lat="48.520222422050445" lon="3.242184979277887"><ele>71.0</ele><time>2026-04-13T09:10:16Z</time></trkpt><trkpt lat="48.52027294537771" lon="3.2422456888182865"><ele>71.0</ele><time>2026-04-13T09:10:17Z</time></trkpt><trkpt lat="48.52032321849979" lon="3.242304639528373"><ele>71.0</ele><time>2026-04-13T09:10:18Z</time></trkpt><trkpt lat="48.52037435928836" lon="3.2423614210886416"><ele>70.85714285714286</ele><time>2026-04-13T09:10:19Z</time></trkpt><trkpt lat="48.52042570428755" lon="3.242424159504976"><ele>70.71428571428571</ele><time>2026-04-13T09:10:20Z</time></trkpt><trkpt lat="48.52047321951004" lon="3.2424915119461994"><ele>70.57142857142857</ele><time>2026-04-13T09:10:21Z</time></trkpt><trkpt lat="48.52052085412295" lon="3.242556876528444"><ele>70.42857142857143</ele><time>2026-04-13T09:10:22Z</time></trkpt><trkpt lat="48.520568835747596" lon="3.2426198816413425"><ele>70.28571428571428</ele><time>2026-04-13T09:10:23Z</time></trkpt><trkpt lat="48.52062074665483" lon="3.2426817284289644"><ele>70.14285714285714</ele><time>2026-04-13T09:10:24Z</time></trkpt><trkpt lat="48.52066690490171" lon="3.2427468456094384"><ele>70.0</ele><time>2026-04-13T09:10:25Z</time></trkpt><trkpt lat="48.520716204028176" lon="3.2428131570535275"><ele>70.0</ele><time>2026-04-13T09:10:26Z</time></trkpt><trkpt lat="48.52076482319298" lon="3.242876683812942"><ele>70.0</ele><time>2026-04-13T09:10:27Z</time></trkpt><trkpt lat="48.520818961899195" lon="3.2429337526294386"><ele>70.0</ele><time>2026-04-13T09:10:28Z</time></trkpt><trkpt lat="48.520869048363814" lon="3.242991979831981"><ele>70.0</ele><time>2026-04-13T09:10:29Z</time></trkpt><trkpt lat="48.52091361931433" lon="3.243063372017921"><ele>70.0</ele><time>2026-04-13T09:10:30Z</time></trkpt><trkpt lat="48.5209642976336" lon="3.243127908367172"><ele>70.0</ele><time>2026-04-13T09:10:31Z</time></trkpt><trkpt lat="48.52101701038845" lon="3.2431916164247974"><ele>70.0</ele><time>2026-04-13T09:10:32Z</time></trkpt><trkpt lat="48.52106300516354" lon="3.2432586178271654"><ele>70.14285714285714</ele><time>2026-04-13T09:10:33Z</time></trkpt><trkpt lat="48.521112623990106" lon="3.2433225716176244"><ele>70.28571428571428</ele><time>2026-04-13T09:10:34Z</time></trkpt><trkpt lat="48.521158977862285" lon="3.243391844732356"><ele>70.42857142857143</ele><time>2026-04-13T09:10:35Z</time></trkpt><trkpt lat="48.52120622548488" lon="3.2434568476757453"><ele>70.57142857142857</ele><time>2026-04-13T09:10:36Z</time></trkpt><trkpt lat="48.52125931901627" lon="3.243521860419571"><ele>70.71428571428571</ele><time>2026-04-13T09:10:37Z</time></trkpt><trkpt lat="48.52131116100779" lon="3.243583860047468"><ele>70.85714285714286</ele><time>2026-04-13T09:10:38Z</time></trkpt><trkpt lat="48.52136222679707" lon="3.2436412973632565"><ele>71.0</ele><time>2026-04-13T09:10:39Z</time></trkpt><trkpt lat="48.52144386389056" lon="3.243757419003063"><ele>71.0</ele><time>2026-04-13T09:10:41Z</time></trkpt><trkpt lat="48.52150148843029" lon="3.2438241473189144"><ele>71.0</ele><time>2026-04-13T09:10:43Z</time></trkpt><trkpt lat="48.521506416246005" lon="3.24393352819085"><ele>71.0</ele><time>2026-04-13T09:10:46Z</time></trkpt><trkpt lat="48.5215513818594" lon="3.2440079903863444"><ele>71.0</ele><time>2026-04-13T09:10:48Z</time></trkpt><trkpt lat="48.52162507921612" lon="3.2440929884802503"><ele>71.0</ele><time>2026-04-13T09:10:50Z</time></trkpt><trkpt lat="48.52168967551403" lon="3.244188519085554"><ele>71.0</ele><time>2026-04-13T09:10:52Z</time></trkpt><trkpt lat="48.52176663928712" lon="3.244276107523247"><ele>71.2</ele><time>2026-04-13T09:10:54Z</time></trkpt><trkpt lat="48.52184242001265" lon="3.2443778589825714"><ele>71.39999999999999</ele><time>2026-04-13T09:10:56Z</time></trkpt><trkpt lat="48.52191430188548" lon="3.2444699199162907"><ele>71.6</ele><time>2026-04-13T09:10:58Z</time></trkpt><trkpt lat="48.521979737269646" lon="3.244566198818925"><ele>71.8</ele><time>2026-04-13T09:11:00Z</time></trkpt><trkpt lat="48.52205314532702" lon="3.244659559472634"><ele>72.0</ele><time>2026-04-13T09:11:02Z</time></trkpt><trkpt lat="48.52213275303206" lon="3.2447506593337145"><ele>72.2</ele><time>2026-04-13T09:11:04Z</time></trkpt><trkpt lat="48.52220733962423" lon="3.2448528472009848"><ele>72.4</ele><time>2026-04-13T09:11:06Z</time></trkpt><trkpt lat="48.52228069307623" lon="3.244951902550005"><ele>72.6</ele><time>2026-04-13T09:11:08Z</time></trkpt><trkpt lat="48.52235994436529" lon="3.2450489605643726"><ele>72.8</ele><time>2026-04-13T09:11:10Z</time></trkpt><trkpt lat="48.52243711535244" lon="3.245138822036744"><ele>73.0</ele><time>2026-04-13T09:11:12Z</time></trkpt><trkpt lat="48.5224974616796" lon="3.2451801801817406"><ele>73.0</ele><time>2026-04-13T09:11:14Z</time></trkpt><trkpt lat="48.522567095457745" lon="3.245230629831796"><ele>73.0</ele><time>2026-04-13T09:11:16Z</time></trkpt><trkpt lat="48.52264003012291" lon="3.2453466731252667"><ele>73.0</ele><time>2026-04-13T09:11:18Z</time></trkpt><trkpt lat="48.5227306005978" lon="3.245451726523718"><ele>73.0</ele><time>2026-04-13T09:11:20Z</time></trkpt><trkpt lat="48.52281258454573" lon="3.2455786331651963"><ele>73.0</ele><time>2026-04-13T09:11:22Z</time></trkpt><trkpt lat="48.52290390917958" lon="3.245700317460375"><ele>73.0</ele><time>2026-04-13T09:11:24Z</time></trkpt><trkpt lat="48.52299938730967" lon="3.2458208774635713"><ele>73.0</ele><time>2026-04-13T09:11:26Z</time></trkpt><trkpt lat="48.52309108415006" lon="3.2459437734477232"><ele>73.0</ele><time>2026-04-13T09:11:28Z</time></trkpt><trkpt lat="48.523186262855475" lon="3.2460682028946044"><ele>73.0</ele><time>2026-04-13T09:11:30Z</time></trkpt><trkpt lat="48.52323778739695" lon="3.246122841006309"><ele>73.0</ele><time>2026-04-13T09:11:31Z</time></trkpt><trkpt lat="48.523334561263056" lon="3.246239167500038"><ele>73.0</ele><time>2026-04-13T09:11:33Z</time></trkpt><trkpt lat="48.52338147536542" lon="3.246305642500999"><ele>73.0</ele><time>2026-04-13T09:11:34Z</time></trkpt><trkpt lat="48.523474241158425" lon="3.2464343656164334"><ele>73.0</ele><time>2026-04-13T09:11:36Z</time></trkpt><trkpt lat="48.5235207546355" lon="3.246498846951289"><ele>73.0</ele><time>2026-04-13T09:11:37Z</time></trkpt><trkpt lat="48.52356766242849" lon="3.246567251610315"><ele>73.0</ele><time>2026-04-13T09:11:38Z</time></trkpt><trkpt lat="48.52366595619436" lon="3.2466752454923267"><ele>73.0</ele><time>2026-04-13T09:11:40Z</time></trkpt><trkpt lat="48.523749151629424" lon="3.246789728472946"><ele>73.0</ele><time>2026-04-13T09:11:42Z</time></trkpt><trkpt lat="48.52382898196161" lon="3.246896120837357"><ele>73.0</ele><time>2026-04-13T09:11:44Z</time></trkpt><trkpt lat="48.52388875110456" lon="3.2469374543020724"><ele>73.0</ele><time>2026-04-13T09:11:46Z</time></trkpt><trkpt lat="48.52389634919518" lon="3.2470621621086666"><ele>73.0</ele><time>2026-04-13T09:11:50Z</time></trkpt><trkpt lat="48.52395418028912" lon="3.247131650380261"><ele>73.0</ele><time>2026-04-13T09:11:52Z</time></trkpt><trkpt lat="48.52401622734285" lon="3.2472132713681163"><ele>73.0</ele><time>2026-04-13T09:11:54Z</time></trkpt><trkpt lat="48.52407931807852" lon="3.2472993194576802"><ele>73.0</ele><time>2026-04-13T09:11:56Z</time></trkpt><trkpt lat="48.52414385221357" lon="3.247380655585839"><ele>73.0</ele><time>2026-04-13T09:11:58Z</time></trkpt><trkpt lat="48.52419687460122" lon="3.2474462581488024"><ele>73.0</ele><time>2026-04-13T09:12:00Z</time></trkpt><trkpt lat="48.52426243331661" lon="3.2474743577804452"><ele>73.0</ele><time>2026-04-13T09:12:02Z</time></trkpt><trkpt lat="48.52433520342538" lon="3.247548816641744"><ele>73.0</ele><time>2026-04-13T09:12:04Z</time></trkpt><trkpt lat="48.52440815580605" lon="3.2476741489418117"><ele>73.0</ele><time>2026-04-13T09:12:06Z</time></trkpt><trkpt lat="48.52448850455559" lon="3.2478001498954474"><ele>73.25</ele><time>2026-04-13T09:12:08Z</time></trkpt><trkpt lat="48.52458231414875" lon="3.2479035027014853"><ele>73.5</ele><time>2026-04-13T09:12:10Z</time></trkpt><trkpt lat="48.52467074136164" lon="3.24801253834855"><ele>73.75</ele><time>2026-04-13T09:12:12Z</time></trkpt><trkpt lat="48.52475805751922" lon="3.248133497186359"><ele>74.0</ele><time>2026-04-13T09:12:14Z</time></trkpt><trkpt lat="48.524848186738" lon="3.2482547072185057"><ele>74.0</ele><time>2026-04-13T09:12:16Z</time></trkpt><trkpt lat="48.52494071733208" lon="3.2483798125683543"><ele>74.0</ele><time>2026-04-13T09:12:18Z</time></trkpt><trkpt lat="48.5250331447086" lon="3.248506029469892"><ele>74.0</ele><time>2026-04-13T09:12:20Z</time></trkpt><trkpt lat="48.52512812825373" lon="3.248626517572332"><ele>74.0</ele><time>2026-04-13T09:12:22Z</time></trkpt><trkpt lat="48.525220152566945" lon="3.248750998753628"><ele>74.0</ele><time>2026-04-13T09:12:24Z</time></trkpt><trkpt lat="48.52531368163382" lon="3.2488636782763773"><ele>74.0</ele><time>2026-04-13T09:12:26Z</time></trkpt><trkpt lat="48.52540133221939" lon="3.248978086698441"><ele>74.0</ele><time>2026-04-13T09:12:28Z</time></trkpt><trkpt lat="48.52548434407979" lon="3.2490954195086528"><ele>74.0</ele><time>2026-04-13T09:12:30Z</time></trkpt><trkpt lat="48.52555898763729" lon="3.249192215137862"><ele>74.0</ele><time>2026-04-13T09:12:32Z</time></trkpt><trkpt lat="48.525591866647964" lon="3.24928489832348"><ele>74.16666666666667</ele><time>2026-04-13T09:12:34Z</time></trkpt><trkpt lat="48.52561029140251" lon="3.2494001545675975"><ele>74.33333333333334</ele><time>2026-04-13T09:12:37Z</time></trkpt><trkpt lat="48.52568047220444" lon="3.2494333212977247"><ele>74.5</ele><time>2026-04-13T09:12:39Z</time></trkpt><trkpt lat="48.525739514484975" lon="3.2495262331471118"><ele>74.66666666666667</ele><time>2026-04-13T09:12:41Z</time></trkpt><trkpt lat="48.52580619175078" lon="3.2496151241881956"><ele>74.83333333333333</ele><time>2026-04-13T09:12:43Z</time></trkpt><trkpt lat="48.52587132306649" lon="3.249702941661614"><ele>75.0</ele><time>2026-04-13T09:12:45Z</time></trkpt><trkpt lat="48.52593081367254" lon="3.2497856297947014"><ele>74.85714285714285</ele><time>2026-04-13T09:12:47Z</time></trkpt><trkpt lat="48.52598507744265" lon="3.249841508174542"><ele>74.71428571428571</ele><time>2026-04-13T09:12:49Z</time></trkpt><trkpt lat="48.526039439888194" lon="3.2499219620409097"><ele>74.57142857142857</ele><time>2026-04-13T09:12:51Z</time></trkpt><trkpt lat="48.5260980776396" lon="3.250002389563995"><ele>74.42857142857142</ele><time>2026-04-13T09:12:53Z</time></trkpt><trkpt lat="48.52615295939492" lon="3.250078616794211"><ele>74.28571428571428</ele><time>2026-04-13T09:12:55Z</time></trkpt><trkpt lat="48.5262110614802" lon="3.2501171715031703"><ele>74.14285714285714</ele><time>2026-04-13T09:12:57Z</time></trkpt><trkpt lat="48.52625295764304" lon="3.250198394899419"><ele>74.0</ele><time>2026-04-13T09:12:59Z</time></trkpt><trkpt lat="48.52631048605102" lon="3.250274526295163"><ele>74.33333333333334</ele><time>2026-04-13T09:13:01Z</time></trkpt><trkpt lat="48.52637531427449" lon="3.250331122651789"><ele>74.66666666666667</ele><time>2026-04-13T09:13:03Z</time></trkpt><trkpt lat="48.52642740885515" lon="3.250404743954543"><ele>75.0</ele><time>2026-04-13T09:13:05Z</time></trkpt><trkpt lat="48.52647740304344" lon="3.250484588873471"><ele>75.33333333333333</ele><time>2026-04-13T09:13:07Z</time></trkpt><trkpt lat="48.5265523519729" lon="3.250561372169395"><ele>75.66666666666666</ele><time>2026-04-13T09:13:10Z</time></trkpt><trkpt lat="48.5266161032238" lon="3.250651941368901"><ele>76.0</ele><time>2026-04-13T09:13:13Z</time></trkpt><trkpt lat="48.52668119655951" lon="3.2507489932137545"><ele>76.0</ele><time>2026-04-13T09:13:16Z</time></trkpt><trkpt lat="48.52674415951839" lon="3.2508069615182316"><ele>76.0</ele><time>2026-04-13T09:13:19Z</time></trkpt><trkpt lat="48.526818858172604" lon="3.250829181335862"><ele>76.0</ele><time>2026-04-13T09:13:22Z</time></trkpt><trkpt lat="48.526885823952306" lon="3.250914768215067"><ele>76.0</ele><time>2026-04-13T09:13:24Z</time></trkpt><trkpt lat="48.52695828415444" lon="3.2510338163465202"><ele>76.0</ele><time>2026-04-13T09:13:26Z</time></trkpt><trkpt lat="48.527042074350454" lon="3.251161914763454"><ele>76.0</ele><time>2026-04-13T09:13:28Z</time></trkpt><trkpt lat="48.52713857974068" lon="3.2512833136770447"><ele>76.0</ele><time>2026-04-13T09:13:30Z</time></trkpt><trkpt lat="48.52723448018326" lon="3.2514075384313115"><ele>76.0</ele><time>2026-04-13T09:13:32Z</time></trkpt><trkpt lat="48.52728243697731" lon="3.2514722994378027"><ele>76.0</ele><time>2026-04-13T09:13:33Z</time></trkpt><trkpt lat="48.52733142439503" lon="3.2515365509399907"><ele>76.0</ele><time>2026-04-13T09:13:34Z</time></trkpt><trkpt lat="48.52738157764565" lon="3.2516050872770808"><ele>76.0</ele><time>2026-04-13T09:13:35Z</time></trkpt><trkpt lat="48.52743096672129" lon="3.251670968481794"><ele>76.0</ele><time>2026-04-13T09:13:36Z</time></trkpt><trkpt lat="48.527480846068144" lon="3.2517371141738574"><ele>76.0</ele><time>2026-04-13T09:13:37Z</time></trkpt><trkpt lat="48.52753161315417" lon="3.251801934545421"><ele>76.0</ele><time>2026-04-13T09:13:38Z</time></trkpt><trkpt lat="48.52758150538711" lon="3.2518662433724272"><ele>76.0</ele><time>2026-04-13T09:13:39Z</time></trkpt><trkpt lat="48.52763028605352" lon="3.2519330066905976"><ele>76.0</ele><time>2026-04-13T09:13:40Z</time></trkpt><trkpt lat="48.527680591025096" lon="3.2519990641683534"><ele>76.0</ele><time>2026-04-13T09:13:41Z</time></trkpt><trkpt lat="48.52773017720237" lon="3.2520638366808114"><ele>76.0</ele><time>2026-04-13T09:13:42Z</time></trkpt><trkpt lat="48.52777991114769" lon="3.252129135202866"><ele>76.0</ele><time>2026-04-13T09:13:43Z</time></trkpt><trkpt lat="48.52783105527861" lon="3.2521952798743667"><ele>76.0</ele><time>2026-04-13T09:13:44Z</time></trkpt><trkpt lat="48.52788277093326" lon="3.2522598654996178"><ele>76.0</ele><time>2026-04-13T09:13:45Z</time></trkpt><trkpt lat="48.52793220507552" lon="3.252330421591633"><ele>76.0</ele><time>2026-04-13T09:13:46Z</time></trkpt><trkpt lat="48.52798282813525" lon="3.2523965791989142"><ele>76.0</ele><time>2026-04-13T09:13:47Z</time></trkpt><trkpt lat="48.52803494787182" lon="3.2524625213551768"><ele>76.0</ele><time>2026-04-13T09:13:48Z</time></trkpt><trkpt lat="48.528086656952695" lon="3.2525275384624823"><ele>76.0</ele><time>2026-04-13T09:13:49Z</time></trkpt><trkpt lat="48.52813615514163" lon="3.2525946216575816"><ele>76.0</ele><time>2026-04-13T09:13:50Z</time></trkpt><trkpt lat="48.52818647047541" lon="3.252665246061016"><ele>76.0</ele><time>2026-04-13T09:13:51Z</time></trkpt><trkpt lat="48.52823708533793" lon="3.252731249069235"><ele>76.0</ele><time>2026-04-13T09:13:52Z</time></trkpt><trkpt lat="48.5282875885542" lon="3.2527969571248216"><ele>76.0</ele><time>2026-04-13T09:13:53Z</time></trkpt><trkpt lat="48.52833701398356" lon="3.2528639923949187"><ele>76.0</ele><time>2026-04-13T09:13:54Z</time></trkpt><trkpt lat="48.52838669873095" lon="3.252932176046676"><ele>76.0</ele><time>2026-04-13T09:13:55Z</time></trkpt><trkpt lat="48.5284357529781" lon="3.253001841254766"><ele>76.0</ele><time>2026-04-13T09:13:56Z</time></trkpt><trkpt lat="48.52848423745625" lon="3.2530725940973553"><ele>76.0</ele><time>2026-04-13T09:13:57Z</time></trkpt><trkpt lat="48.528532839499135" lon="3.2531430616153156"><ele>76.0</ele><time>2026-04-13T09:13:58Z</time></trkpt><trkpt lat="48.52858309378733" lon="3.253206971280872"><ele>76.0</ele><time>2026-04-13T09:13:59Z</time></trkpt><trkpt lat="48.528633418843555" lon="3.253275812514821"><ele>76.0</ele><time>2026-04-13T09:14:00Z</time></trkpt><trkpt lat="48.52868375234613" lon="3.253344021247175"><ele>76.0</ele><time>2026-04-13T09:14:01Z</time></trkpt><trkpt lat="48.52873358447588" lon="3.253407416862499"><ele>76.0</ele><time>2026-04-13T09:14:02Z</time></trkpt><trkpt lat="48.528788864787956" lon="3.253459686879724"><ele>76.0</ele><time>2026-04-13T09:14:03Z</time></trkpt><trkpt lat="48.52883707112485" lon="3.2535268030773454"><ele>75.85714285714285</ele><time>2026-04-13T09:14:04Z</time></trkpt><trkpt lat="48.528881426460366" lon="3.2536038331635213"><ele>75.71428571428572</ele><time>2026-04-13T09:14:05Z</time></trkpt><trkpt lat="48.528930496106724" lon="3.2536715818446402"><ele>75.57142857142857</ele><time>2026-04-13T09:14:06Z</time></trkpt><trkpt lat="48.528981284206324" lon="3.253732871070817"><ele>75.42857142857142</ele><time>2026-04-13T09:14:07Z</time></trkpt><trkpt lat="48.52903119825896" lon="3.2537964477730683"><ele>75.28571428571428</ele><time>2026-04-13T09:14:08Z</time></trkpt><trkpt lat="48.529081762203376" lon="3.253861064504878"><ele>75.14285714285714</ele><time>2026-04-13T09:14:09Z</time></trkpt><trkpt lat="48.5291291127799" lon="3.25393204581382"><ele>75.0</ele><time>2026-04-13T09:14:10Z</time></trkpt><trkpt lat="48.529180264073375" lon="3.2540002922370794"><ele>74.99999999999999</ele><time>2026-04-13T09:14:11Z</time></trkpt><trkpt lat="48.529234541928275" lon="3.254061234002791"><ele>75.0</ele><time>2026-04-13T09:14:12Z</time></trkpt><trkpt lat="48.52928449525946" lon="3.2541281367075072"><ele>75.0</ele><time>2026-04-13T09:14:13Z</time></trkpt><trkpt lat="48.52933435189849" lon="3.2541990966778056"><ele>75.0</ele><time>2026-04-13T09:14:14Z</time></trkpt><trkpt lat="48.52938315464648" lon="3.2542677268195748"><ele>75.0</ele><time>2026-04-13T09:14:15Z</time></trkpt><trkpt lat="48.52943231811257" lon="3.2543364393275813"><ele>74.99999999999999</ele><time>2026-04-13T09:14:16Z</time></trkpt><trkpt lat="48.52948072243712" lon="3.2544055160031897"><ele>75.0</ele><time>2026-04-13T09:14:17Z</time></trkpt><trkpt lat="48.529530784602606" lon="3.2544689554107724"><ele>74.99999999999999</ele><time>2026-04-13T09:14:18Z</time></trkpt><trkpt lat="48.52958284331271" lon="3.254529304387157"><ele>75.0</ele><time>2026-04-13T09:14:19Z</time></trkpt><trkpt lat="48.529632523877495" lon="3.254593569551923"><ele>75.0</ele><time>2026-04-13T09:14:20Z</time></trkpt><trkpt lat="48.529679470959444" lon="3.2546615532257723"><ele>75.0</ele><time>2026-04-13T09:14:21Z</time></trkpt><trkpt lat="48.52972783535708" lon="3.254727634619913"><ele>75.0</ele><time>2026-04-13T09:14:22Z</time></trkpt><trkpt lat="48.529775131852816" lon="3.2547924715163283"><ele>74.99999999999999</ele><time>2026-04-13T09:14:23Z</time></trkpt><trkpt lat="48.52986584736419" lon="3.2549111605653387"><ele>75.0</ele><time>2026-04-13T09:14:25Z</time></trkpt><trkpt lat="48.529946222922916" lon="3.255025042471895"><ele>75.16666666666667</ele><time>2026-04-13T09:14:27Z</time></trkpt><trkpt lat="48.530025750802864" lon="3.2551273899469404"><ele>75.33333333333333</ele><time>2026-04-13T09:14:29Z</time></trkpt><trkpt lat="48.53009765145218" lon="3.2552234087975247"><ele>75.5</ele><time>2026-04-13T09:14:31Z</time></trkpt><trkpt lat="48.53016566611221" lon="3.2553149244619695"><ele>75.66666666666666</ele><time>2026-04-13T09:14:33Z</time></trkpt><trkpt lat="48.53023132287579" lon="3.255401857465011"><ele>75.83333333333333</ele><time>2026-04-13T09:14:35Z</time></trkpt><trkpt lat="48.53027914269771" lon="3.255469844186406"><ele>76.0</ele><time>2026-04-13T09:14:37Z</time></trkpt><trkpt lat="48.530332656877206" lon="3.2555380468455657"><ele>76.0</ele><time>2026-04-13T09:14:49Z</time></trkpt><trkpt lat="48.530377605037614" lon="3.2556240550837243"><ele>76.0</ele><time>2026-04-13T09:14:51Z</time></trkpt><trkpt lat="48.53044727558152" lon="3.2557113892804725"><ele>76.0</ele><time>2026-04-13T09:14:53Z</time></trkpt><trkpt lat="48.53053362357142" lon="3.255795427081312"><ele>76.0</ele><time>2026-04-13T09:14:55Z</time></trkpt><trkpt lat="48.53061189675813" lon="3.2559053463006906"><ele>76.0</ele><time>2026-04-13T09:14:57Z</time></trkpt><trkpt lat="48.53069524532931" lon="3.2560135520863334"><ele>76.0</ele><time>2026-04-13T09:14:59Z</time></trkpt><trkpt lat="48.53078309001598" lon="3.256127609078947"><ele>76.0</ele><time>2026-04-13T09:15:01Z</time></trkpt><trkpt lat="48.53086872529884" lon="3.256254318833046"><ele>76.0</ele><time>2026-04-13T09:15:03Z</time></trkpt><trkpt lat="48.530951150032784" lon="3.256394422721616"><ele>76.0</ele><time>2026-04-13T09:15:05Z</time></trkpt><trkpt lat="48.53102447696267" lon="3.2565466359677724"><ele>76.16666666666666</ele><time>2026-04-13T09:15:07Z</time></trkpt><trkpt lat="48.53108655254034" lon="3.256711849530226"><ele>76.33333333333333</ele><time>2026-04-13T09:15:09Z</time></trkpt><trkpt lat="48.531114791760025" lon="3.2567977165599262"><ele>76.5</ele><time>2026-04-13T09:15:10Z</time></trkpt><trkpt lat="48.53113974295622" lon="3.256885237413237"><ele>76.66666666666667</ele><time>2026-04-13T09:15:11Z</time></trkpt><trkpt lat="48.53116325985436" lon="3.256973565811261"><ele>76.83333333333334</ele><time>2026-04-13T09:15:12Z</time></trkpt><trkpt lat="48.531212307808254" lon="3.2571413124179864"><ele>77.0</ele><time>2026-04-13T09:15:14Z</time></trkpt><trkpt lat="48.53123460250811" lon="3.257326332850115"><ele>78.0</ele><time>2026-04-13T09:15:16Z</time></trkpt><trkpt lat="48.53126958070182" lon="3.257502155188501"><ele>79.0</ele><time>2026-04-13T09:15:18Z</time></trkpt><trkpt lat="48.53130218899751" lon="3.257676704591989"><ele>80.0</ele><time>2026-04-13T09:15:20Z</time></trkpt><trkpt lat="48.531334576622946" lon="3.2578481858369033"><ele>81.0</ele><time>2026-04-13T09:15:22Z</time></trkpt><trkpt lat="48.53136444425934" lon="3.2580256910855834"><ele>80.75</ele><time>2026-04-13T09:15:24Z</time></trkpt><trkpt lat="48.53139637374245" lon="3.2582023994625873"><ele>80.5</ele><time>2026-04-13T09:15:26Z</time></trkpt><trkpt lat="48.53143244405201" lon="3.258376712888322"><ele>80.25</ele><time>2026-04-13T09:15:28Z</time></trkpt><trkpt lat="48.531467908550034" lon="3.2585551325809123"><ele>80.0</ele><time>2026-04-13T09:15:30Z</time></trkpt><trkpt lat="48.531506978621266" lon="3.2587310140999093"><ele>80.0</ele><time>2026-04-13T09:15:32Z</time></trkpt><trkpt lat="48.531532659195484" lon="3.2589123904960595"><ele>80.0</ele><time>2026-04-13T09:15:34Z</time></trkpt><trkpt lat="48.53156240164107" lon="3.2590809438786703"><ele>80.0</ele><time>2026-04-13T09:15:36Z</time></trkpt><trkpt lat="48.531592379959065" lon="3.2592419158942376"><ele>80.0</ele><time>2026-04-13T09:15:38Z</time></trkpt><trkpt lat="48.531622245559205" lon="3.2594024538153525"><ele>79.6</ele><time>2026-04-13T09:15:40Z</time></trkpt><trkpt lat="48.531649630279816" lon="3.25955423639376"><ele>79.2</ele><time>2026-04-13T09:15:42Z</time></trkpt><trkpt lat="48.5316758338514" lon="3.259703101207154"><ele>78.8</ele><time>2026-04-13T09:15:44Z</time></trkpt><trkpt lat="48.5317022413741" lon="3.259832274384969"><ele>78.4</ele><time>2026-04-13T09:15:46Z</time></trkpt><trkpt lat="48.531730011808314" lon="3.2599616531618567"><ele>78.0</ele><time>2026-04-13T09:15:48Z</time></trkpt><trkpt lat="48.53176403887374" lon="3.2601039821829874"><ele>78.0</ele><time>2026-04-13T09:15:50Z</time></trkpt><trkpt lat="48.53178952577416" lon="3.260263959638546"><ele>78.0</ele><time>2026-04-13T09:15:52Z</time></trkpt><trkpt lat="48.53181758575084" lon="3.2604234022647183"><ele>78.0</ele><time>2026-04-13T09:15:54Z</time></trkpt><trkpt lat="48.53184384431737" lon="3.2605805834655737"><ele>78.0</ele><time>2026-04-13T09:15:56Z</time></trkpt><trkpt lat="48.53187481475938" lon="3.2607326976669406"><ele>78.0</ele><time>2026-04-13T09:15:58Z</time></trkpt><trkpt lat="48.5318964273887" lon="3.2608920942205972"><ele>78.0</ele><time>2026-04-13T09:16:00Z</time></trkpt><trkpt lat="48.53191698511297" lon="3.26104965968279"><ele>78.0</ele><time>2026-04-13T09:16:02Z</time></trkpt><trkpt lat="48.53193445880369" lon="3.261205998359861"><ele>78.0</ele><time>2026-04-13T09:16:04Z</time></trkpt><trkpt lat="48.53195184876898" lon="3.2613654123195266"><ele>78.0</ele><time>2026-04-13T09:16:06Z</time></trkpt><trkpt lat="48.53198280928259" lon="3.2615214606735297"><ele>78.0</ele><time>2026-04-13T09:16:08Z</time></trkpt><trkpt lat="48.53200897804755" lon="3.261671718750897"><ele>78.2</ele><time>2026-04-13T09:16:10Z</time></trkpt><trkpt lat="48.53203989805527" lon="3.2618240770776454"><ele>78.4</ele><time>2026-04-13T09:16:12Z</time></trkpt><trkpt lat="48.532066495448" lon="3.2619763707010714"><ele>78.60000000000001</ele><time>2026-04-13T09:16:14Z</time></trkpt><trkpt lat="48.53210451669044" lon="3.262118274730589"><ele>78.8</ele><time>2026-04-13T09:16:16Z</time></trkpt><trkpt lat="48.53213500932027" lon="3.262266930351816"><ele>79.0</ele><time>2026-04-13T09:16:18Z</time></trkpt><trkpt lat="48.532171805840115" lon="3.2624166381766795"><ele>81.0</ele><time>2026-04-13T09:16:20Z</time></trkpt><trkpt lat="48.53219866579368" lon="3.2625682742918354"><ele>83.0</ele><time>2026-04-13T09:16:22Z</time></trkpt><trkpt lat="48.532228178424255" lon="3.262717495447287"><ele>85.0</ele><time>2026-04-13T09:16:24Z</time></trkpt><trkpt lat="48.53225659454476" lon="3.2628586874250267"><ele>87.0</ele><time>2026-04-13T09:16:26Z</time></trkpt><trkpt lat="48.532282549911024" lon="3.2630035499708314"><ele>89.0</ele><time>2026-04-13T09:16:28Z</time></trkpt><trkpt lat="48.532307682877736" lon="3.2631491549967726"><ele>89.0</ele><time>2026-04-13T09:16:30Z</time></trkpt><trkpt lat="48.53233518603859" lon="3.263292326901956"><ele>89.0</ele><time>2026-04-13T09:16:32Z</time></trkpt><trkpt lat="48.53235964486459" lon="3.2634291952380496"><ele>89.0</ele><time>2026-04-13T09:16:34Z</time></trkpt><trkpt lat="48.53238670477341" lon="3.2635650039233535"><ele>89.0</ele><time>2026-04-13T09:16:36Z</time></trkpt><trkpt lat="48.532430977991545" lon="3.2636962953607136"><ele>89.0</ele><time>2026-04-13T09:16:38Z</time></trkpt><trkpt lat="48.53247777076376" lon="3.2638248993551473"><ele>89.0</ele><time>2026-04-13T09:16:40Z</time></trkpt><trkpt lat="48.53254547843436" lon="3.26393952174454"><ele>89.0</ele><time>2026-04-13T09:16:42Z</time></trkpt><trkpt lat="48.53262481092839" lon="3.2640234570992925"><ele>89.0</ele><time>2026-04-13T09:16:44Z</time></trkpt><trkpt lat="48.532713032069" lon="3.2640931835759157"><ele>89.0</ele><time>2026-04-13T09:16:46Z</time></trkpt><trkpt lat="48.53280742642712" lon="3.2641401173738527"><ele>89.0</ele><time>2026-04-13T09:16:48Z</time></trkpt><trkpt lat="48.53290538596654" lon="3.2641755426042423"><ele>88.4</ele><time>2026-04-13T09:16:50Z</time></trkpt><trkpt lat="48.53300807603913" lon="3.264192700168843"><ele>87.80000000000001</ele><time>2026-04-13T09:16:52Z</time></trkpt><trkpt lat="48.53311112930524" lon="3.2641935468403243"><ele>87.19999999999999</ele><time>2026-04-13T09:16:54Z</time></trkpt><trkpt lat="48.53322054340173" lon="3.264191342371611"><ele>86.6</ele><time>2026-04-13T09:16:56Z</time></trkpt><trkpt lat="48.53332959803803" lon="3.2641921907942546"><ele>86.0</ele><time>2026-04-13T09:16:58Z</time></trkpt><trkpt lat="48.533440003397814" lon="3.2641964480009094"><ele>86.0</ele><time>2026-04-13T09:17:00Z</time></trkpt><trkpt lat="48.53354908071207" lon="3.2641908221882385"><ele>86.0</ele><time>2026-04-13T09:17:02Z</time></trkpt><trkpt lat="48.53365709726631" lon="3.264192834357664"><ele>86.0</ele><time>2026-04-13T09:17:04Z</time></trkpt><trkpt lat="48.5337690864619" lon="3.2641852473065733"><ele>86.0</ele><time>2026-04-13T09:17:06Z</time></trkpt><trkpt lat="48.533885531386474" lon="3.2641845132930802"><ele>86.0</ele><time>2026-04-13T09:17:08Z</time></trkpt><trkpt lat="48.5339490557383" lon="3.2641826520935022"><ele>85.85714285714286</ele><time>2026-04-13T09:17:09Z</time></trkpt><trkpt lat="48.534072454961326" lon="3.2641888024729417"><ele>85.71428571428572</ele><time>2026-04-13T09:17:11Z</time></trkpt><trkpt lat="48.53413576761642" lon="3.264186778069163"><ele>85.57142857142858</ele><time>2026-04-13T09:17:12Z</time></trkpt><trkpt lat="48.53419975273288" lon="3.2641828679148186"><ele>85.42857142857143</ele><time>2026-04-13T09:17:13Z</time></trkpt><trkpt lat="48.534266602012345" lon="3.2641796353780186"><ele>85.28571428571428</ele><time>2026-04-13T09:17:14Z</time></trkpt><trkpt lat="48.53433289372797" lon="3.2641824246044657"><ele>85.14285714285715</ele><time>2026-04-13T09:17:15Z</time></trkpt><trkpt lat="48.53439775007796" lon="3.264185653879798"><ele>85.0</ele><time>2026-04-13T09:17:16Z</time></trkpt><trkpt lat="48.5344660185964" lon="3.2641828786255735"><ele>85.0</ele><time>2026-04-13T09:17:17Z</time></trkpt><trkpt lat="48.534535526503106" lon="3.2641843094450538"><ele>85.0</ele><time>2026-04-13T09:17:18Z</time></trkpt><trkpt lat="48.5346045823898" lon="3.2641859421211104"><ele>85.0</ele><time>2026-04-13T09:17:19Z</time></trkpt><trkpt lat="48.534673123206055" lon="3.264184769898293"><ele>85.0</ele><time>2026-04-13T09:17:20Z</time></trkpt><trkpt lat="48.53474305799059" lon="3.264180609870486"><ele>85.0</ele><time>2026-04-13T09:17:21Z</time></trkpt><trkpt lat="48.53481134103284" lon="3.2641792774070417"><ele>85.0</ele><time>2026-04-13T09:17:22Z</time></trkpt><trkpt lat="48.53488169750074" lon="3.2641790876616583"><ele>85.0</ele><time>2026-04-13T09:17:23Z</time></trkpt><trkpt lat="48.53494894415032" lon="3.2641785250370106"><ele>84.71428571428572</ele><time>2026-04-13T09:17:24Z</time></trkpt><trkpt lat="48.53501587030234" lon="3.264180554333797"><ele>84.42857142857142</ele><time>2026-04-13T09:17:25Z</time></trkpt><trkpt lat="48.53508465463642" lon="3.2641809434515565"><ele>84.14285714285714</ele><time>2026-04-13T09:17:26Z</time></trkpt><trkpt lat="48.53515096233347" lon="3.2641820572744513"><ele>83.85714285714286</ele><time>2026-04-13T09:17:27Z</time></trkpt><trkpt lat="48.53521839993459" lon="3.2641823457595347"><ele>83.57142857142858</ele><time>2026-04-13T09:17:28Z</time></trkpt><trkpt lat="48.535283913863275" lon="3.264184592634257"><ele>83.28571428571428</ele><time>2026-04-13T09:17:29Z</time></trkpt><trkpt lat="48.53535134460857" lon="3.2641812687895086"><ele>83.0</ele><time>2026-04-13T09:17:30Z</time></trkpt><trkpt lat="48.53541626504324" lon="3.2641848544753502"><ele>82.85714285714285</ele><time>2026-04-13T09:17:31Z</time></trkpt><trkpt lat="48.53548244036985" lon="3.2641844878775985"><ele>82.71428571428572</ele><time>2026-04-13T09:17:32Z</time></trkpt><trkpt lat="48.53554869051993" lon="3.2641859249921694"><ele>82.57142857142857</ele><time>2026-04-13T09:17:33Z</time></trkpt><trkpt lat="48.53561699474148" lon="3.26418822419431"><ele>82.42857142857142</ele><time>2026-04-13T09:17:34Z</time></trkpt><trkpt lat="48.53568855605173" lon="3.2641914747725713"><ele>82.28571428571428</ele><time>2026-04-13T09:17:35Z</time></trkpt><trkpt lat="48.53576119304336" lon="3.264193268894256"><ele>82.14285714285714</ele><time>2026-04-13T09:17:36Z</time></trkpt><trkpt lat="48.53583790202057" lon="3.2641947383717134"><ele>82.0</ele><time>2026-04-13T09:17:37Z</time></trkpt><trkpt lat="48.535914313868936" lon="3.2641974715764235"><ele>82.0</ele><time>2026-04-13T09:17:38Z</time></trkpt><trkpt lat="48.53599335759642" lon="3.2641964177198775"><ele>82.0</ele><time>2026-04-13T09:17:39Z</time></trkpt><trkpt lat="48.53607155021905" lon="3.264200462621669"><ele>82.0</ele><time>2026-04-13T09:17:40Z</time></trkpt><trkpt lat="48.53614791241519" lon="3.264207316680971"><ele>82.0</ele><time>2026-04-13T09:17:41Z</time></trkpt><trkpt lat="48.53622405127687" lon="3.264216482181093"><ele>82.0</ele><time>2026-04-13T09:17:42Z</time></trkpt><trkpt lat="48.53629879836611" lon="3.2642278766038313"><ele>82.0</ele><time>2026-04-13T09:17:43Z</time></trkpt><trkpt lat="48.53637284721141" lon="3.2642470368194916"><ele>82.16666666666666</ele><time>2026-04-13T09:17:44Z</time></trkpt><trkpt lat="48.53644812852766" lon="3.2642658590856857"><ele>82.33333333333333</ele><time>2026-04-13T09:17:45Z</time></trkpt><trkpt lat="48.53652362231391" lon="3.264286586460353"><ele>82.5</ele><time>2026-04-13T09:17:46Z</time></trkpt><trkpt lat="48.53659739449622" lon="3.2643140629521623"><ele>82.66666666666667</ele><time>2026-04-13T09:17:47Z</time></trkpt><trkpt lat="48.536672656121745" lon="3.264343765296035"><ele>82.83333333333334</ele><time>2026-04-13T09:17:48Z</time></trkpt><trkpt lat="48.53674163940799" lon="3.2643743518616595"><ele>83.0</ele><time>2026-04-13T09:17:49Z</time></trkpt><trkpt lat="48.536810367563895" lon="3.2644069877429"><ele>83.0</ele><time>2026-04-13T09:17:50Z</time></trkpt><trkpt lat="48.53688259921854" lon="3.264446527733822"><ele>83.0</ele><time>2026-04-13T09:17:51Z</time></trkpt><trkpt lat="48.5369499063664" lon="3.2644904928962393"><ele>83.0</ele><time>2026-04-13T09:17:52Z</time></trkpt><trkpt lat="48.53701996988855" lon="3.2645327449530193"><ele>83.0</ele><time>2026-04-13T09:17:53Z</time></trkpt><trkpt lat="48.537088777072505" lon="3.2645723328961913"><ele>83.0</ele><time>2026-04-13T09:17:54Z</time></trkpt><trkpt lat="48.5371599519315" lon="3.2646093156319487"><ele>83.0</ele><time>2026-04-13T09:17:55Z</time></trkpt><trkpt lat="48.537227503142866" lon="3.2646509209874406"><ele>83.0</ele><time>2026-04-13T09:17:56Z</time></trkpt><trkpt lat="48.537293964658616" lon="3.264693219709417"><ele>83.42857142857143</ele><time>2026-04-13T09:17:57Z</time></trkpt><trkpt lat="48.53736391192617" lon="3.264735575231639"><ele>83.85714285714286</ele><time>2026-04-13T09:17:58Z</time></trkpt><trkpt lat="48.53742913960687" lon="3.264779547813742"><ele>84.28571428571429</ele><time>2026-04-13T09:17:59Z</time></trkpt><trkpt lat="48.53749614257195" lon="3.2648162363317565"><ele>84.71428571428572</ele><time>2026-04-13T09:18:00Z</time></trkpt><trkpt lat="48.53756224892719" lon="3.2648595561975626"><ele>85.14285714285714</ele><time>2026-04-13T09:18:01Z</time></trkpt><trkpt lat="48.53762562798089" lon="3.264903347022299"><ele>85.57142857142858</ele><time>2026-04-13T09:18:02Z</time></trkpt><trkpt lat="48.5376914296573" lon="3.2649419771765618"><ele>86.0</ele><time>2026-04-13T09:18:03Z</time></trkpt><trkpt lat="48.53775581745502" lon="3.26497263894668"><ele>85.42857142857143</ele><time>2026-04-13T09:18:04Z</time></trkpt><trkpt lat="48.53782300583839" lon="3.2650054771478167"><ele>84.85714285714286</ele><time>2026-04-13T09:18:05Z</time></trkpt><trkpt lat="48.53788839580314" lon="3.2650511015077077"><ele>84.28571428571428</ele><time>2026-04-13T09:18:06Z</time></trkpt><trkpt lat="48.53795300903344" lon="3.2650966093038507"><ele>83.71428571428572</ele><time>2026-04-13T09:18:07Z</time></trkpt><trkpt lat="48.53801994280192" lon="3.265132950284405"><ele>83.14285714285714</ele><time>2026-04-13T09:18:08Z</time></trkpt><trkpt lat="48.53808531370218" lon="3.265173654486671"><ele>82.57142857142857</ele><time>2026-04-13T09:18:09Z</time></trkpt><trkpt lat="48.53814810539709" lon="3.26521597871574"><ele>82.0</ele><time>2026-04-13T09:18:10Z</time></trkpt><trkpt lat="48.538213037641896" lon="3.2652565578524624"><ele>81.99999999999999</ele><time>2026-04-13T09:18:11Z</time></trkpt><trkpt lat="48.53827551769811" lon="3.265296433887388"><ele>82.0</ele><time>2026-04-13T09:18:12Z</time></trkpt><trkpt lat="48.53833913435999" lon="3.2653357373024785"><ele>82.0</ele><time>2026-04-13T09:18:13Z</time></trkpt><trkpt lat="48.5384043454031" lon="3.265372347010013"><ele>82.0</ele><time>2026-04-13T09:18:14Z</time></trkpt><trkpt lat="48.53846816777942" lon="3.2654129456977956"><ele>82.0</ele><time>2026-04-13T09:18:15Z</time></trkpt><trkpt lat="48.53853126933967" lon="3.265452066809792"><ele>81.99999999999999</ele><time>2026-04-13T09:18:16Z</time></trkpt><trkpt lat="48.53859548926273" lon="3.2654908049503275"><ele>82.0</ele><time>2026-04-13T09:18:17Z</time></trkpt><trkpt lat="48.53865831573905" lon="3.2655323243763528"><ele>82.14285714285714</ele><time>2026-04-13T09:18:18Z</time></trkpt><trkpt lat="48.538719115276635" lon="3.2655674655437634"><ele>82.28571428571428</ele><time>2026-04-13T09:18:19Z</time></trkpt><trkpt lat="48.53878428576774" lon="3.2656073943088417"><ele>82.42857142857142</ele><time>2026-04-13T09:18:20Z</time></trkpt><trkpt lat="48.5388465784472" lon="3.265646261564847"><ele>82.57142857142857</ele><time>2026-04-13T09:18:21Z</time></trkpt><trkpt lat="48.538910037633826" lon="3.265683904802008"><ele>82.71428571428572</ele><time>2026-04-13T09:18:22Z</time></trkpt><trkpt lat="48.53897207223414" lon="3.2657216372490923"><ele>82.85714285714285</ele><time>2026-04-13T09:18:23Z</time></trkpt><trkpt lat="48.53903073094843" lon="3.2657573181394355"><ele>83.0</ele><time>2026-04-13T09:18:24Z</time></trkpt><trkpt lat="48.539092029608675" lon="3.2657960189099553"><ele>83.0</ele><time>2026-04-13T09:18:25Z</time></trkpt><trkpt lat="48.53920672799735" lon="3.265873057099181"><ele>83.0</ele><time>2026-04-13T09:18:27Z</time></trkpt><trkpt lat="48.539318935733384" lon="3.2659483296760836"><ele>83.0</ele><time>2026-04-13T09:18:29Z</time></trkpt><trkpt lat="48.53943459291251" lon="3.2660128718934245"><ele>83.0</ele><time>2026-04-13T09:18:31Z</time></trkpt><trkpt lat="48.53954142347226" lon="3.2660853929255995"><ele>83.80000000000001</ele><time>2026-04-13T09:18:33Z</time></trkpt><trkpt lat="48.539644574916146" lon="3.266149109891084"><ele>84.6</ele><time>2026-04-13T09:18:35Z</time></trkpt><trkpt lat="48.53970454189855" lon="3.2661870789305505"><ele>85.4</ele><time>2026-04-13T09:18:36Z</time></trkpt><trkpt lat="48.53980233092524" lon="3.2662430208443"><ele>86.19999999999999</ele><time>2026-04-13T09:18:38Z</time></trkpt><trkpt lat="48.53990069042795" lon="3.266303796768594"><ele>87.0</ele><time>2026-04-13T09:18:40Z</time></trkpt><trkpt lat="48.53999304941648" lon="3.266365954772227"><ele>87.0</ele><time>2026-04-13T09:18:42Z</time></trkpt><trkpt lat="48.54008106701238" lon="3.266429287437747"><ele>87.0</ele><time>2026-04-13T09:18:44Z</time></trkpt><trkpt lat="48.54015783133321" lon="3.266493272768814"><ele>87.0</ele><time>2026-04-13T09:18:46Z</time></trkpt><trkpt lat="48.54021782028585" lon="3.2665444675680284"><ele>87.0</ele><time>2026-04-13T09:18:48Z</time></trkpt><trkpt lat="48.54028289852153" lon="3.2665779360845306"><ele>87.0</ele><time>2026-04-13T09:18:50Z</time></trkpt><trkpt lat="48.54034812971305" lon="3.2666372675551973"><ele>87.0</ele><time>2026-04-13T09:18:52Z</time></trkpt><trkpt lat="48.5404181412755" lon="3.2667181101142955"><ele>87.83333333333333</ele><time>2026-04-13T09:18:54Z</time></trkpt><trkpt lat="48.540487969281855" lon="3.266794879243331"><ele>88.66666666666667</ele><time>2026-04-13T09:18:56Z</time></trkpt><trkpt lat="48.540558708629305" lon="3.2668680509966768"><ele>89.5</ele><time>2026-04-13T09:18:58Z</time></trkpt><trkpt lat="48.540633129936474" lon="3.266936761584921"><ele>90.33333333333334</ele><time>2026-04-13T09:19:00Z</time></trkpt><trkpt lat="48.54070747262883" lon="3.267010817765047"><ele>91.16666666666667</ele><time>2026-04-13T09:19:02Z</time></trkpt><trkpt lat="48.540780310675075" lon="3.267079338063885"><ele>92.0</ele><time>2026-04-13T09:19:04Z</time></trkpt><trkpt lat="48.54085750930787" lon="3.267148200855334"><ele>92.0</ele><time>2026-04-13T09:19:06Z</time></trkpt><trkpt lat="48.54093606178923" lon="3.267224107304534"><ele>92.0</ele><time>2026-04-13T09:19:08Z</time></trkpt><trkpt lat="48.54101451489215" lon="3.2672987955413606"><ele>92.0</ele><time>2026-04-13T09:19:10Z</time></trkpt><trkpt lat="48.54109684430948" lon="3.2673775896418524"><ele>92.0</ele><time>2026-04-13T09:19:12Z</time></trkpt><trkpt lat="48.54117965485664" lon="3.267457523740857"><ele>92.0</ele><time>2026-04-13T09:19:14Z</time></trkpt><trkpt lat="48.54126403063998" lon="3.2675397310656686"><ele>92.19999999999999</ele><time>2026-04-13T09:19:16Z</time></trkpt><trkpt lat="48.54135517935121" lon="3.2676207949694462"><ele>92.4</ele><time>2026-04-13T09:19:18Z</time></trkpt><trkpt lat="48.541442757176014" lon="3.2677112671651303"><ele>92.6</ele><time>2026-04-13T09:19:20Z</time></trkpt><trkpt lat="48.54153688617945" lon="3.2677984602869805"><ele>92.80000000000001</ele><time>2026-04-13T09:19:22Z</time></trkpt><trkpt lat="48.5416306794067" lon="3.2678880416679505"><ele>93.0</ele><time>2026-04-13T09:19:24Z</time></trkpt><trkpt lat="48.54172428779774" lon="3.2679770693597514"><ele>93.0</ele><time>2026-04-13T09:19:26Z</time></trkpt><trkpt lat="48.54181655570528" lon="3.268066174437308"><ele>93.0</ele><time>2026-04-13T09:19:28Z</time></trkpt><trkpt lat="48.541907463279706" lon="3.2681573626104585"><ele>93.0</ele><time>2026-04-13T09:19:30Z</time></trkpt><trkpt lat="48.54200092682809" lon="3.2682325989487038"><ele>93.0</ele><time>2026-04-13T09:19:32Z</time></trkpt><trkpt lat="48.542089081484576" lon="3.2683161384584545"><ele>93.0</ele><time>2026-04-13T09:19:34Z</time></trkpt><trkpt lat="48.542175444121156" lon="3.268405729844904"><ele>93.4</ele><time>2026-04-13T09:19:36Z</time></trkpt><trkpt lat="48.54226786669135" lon="3.2684998619910255"><ele>93.80000000000001</ele><time>2026-04-13T09:19:38Z</time></trkpt><trkpt lat="48.54236289620752" lon="3.268584392262475"><ele>94.2</ele><time>2026-04-13T09:19:40Z</time></trkpt><trkpt lat="48.542450113193446" lon="3.268679162341002"><ele>94.6</ele><time>2026-04-13T09:19:42Z</time></trkpt><trkpt lat="48.54253524397422" lon="3.2687725988511422"><ele>95.0</ele><time>2026-04-13T09:19:44Z</time></trkpt><trkpt lat="48.54262429404076" lon="3.2688778774746217"><ele>95.75</ele><time>2026-04-13T09:19:46Z</time></trkpt><trkpt lat="48.54270928475916" lon="3.2689886902633867"><ele>96.5</ele><time>2026-04-13T09:19:48Z</time></trkpt><trkpt lat="48.54279288166332" lon="3.2691074666561657"><ele>97.25</ele><time>2026-04-13T09:19:50Z</time></trkpt><trkpt lat="48.54287474010908" lon="3.2692319181636322"><ele>98.0</ele><time>2026-04-13T09:19:52Z</time></trkpt><trkpt lat="48.5429515218383" lon="3.2693739177904892"><ele>97.99999999999999</ele><time>2026-04-13T09:19:54Z</time></trkpt><trkpt lat="48.54302824111762" lon="3.269528015088708"><ele>98.0</ele><time>2026-04-13T09:19:56Z</time></trkpt><trkpt lat="48.543068050253005" lon="3.2696134014974696"><ele>98.0</ele><time>2026-04-13T09:19:57Z</time></trkpt><trkpt lat="48.54310836380191" lon="3.2696995766119383"><ele>98.0</ele><time>2026-04-13T09:19:58Z</time></trkpt><trkpt lat="48.54314807616066" lon="3.26979305599469"><ele>97.99999999999999</ele><time>2026-04-13T09:19:59Z</time></trkpt><trkpt lat="48.543185823271095" lon="3.2698846972036173"><ele>98.0</ele><time>2026-04-13T09:20:00Z</time></trkpt><trkpt lat="48.54322570717674" lon="3.2699818506345544"><ele>96.66666666666666</ele><time>2026-04-13T09:20:01Z</time></trkpt><trkpt lat="48.54325590188699" lon="3.2700856451045555"><ele>95.33333333333333</ele><time>2026-04-13T09:20:02Z</time></trkpt><trkpt lat="48.54329518750925" lon="3.2701922039433797"><ele>94.0</ele><time>2026-04-13T09:20:03Z</time></trkpt><trkpt lat="48.54332895784408" lon="3.2703047593393926"><ele>92.66666666666666</ele><time>2026-04-13T09:20:04Z</time></trkpt><trkpt lat="48.54336268939013" lon="3.270412173337493"><ele>91.33333333333333</ele><time>2026-04-13T09:20:05Z</time></trkpt><trkpt lat="48.5433906833998" lon="3.2705191381915184"><ele>90.0</ele><time>2026-04-13T09:20:06Z</time></trkpt><trkpt lat="48.54341378984813" lon="3.270629234914634"><ele>89.28571428571428</ele><time>2026-04-13T09:20:07Z</time></trkpt><trkpt lat="48.54343719177368" lon="3.2707431413005916"><ele>88.57142857142858</ele><time>2026-04-13T09:20:08Z</time></trkpt><trkpt lat="48.54345660427559" lon="3.2708528380716957"><ele>87.85714285714286</ele><time>2026-04-13T09:20:09Z</time></trkpt><trkpt lat="48.54347723423468" lon="3.270962653722503"><ele>87.14285714285714</ele><time>2026-04-13T09:20:10Z</time></trkpt><trkpt lat="48.54349082388572" lon="3.271071171386799"><ele>86.42857142857142</ele><time>2026-04-13T09:20:11Z</time></trkpt><trkpt lat="48.543503249792586" lon="3.271179319601542"><ele>85.71428571428572</ele><time>2026-04-13T09:20:12Z</time></trkpt><trkpt lat="48.543515161181524" lon="3.2712824936747498"><ele>85.0</ele><time>2026-04-13T09:20:13Z</time></trkpt><trkpt lat="48.54353830478368" lon="3.271386806736612"><ele>84.71428571428572</ele><time>2026-04-13T09:20:14Z</time></trkpt><trkpt lat="48.54355269589467" lon="3.2714913159783707"><ele>84.42857142857142</ele><time>2026-04-13T09:20:15Z</time></trkpt><trkpt lat="48.54356857195484" lon="3.2715971230259218"><ele>84.14285714285714</ele><time>2026-04-13T09:20:16Z</time></trkpt><trkpt lat="48.54358375625636" lon="3.2717004764773585"><ele>83.85714285714286</ele><time>2026-04-13T09:20:17Z</time></trkpt><trkpt lat="48.54360189039845" lon="3.2718020299856736"><ele>83.57142857142858</ele><time>2026-04-13T09:20:18Z</time></trkpt><trkpt lat="48.54362242700153" lon="3.271906611268942"><ele>83.28571428571428</ele><time>2026-04-13T09:20:19Z</time></trkpt><trkpt lat="48.54364510469196" lon="3.2720073703022696"><ele>83.0</ele><time>2026-04-13T09:20:20Z</time></trkpt><trkpt lat="48.543660717748395" lon="3.272110644186207"><ele>83.0</ele><time>2026-04-13T09:20:21Z</time></trkpt><trkpt lat="48.543677616279574" lon="3.272216565387619"><ele>83.0</ele><time>2026-04-13T09:20:22Z</time></trkpt><trkpt lat="48.54368762212203" lon="3.272320808012111"><ele>83.0</ele><time>2026-04-13T09:20:23Z</time></trkpt><trkpt lat="48.54370020026005" lon="3.2724211490191353"><ele>83.0</ele><time>2026-04-13T09:20:24Z</time></trkpt><trkpt lat="48.543719715955625" lon="3.272521971236959"><ele>83.0</ele><time>2026-04-13T09:20:25Z</time></trkpt><trkpt lat="48.54373961195937" lon="3.2726200100076572"><ele>83.0</ele><time>2026-04-13T09:20:26Z</time></trkpt><trkpt lat="48.54375512381071" lon="3.2727199372116944"><ele>83.0</ele><time>2026-04-13T09:20:27Z</time></trkpt><trkpt lat="48.54376824605761" lon="3.272817524720379"><ele>83.0</ele><time>2026-04-13T09:20:28Z</time></trkpt><trkpt lat="48.54378405170253" lon="3.272912345049458"><ele>83.0</ele><time>2026-04-13T09:20:29Z</time></trkpt><trkpt lat="48.54380554488805" lon="3.2730773768142623"><ele>83.0</ele><time>2026-04-13T09:20:31Z</time></trkpt><trkpt lat="48.54380215757375" lon="3.2732193223318946"><ele>83.0</ele><time>2026-04-13T09:20:33Z</time></trkpt><trkpt lat="48.543745805225385" lon="3.2733126986836365"><ele>83.0</ele><time>2026-04-13T09:20:35Z</time></trkpt><trkpt lat="48.54367285181367" lon="3.2733388712656963"><ele>83.0</ele><time>2026-04-13T09:20:37Z</time></trkpt><trkpt lat="48.54361799753945" lon="3.2734262340161075"><ele>83.0</ele><time>2026-04-13T09:20:40Z</time></trkpt><trkpt lat="48.54368887571399" lon="3.2734282698579644"><ele>83.0</ele><time>2026-04-13T09:20:43Z</time></trkpt><trkpt lat="48.5437116951808" lon="3.2733237460409774"><ele>83.0</ele><time>2026-04-13T09:20:46Z</time></trkpt><trkpt lat="48.54378738739573" lon="3.273339593430355"><ele>83.0</ele><time>2026-04-13T09:20:49Z</time></trkpt><trkpt lat="48.54383665782568" lon="3.2734373120194236"><ele>83.0</ele><time>2026-04-13T09:20:51Z</time></trkpt><trkpt lat="48.54387928589077" lon="3.2735609464950337"><ele>83.0</ele><time>2026-04-13T09:20:53Z</time></trkpt><trkpt lat="48.543899745791414" lon="3.2737218655984464"><ele>83.83333333333334</ele><time>2026-04-13T09:20:55Z</time></trkpt><trkpt lat="48.543923072452166" lon="3.27389862291657"><ele>84.66666666666667</ele><time>2026-04-13T09:20:57Z</time></trkpt><trkpt lat="48.54394846368038" lon="3.274085132881328"><ele>85.5</ele><time>2026-04-13T09:20:59Z</time></trkpt><trkpt lat="48.54396317747182" lon="3.2741793034765485"><ele>86.33333333333333</ele><time>2026-04-13T09:21:00Z</time></trkpt><trkpt lat="48.54397913128145" lon="3.2742739237949365"><ele>87.16666666666666</ele><time>2026-04-13T09:21:01Z</time></trkpt><trkpt lat="48.543991458413636" lon="3.2743706273081195"><ele>88.0</ele><time>2026-04-13T09:21:02Z</time></trkpt><trkpt lat="48.54402285002664" lon="3.274553203648108"><ele>88.2</ele><time>2026-04-13T09:21:04Z</time></trkpt><trkpt lat="48.54404870334055" lon="3.2747140278561497"><ele>88.4</ele><time>2026-04-13T09:21:06Z</time></trkpt><trkpt lat="48.54408075363907" lon="3.2748738056242925"><ele>88.60000000000001</ele><time>2026-04-13T09:21:08Z</time></trkpt><trkpt lat="48.544112293914544" lon="3.275031348606728"><ele>88.80000000000001</ele><time>2026-04-13T09:21:10Z</time></trkpt><trkpt lat="48.5441501165288" lon="3.2751957138077397"><ele>89.0</ele><time>2026-04-13T09:21:12Z</time></trkpt><trkpt lat="48.54416433819229" lon="3.2753470089084544"><ele>89.2</ele><time>2026-04-13T09:21:14Z</time></trkpt><trkpt lat="48.54418768823126" lon="3.2755010062537155"><ele>89.4</ele><time>2026-04-13T09:21:16Z</time></trkpt><trkpt lat="48.54421193836663" lon="3.2756490077569675"><ele>89.6</ele><time>2026-04-13T09:21:18Z</time></trkpt><trkpt lat="48.54423061785093" lon="3.275800541829219"><ele>89.8</ele><time>2026-04-13T09:21:20Z</time></trkpt><trkpt lat="48.54425331314808" lon="3.275941189966582"><ele>90.0</ele><time>2026-04-13T09:21:22Z</time></trkpt><trkpt lat="48.54427910848182" lon="3.276082001245724"><ele>90.0</ele><time>2026-04-13T09:21:24Z</time></trkpt><trkpt lat="48.544302439186175" lon="3.276228701536049"><ele>90.0</ele><time>2026-04-13T09:21:26Z</time></trkpt><trkpt lat="48.544330971167845" lon="3.276375319865094"><ele>90.0</ele><time>2026-04-13T09:21:28Z</time></trkpt><trkpt lat="48.54435007671232" lon="3.276516096659101"><ele>90.0</ele><time>2026-04-13T09:21:30Z</time></trkpt><trkpt lat="48.54437233582755" lon="3.276661044290381"><ele>90.0</ele><time>2026-04-13T09:21:32Z</time></trkpt><trkpt lat="48.544395566376004" lon="3.2768067662299663"><ele>89.8</ele><time>2026-04-13T09:21:34Z</time></trkpt><trkpt lat="48.544417322924836" lon="3.2769551255108578"><ele>89.6</ele><time>2026-04-13T09:21:36Z</time></trkpt><trkpt lat="48.54444473614866" lon="3.2771085090078733"><ele>89.4</ele><time>2026-04-13T09:21:38Z</time></trkpt><trkpt lat="48.54447747512132" lon="3.277262749728257"><ele>89.2</ele><time>2026-04-13T09:21:40Z</time></trkpt><trkpt lat="48.54451621773472" lon="3.27742091731686"><ele>89.0</ele><time>2026-04-13T09:21:42Z</time></trkpt><trkpt lat="48.54456881828087" lon="3.277563682404513"><ele>93.0</ele><time>2026-04-13T09:21:44Z</time></trkpt><trkpt lat="48.54462303290096" lon="3.2777097131159296"><ele>97.0</ele><time>2026-04-13T09:21:46Z</time></trkpt><trkpt lat="48.54470072094356" lon="3.2778383952902552"><ele>101.0</ele><time>2026-04-13T09:21:48Z</time></trkpt><trkpt lat="48.54477475862575" lon="3.2779700914306438"><ele>105.0</ele><time>2026-04-13T09:21:50Z</time></trkpt><trkpt lat="48.544860025664995" lon="3.2780968501283616"><ele>102.75</ele><time>2026-04-13T09:21:52Z</time></trkpt><trkpt lat="48.54495223113078" lon="3.278213197322705"><ele>100.5</ele><time>2026-04-13T09:21:54Z</time></trkpt><trkpt lat="48.545049376197895" lon="3.2783317829240657"><ele>98.25</ele><time>2026-04-13T09:21:56Z</time></trkpt><trkpt lat="48.545143688750564" lon="3.278454819703349"><ele>96.0</ele><time>2026-04-13T09:21:58Z</time></trkpt><trkpt lat="48.54524056609866" lon="3.278575391481278"><ele>96.0</ele><time>2026-04-13T09:22:00Z</time></trkpt><trkpt lat="48.54533355068343" lon="3.278690527502095"><ele>96.0</ele><time>2026-04-13T09:22:02Z</time></trkpt><trkpt lat="48.54542872286909" lon="3.2788061811307583"><ele>96.0</ele><time>2026-04-13T09:22:04Z</time></trkpt><trkpt lat="48.54552628797343" lon="3.2789216459143447"><ele>96.0</ele><time>2026-04-13T09:22:06Z</time></trkpt><trkpt lat="48.54562358829462" lon="3.279037530188799"><ele>96.6</ele><time>2026-04-13T09:22:08Z</time></trkpt><trkpt lat="48.54572202692472" lon="3.279158454728281"><ele>97.19999999999999</ele><time>2026-04-13T09:22:10Z</time></trkpt><trkpt lat="48.54582404211449" lon="3.279264533482246"><ele>97.80000000000001</ele><time>2026-04-13T09:22:12Z</time></trkpt><trkpt lat="48.54587345061415" lon="3.279323635014174"><ele>98.4</ele><time>2026-04-13T09:22:13Z</time></trkpt><trkpt lat="48.5459618757079" lon="3.27945696020016"><ele>99.0</ele><time>2026-04-13T09:22:15Z</time></trkpt><trkpt lat="48.54606277101333" lon="3.2795722919616117"><ele>99.0</ele><time>2026-04-13T09:22:17Z</time></trkpt><trkpt lat="48.54611627912461" lon="3.2796248484421056"><ele>99.0</ele><time>2026-04-13T09:22:18Z</time></trkpt><trkpt lat="48.54621343716658" lon="3.2797538538819127"><ele>99.0</ele><time>2026-04-13T09:22:20Z</time></trkpt><trkpt lat="48.54631488902688" lon="3.279874734402935"><ele>99.0</ele><time>2026-04-13T09:22:22Z</time></trkpt><trkpt lat="48.54636866769345" lon="3.2799361718076803"><ele>99.0</ele><time>2026-04-13T09:22:23Z</time></trkpt><trkpt lat="48.546461707347824" lon="3.2800551420538304"><ele>98.5</ele><time>2026-04-13T09:22:25Z</time></trkpt><trkpt lat="48.54656351230049" lon="3.280165198857736"><ele>98.0</ele><time>2026-04-13T09:22:27Z</time></trkpt><trkpt lat="48.5466156908323" lon="3.2802191167519075"><ele>97.5</ele><time>2026-04-13T09:22:28Z</time></trkpt><trkpt lat="48.546671214556454" lon="3.280283219773794"><ele>97.0</ele><time>2026-04-13T09:22:29Z</time></trkpt><trkpt lat="48.546724094167175" lon="3.2803549856508125"><ele>96.5</ele><time>2026-04-13T09:22:30Z</time></trkpt><trkpt lat="48.54678240702135" lon="3.2804323256938974"><ele>96.0</ele><time>2026-04-13T09:22:31Z</time></trkpt><trkpt lat="48.54683826730157" lon="3.280507187302642"><ele>96.0</ele><time>2026-04-13T09:22:32Z</time></trkpt><trkpt lat="48.5468991937174" lon="3.2805834204275315"><ele>96.0</ele><time>2026-04-13T09:22:33Z</time></trkpt><trkpt lat="48.54695793074094" lon="3.2806583732023746"><ele>96.0</ele><time>2026-04-13T09:22:34Z</time></trkpt><trkpt lat="48.54701887235254" lon="3.2807314315609344"><ele>96.0</ele><time>2026-04-13T09:22:35Z</time></trkpt><trkpt lat="48.54708201246443" lon="3.2808061404351947"><ele>96.0</ele><time>2026-04-13T09:22:36Z</time></trkpt><trkpt lat="48.547139880161794" lon="3.28087952126162"><ele>96.0</ele><time>2026-04-13T09:22:37Z</time></trkpt><trkpt lat="48.547198519289594" lon="3.280955573606221"><ele>95.14285714285714</ele><time>2026-04-13T09:22:38Z</time></trkpt><trkpt lat="48.54725510977023" lon="3.281024678401028"><ele>94.28571428571428</ele><time>2026-04-13T09:22:39Z</time></trkpt><trkpt lat="48.54731327011439" lon="3.28109420583993"><ele>93.42857142857142</ele><time>2026-04-13T09:22:40Z</time></trkpt><trkpt lat="48.54736957086697" lon="3.28116624246258"><ele>92.57142857142857</ele><time>2026-04-13T09:22:41Z</time></trkpt><trkpt lat="48.547426799236646" lon="3.2812360974908996"><ele>91.71428571428572</ele><time>2026-04-13T09:22:42Z</time></trkpt><trkpt lat="48.547483757274286" lon="3.2813042195940127"><ele>90.85714285714285</ele><time>2026-04-13T09:22:43Z</time></trkpt><trkpt lat="48.547535762775816" lon="3.2813695862934305"><ele>90.0</ele><time>2026-04-13T09:22:44Z</time></trkpt><trkpt lat="48.5475924474441" lon="3.281434154835342"><ele>89.5</ele><time>2026-04-13T09:22:45Z</time></trkpt><trkpt lat="48.54764776580162" lon="3.2814962184578262"><ele>89.0</ele><time>2026-04-13T09:22:46Z</time></trkpt><trkpt lat="48.547697508951934" lon="3.281565537522712"><ele>88.5</ele><time>2026-04-13T09:22:47Z</time></trkpt><trkpt lat="48.547746001873755" lon="3.281634195140715"><ele>88.0</ele><time>2026-04-13T09:22:48Z</time></trkpt><trkpt lat="48.547794818288324" lon="3.281699312752251"><ele>87.5</ele><time>2026-04-13T09:22:49Z</time></trkpt><trkpt lat="48.547886407422" lon="3.2818245618432935"><ele>87.0</ele><time>2026-04-13T09:22:51Z</time></trkpt><trkpt lat="48.54796722726178" lon="3.2819288478671065"><ele>87.5</ele><time>2026-04-13T09:22:53Z</time></trkpt><trkpt lat="48.548026077179095" lon="3.282006619150448"><ele>88.0</ele><time>2026-04-13T09:22:55Z</time></trkpt><trkpt lat="48.548074269655444" lon="3.282084197588819"><ele>88.5</ele><time>2026-04-13T09:23:42Z</time></trkpt><trkpt lat="48.54812328742236" lon="3.2821472148135657"><ele>89.0</ele><time>2026-04-13T09:23:45Z</time></trkpt><trkpt lat="48.548187718039436" lon="3.282236534756076"><ele>89.5</ele><time>2026-04-13T09:23:48Z</time></trkpt><trkpt lat="48.54824249133834" lon="3.2823217750606863"><ele>90.0</ele><time>2026-04-13T09:23:50Z</time></trkpt><trkpt lat="48.54826553927431" lon="3.2824536616061692"><ele>90.0</ele><time>2026-04-13T09:23:52Z</time></trkpt><trkpt lat="48.548220943082704" lon="3.2826184996800523"><ele>90.0</ele><time>2026-04-13T09:23:54Z</time></trkpt><trkpt lat="48.5481867830519" lon="3.2826987179214697"><ele>90.0</ele><time>2026-04-13T09:23:55Z</time></trkpt><trkpt lat="48.548152474140785" lon="3.282783112284869"><ele>90.0</ele><time>2026-04-13T09:23:56Z</time></trkpt><trkpt lat="48.54811564471337" lon="3.282873387037716"><ele>90.0</ele><time>2026-04-13T09:23:57Z</time></trkpt><trkpt lat="48.54807347438021" lon="3.2829664776694245"><ele>90.0</ele><time>2026-04-13T09:23:58Z</time></trkpt><trkpt lat="48.54802910869476" lon="3.2830610306717167"><ele>89.42857142857143</ele><time>2026-04-13T09:23:59Z</time></trkpt><trkpt lat="48.547982196770775" lon="3.283146339711236"><ele>88.85714285714286</ele><time>2026-04-13T09:24:00Z</time></trkpt><trkpt lat="48.54793511236889" lon="3.2832279800831685"><ele>88.28571428571429</ele><time>2026-04-13T09:24:01Z</time></trkpt><trkpt lat="48.54789090126974" lon="3.2833113168435175"><ele>87.71428571428572</ele><time>2026-04-13T09:24:02Z</time></trkpt><trkpt lat="48.54784591245648" lon="3.283393185722825"><ele>87.14285714285714</ele><time>2026-04-13T09:24:03Z</time></trkpt><trkpt lat="48.54780005976595" lon="3.283478561883813"><ele>86.57142857142858</ele><time>2026-04-13T09:24:04Z</time></trkpt><trkpt lat="48.54775657789962" lon="3.2835627110230945"><ele>86.0</ele><time>2026-04-13T09:24:05Z</time></trkpt><trkpt lat="48.54771255196244" lon="3.283646676586217"><ele>85.83333333333334</ele><time>2026-04-13T09:24:06Z</time></trkpt><trkpt lat="48.54766596649305" lon="3.2837372783379"><ele>85.66666666666667</ele><time>2026-04-13T09:24:07Z</time></trkpt><trkpt lat="48.547615839683885" lon="3.2838210956609215"><ele>85.5</ele><time>2026-04-13T09:24:08Z</time></trkpt><trkpt lat="48.54756752266545" lon="3.2839102436645726"><ele>85.33333333333333</ele><time>2026-04-13T09:24:09Z</time></trkpt><trkpt lat="48.54752072892712" lon="3.2840032391175815"><ele>85.16666666666666</ele><time>2026-04-13T09:24:10Z</time></trkpt><trkpt lat="48.54747367823204" lon="3.2841033923441723"><ele>85.0</ele><time>2026-04-13T09:24:11Z</time></trkpt><trkpt lat="48.54742450998754" lon="3.284199631611485"><ele>85.0</ele><time>2026-04-13T09:24:12Z</time></trkpt><trkpt lat="48.547375481222105" lon="3.284297295752138"><ele>85.0</ele><time>2026-04-13T09:24:13Z</time></trkpt><trkpt lat="48.547325498785845" lon="3.2843963712759554"><ele>85.0</ele><time>2026-04-13T09:24:14Z</time></trkpt><trkpt lat="48.54727343529509" lon="3.284494336596923"><ele>85.0</ele><time>2026-04-13T09:24:15Z</time></trkpt><trkpt lat="48.54722457337325" lon="3.2845925511980227"><ele>85.0</ele><time>2026-04-13T09:24:16Z</time></trkpt><trkpt lat="48.547174812718495" lon="3.28469084000307"><ele>85.0</ele><time>2026-04-13T09:24:17Z</time></trkpt><trkpt lat="48.54712524607473" lon="3.284786741802601"><ele>85.0</ele><time>2026-04-13T09:24:18Z</time></trkpt><trkpt lat="48.547074318029615" lon="3.2848861364512545"><ele>85.0</ele><time>2026-04-13T09:24:19Z</time></trkpt><trkpt lat="48.547025812553066" lon="3.2849808001154996"><ele>85.0</ele><time>2026-04-13T09:24:20Z</time></trkpt><trkpt lat="48.54697694575405" lon="3.2850829008609703"><ele>85.0</ele><time>2026-04-13T09:24:21Z</time></trkpt><trkpt lat="48.54692822624025" lon="3.2851799556311234"><ele>85.0</ele><time>2026-04-13T09:24:22Z</time></trkpt><trkpt lat="48.54687830860663" lon="3.285277783499581"><ele>85.0</ele><time>2026-04-13T09:24:23Z</time></trkpt><trkpt lat="48.54681699761918" lon="3.2853590119128806"><ele>85.16666666666666</ele><time>2026-04-13T09:24:24Z</time></trkpt><trkpt lat="48.546745828350545" lon="3.2854224053089385"><ele>85.33333333333333</ele><time>2026-04-13T09:24:25Z</time></trkpt><trkpt lat="48.546694457248684" lon="3.285517548876917"><ele>85.5</ele><time>2026-04-13T09:24:26Z</time></trkpt><trkpt lat="48.546665786554264" lon="3.2856383904863216"><ele>85.66666666666667</ele><time>2026-04-13T09:24:27Z</time></trkpt><trkpt lat="48.54663392196454" lon="3.2857594775723427"><ele>85.83333333333334</ele><time>2026-04-13T09:24:28Z</time></trkpt><trkpt lat="48.546584890729946" lon="3.2858630948167598"><ele>86.0</ele><time>2026-04-13T09:24:29Z</time></trkpt><trkpt lat="48.54652795623568" lon="3.2859586314291658"><ele>86.0</ele><time>2026-04-13T09:24:30Z</time></trkpt><trkpt lat="48.546475538169474" lon="3.286059530477837"><ele>86.0</ele><time>2026-04-13T09:24:31Z</time></trkpt><trkpt lat="48.54642287697925" lon="3.286162820406039"><ele>86.0</ele><time>2026-04-13T09:24:32Z</time></trkpt><trkpt lat="48.54636922648071" lon="3.286265463075369"><ele>86.0</ele><time>2026-04-13T09:24:33Z</time></trkpt><trkpt lat="48.54631727431858" lon="3.286369988509402"><ele>86.0</ele><time>2026-04-13T09:24:34Z</time></trkpt><trkpt lat="48.54626456477425" lon="3.2864748728283604"><ele>86.0</ele><time>2026-04-13T09:24:35Z</time></trkpt><trkpt lat="48.546214294849136" lon="3.2865779825971244"><ele>85.83333333333334</ele><time>2026-04-13T09:24:36Z</time></trkpt><trkpt lat="48.546162074617214" lon="3.2866797473892992"><ele>85.66666666666667</ele><time>2026-04-13T09:24:37Z</time></trkpt><trkpt lat="48.54611300203101" lon="3.2867848800572266"><ele>85.5</ele><time>2026-04-13T09:24:38Z</time></trkpt><trkpt lat="48.54606249491534" lon="3.2868884561151033"><ele>85.33333333333333</ele><time>2026-04-13T09:24:39Z</time></trkpt><trkpt lat="48.54601309471909" lon="3.2869920506751944"><ele>85.16666666666666</ele><time>2026-04-13T09:24:40Z</time></trkpt><trkpt lat="48.54596487783577" lon="3.287094381996025"><ele>85.0</ele><time>2026-04-13T09:24:41Z</time></trkpt><trkpt lat="48.545918440129434" lon="3.2871990337233945"><ele>84.83333333333333</ele><time>2026-04-13T09:24:42Z</time></trkpt><trkpt lat="48.54587111943513" lon="3.2872912535532905"><ele>84.66666666666666</ele><time>2026-04-13T09:24:43Z</time></trkpt><trkpt lat="48.545819063479804" lon="3.28737942198979"><ele>84.5</ele><time>2026-04-13T09:24:44Z</time></trkpt><trkpt lat="48.54576779108616" lon="3.28746126098561"><ele>84.33333333333333</ele><time>2026-04-13T09:24:45Z</time></trkpt><trkpt lat="48.54569078439802" lon="3.287567240403277"><ele>84.16666666666667</ele><time>2026-04-13T09:24:47Z</time></trkpt><trkpt lat="48.54562366168647" lon="3.287656036625995"><ele>84.0</ele><time>2026-04-13T09:24:49Z</time></trkpt><trkpt lat="48.54555337929291" lon="3.287757823834085"><ele>84.0</ele><time>2026-04-13T09:24:51Z</time></trkpt><trkpt lat="48.54548386271738" lon="3.2878134736992464"><ele>84.0</ele><time>2026-04-13T09:24:53Z</time></trkpt><trkpt lat="48.5454166019537" lon="3.287898817222025"><ele>84.0</ele><time>2026-04-13T09:24:55Z</time></trkpt><trkpt lat="48.5453428630368" lon="3.288003060763504"><ele>84.0</ele><time>2026-04-13T09:24:57Z</time></trkpt><trkpt lat="48.54525878746214" lon="3.288104402186529"><ele>84.0</ele><time>2026-04-13T09:24:59Z</time></trkpt><trkpt lat="48.54517453695325" lon="3.288208589692415"><ele>84.4</ele><time>2026-04-13T09:25:01Z</time></trkpt><trkpt lat="48.54510184321411" lon="3.288329112011324"><ele>84.80000000000001</ele><time>2026-04-13T09:25:03Z</time></trkpt><trkpt lat="48.54500852088546" lon="3.2884209874419517"><ele>85.19999999999999</ele><time>2026-04-13T09:25:05Z</time></trkpt><trkpt lat="48.544917513408954" lon="3.288538220251113"><ele>85.6</ele><time>2026-04-13T09:25:07Z</time></trkpt><trkpt lat="48.54483754043551" lon="3.2886372804904984"><ele>86.0</ele><time>2026-04-13T09:25:09Z</time></trkpt><trkpt lat="48.54474294182682" lon="3.2887191331002272"><ele>86.0</ele><time>2026-04-13T09:25:11Z</time></trkpt><trkpt lat="48.54463289721229" lon="3.2887034842459584"><ele>86.0</ele><time>2026-04-13T09:25:13Z</time></trkpt><trkpt lat="48.54456013175208" lon="3.288699243919214"><ele>86.0</ele><time>2026-04-13T09:25:15Z</time></trkpt><trkpt lat="48.54448995946764" lon="3.288767668990167"><ele>86.0</ele><time>2026-04-13T09:25:18Z</time></trkpt><trkpt lat="48.54444349388049" lon="3.288835246899042"><ele>86.0</ele><time>2026-04-13T09:25:20Z</time></trkpt><trkpt lat="48.54441130289773" lon="3.2889328215886184"><ele>86.0</ele><time>2026-04-13T09:25:22Z</time></trkpt><trkpt lat="48.544395041548725" lon="3.289026861577822"><ele>86.16666666666667</ele><time>2026-04-13T09:25:24Z</time></trkpt><trkpt lat="48.54440763826176" lon="3.289137016363647"><ele>86.33333333333334</ele><time>2026-04-13T09:25:26Z</time></trkpt><trkpt lat="48.54443465072692" lon="3.289225087015088"><ele>86.5</ele><time>2026-04-13T09:25:28Z</time></trkpt><trkpt lat="48.544485069057096" lon="3.2893033041595467"><ele>86.66666666666667</ele><time>2026-04-13T09:25:30Z</time></trkpt><trkpt lat="48.544542101818195" lon="3.2893712107014963"><ele>86.83333333333333</ele><time>2026-04-13T09:25:32Z</time></trkpt><trkpt lat="48.54462070647414" lon="3.289403199121476"><ele>87.0</ele><time>2026-04-13T09:25:34Z</time></trkpt><trkpt lat="48.54471052327825" lon="3.2894349475666966"><ele>87.0</ele><time>2026-04-13T09:25:36Z</time></trkpt><trkpt lat="48.54479756303724" lon="3.2895214223166453"><ele>87.0</ele><time>2026-04-13T09:25:38Z</time></trkpt><trkpt lat="48.544887134630706" lon="3.289629841006558"><ele>87.0</ele><time>2026-04-13T09:25:40Z</time></trkpt><trkpt lat="48.544983442577355" lon="3.289734116942507"><ele>87.0</ele><time>2026-04-13T09:25:42Z</time></trkpt><trkpt lat="48.54506322510886" lon="3.289868682192668"><ele>87.5</ele><time>2026-04-13T09:25:44Z</time></trkpt><trkpt lat="48.54513575485286" lon="3.29001005348775"><ele>88.0</ele><time>2026-04-13T09:25:46Z</time></trkpt><trkpt lat="48.545222400259235" lon="3.2901325039350358"><ele>88.5</ele><time>2026-04-13T09:25:48Z</time></trkpt><trkpt lat="48.545307797824655" lon="3.290266044459746"><ele>89.0</ele><time>2026-04-13T09:25:50Z</time></trkpt><trkpt lat="48.545389341112575" lon="3.290395316350882"><ele>89.0</ele><time>2026-04-13T09:25:52Z</time></trkpt><trkpt lat="48.545465725205915" lon="3.2905350744078747"><ele>89.0</ele><time>2026-04-13T09:25:54Z</time></trkpt><trkpt lat="48.545550410158775" lon="3.2906572025089225"><ele>89.0</ele><time>2026-04-13T09:25:56Z</time></trkpt><trkpt lat="48.54563300282957" lon="3.2907854163404795"><ele>89.0</ele><time>2026-04-13T09:25:58Z</time></trkpt><trkpt lat="48.5457162601448" lon="3.2909127431805896"><ele>89.0</ele><time>2026-04-13T09:26:00Z</time></trkpt><trkpt lat="48.54579265595383" lon="3.2910467610969136"><ele>89.0</ele><time>2026-04-13T09:26:02Z</time></trkpt><trkpt lat="48.54587537663573" lon="3.2911720364798644"><ele>89.0</ele><time>2026-04-13T09:26:04Z</time></trkpt><trkpt lat="48.54597375985469" lon="3.2912821316562777"><ele>89.0</ele><time>2026-04-13T09:26:06Z</time></trkpt><trkpt lat="48.546078852506724" lon="3.291374236607968"><ele>88.99999999999999</ele><time>2026-04-13T09:26:08Z</time></trkpt><trkpt lat="48.54613394591882" lon="3.291422920384211"><ele>89.0</ele><time>2026-04-13T09:26:09Z</time></trkpt><trkpt lat="48.5461907087456" lon="3.291466385382968"><ele>89.0</ele><time>2026-04-13T09:26:10Z</time></trkpt><trkpt lat="48.546248090855734" lon="3.291511645297672"><ele>89.0</ele><time>2026-04-13T09:26:11Z</time></trkpt><trkpt lat="48.54630502368084" lon="3.2915611763256463"><ele>89.0</ele><time>2026-04-13T09:26:12Z</time></trkpt><trkpt lat="48.54636278147695" lon="3.2916091862910983"><ele>88.99999999999999</ele><time>2026-04-13T09:26:13Z</time></trkpt><trkpt lat="48.54641794487405" lon="3.2916588622935405"><ele>89.0</ele><time>2026-04-13T09:26:14Z</time></trkpt><trkpt lat="48.54647557965933" lon="3.291706710043719"><ele>89.14285714285714</ele><time>2026-04-13T09:26:15Z</time></trkpt><trkpt lat="48.54653565738948" lon="3.2917536160075054"><ele>89.28571428571428</ele><time>2026-04-13T09:26:16Z</time></trkpt><trkpt lat="48.5465944128224" lon="3.2918043917468887"><ele>89.42857142857142</ele><time>2026-04-13T09:26:17Z</time></trkpt><trkpt lat="48.54665695775117" lon="3.291852345802905"><ele>89.57142857142857</ele><time>2026-04-13T09:26:18Z</time></trkpt><trkpt lat="48.54671247124885" lon="3.291903892123103"><ele>89.71428571428572</ele><time>2026-04-13T09:26:19Z</time></trkpt><trkpt lat="48.54677272138794" lon="3.291950918860904"><ele>89.85714285714285</ele><time>2026-04-13T09:26:20Z</time></trkpt><trkpt lat="48.546831885998955" lon="3.292001633184902"><ele>90.0</ele><time>2026-04-13T09:26:21Z</time></trkpt><trkpt lat="48.54689198046239" lon="3.292050267772114"><ele>90.0</ele><time>2026-04-13T09:26:22Z</time></trkpt><trkpt lat="48.5469534898464" lon="3.2920962855745586"><ele>90.0</ele><time>2026-04-13T09:26:23Z</time></trkpt><trkpt lat="48.54701366278604" lon="3.292146211978311"><ele>90.0</ele><time>2026-04-13T09:26:24Z</time></trkpt><trkpt lat="48.547070997631685" lon="3.292202321889026"><ele>90.0</ele><time>2026-04-13T09:26:25Z</time></trkpt><trkpt lat="48.54712674181487" lon="3.292255360027259"><ele>90.0</ele><time>2026-04-13T09:26:26Z</time></trkpt><trkpt lat="48.54718269446518" lon="3.2923020400359406"><ele>90.0</ele><time>2026-04-13T09:26:27Z</time></trkpt><trkpt lat="48.54723672192768" lon="3.2923538570517437"><ele>90.0</ele><time>2026-04-13T09:26:28Z</time></trkpt><trkpt lat="48.547332122135266" lon="3.292467153751179"><ele>89.6</ele><time>2026-04-13T09:26:30Z</time></trkpt><trkpt lat="48.54743343223241" lon="3.292554276642408"><ele>89.2</ele><time>2026-04-13T09:26:32Z</time></trkpt><trkpt lat="48.54753150083485" lon="3.2926418096279013"><ele>88.80000000000001</ele><time>2026-04-13T09:26:34Z</time></trkpt><trkpt lat="48.54761796162979" lon="3.2927139961993293"><ele>88.4</ele><time>2026-04-13T09:26:36Z</time></trkpt><trkpt lat="48.54767969881455" lon="3.292774427913014"><ele>88.0</ele><time>2026-04-13T09:26:39Z</time></trkpt><trkpt lat="48.54771805160487" lon="3.292868518089369"><ele>88.0</ele><time>2026-04-13T09:26:53Z</time></trkpt><trkpt lat="48.5477280106693" lon="3.2929890845172"><ele>88.0</ele><time>2026-04-13T09:26:56Z</time></trkpt><trkpt lat="48.54775330242531" lon="3.2930934730701433"><ele>88.0</ele><time>2026-04-13T09:26:58Z</time></trkpt><trkpt lat="48.547804374553294" lon="3.2931880142970718"><ele>88.0</ele><time>2026-04-13T09:27:00Z</time></trkpt><trkpt lat="48.54788478968253" lon="3.293235519633889"><ele>88.0</ele><time>2026-04-13T09:27:02Z</time></trkpt><trkpt lat="48.547975893115876" lon="3.293207971236399"><ele>88.0</ele><time>2026-04-13T09:27:04Z</time></trkpt><trkpt lat="48.548063279103474" lon="3.2931555607932257"><ele>88.0</ele><time>2026-04-13T09:27:06Z</time></trkpt><trkpt lat="48.54816257387807" lon="3.293144159799526"><ele>88.0</ele><time>2026-04-13T09:27:08Z</time></trkpt><trkpt lat="48.54825904938022" lon="3.2932263036423066"><ele>88.0</ele><time>2026-04-13T09:27:10Z</time></trkpt><trkpt lat="48.54835133184689" lon="3.293314379054929"><ele>88.0</ele><time>2026-04-13T09:27:12Z</time></trkpt><trkpt lat="48.548448686567916" lon="3.2933918363506614"><ele>88.0</ele><time>2026-04-13T09:27:14Z</time></trkpt><trkpt lat="48.548552293089934" lon="3.293481169691321"><ele>88.0</ele><time>2026-04-13T09:27:16Z</time></trkpt><trkpt lat="48.54865777239556" lon="3.293571927982207"><ele>88.0</ele><time>2026-04-13T09:27:18Z</time></trkpt><trkpt lat="48.54871485303551" lon="3.2936132304658896"><ele>88.0</ele><time>2026-04-13T09:27:19Z</time></trkpt><trkpt lat="48.548769824404935" lon="3.2936608001576504"><ele>88.0</ele><time>2026-04-13T09:27:20Z</time></trkpt><trkpt lat="48.54887882654036" lon="3.2937573245626073"><ele>88.0</ele><time>2026-04-13T09:27:22Z</time></trkpt><trkpt lat="48.548983913165465" lon="3.293840764347496"><ele>88.16666666666666</ele><time>2026-04-13T09:27:24Z</time></trkpt><trkpt lat="48.54909051371092" lon="3.2939355554000924"><ele>88.33333333333333</ele><time>2026-04-13T09:27:26Z</time></trkpt><trkpt lat="48.54914628334453" lon="3.293981482694213"><ele>88.5</ele><time>2026-04-13T09:27:27Z</time></trkpt><trkpt lat="48.54920241866361" lon="3.2940281695599927"><ele>88.66666666666667</ele><time>2026-04-13T09:27:28Z</time></trkpt><trkpt lat="48.549260977168515" lon="3.294077679477621"><ele>88.83333333333334</ele><time>2026-04-13T09:27:29Z</time></trkpt><trkpt lat="48.549319047971316" lon="3.2941277647505145"><ele>89.0</ele><time>2026-04-13T09:27:30Z</time></trkpt><trkpt lat="48.5493792185458" lon="3.2941756273040133"><ele>88.99999999999999</ele><time>2026-04-13T09:27:31Z</time></trkpt><trkpt lat="48.549442330014166" lon="3.2942255243935086"><ele>89.0</ele><time>2026-04-13T09:27:32Z</time></trkpt><trkpt lat="48.54950132980711" lon="3.294275022390167"><ele>89.0</ele><time>2026-04-13T09:27:33Z</time></trkpt><trkpt lat="48.549564744760666" lon="3.2943303956292884"><ele>89.0</ele><time>2026-04-13T09:27:34Z</time></trkpt><trkpt lat="48.549626895429434" lon="3.294383731132996"><ele>89.0</ele><time>2026-04-13T09:27:35Z</time></trkpt><trkpt lat="48.54969208340472" lon="3.29444388334983"><ele>88.99999999999999</ele><time>2026-04-13T09:27:36Z</time></trkpt><trkpt lat="48.54975944192461" lon="3.2945007023544575"><ele>89.0</ele><time>2026-04-13T09:27:37Z</time></trkpt><trkpt lat="48.54982766131654" lon="3.294557249660174"><ele>89.0</ele><time>2026-04-13T09:27:38Z</time></trkpt><trkpt lat="48.5498971061757" lon="3.294615015463418"><ele>89.0</ele><time>2026-04-13T09:27:39Z</time></trkpt><trkpt lat="48.54996745438921" lon="3.294673661964172"><ele>89.0</ele><time>2026-04-13T09:27:40Z</time></trkpt><trkpt lat="48.550038734177036" lon="3.294735508928235"><ele>89.0</ele><time>2026-04-13T09:27:41Z</time></trkpt><trkpt lat="48.55010939003936" lon="3.2947958706802267"><ele>89.0</ele><time>2026-04-13T09:27:42Z</time></trkpt><trkpt lat="48.550183141106004" lon="3.2948579721688027"><ele>89.0</ele><time>2026-04-13T09:27:43Z</time></trkpt><trkpt lat="48.55025813892426" lon="3.2949195719005906"><ele>89.0</ele><time>2026-04-13T09:27:44Z</time></trkpt><trkpt lat="48.55033256003809" lon="3.294979480405465"><ele>89.0</ele><time>2026-04-13T09:27:45Z</time></trkpt><trkpt lat="48.550407856853255" lon="3.295046094225886"><ele>89.0</ele><time>2026-04-13T09:27:46Z</time></trkpt><trkpt lat="48.5504816430193" lon="3.2951132835359376"><ele>89.0</ele><time>2026-04-13T09:27:47Z</time></trkpt><trkpt lat="48.55055646845122" lon="3.2951767886154006"><ele>89.0</ele><time>2026-04-13T09:27:48Z</time></trkpt><trkpt lat="48.5506295319025" lon="3.295238019041545"><ele>89.0</ele><time>2026-04-13T09:27:49Z</time></trkpt><trkpt lat="48.55070261010151" lon="3.2953008591508537"><ele>88.83333333333334</ele><time>2026-04-13T09:27:50Z</time></trkpt><trkpt lat="48.55077611402296" lon="3.295365505137385"><ele>88.66666666666667</ele><time>2026-04-13T09:27:51Z</time></trkpt><trkpt lat="48.550851262386686" lon="3.2954225484964534"><ele>88.5</ele><time>2026-04-13T09:27:52Z</time></trkpt><trkpt lat="48.550927495953566" lon="3.2954869520668004"><ele>88.33333333333333</ele><time>2026-04-13T09:27:53Z</time></trkpt><trkpt lat="48.551001292071064" lon="3.29554901236943"><ele>88.16666666666666</ele><time>2026-04-13T09:27:54Z</time></trkpt><trkpt lat="48.55107456437655" lon="3.2956091787086135"><ele>88.0</ele><time>2026-04-13T09:27:55Z</time></trkpt><trkpt lat="48.55114845969794" lon="3.295673512335711"><ele>88.0</ele><time>2026-04-13T09:27:56Z</time></trkpt><trkpt lat="48.5512230036053" lon="3.295739479644484"><ele>88.0</ele><time>2026-04-13T09:27:57Z</time></trkpt><trkpt lat="48.55128608264136" lon="3.2958216862509357"><ele>88.0</ele><time>2026-04-13T09:27:58Z</time></trkpt><trkpt lat="48.551347880829944" lon="3.2959120009243574"><ele>88.0</ele><time>2026-04-13T09:27:59Z</time></trkpt><trkpt lat="48.55140639227518" lon="3.2960037770484445"><ele>88.0</ele><time>2026-04-13T09:28:00Z</time></trkpt><trkpt lat="48.55145684084111" lon="3.296104074708959"><ele>88.0</ele><time>2026-04-13T09:28:01Z</time></trkpt><trkpt lat="48.55150324711333" lon="3.2962143806257584"><ele>88.0</ele><time>2026-04-13T09:28:02Z</time></trkpt><trkpt lat="48.551547584125636" lon="3.2963226482421284"><ele>88.0</ele><time>2026-04-13T09:28:03Z</time></trkpt><trkpt lat="48.5515955053465" lon="3.2964289941446188"><ele>88.0</ele><time>2026-04-13T09:28:04Z</time></trkpt><trkpt lat="48.55164250814746" lon="3.296537517353065"><ele>88.0</ele><time>2026-04-13T09:28:05Z</time></trkpt><trkpt lat="48.551684528277676" lon="3.296646176771716"><ele>88.0</ele><time>2026-04-13T09:28:06Z</time></trkpt><trkpt lat="48.551727226358935" lon="3.2967528799823373"><ele>88.0</ele><time>2026-04-13T09:28:07Z</time></trkpt><trkpt lat="48.551772025710775" lon="3.2968585278790457"><ele>88.0</ele><time>2026-04-13T09:28:08Z</time></trkpt><trkpt lat="48.55181718800942" lon="3.2969585659876395"><ele>88.0</ele><time>2026-04-13T09:28:09Z</time></trkpt><trkpt lat="48.55186629988776" lon="3.2970550437513406"><ele>88.0</ele><time>2026-04-13T09:28:10Z</time></trkpt><trkpt lat="48.55190812264442" lon="3.2971530762407246"><ele>88.0</ele><time>2026-04-13T09:28:11Z</time></trkpt><trkpt lat="48.5519433501245" lon="3.2972643373058825"><ele>88.0</ele><time>2026-04-13T09:28:12Z</time></trkpt><trkpt lat="48.551980647454876" lon="3.297365489671187"><ele>88.0</ele><time>2026-04-13T09:28:13Z</time></trkpt><trkpt lat="48.55202427951473" lon="3.297459840054838"><ele>88.14285714285714</ele><time>2026-04-13T09:28:14Z</time></trkpt><trkpt lat="48.55206345584019" lon="3.29755013762841"><ele>88.28571428571428</ele><time>2026-04-13T09:28:15Z</time></trkpt><trkpt lat="48.552099115670146" lon="3.297639060528171"><ele>88.42857142857142</ele><time>2026-04-13T09:28:16Z</time></trkpt><trkpt lat="48.552136363549465" lon="3.297724052663888"><ele>88.57142857142857</ele><time>2026-04-13T09:28:17Z</time></trkpt><trkpt lat="48.5521758491132" lon="3.2978091003670125"><ele>88.71428571428571</ele><time>2026-04-13T09:28:18Z</time></trkpt><trkpt lat="48.55221263361021" lon="3.297891573147753"><ele>88.85714285714285</ele><time>2026-04-13T09:28:19Z</time></trkpt><trkpt lat="48.552246089020464" lon="3.2979762391730127"><ele>89.0</ele><time>2026-04-13T09:28:20Z</time></trkpt><trkpt lat="48.552325807070744" lon="3.2981252330566777"><ele>89.0</ele><time>2026-04-13T09:28:22Z</time></trkpt><trkpt lat="48.55241218736423" lon="3.2982534825443652"><ele>89.0</ele><time>2026-04-13T09:28:24Z</time></trkpt><trkpt lat="48.55248399585189" lon="3.2983661844381147"><ele>89.0</ele><time>2026-04-13T09:28:26Z</time></trkpt><trkpt lat="48.55253586607198" lon="3.2985049128325494"><ele>89.0</ele><time>2026-04-13T09:28:28Z</time></trkpt><trkpt lat="48.55253101352116" lon="3.2986575877784583"><ele>89.0</ele><time>2026-04-13T09:28:30Z</time></trkpt><trkpt lat="48.55260802755224" lon="3.2987507532191733"><ele>89.0</ele><time>2026-04-13T09:28:32Z</time></trkpt><trkpt lat="48.552718389688216" lon="3.2987470183900087"><ele>89.0</ele><time>2026-04-13T09:28:34Z</time></trkpt><trkpt lat="48.552827408267476" lon="3.2987818498045667"><ele>89.0</ele><time>2026-04-13T09:28:36Z</time></trkpt><trkpt lat="48.55291575974883" lon="3.2989060953027627"><ele>89.0</ele><time>2026-04-13T09:28:38Z</time></trkpt><trkpt lat="48.553018666666794" lon="3.2990099250908713"><ele>89.0</ele><time>2026-04-13T09:28:40Z</time></trkpt><trkpt lat="48.55307338105163" lon="3.299057665160754"><ele>89.0</ele><time>2026-04-13T09:28:41Z</time></trkpt><trkpt lat="48.5531318536779" lon="3.29909502617384"><ele>89.0</ele><time>2026-04-13T09:28:42Z</time></trkpt><trkpt lat="48.55324758158977" lon="3.2991747536567133"><ele>89.0</ele><time>2026-04-13T09:28:44Z</time></trkpt><trkpt lat="48.55330729366317" lon="3.2992150507556404"><ele>89.0</ele><time>2026-04-13T09:28:45Z</time></trkpt><trkpt lat="48.553366781386316" lon="3.299257065936377"><ele>89.0</ele><time>2026-04-13T09:28:46Z</time></trkpt><trkpt lat="48.55343271651555" lon="3.2992780004464377"><ele>88.99999999999999</ele><time>2026-04-13T09:28:47Z</time></trkpt><trkpt lat="48.55349256670429" lon="3.299320047547548"><ele>89.0</ele><time>2026-04-13T09:28:48Z</time></trkpt><trkpt lat="48.553554344957206" lon="3.299367750231426"><ele>89.0</ele><time>2026-04-13T09:28:49Z</time></trkpt><trkpt lat="48.55360388364666" lon="3.299432499569749"><ele>89.0</ele><time>2026-04-13T09:28:50Z</time></trkpt><trkpt lat="48.55366090973834" lon="3.299485011874817"><ele>89.0</ele><time>2026-04-13T09:28:51Z</time></trkpt><trkpt lat="48.55371674848154" lon="3.299536668180659"><ele>88.99999999999999</ele><time>2026-04-13T09:28:52Z</time></trkpt><trkpt lat="48.55377244390328" lon="3.2995944353970774"><ele>89.0</ele><time>2026-04-13T09:28:53Z</time></trkpt><trkpt lat="48.5538261630317" lon="3.2996526171257052"><ele>88.85714285714285</ele><time>2026-04-13T09:28:54Z</time></trkpt><trkpt lat="48.55387798203932" lon="3.2997148198800215"><ele>88.71428571428571</ele><time>2026-04-13T09:28:55Z</time></trkpt><trkpt lat="48.55392970050799" lon="3.2997803414901274"><ele>88.57142857142857</ele><time>2026-04-13T09:28:56Z</time></trkpt><trkpt lat="48.5539795616536" lon="3.299847787710344"><ele>88.42857142857142</ele><time>2026-04-13T09:28:57Z</time></trkpt><trkpt lat="48.55402964398321" lon="3.299914381509327"><ele>88.28571428571428</ele><time>2026-04-13T09:28:58Z</time></trkpt><trkpt lat="48.55408306136304" lon="3.299979235931831"><ele>88.14285714285714</ele><time>2026-04-13T09:28:59Z</time></trkpt><trkpt lat="48.55413288053688" lon="3.300044165107279"><ele>88.0</ele><time>2026-04-13T09:29:00Z</time></trkpt><trkpt lat="48.55418306991107" lon="3.3001082323526143"><ele>88.0</ele><time>2026-04-13T09:29:01Z</time></trkpt><trkpt lat="48.55423405115714" lon="3.3001730080849674"><ele>88.0</ele><time>2026-04-13T09:29:02Z</time></trkpt><trkpt lat="48.55428378701314" lon="3.3002383455791557"><ele>88.0</ele><time>2026-04-13T09:29:03Z</time></trkpt><trkpt lat="48.5543363244409" lon="3.300300325542091"><ele>88.0</ele><time>2026-04-13T09:29:04Z</time></trkpt><trkpt lat="48.554388414032935" lon="3.300361922793385"><ele>88.0</ele><time>2026-04-13T09:29:05Z</time></trkpt><trkpt lat="48.554491469171815" lon="3.300472216474321"><ele>88.0</ele><time>2026-04-13T09:29:07Z</time></trkpt><trkpt lat="48.55453835535292" lon="3.30054077673375"><ele>88.0</ele><time>2026-04-13T09:29:08Z</time></trkpt><trkpt lat="48.55462870767576" lon="3.30067051326216"><ele>88.0</ele><time>2026-04-13T09:29:10Z</time></trkpt><trkpt lat="48.55467641049164" lon="3.3007373865975067"><ele>88.0</ele><time>2026-04-13T09:29:11Z</time></trkpt><trkpt lat="48.55474775308824" lon="3.300897218211364"><ele>88.0</ele><time>2026-04-13T09:29:13Z</time></trkpt><trkpt lat="48.55477119469399" lon="3.300988511475223"><ele>88.0</ele><time>2026-04-13T09:29:14Z</time></trkpt><trkpt lat="48.55478843925915" lon="3.3010801510417984"><ele>88.0</ele><time>2026-04-13T09:29:15Z</time></trkpt><trkpt lat="48.55480501880818" lon="3.3011722988663625"><ele>88.0</ele><time>2026-04-13T09:29:16Z</time></trkpt><trkpt lat="48.5548406805389" lon="3.3013480206754484"><ele>88.0</ele><time>2026-04-13T09:29:18Z</time></trkpt><trkpt lat="48.55487107324274" lon="3.3015173976937136"><ele>88.0</ele><time>2026-04-13T09:29:20Z</time></trkpt><trkpt lat="48.55490618188548" lon="3.301686761669658"><ele>88.0</ele><time>2026-04-13T09:29:22Z</time></trkpt><trkpt lat="48.55493836273578" lon="3.3018576724825572"><ele>88.0</ele><time>2026-04-13T09:29:24Z</time></trkpt><trkpt lat="48.55497507379319" lon="3.302026824566459"><ele>88.0</ele><time>2026-04-13T09:29:26Z</time></trkpt><trkpt lat="48.55500633381752" lon="3.3021912162579072"><ele>88.0</ele><time>2026-04-13T09:29:28Z</time></trkpt><trkpt lat="48.555034535908746" lon="3.30235476879338"><ele>88.0</ele><time>2026-04-13T09:29:30Z</time></trkpt><trkpt lat="48.55506304795663" lon="3.302514322222655"><ele>88.75</ele><time>2026-04-13T09:29:32Z</time></trkpt><trkpt lat="48.55509058200892" lon="3.302689317263896"><ele>89.5</ele><time>2026-04-13T09:29:34Z</time></trkpt><trkpt lat="48.55512145038348" lon="3.3028657435450084"><ele>90.25</ele><time>2026-04-13T09:29:36Z</time></trkpt><trkpt lat="48.555161162368826" lon="3.3030216112586563"><ele>91.0</ele><time>2026-04-13T09:29:38Z</time></trkpt><trkpt lat="48.55518060136873" lon="3.3031822727869615"><ele>91.0</ele><time>2026-04-13T09:29:40Z</time></trkpt><trkpt lat="48.55521947801504" lon="3.303326237359202"><ele>91.0</ele><time>2026-04-13T09:29:42Z</time></trkpt><trkpt lat="48.555281649692766" lon="3.303446148980408"><ele>91.0</ele><time>2026-04-13T09:29:44Z</time></trkpt><trkpt lat="48.55533396991108" lon="3.3035658887970465"><ele>91.0</ele><time>2026-04-13T09:29:46Z</time></trkpt><trkpt lat="48.5553865286282" lon="3.303680302270327"><ele>91.0</ele><time>2026-04-13T09:29:48Z</time></trkpt><trkpt lat="48.55541811198186" lon="3.3038093805330138"><ele>91.4</ele><time>2026-04-13T09:29:50Z</time></trkpt><trkpt lat="48.55543489917677" lon="3.303943557889597"><ele>91.8</ele><time>2026-04-13T09:29:52Z</time></trkpt><trkpt lat="48.55549619572944" lon="3.304048202044353"><ele>92.2</ele><time>2026-04-13T09:29:54Z</time></trkpt><trkpt lat="48.55560159202519" lon="3.3040628576693023"><ele>92.60000000000001</ele><time>2026-04-13T09:29:56Z</time></trkpt><trkpt lat="48.555683522524596" lon="3.304074025691209"><ele>93.0</ele><time>2026-04-13T09:29:58Z</time></trkpt><trkpt lat="48.55576500397685" lon="3.304078997715145"><ele>93.0</ele><time>2026-04-13T09:30:00Z</time></trkpt><trkpt lat="48.55582579961127" lon="3.304052145830302"><ele>93.0</ele><time>2026-04-13T09:30:02Z</time></trkpt><trkpt lat="48.55590757702042" lon="3.304027495670396"><ele>93.0</ele><time>2026-04-13T09:30:04Z</time></trkpt><trkpt lat="48.55599844314587" lon="3.304005105109626"><ele>93.0</ele><time>2026-04-13T09:30:06Z</time></trkpt><trkpt lat="48.55608699756847" lon="3.303981865734436"><ele>93.0</ele><time>2026-04-13T09:30:08Z</time></trkpt><trkpt lat="48.55617530726293" lon="3.3039478160873825"><ele>93.0</ele><time>2026-04-13T09:30:10Z</time></trkpt><trkpt lat="48.5562633537375" lon="3.3039066846366443"><ele>92.5</ele><time>2026-04-13T09:30:12Z</time></trkpt><trkpt lat="48.556356553618215" lon="3.303865325453712"><ele>92.0</ele><time>2026-04-13T09:30:14Z</time></trkpt><trkpt lat="48.5564218961517" lon="3.30384209531008"><ele>91.5</ele><time>2026-04-13T09:30:16Z</time></trkpt><trkpt lat="48.55648902898714" lon="3.3038094998706242"><ele>91.0</ele><time>2026-04-13T09:30:20Z</time></trkpt><trkpt lat="48.55657447200818" lon="3.303745011730538"><ele>90.5</ele><time>2026-04-13T09:30:23Z</time></trkpt><trkpt lat="48.55664471621641" lon="3.3037094102062365"><ele>90.0</ele><time>2026-04-13T09:30:25Z</time></trkpt><trkpt lat="48.55671085341319" lon="3.303666297198539"><ele>90.0</ele><time>2026-04-13T09:30:27Z</time></trkpt><trkpt lat="48.5567837255098" lon="3.3036311882058644"><ele>90.0</ele><time>2026-04-13T09:30:29Z</time></trkpt><trkpt lat="48.55684371248761" lon="3.3035809014530084"><ele>90.0</ele><time>2026-04-13T09:30:31Z</time></trkpt><trkpt lat="48.556904462735275" lon="3.3034902934383354"><ele>90.0</ele><time>2026-04-13T09:30:33Z</time></trkpt><trkpt lat="48.55697407866994" lon="3.30340088274437"><ele>90.0</ele><time>2026-04-13T09:30:35Z</time></trkpt><trkpt lat="48.55704589901655" lon="3.3032946391568054"><ele>90.0</ele><time>2026-04-13T09:30:37Z</time></trkpt><trkpt lat="48.557119686113104" lon="3.3031862299983863"><ele>90.2</ele><time>2026-04-13T09:30:39Z</time></trkpt><trkpt lat="48.557194211031174" lon="3.303086018983971"><ele>90.4</ele><time>2026-04-13T09:30:41Z</time></trkpt><trkpt lat="48.5572747339503" lon="3.303001855458959"><ele>90.6</ele><time>2026-04-13T09:30:43Z</time></trkpt><trkpt lat="48.557367323289434" lon="3.302970281006269"><ele>90.8</ele><time>2026-04-13T09:30:45Z</time></trkpt><trkpt lat="48.55747662540205" lon="3.30301340929523"><ele>91.0</ele><time>2026-04-13T09:30:47Z</time></trkpt><trkpt lat="48.557581348636425" lon="3.303065369661623"><ele>91.0</ele><time>2026-04-13T09:30:49Z</time></trkpt><trkpt lat="48.55767868416166" lon="3.3031382514173817"><ele>91.0</ele><time>2026-04-13T09:30:51Z</time></trkpt><trkpt lat="48.557773535049186" lon="3.3031941748401685"><ele>91.0</ele><time>2026-04-13T09:30:53Z</time></trkpt><trkpt lat="48.55785028510863" lon="3.3032466299698986"><ele>91.0</ele><time>2026-04-13T09:30:55Z</time></trkpt><trkpt lat="48.557914562181644" lon="3.3032823159261264"><ele>91.0</ele><time>2026-04-13T09:30:57Z</time></trkpt><trkpt lat="48.557981181379574" lon="3.30334143333301"><ele>91.0</ele><time>2026-04-13T09:31:00Z</time></trkpt><trkpt lat="48.55805050206163" lon="3.3033904813604544"><ele>91.19999999999999</ele><time>2026-04-13T09:31:03Z</time></trkpt><trkpt lat="48.5581194084838" lon="3.303410086925042"><ele>91.39999999999999</ele><time>2026-04-13T09:31:05Z</time></trkpt><trkpt lat="48.55819793640362" lon="3.303330846932921"><ele>91.6</ele><time>2026-04-13T09:31:07Z</time></trkpt><trkpt lat="48.55825660107745" lon="3.3032011372887222"><ele>91.8</ele><time>2026-04-13T09:31:09Z</time></trkpt><trkpt lat="48.55830298623171" lon="3.303100648536767"><ele>92.0</ele><time>2026-04-13T09:31:11Z</time></trkpt><trkpt lat="48.55837626176218" lon="3.3029933416540986"><ele>92.0</ele><time>2026-04-13T09:31:14Z</time></trkpt><trkpt lat="48.55843699688915" lon="3.3029198748912507"><ele>92.0</ele><time>2026-04-13T09:31:16Z</time></trkpt><trkpt lat="48.55851600588597" lon="3.3028690896180826"><ele>92.0</ele><time>2026-04-13T09:31:18Z</time></trkpt><trkpt lat="48.55859370114845" lon="3.3027830491969454"><ele>92.0</ele><time>2026-04-13T09:31:20Z</time></trkpt><trkpt lat="48.558658837660076" lon="3.3026900809624293"><ele>92.0</ele><time>2026-04-13T09:31:22Z</time></trkpt><trkpt lat="48.55872098641896" lon="3.30261321970268"><ele>92.0</ele><time>2026-04-13T09:31:24Z</time></trkpt><trkpt lat="48.55878751190652" lon="3.3025377913924605"><ele>91.85714285714286</ele><time>2026-04-13T09:31:26Z</time></trkpt><trkpt lat="48.55884724571984" lon="3.3024730087224103"><ele>91.71428571428571</ele><time>2026-04-13T09:31:28Z</time></trkpt><trkpt lat="48.558899886647154" lon="3.3024034007385463"><ele>91.57142857142857</ele><time>2026-04-13T09:31:30Z</time></trkpt><trkpt lat="48.55895633008291" lon="3.302349724219948"><ele>91.42857142857143</ele><time>2026-04-13T09:31:32Z</time></trkpt><trkpt lat="48.55902220096674" lon="3.3023208333954774"><ele>91.28571428571428</ele><time>2026-04-13T09:31:34Z</time></trkpt><trkpt lat="48.55909934015229" lon="3.3022968963956276"><ele>91.14285714285714</ele><time>2026-04-13T09:31:37Z</time></trkpt><trkpt lat="48.559163184810295" lon="3.302295507529479"><ele>91.0</ele><time>2026-04-13T09:31:42Z</time></trkpt><trkpt lat="48.5592483874533" lon="3.302279831280198"><ele>91.0</ele><time>2026-04-13T09:31:45Z</time></trkpt><trkpt lat="48.55932409430289" lon="3.302259880208766"><ele>91.0</ele><time>2026-04-13T09:31:47Z</time></trkpt><trkpt lat="48.55941343733423" lon="3.302237928124295"><ele>91.0</ele><time>2026-04-13T09:31:49Z</time></trkpt><trkpt lat="48.55950749203124" lon="3.302221332134681"><ele>91.0</ele><time>2026-04-13T09:31:51Z</time></trkpt><trkpt lat="48.55960410677783" lon="3.302236706528571"><ele>91.0</ele><time>2026-04-13T09:31:53Z</time></trkpt><trkpt lat="48.55969716762703" lon="3.302200011409211"><ele>91.19999999999999</ele><time>2026-04-13T09:31:55Z</time></trkpt><trkpt lat="48.55979679419054" lon="3.3021848674504297"><ele>91.39999999999999</ele><time>2026-04-13T09:31:57Z</time></trkpt><trkpt lat="48.55988790275156" lon="3.3021616147802892"><ele>91.6</ele><time>2026-04-13T09:31:59Z</time></trkpt><trkpt lat="48.5599832636424" lon="3.302139201883562"><ele>91.8</ele><time>2026-04-13T09:32:01Z</time></trkpt><trkpt lat="48.56007611344803" lon="3.30213322288108"><ele>92.0</ele><time>2026-04-13T09:32:03Z</time></trkpt><trkpt lat="48.56017055218183" lon="3.302111276002789"><ele>92.0</ele><time>2026-04-13T09:32:05Z</time></trkpt><trkpt lat="48.560275070918564" lon="3.3020923612246276"><ele>92.0</ele><time>2026-04-13T09:32:07Z</time></trkpt><trkpt lat="48.560375442022156" lon="3.3020787060930648"><ele>92.0</ele><time>2026-04-13T09:32:09Z</time></trkpt><trkpt lat="48.56045745543693" lon="3.302056804755024"><ele>92.0</ele><time>2026-04-13T09:32:11Z</time></trkpt><trkpt lat="48.56052778692761" lon="3.3020500207284584"><ele>92.0</ele><time>2026-04-13T09:32:13Z</time></trkpt><trkpt lat="48.56060964219819" lon="3.302126092355919"><ele>92.0</ele><time>2026-04-13T09:32:16Z</time></trkpt><trkpt lat="48.56063381582739" lon="3.302242809832684"><ele>92.0</ele><time>2026-04-13T09:32:19Z</time></trkpt><trkpt lat="48.56063690349134" lon="3.302354807493719"><ele>92.0</ele><time>2026-04-13T09:32:21Z</time></trkpt><trkpt lat="48.560662778451494" lon="3.302459285803408"><ele>92.0</ele><time>2026-04-13T09:32:23Z</time></trkpt><trkpt lat="48.56066597220374" lon="3.3025549385133393"><ele>92.0</ele><time>2026-04-13T09:32:25Z</time></trkpt><trkpt lat="48.560623917944596" lon="3.3026414357983023"><ele>92.0</ele><time>2026-04-13T09:32:27Z</time></trkpt><trkpt lat="48.56056184859141" lon="3.302711356114072"><ele>92.0</ele><time>2026-04-13T09:32:29Z</time></trkpt><trkpt lat="48.56048215644887" lon="3.3027294375257576"><ele>92.0</ele><time>2026-04-13T09:32:31Z</time></trkpt><trkpt lat="48.56041390141111" lon="3.302711686977926"><ele>92.0</ele><time>2026-04-13T09:32:33Z</time></trkpt><trkpt lat="48.56033265810854" lon="3.3027026521940344"><ele>92.0</ele><time>2026-04-13T09:32:38Z</time></trkpt><trkpt lat="48.56026599937651" lon="3.302714225221287"><ele>92.0</ele><time>2026-04-13T09:32:43Z</time></trkpt><trkpt lat="48.560202362099034" lon="3.3027143525551392"><ele>92.0</ele><time>2026-04-13T09:32:46Z</time></trkpt><trkpt lat="48.560131782306996" lon="3.302701632143017"><ele>92.0</ele><time>2026-04-13T09:32:48Z</time></trkpt><trkpt lat="48.56006738467133" lon="3.3027748382852224"><ele>92.0</ele><time>2026-04-13T09:32:50Z</time></trkpt><trkpt lat="48.56004544502397" lon="3.3029020522182266"><ele>92.0</ele><time>2026-04-13T09:32:52Z</time></trkpt><trkpt lat="48.56006287027756" lon="3.3030530491869294"><ele>92.0</ele><time>2026-04-13T09:32:54Z</time></trkpt><trkpt lat="48.560075413924814" lon="3.303203472653737"><ele>92.0</ele><time>2026-04-13T09:32:56Z</time></trkpt><trkpt lat="48.56009105672657" lon="3.303351189715371"><ele>92.0</ele><time>2026-04-13T09:32:58Z</time></trkpt><trkpt lat="48.56009625168743" lon="3.303504478052036"><ele>92.0</ele><time>2026-04-13T09:33:00Z</time></trkpt><trkpt lat="48.560093535933866" lon="3.303668444838121"><ele>92.0</ele><time>2026-04-13T09:33:02Z</time></trkpt><trkpt lat="48.5600916330937" lon="3.303806884932628"><ele>92.0</ele><time>2026-04-13T09:33:04Z</time></trkpt><trkpt lat="48.560091125761865" lon="3.3039194154033154"><ele>92.0</ele><time>2026-04-13T09:33:07Z</time></trkpt><trkpt lat="48.560111950459486" lon="3.3040091946916217"><ele>92.0</ele><time>2026-04-13T09:33:09Z</time></trkpt><trkpt lat="48.56019267147541" lon="3.3040140022954443"><ele>92.0</ele><time>2026-04-13T09:33:11Z</time></trkpt><trkpt lat="48.56028946853295" lon="3.3040131233889936"><ele>92.0</ele><time>2026-04-13T09:33:13Z</time></trkpt><trkpt lat="48.56039917715906" lon="3.30401151066189"><ele>92.19999999999999</ele><time>2026-04-13T09:33:15Z</time></trkpt><trkpt lat="48.56050893372292" lon="3.3040007538091083"><ele>92.4</ele><time>2026-04-13T09:33:17Z</time></trkpt><trkpt lat="48.56062227837559" lon="3.304005230410733"><ele>92.6</ele><time>2026-04-13T09:33:19Z</time></trkpt><trkpt lat="48.56073231217463" lon="3.3039864291981718"><ele>92.80000000000001</ele><time>2026-04-13T09:33:21Z</time></trkpt><trkpt lat="48.56080831189423" lon="3.3038849078735852"><ele>93.0</ele><time>2026-04-13T09:33:23Z</time></trkpt><trkpt lat="48.560794350258924" lon="3.3037133735021396"><ele>93.16666666666667</ele><time>2026-04-13T09:33:25Z</time></trkpt><trkpt lat="48.56080658730764" lon="3.303569288090906"><ele>93.33333333333333</ele><time>2026-04-13T09:33:27Z</time></trkpt><trkpt lat="48.56083120552747" lon="3.303439654935475"><ele>93.5</ele><time>2026-04-13T09:33:29Z</time></trkpt><trkpt lat="48.56088678323484" lon="3.3033884588712907"><ele>93.66666666666666</ele><time>2026-04-13T09:33:32Z</time></trkpt><trkpt lat="48.560932247859405" lon="3.3033115643503397"><ele>93.83333333333333</ele><time>2026-04-13T09:33:43Z</time></trkpt><trkpt lat="48.560916158636715" lon="3.3032141682529694"><ele>94.0</ele><time>2026-04-13T09:33:45Z</time></trkpt><trkpt lat="48.560882156128464" lon="3.3030917305539687"><ele>93.6</ele><time>2026-04-13T09:33:47Z</time></trkpt><trkpt lat="48.56085964756733" lon="3.3029455997189885"><ele>93.2</ele><time>2026-04-13T09:33:49Z</time></trkpt><trkpt lat="48.560831283172554" lon="3.3027957614591545"><ele>92.8</ele><time>2026-04-13T09:33:51Z</time></trkpt><trkpt lat="48.56079230850487" lon="3.302668606133603"><ele>92.39999999999999</ele><time>2026-04-13T09:33:53Z</time></trkpt><trkpt lat="48.56075435034181" lon="3.3025426443476147"><ele>92.0</ele><time>2026-04-13T09:33:55Z</time></trkpt><trkpt lat="48.56071775054169" lon="3.3024164028865646"><ele>92.0</ele><time>2026-04-13T09:33:57Z</time></trkpt><trkpt lat="48.56070345485204" lon="3.302271169594406"><ele>92.0</ele><time>2026-04-13T09:33:59Z</time></trkpt><trkpt lat="48.56068213896785" lon="3.3021232352356225"><ele>92.0</ele><time>2026-04-13T09:34:01Z</time></trkpt><trkpt lat="48.560694904799035" lon="3.30198722786988"><ele>92.0</ele><time>2026-04-13T09:34:03Z</time></trkpt><trkpt lat="48.560627925568085" lon="3.301889318459255"><ele>92.0</ele><time>2026-04-13T09:34:05Z</time></trkpt><trkpt lat="48.56060308983203" lon="3.301756018145045"><ele>91.83333333333334</ele><time>2026-04-13T09:34:07Z</time></trkpt><trkpt lat="48.56060145644142" lon="3.3016302096260763"><ele>91.66666666666667</ele><time>2026-04-13T09:34:11Z</time></trkpt><trkpt lat="48.56057825595308" lon="3.3015397119357335"><ele>91.5</ele><time>2026-04-13T09:34:19Z</time></trkpt><trkpt lat="48.56055261755963" lon="3.301404362483129"><ele>91.33333333333333</ele><time>2026-04-13T09:34:22Z</time></trkpt><trkpt lat="48.56052729014778" lon="3.30128045741542"><ele>91.16666666666666</ele><time>2026-04-13T09:34:24Z</time></trkpt><trkpt lat="48.560524428828685" lon="3.3011274669886994"><ele>91.0</ele><time>2026-04-13T09:34:26Z</time></trkpt><trkpt lat="48.56050949716311" lon="3.3009861196336336"><ele>91.0</ele><time>2026-04-13T09:34:28Z</time></trkpt><trkpt lat="48.560506190860146" lon="3.300858397133005"><ele>91.0</ele><time>2026-04-13T09:34:30Z</time></trkpt><trkpt lat="48.56050986658279" lon="3.300727690874525"><ele>91.0</ele><time>2026-04-13T09:34:32Z</time></trkpt><trkpt lat="48.56050509235251" lon="3.3006047595311423"><ele>91.0</ele><time>2026-04-13T09:34:34Z</time></trkpt><trkpt lat="48.56049732269824" lon="3.3004742628722146"><ele>91.0</ele><time>2026-04-13T09:34:36Z</time></trkpt><trkpt lat="48.560491350175774" lon="3.3003312990787133"><ele>91.0</ele><time>2026-04-13T09:34:38Z</time></trkpt><trkpt lat="48.56049135402838" lon="3.3001924929674895"><ele>91.16666666666666</ele><time>2026-04-13T09:34:40Z</time></trkpt><trkpt lat="48.56048866932262" lon="3.3000628999483235"><ele>91.33333333333333</ele><time>2026-04-13T09:34:42Z</time></trkpt><trkpt lat="48.56048268061369" lon="3.2999452480418294"><ele>91.5</ele><time>2026-04-13T09:34:44Z</time></trkpt><trkpt lat="48.56048910130214" lon="3.299834672119699"><ele>91.66666666666667</ele><time>2026-04-13T09:34:46Z</time></trkpt><trkpt lat="48.560491816272304" lon="3.2997173590855358"><ele>91.83333333333334</ele><time>2026-04-13T09:34:48Z</time></trkpt><trkpt lat="48.56049200696497" lon="3.2996122226467928"><ele>92.0</ele><time>2026-04-13T09:34:50Z</time></trkpt><trkpt lat="48.56055220455462" lon="3.2995338668685537"><ele>92.0</ele><time>2026-04-13T09:34:53Z</time></trkpt><trkpt lat="48.56063617381374" lon="3.2995445250379802"><ele>92.0</ele><time>2026-04-13T09:34:55Z</time></trkpt><trkpt lat="48.56073221119424" lon="3.2995500267011875"><ele>92.0</ele><time>2026-04-13T09:34:57Z</time></trkpt><trkpt lat="48.56082523416622" lon="3.2995680085895045"><ele>92.0</ele><time>2026-04-13T09:34:59Z</time></trkpt><trkpt lat="48.560914013460106" lon="3.2995910731014284"><ele>92.0</ele><time>2026-04-13T09:35:01Z</time></trkpt><trkpt lat="48.56100226869253" lon="3.299613269160562"><ele>92.0</ele><time>2026-04-13T09:35:03Z</time></trkpt><trkpt lat="48.56108675771535" lon="3.299631898042696"><ele>92.0</ele><time>2026-04-13T09:35:05Z</time></trkpt><trkpt lat="48.56115963845533" lon="3.299647636051389"><ele>92.0</ele><time>2026-04-13T09:35:07Z</time></trkpt><trkpt lat="48.56124036605342" lon="3.2996138960404866"><ele>92.0</ele><time>2026-04-13T09:35:09Z</time></trkpt><trkpt lat="48.56127060272107" lon="3.299482093588575"><ele>92.0</ele><time>2026-04-13T09:35:11Z</time></trkpt><trkpt lat="48.561282438967446" lon="3.299340219842312"><ele>92.0</ele><time>2026-04-13T09:35:13Z</time></trkpt><trkpt lat="48.56130850447237" lon="3.299194199844912"><ele>91.6</ele><time>2026-04-13T09:35:15Z</time></trkpt><trkpt lat="48.56133153279467" lon="3.299043536287486"><ele>91.19999999999999</ele><time>2026-04-13T09:35:17Z</time></trkpt><trkpt lat="48.561357978479215" lon="3.298891661246557"><ele>90.8</ele><time>2026-04-13T09:35:19Z</time></trkpt><trkpt lat="48.56137579499" lon="3.298737610958078"><ele>90.4</ele><time>2026-04-13T09:35:21Z</time></trkpt><trkpt lat="48.56138830498231" lon="3.29858407037736"><ele>90.0</ele><time>2026-04-13T09:35:23Z</time></trkpt><trkpt lat="48.56141495871002" lon="3.2984298232700597"><ele>89.83333333333333</ele><time>2026-04-13T09:35:25Z</time></trkpt><trkpt lat="48.56144128385718" lon="3.29827964827348"><ele>89.66666666666667</ele><time>2026-04-13T09:35:27Z</time></trkpt><trkpt lat="48.561464451976164" lon="3.2981589055601765"><ele>89.5</ele><time>2026-04-13T09:35:29Z</time></trkpt><trkpt lat="48.56148326386151" lon="3.2980442292162486"><ele>89.33333333333334</ele><time>2026-04-13T09:35:32Z</time></trkpt><trkpt lat="48.56151713006786" lon="3.297939768210488"><ele>89.16666666666667</ele><time>2026-04-13T09:35:35Z</time></trkpt><trkpt lat="48.56155250244319" lon="3.297844207334697"><ele>89.0</ele><time>2026-04-13T09:35:37Z</time></trkpt><trkpt lat="48.56157367495345" lon="3.297727144930762"><ele>89.0</ele><time>2026-04-13T09:35:39Z</time></trkpt><trkpt lat="48.56160985800363" lon="3.2976065227270657"><ele>89.0</ele><time>2026-04-13T09:35:41Z</time></trkpt><trkpt lat="48.56163926608517" lon="3.297474219677911"><ele>89.0</ele><time>2026-04-13T09:35:43Z</time></trkpt><trkpt lat="48.561664996973334" lon="3.2973313447710604"><ele>89.0</ele><time>2026-04-13T09:35:45Z</time></trkpt><trkpt lat="48.56168830134361" lon="3.2972030153319234"><ele>89.0</ele><time>2026-04-13T09:35:47Z</time></trkpt><trkpt lat="48.56172306288355" lon="3.297087900041384"><ele>89.14285714285714</ele><time>2026-04-13T09:35:49Z</time></trkpt><trkpt lat="48.56173531965255" lon="3.2969790012659814"><ele>89.28571428571428</ele><time>2026-04-13T09:35:51Z</time></trkpt><trkpt lat="48.561704388238766" lon="3.2968836674018838"><ele>89.42857142857142</ele><time>2026-04-13T09:35:53Z</time></trkpt><trkpt lat="48.561634559001114" lon="3.2968540688725687"><ele>89.57142857142857</ele><time>2026-04-13T09:35:55Z</time></trkpt><trkpt lat="48.56156544903612" lon="3.29684276645952"><ele>89.71428571428572</ele><time>2026-04-13T09:35:57Z</time></trkpt><trkpt lat="48.561500091686476" lon="3.296811143292548"><ele>89.85714285714285</ele><time>2026-04-13T09:35:59Z</time></trkpt><trkpt lat="48.56140825980742" lon="3.2967747793120745"><ele>90.0</ele><time>2026-04-13T09:36:02Z</time></trkpt><trkpt lat="48.5613432657613" lon="3.2967564080051557"><ele>90.0</ele><time>2026-04-13T09:36:04Z</time></trkpt><trkpt lat="48.56125555197434" lon="3.2967317450211997"><ele>90.0</ele><time>2026-04-13T09:36:07Z</time></trkpt><trkpt lat="48.561189626014944" lon="3.296713144112264"><ele>90.0</ele><time>2026-04-13T09:36:09Z</time></trkpt><trkpt lat="48.56110558908735" lon="3.2966753198068526"><ele>90.0</ele><time>2026-04-13T09:36:12Z</time></trkpt><trkpt lat="48.56104134206307" lon="3.2966580279204596"><ele>90.0</ele><time>2026-04-13T09:36:14Z</time></trkpt><trkpt lat="48.56097684924829" lon="3.2966156573736836"><ele>90.0</ele><time>2026-04-13T09:36:16Z</time></trkpt><trkpt lat="48.56088745593584" lon="3.2965859227822123"><ele>90.16666666666667</ele><time>2026-04-13T09:36:19Z</time></trkpt><trkpt lat="48.560809293525196" lon="3.2965462570324124"><ele>90.33333333333333</ele><time>2026-04-13T09:36:22Z</time></trkpt><trkpt lat="48.56079393556407" lon="3.2964412272850887"><ele>90.5</ele><time>2026-04-13T09:36:25Z</time></trkpt><trkpt lat="48.56083707949805" lon="3.296332876497288"><ele>90.66666666666666</ele><time>2026-04-13T09:36:29Z</time></trkpt><trkpt lat="48.560849417143785" lon="3.2962025528233836"><ele>90.83333333333333</ele><time>2026-04-13T09:36:32Z</time></trkpt><trkpt lat="48.560882699229296" lon="3.2960754943350707"><ele>91.0</ele><time>2026-04-13T09:36:35Z</time></trkpt><trkpt lat="48.56090252328835" lon="3.2959710830671747"><ele>91.33333333333333</ele><time>2026-04-13T09:36:39Z</time></trkpt><trkpt lat="48.56085352057891" lon="3.295902672510486"><ele>91.66666666666666</ele><time>2026-04-13T09:36:41Z</time></trkpt><trkpt lat="48.56077174794867" lon="3.2958446253840514"><ele>92.0</ele><time>2026-04-13T09:36:43Z</time></trkpt><trkpt lat="48.56068314671318" lon="3.2958002031093634"><ele>92.33333333333333</ele><time>2026-04-13T09:36:45Z</time></trkpt><trkpt lat="48.56059504354493" lon="3.2957468508125674"><ele>92.66666666666667</ele><time>2026-04-13T09:36:47Z</time></trkpt><trkpt lat="48.5605138174652" lon="3.295672938008777"><ele>93.0</ele><time>2026-04-13T09:36:49Z</time></trkpt><trkpt lat="48.56041762074133" lon="3.295615964964373"><ele>93.16666666666667</ele><time>2026-04-13T09:36:51Z</time></trkpt><trkpt lat="48.56032534935877" lon="3.2955512542251015"><ele>93.33333333333333</ele><time>2026-04-13T09:36:53Z</time></trkpt><trkpt lat="48.56023786945477" lon="3.295504655598013"><ele>93.5</ele><time>2026-04-13T09:36:55Z</time></trkpt><trkpt lat="48.56015359480235" lon="3.2954371937575435"><ele>93.66666666666666</ele><time>2026-04-13T09:36:57Z</time></trkpt><trkpt lat="48.56008371815685" lon="3.2953902543351945"><ele>93.83333333333333</ele><time>2026-04-13T09:36:59Z</time></trkpt><trkpt lat="48.5600212206132" lon="3.2953550131407616"><ele>94.0</ele><time>2026-04-13T09:37:01Z</time></trkpt><trkpt lat="48.559980015914235" lon="3.295282868309188"><ele>94.0</ele><time>2026-04-13T09:37:04Z</time></trkpt><trkpt lat="48.5599255423496" lon="3.295224931350756"><ele>94.0</ele><time>2026-04-13T09:37:08Z</time></trkpt><trkpt lat="48.55985827603866" lon="3.2951780140878024"><ele>94.0</ele><time>2026-04-13T09:37:10Z</time></trkpt><trkpt lat="48.559785149564476" lon="3.2951000435401725"><ele>94.0</ele><time>2026-04-13T09:37:12Z</time></trkpt><trkpt lat="48.55970673407583" lon="3.294999785074399"><ele>94.0</ele><time>2026-04-13T09:37:14Z</time></trkpt><trkpt lat="48.559628300108486" lon="3.294889534520965"><ele>94.0</ele><time>2026-04-13T09:37:16Z</time></trkpt><trkpt lat="48.55955042223287" lon="3.2947795626118945"><ele>93.83333333333333</ele><time>2026-04-13T09:37:18Z</time></trkpt><trkpt lat="48.55948779482414" lon="3.294684203194046"><ele>93.66666666666666</ele><time>2026-04-13T09:37:20Z</time></trkpt><trkpt lat="48.559436240498236" lon="3.2946042471663888"><ele>93.5</ele><time>2026-04-13T09:37:22Z</time></trkpt><trkpt lat="48.55937537664362" lon="3.2945160946509855"><ele>93.33333333333333</ele><time>2026-04-13T09:37:24Z</time></trkpt><trkpt lat="48.559314943848065" lon="3.2944140405761546"><ele>93.16666666666667</ele><time>2026-04-13T09:37:26Z</time></trkpt><trkpt lat="48.55925420535527" lon="3.2943199525461755"><ele>93.0</ele><time>2026-04-13T09:37:28Z</time></trkpt><trkpt lat="48.55920026260427" lon="3.294239070029638"><ele>93.0</ele><time>2026-04-13T09:37:30Z</time></trkpt><trkpt lat="48.55913839710746" lon="3.2941375936614867"><ele>93.0</ele><time>2026-04-13T09:37:32Z</time></trkpt><trkpt lat="48.55906610782269" lon="3.2940353302809076"><ele>93.0</ele><time>2026-04-13T09:37:34Z</time></trkpt><trkpt lat="48.55899339600448" lon="3.293912670850004"><ele>93.0</ele><time>2026-04-13T09:37:36Z</time></trkpt><trkpt lat="48.558928020157865" lon="3.293786712818896"><ele>93.0</ele><time>2026-04-13T09:37:38Z</time></trkpt><trkpt lat="48.5588968376479" lon="3.293632146083439"><ele>94.2</ele><time>2026-04-13T09:37:40Z</time></trkpt><trkpt lat="48.55888800387811" lon="3.2934698186581444"><ele>95.4</ele><time>2026-04-13T09:37:42Z</time></trkpt><trkpt lat="48.55887055029891" lon="3.2933106721238623"><ele>96.60000000000001</ele><time>2026-04-13T09:37:44Z</time></trkpt><trkpt lat="48.55885045730668" lon="3.2931508600813086"><ele>97.80000000000001</ele><time>2026-04-13T09:37:46Z</time></trkpt><trkpt lat="48.55882817915358" lon="3.2930011438885614"><ele>99.0</ele><time>2026-04-13T09:37:48Z</time></trkpt><trkpt lat="48.55880465797063" lon="3.2928443584711777"><ele>99.0</ele><time>2026-04-13T09:37:50Z</time></trkpt><trkpt lat="48.55878534840991" lon="3.2927014786225355"><ele>99.0</ele><time>2026-04-13T09:37:52Z</time></trkpt><trkpt lat="48.55879883220056" lon="3.2925603865595403"><ele>99.0</ele><time>2026-04-13T09:37:54Z</time></trkpt><trkpt lat="48.55882755933022" lon="3.2924177335425173"><ele>99.0</ele><time>2026-04-13T09:37:56Z</time></trkpt><trkpt lat="48.55886968001685" lon="3.2922857497551314"><ele>99.0</ele><time>2026-04-13T09:37:58Z</time></trkpt><trkpt lat="48.5589051139046" lon="3.292148171147469"><ele>99.0</ele><time>2026-04-13T09:38:00Z</time></trkpt><trkpt lat="48.558947622794385" lon="3.2920134292380507"><ele>99.0</ele><time>2026-04-13T09:38:02Z</time></trkpt><trkpt lat="48.558982682583235" lon="3.2918724313076684"><ele>99.0</ele><time>2026-04-13T09:38:04Z</time></trkpt><trkpt lat="48.55901833079239" lon="3.291732748445481"><ele>99.0</ele><time>2026-04-13T09:38:06Z</time></trkpt><trkpt lat="48.55905101487639" lon="3.2915882595443913"><ele>99.0</ele><time>2026-04-13T09:38:08Z</time></trkpt><trkpt lat="48.55908981132522" lon="3.291449477905312"><ele>98.66666666666667</ele><time>2026-04-13T09:38:10Z</time></trkpt><trkpt lat="48.559109261385935" lon="3.2913348005620615"><ele>98.33333333333334</ele><time>2026-04-13T09:38:12Z</time></trkpt><trkpt lat="48.55911267746987" lon="3.291210580990557"><ele>98.0</ele><time>2026-04-13T09:38:14Z</time></trkpt><trkpt lat="48.55911627343942" lon="3.2910718517991775"><ele>97.66666666666667</ele><time>2026-04-13T09:38:16Z</time></trkpt><trkpt lat="48.55910895666148" lon="3.2909340170518164"><ele>97.33333333333334</ele><time>2026-04-13T09:38:18Z</time></trkpt><trkpt lat="48.55911332684904" lon="3.290789536332186"><ele>97.0</ele><time>2026-04-13T09:38:20Z</time></trkpt><trkpt lat="48.559122711201056" lon="3.29063388449529"><ele>96.25</ele><time>2026-04-13T09:38:22Z</time></trkpt><trkpt lat="48.55913318924719" lon="3.2904704620678027"><ele>95.5</ele><time>2026-04-13T09:38:24Z</time></trkpt><trkpt lat="48.55913594707763" lon="3.2903014263704367"><ele>94.75</ele><time>2026-04-13T09:38:26Z</time></trkpt><trkpt lat="48.559138302707574" lon="3.2901271153401703"><ele>94.0</ele><time>2026-04-13T09:38:28Z</time></trkpt><trkpt lat="48.55914194522803" lon="3.2899514225872117"><ele>94.0</ele><time>2026-04-13T09:38:30Z</time></trkpt><trkpt lat="48.55914588308727" lon="3.2897830925116067"><ele>94.0</ele><time>2026-04-13T09:38:32Z</time></trkpt><trkpt lat="48.559143307138214" lon="3.28962839786532"><ele>94.0</ele><time>2026-04-13T09:38:34Z</time></trkpt><trkpt lat="48.559160763843785" lon="3.2894738680980424"><ele>94.0</ele><time>2026-04-13T09:38:36Z</time></trkpt><trkpt lat="48.55918233550149" lon="3.28932931304486"><ele>94.0</ele><time>2026-04-13T09:38:38Z</time></trkpt><trkpt lat="48.559187676715986" lon="3.2891887072918613"><ele>93.2</ele><time>2026-04-13T09:38:40Z</time></trkpt><trkpt lat="48.55919136863581" lon="3.289049681619953"><ele>92.4</ele><time>2026-04-13T09:38:42Z</time></trkpt><trkpt lat="48.55919279941493" lon="3.2889049384489217"><ele>91.6</ele><time>2026-04-13T09:38:44Z</time></trkpt><trkpt lat="48.5591931252028" lon="3.2887539741038316"><ele>90.8</ele><time>2026-04-13T09:38:46Z</time></trkpt><trkpt lat="48.55918924425835" lon="3.2886008137095786"><ele>90.0</ele><time>2026-04-13T09:38:48Z</time></trkpt><trkpt lat="48.55919780806372" lon="3.2884553716188027"><ele>90.0</ele><time>2026-04-13T09:38:50Z</time></trkpt><trkpt lat="48.55920934808921" lon="3.288306766776666"><ele>90.0</ele><time>2026-04-13T09:38:52Z</time></trkpt><trkpt lat="48.559214229386036" lon="3.288157260321328"><ele>90.0</ele><time>2026-04-13T09:38:54Z</time></trkpt><trkpt lat="48.559218124844335" lon="3.2880123237946814"><ele>90.0</ele><time>2026-04-13T09:38:56Z</time></trkpt><trkpt lat="48.55922853379369" lon="3.287869720960485"><ele>90.0</ele><time>2026-04-13T09:38:58Z</time></trkpt><trkpt lat="48.55924913918842" lon="3.287733008281402"><ele>90.6</ele><time>2026-04-13T09:39:00Z</time></trkpt><trkpt lat="48.55923949968189" lon="3.2875929162505706"><ele>91.2</ele><time>2026-04-13T09:39:02Z</time></trkpt><trkpt lat="48.55923906312789" lon="3.2874575254857445"><ele>91.80000000000001</ele><time>2026-04-13T09:39:04Z</time></trkpt><trkpt lat="48.55924252937881" lon="3.287316274695827"><ele>92.4</ele><time>2026-04-13T09:39:06Z</time></trkpt><trkpt lat="48.559251832093025" lon="3.2871726652018083"><ele>93.0</ele><time>2026-04-13T09:39:08Z</time></trkpt><trkpt lat="48.5592616108714" lon="3.2870254263713115"><ele>93.33333333333333</ele><time>2026-04-13T09:39:10Z</time></trkpt><trkpt lat="48.55926635762887" lon="3.286886664627428"><ele>93.66666666666667</ele><time>2026-04-13T09:39:12Z</time></trkpt><trkpt lat="48.55926369615235" lon="3.2867620152713726"><ele>94.0</ele><time>2026-04-13T09:39:14Z</time></trkpt><trkpt lat="48.559285105127046" lon="3.2866569659813183"><ele>94.33333333333334</ele><time>2026-04-13T09:39:16Z</time></trkpt><trkpt lat="48.55929501281117" lon="3.2865523176272724"><ele>94.66666666666667</ele><time>2026-04-13T09:39:18Z</time></trkpt><trkpt lat="48.559297865492894" lon="3.286438345562435"><ele>95.0</ele><time>2026-04-13T09:39:20Z</time></trkpt><trkpt lat="48.559302113850094" lon="3.2863198099529685"><ele>95.5</ele><time>2026-04-13T09:39:22Z</time></trkpt><trkpt lat="48.55929413177334" lon="3.2861887397662866"><ele>96.0</ele><time>2026-04-13T09:39:24Z</time></trkpt><trkpt lat="48.55929225013988" lon="3.2860534333687426"><ele>96.5</ele><time>2026-04-13T09:39:26Z</time></trkpt><trkpt lat="48.55929980660721" lon="3.285920512117197"><ele>97.0</ele><time>2026-04-13T09:39:28Z</time></trkpt><trkpt lat="48.55930282921189" lon="3.285794538768847"><ele>97.49999999999999</ele><time>2026-04-13T09:39:30Z</time></trkpt><trkpt lat="48.55930738189102" lon="3.2856785202517433"><ele>98.0</ele><time>2026-04-13T09:39:32Z</time></trkpt><trkpt lat="48.559312181048924" lon="3.2855699841866883"><ele>98.14285714285714</ele><time>2026-04-13T09:39:34Z</time></trkpt><trkpt lat="48.559315899192704" lon="3.2854681937339727"><ele>98.28571428571428</ele><time>2026-04-13T09:39:36Z</time></trkpt><trkpt lat="48.55931677312561" lon="3.28537030070954"><ele>98.42857142857143</ele><time>2026-04-13T09:39:38Z</time></trkpt><trkpt lat="48.55931896320027" lon="3.285274322875486"><ele>98.57142857142857</ele><time>2026-04-13T09:39:40Z</time></trkpt><trkpt lat="48.55932234119324" lon="3.2851716423926285"><ele>98.71428571428571</ele><time>2026-04-13T09:39:42Z</time></trkpt><trkpt lat="48.559321703713245" lon="3.2850662915393674"><ele>98.85714285714286</ele><time>2026-04-13T09:39:44Z</time></trkpt><trkpt lat="48.55932622576463" lon="3.284960563629734"><ele>99.0</ele><time>2026-04-13T09:39:46Z</time></trkpt><trkpt lat="48.559328003981825" lon="3.284853110377519"><ele>99.42857142857143</ele><time>2026-04-13T09:39:48Z</time></trkpt><trkpt lat="48.55933432407959" lon="3.2847470859761403"><ele>99.85714285714285</ele><time>2026-04-13T09:39:50Z</time></trkpt><trkpt lat="48.55933826668252" lon="3.2846408584399227"><ele>100.28571428571428</ele><time>2026-04-13T09:39:52Z</time></trkpt><trkpt lat="48.55934078693468" lon="3.2845383256321314"><ele>100.71428571428572</ele><time>2026-04-13T09:39:54Z</time></trkpt><trkpt lat="48.55934402384926" lon="3.2844277481948088"><ele>101.14285714285714</ele><time>2026-04-13T09:39:56Z</time></trkpt><trkpt lat="48.55934841455012" lon="3.2843166223181752"><ele>101.57142857142857</ele><time>2026-04-13T09:39:58Z</time></trkpt><trkpt lat="48.55935047474732" lon="3.2842070190029933"><ele>102.0</ele><time>2026-04-13T09:40:00Z</time></trkpt><trkpt lat="48.5593539217926" lon="3.2841017911569104"><ele>102.0</ele><time>2026-04-13T09:40:02Z</time></trkpt><trkpt lat="48.55935769922917" lon="3.283994710335101"><ele>102.0</ele><time>2026-04-13T09:40:04Z</time></trkpt><trkpt lat="48.5593580050122" lon="3.2838833235235576"><ele>102.0</ele><time>2026-04-13T09:40:06Z</time></trkpt><trkpt lat="48.559361037752026" lon="3.283776036045256"><ele>102.0</ele><time>2026-04-13T09:40:08Z</time></trkpt><trkpt lat="48.559365288120844" lon="3.2836622640770097"><ele>102.0</ele><time>2026-04-13T09:40:10Z</time></trkpt><trkpt lat="48.55936873007794" lon="3.2835513521842183"><ele>102.0</ele><time>2026-04-13T09:40:12Z</time></trkpt><trkpt lat="48.559372754446066" lon="3.2834425771684237"><ele>102.0</ele><time>2026-04-13T09:40:14Z</time></trkpt><trkpt lat="48.55937927607545" lon="3.2833354730329716"><ele>102.42857142857143</ele><time>2026-04-13T09:40:16Z</time></trkpt><trkpt lat="48.55937924880058" lon="3.283228932151835"><ele>102.85714285714286</ele><time>2026-04-13T09:40:18Z</time></trkpt><trkpt lat="48.55938141286342" lon="3.283124744552422"><ele>103.28571428571428</ele><time>2026-04-13T09:40:20Z</time></trkpt><trkpt lat="48.55938182306504" lon="3.2830236413257983"><ele>103.71428571428572</ele><time>2026-04-13T09:40:22Z</time></trkpt><trkpt lat="48.55938782423973" lon="3.282921920147959"><ele>104.14285714285714</ele><time>2026-04-13T09:40:24Z</time></trkpt><trkpt lat="48.559389091054165" lon="3.2828152612842714"><ele>104.57142857142857</ele><time>2026-04-13T09:40:26Z</time></trkpt><trkpt lat="48.55938998273723" lon="3.2827094845811478"><ele>105.0</ele><time>2026-04-13T09:40:28Z</time></trkpt><trkpt lat="48.55939557623077" lon="3.282568839926291"><ele>105.16666666666667</ele><time>2026-04-13T09:40:31Z</time></trkpt><trkpt lat="48.55939785594283" lon="3.2824370185174807"><ele>105.33333333333334</ele><time>2026-04-13T09:40:34Z</time></trkpt><trkpt lat="48.55940266782235" lon="3.2823034924474657"><ele>105.5</ele><time>2026-04-13T09:40:37Z</time></trkpt><trkpt lat="48.55940832466624" lon="3.282170406226749"><ele>105.66666666666667</ele><time>2026-04-13T09:40:40Z</time></trkpt><trkpt lat="48.55941266242693" lon="3.28203186950329"><ele>105.83333333333334</ele><time>2026-04-13T09:40:43Z</time></trkpt><trkpt lat="48.55942265001376" lon="3.2819327962825575"><ele>106.0</ele><time>2026-04-13T09:40:45Z</time></trkpt><trkpt lat="48.55942817057709" lon="3.2817944450550613"><ele>106.50000000000001</ele><time>2026-04-13T09:40:48Z</time></trkpt><trkpt lat="48.55943561239782" lon="3.281652680888986"><ele>107.0</ele><time>2026-04-13T09:40:51Z</time></trkpt><trkpt lat="48.559440406107974" lon="3.2815565061616505"><ele>107.5</ele><time>2026-04-13T09:40:53Z</time></trkpt><trkpt lat="48.559439012521885" lon="3.281418814304396"><ele>108.0</ele><time>2026-04-13T09:40:56Z</time></trkpt><trkpt lat="48.55944008544392" lon="3.2812892998415286"><ele>108.50000000000001</ele><time>2026-04-13T09:40:59Z</time></trkpt><trkpt lat="48.55944718282258" lon="3.281149235811964"><ele>109.0</ele><time>2026-04-13T09:41:02Z</time></trkpt><trkpt lat="48.55945159087218" lon="3.281010603600746"><ele>109.50000000000001</ele><time>2026-04-13T09:41:05Z</time></trkpt><trkpt lat="48.559443728167416" lon="3.2808856435373928"><ele>110.0</ele><time>2026-04-13T09:41:08Z</time></trkpt><trkpt lat="48.55944795002709" lon="3.280757828107925"><ele>110.5</ele><time>2026-04-13T09:41:11Z</time></trkpt><trkpt lat="48.55945453721055" lon="3.280622596834333"><ele>111.0</ele><time>2026-04-13T09:41:14Z</time></trkpt><trkpt lat="48.559459142614" lon="3.2804892732034547"><ele>111.50000000000001</ele><time>2026-04-13T09:41:17Z</time></trkpt><trkpt lat="48.559463120249696" lon="3.2803597517256344"><ele>112.0</ele><time>2026-04-13T09:41:20Z</time></trkpt><trkpt lat="48.55946948075936" lon="3.2802241918408277"><ele>112.6</ele><time>2026-04-13T09:41:23Z</time></trkpt><trkpt lat="48.55947158145268" lon="3.2800850694941355"><ele>113.19999999999999</ele><time>2026-04-13T09:41:26Z</time></trkpt><trkpt lat="48.55947853977713" lon="3.279945445622573"><ele>113.8</ele><time>2026-04-13T09:41:29Z</time></trkpt><trkpt lat="48.55947690191081" lon="3.2798089096407343"><ele>114.4</ele><time>2026-04-13T09:41:32Z</time></trkpt><trkpt lat="48.55948269548804" lon="3.279673675639074"><ele>115.0</ele><time>2026-04-13T09:41:35Z</time></trkpt><trkpt lat="48.55948737251171" lon="3.2795335226328537"><ele>115.33333333333334</ele><time>2026-04-13T09:41:38Z</time></trkpt><trkpt lat="48.559488358520184" lon="3.279392668051281"><ele>115.66666666666667</ele><time>2026-04-13T09:41:41Z</time></trkpt><trkpt lat="48.559492038276176" lon="3.2792528105491354"><ele>116.0</ele><time>2026-04-13T09:41:44Z</time></trkpt><trkpt lat="48.55949509023324" lon="3.279156095657363"><ele>116.33333333333334</ele><time>2026-04-13T09:41:46Z</time></trkpt><trkpt lat="48.559501334249646" lon="3.2790149778150486"><ele>116.66666666666667</ele><time>2026-04-13T09:41:49Z</time></trkpt><trkpt lat="48.559506441408196" lon="3.2789148044201544"><ele>117.0</ele><time>2026-04-13T09:41:51Z</time></trkpt><trkpt lat="48.559503863508894" lon="3.2788185981194027"><ele>117.66666666666667</ele><time>2026-04-13T09:41:53Z</time></trkpt><trkpt lat="48.559505072754675" lon="3.2787211510094614"><ele>118.33333333333334</ele><time>2026-04-13T09:41:55Z</time></trkpt><trkpt lat="48.55950799297969" lon="3.2785805942213266"><ele>119.0</ele><time>2026-04-13T09:41:58Z</time></trkpt><trkpt lat="48.559507330595686" lon="3.2784854090595585"><ele>119.66666666666667</ele><time>2026-04-13T09:42:00Z</time></trkpt><trkpt lat="48.55951265954389" lon="3.278345965253721"><ele>120.33333333333334</ele><time>2026-04-13T09:42:03Z</time></trkpt><trkpt lat="48.55951428253589" lon="3.2782075819254435"><ele>121.0</ele><time>2026-04-13T09:42:06Z</time></trkpt><trkpt lat="48.55951807337675" lon="3.2780667083475077"><ele>121.16666666666667</ele><time>2026-04-13T09:42:09Z</time></trkpt><trkpt lat="48.559521625545635" lon="3.277924516273873"><ele>121.33333333333334</ele><time>2026-04-13T09:42:12Z</time></trkpt><trkpt lat="48.55952629262894" lon="3.277785894718364"><ele>121.5</ele><time>2026-04-13T09:42:15Z</time></trkpt><trkpt lat="48.559532891442586" lon="3.277645850853884"><ele>121.66666666666666</ele><time>2026-04-13T09:42:18Z</time></trkpt><trkpt lat="48.559609064580776" lon="3.2776476584782763"><ele>121.83333333333333</ele><time>2026-04-13T09:42:21Z</time></trkpt><trkpt lat="48.55962579352718" lon="3.2777609842620796"><ele>122.0</ele><time>2026-04-13T09:42:23Z</time></trkpt><trkpt lat="48.55964802397584" lon="3.2778560625094144"><ele>122.16666666666666</ele><time>2026-04-13T09:42:25Z</time></trkpt><trkpt lat="48.55967482801618" lon="3.2779587071754595"><ele>122.33333333333333</ele><time>2026-04-13T09:42:27Z</time></trkpt><trkpt lat="48.559711215715026" lon="3.2780904331514304"><ele>122.5</ele><time>2026-04-13T09:42:30Z</time></trkpt><trkpt lat="48.55973865138455" lon="3.2781795999651178"><ele>122.66666666666666</ele><time>2026-04-13T09:42:32Z</time></trkpt><trkpt lat="48.55978093610233" lon="3.2783057366466037"><ele>122.83333333333333</ele><time>2026-04-13T09:42:35Z</time></trkpt><trkpt lat="48.55982005654271" lon="3.2784307906061128"><ele>123.0</ele><time>2026-04-13T09:42:38Z</time></trkpt><trkpt lat="48.55985399219452" lon="3.278553049450721"><ele>123.0</ele><time>2026-04-13T09:42:41Z</time></trkpt><trkpt lat="48.55986619881087" lon="3.2786571024910285"><ele>123.0</ele><time>2026-04-13T09:42:43Z</time></trkpt><trkpt lat="48.55988501056573" lon="3.2787845649975784"><ele>123.0</ele><time>2026-04-13T09:42:45Z</time></trkpt><trkpt lat="48.55990800401349" lon="3.2789139529113043"><ele>123.0</ele><time>2026-04-13T09:42:47Z</time></trkpt><trkpt lat="48.55993866321623" lon="3.279034540546912"><ele>123.0</ele><time>2026-04-13T09:42:49Z</time></trkpt><trkpt lat="48.55995506270716" lon="3.279150861091501"><ele>123.0</ele><time>2026-04-13T09:42:51Z</time></trkpt><trkpt lat="48.55996718898644" lon="3.2792691267484924"><ele>123.0</ele><time>2026-04-13T09:42:53Z</time></trkpt><trkpt lat="48.55999023971189" lon="3.2793837895871425"><ele>123.0</ele><time>2026-04-13T09:42:55Z</time></trkpt><trkpt lat="48.56000114854747" lon="3.2795008792370584"><ele>123.0</ele><time>2026-04-13T09:42:57Z</time></trkpt><trkpt lat="48.56001521475841" lon="3.279602680262536"><ele>123.0</ele><time>2026-04-13T09:42:59Z</time></trkpt><trkpt lat="48.56003546460051" lon="3.279715620961884"><ele>123.0</ele><time>2026-04-13T09:43:01Z</time></trkpt><trkpt lat="48.5600596113551" lon="3.279828659962065"><ele>123.0</ele><time>2026-04-13T09:43:03Z</time></trkpt><trkpt lat="48.56007930439385" lon="3.2799359277493565"><ele>122.85714285714288</ele><time>2026-04-13T09:43:05Z</time></trkpt><trkpt lat="48.560096772191386" lon="3.2800292653336593"><ele>122.71428571428572</ele><time>2026-04-13T09:43:07Z</time></trkpt><trkpt lat="48.56012796173183" lon="3.2801295130549146"><ele>122.57142857142857</ele><time>2026-04-13T09:43:09Z</time></trkpt><trkpt lat="48.5601624447178" lon="3.280230842703144"><ele>122.42857142857143</ele><time>2026-04-13T09:43:11Z</time></trkpt><trkpt lat="48.56019668098926" lon="3.2803303225266895"><ele>122.28571428571428</ele><time>2026-04-13T09:43:13Z</time></trkpt><trkpt lat="48.56024424135649" lon="3.280424489615463"><ele>122.14285714285712</ele><time>2026-04-13T09:43:15Z</time></trkpt><trkpt lat="48.56028531272964" lon="3.2805168407412717"><ele>121.99999999999999</ele><time>2026-04-13T09:43:17Z</time></trkpt><trkpt lat="48.5603227102779" lon="3.2806074475358216"><ele>121.83333333333333</ele><time>2026-04-13T09:43:19Z</time></trkpt><trkpt lat="48.560366167166904" lon="3.2806962577209178"><ele>121.66666666666666</ele><time>2026-04-13T09:43:21Z</time></trkpt><trkpt lat="48.560403783100405" lon="3.2807754714169235"><ele>121.5</ele><time>2026-04-13T09:43:23Z</time></trkpt><trkpt lat="48.560457381289886" lon="3.28089033621432"><ele>121.33333333333334</ele><time>2026-04-13T09:43:26Z</time></trkpt><trkpt lat="48.56049953989379" lon="3.2809684305927456"><ele>121.16666666666667</ele><time>2026-04-13T09:43:28Z</time></trkpt><trkpt lat="48.56056809764794" lon="3.281065065078157"><ele>121.0</ele><time>2026-04-13T09:43:31Z</time></trkpt><trkpt lat="48.56060935376604" lon="3.2811447262300337"><ele>122.0</ele><time>2026-04-13T09:43:33Z</time></trkpt><trkpt lat="48.56065849156217" lon="3.2812229817522707"><ele>122.99999999999999</ele><time>2026-04-13T09:43:35Z</time></trkpt><trkpt lat="48.56072187648227" lon="3.281329584613136"><ele>124.0</ele><time>2026-04-13T09:43:38Z</time></trkpt><trkpt lat="48.56076954983359" lon="3.281400239688061"><ele>125.0</ele><time>2026-04-13T09:43:40Z</time></trkpt><trkpt lat="48.56081827701396" lon="3.28147775861577"><ele>125.99999999999999</ele><time>2026-04-13T09:43:42Z</time></trkpt><trkpt lat="48.56087192228965" lon="3.2815487959538236"><ele>127.0</ele><time>2026-04-13T09:43:44Z</time></trkpt><trkpt lat="48.56091477103846" lon="3.28162438530612"><ele>128.0</ele><time>2026-04-13T09:43:46Z</time></trkpt><trkpt lat="48.56097969324015" lon="3.2817179310755566"><ele>127.99999999999999</ele><time>2026-04-13T09:43:49Z</time></trkpt><trkpt lat="48.56104744630029" lon="3.2818075628522445"><ele>128.0</ele><time>2026-04-13T09:43:52Z</time></trkpt><trkpt lat="48.56108603581342" lon="3.281884939409789"><ele>128.0</ele><time>2026-04-13T09:43:54Z</time></trkpt><trkpt lat="48.561127349215624" lon="3.2819684763860395"><ele>128.0</ele><time>2026-04-13T09:43:56Z</time></trkpt><trkpt lat="48.5611710530515" lon="3.2820792596419954"><ele>127.99999999999999</ele><time>2026-04-13T09:43:59Z</time></trkpt><trkpt lat="48.561217830339714" lon="3.282185497905498"><ele>128.0</ele><time>2026-04-13T09:44:02Z</time></trkpt><trkpt lat="48.561258626217615" lon="3.282298192320067"><ele>128.71428571428572</ele><time>2026-04-13T09:44:05Z</time></trkpt><trkpt lat="48.56128043165556" lon="3.2824116198010485"><ele>129.42857142857142</ele><time>2026-04-13T09:44:08Z</time></trkpt><trkpt lat="48.561309319132214" lon="3.282504734485227"><ele>130.14285714285714</ele><time>2026-04-13T09:44:10Z</time></trkpt><trkpt lat="48.56133437244055" lon="3.2825971684175226"><ele>130.85714285714286</ele><time>2026-04-13T09:44:12Z</time></trkpt><trkpt lat="48.5613560451235" lon="3.2826928588692605"><ele>131.57142857142856</ele><time>2026-04-13T09:44:14Z</time></trkpt><trkpt lat="48.56138152720933" lon="3.2827916972665383"><ele>132.28571428571428</ele><time>2026-04-13T09:44:16Z</time></trkpt><trkpt lat="48.56140632823765" lon="3.2828907029045156"><ele>133.0</ele><time>2026-04-13T09:44:18Z</time></trkpt><trkpt lat="48.5614358396696" lon="3.2829827446191824"><ele>133.0</ele><time>2026-04-13T09:44:20Z</time></trkpt><trkpt lat="48.56145535867185" lon="3.2830821296145887"><ele>133.0</ele><time>2026-04-13T09:44:22Z</time></trkpt><trkpt lat="48.56148622766174" lon="3.2831746367314554"><ele>133.0</ele><time>2026-04-13T09:44:24Z</time></trkpt><trkpt lat="48.56155002994845" lon="3.283224684354332"><ele>133.0</ele><time>2026-04-13T09:44:26Z</time></trkpt><trkpt lat="48.56161755662604" lon="3.2832198234631003"><ele>133.0</ele><time>2026-04-13T09:44:28Z</time></trkpt><trkpt lat="48.56167585070965" lon="3.283163207251579"><ele>133.0</ele><time>2026-04-13T09:44:30Z</time></trkpt><trkpt lat="48.56171923840223" lon="3.2830937798795645"><ele>133.0</ele><time>2026-04-13T09:44:32Z</time></trkpt><trkpt lat="48.561780710974254" lon="3.283055034339045"><ele>133.0</ele><time>2026-04-13T09:44:34Z</time></trkpt><trkpt lat="48.56184410424896" lon="3.2830054199175414"><ele>133.0</ele><time>2026-04-13T09:44:36Z</time></trkpt><trkpt lat="48.56191242803987" lon="3.282905990701363"><ele>133.0</ele><time>2026-04-13T09:44:39Z</time></trkpt><trkpt lat="48.56197498170573" lon="3.282854876905473"><ele>133.0</ele><time>2026-04-13T09:44:41Z</time></trkpt><trkpt lat="48.56204571646761" lon="3.282809259701814"><ele>133.0</ele><time>2026-04-13T09:44:43Z</time></trkpt><trkpt lat="48.562109779687184" lon="3.2827430872977867"><ele>133.0</ele><time>2026-04-13T09:44:45Z</time></trkpt><trkpt lat="48.56217245974916" lon="3.2826764579971517"><ele>133.16666666666669</ele><time>2026-04-13T09:44:47Z</time></trkpt><trkpt lat="48.56223718709309" lon="3.282613794748433"><ele>133.33333333333334</ele><time>2026-04-13T09:44:49Z</time></trkpt><trkpt lat="48.562296211009595" lon="3.282553798250322"><ele>133.5</ele><time>2026-04-13T09:44:51Z</time></trkpt><trkpt lat="48.56235652764757" lon="3.282493501260165"><ele>133.66666666666666</ele><time>2026-04-13T09:44:53Z</time></trkpt><trkpt lat="48.56242011111708" lon="3.2824311900428453"><ele>133.83333333333331</ele><time>2026-04-13T09:44:55Z</time></trkpt><trkpt lat="48.56248555466636" lon="3.282360419026581"><ele>134.0</ele><time>2026-04-13T09:44:57Z</time></trkpt><trkpt lat="48.56255344607725" lon="3.2822987843964717"><ele>134.16666666666666</ele><time>2026-04-13T09:44:59Z</time></trkpt><trkpt lat="48.56261988792001" lon="3.28223506477482"><ele>134.33333333333331</ele><time>2026-04-13T09:45:01Z</time></trkpt><trkpt lat="48.56268431151781" lon="3.2821696633349986"><ele>134.5</ele><time>2026-04-13T09:45:03Z</time></trkpt><trkpt lat="48.56275249681981" lon="3.282111185788937"><ele>134.66666666666666</ele><time>2026-04-13T09:45:05Z</time></trkpt><trkpt lat="48.5628188434739" lon="3.2820512689059633"><ele>134.83333333333334</ele><time>2026-04-13T09:45:07Z</time></trkpt><trkpt lat="48.56288414002271" lon="3.2819791962723412"><ele>135.0</ele><time>2026-04-13T09:45:09Z</time></trkpt><trkpt lat="48.562955906317384" lon="3.2819112481471895"><ele>135.0</ele><time>2026-04-13T09:45:11Z</time></trkpt><trkpt lat="48.56302647049806" lon="3.2818454519523943"><ele>135.0</ele><time>2026-04-13T09:45:13Z</time></trkpt><trkpt lat="48.563094589395455" lon="3.2817713508452377"><ele>135.0</ele><time>2026-04-13T09:45:15Z</time></trkpt><trkpt lat="48.563164890064435" lon="3.2817090999679075"><ele>135.0</ele><time>2026-04-13T09:45:17Z</time></trkpt><trkpt lat="48.56323494297564" lon="3.2816401405096958"><ele>135.0</ele><time>2026-04-13T09:45:19Z</time></trkpt><trkpt lat="48.56331282119867" lon="3.281579701440525"><ele>135.0</ele><time>2026-04-13T09:45:21Z</time></trkpt><trkpt lat="48.56338723840631" lon="3.2815063694996676"><ele>135.0</ele><time>2026-04-13T09:45:23Z</time></trkpt><trkpt lat="48.56345923634288" lon="3.281434441194305"><ele>135.0</ele><time>2026-04-13T09:45:25Z</time></trkpt><trkpt lat="48.563531701384704" lon="3.281358935330153"><ele>135.0</ele><time>2026-04-13T09:45:27Z</time></trkpt><trkpt lat="48.56359738135568" lon="3.281271878317463"><ele>135.0</ele><time>2026-04-13T09:45:29Z</time></trkpt><trkpt lat="48.56366932599742" lon="3.281202103591663"><ele>135.0</ele><time>2026-04-13T09:45:31Z</time></trkpt><trkpt lat="48.56374550939844" lon="3.2811353623969652"><ele>135.0</ele><time>2026-04-13T09:45:33Z</time></trkpt><trkpt lat="48.56381197472094" lon="3.2810648803464852"><ele>135.33333333333334</ele><time>2026-04-13T09:45:35Z</time></trkpt><trkpt lat="48.563878600228016" lon="3.2810024376242186"><ele>135.66666666666666</ele><time>2026-04-13T09:45:37Z</time></trkpt><trkpt lat="48.5639463600766" lon="3.2809364686312166"><ele>136.0</ele><time>2026-04-13T09:45:39Z</time></trkpt><trkpt lat="48.56402029466259" lon="3.2808928240166346"><ele>136.33333333333331</ele><time>2026-04-13T09:45:41Z</time></trkpt><trkpt lat="48.56409198941952" lon="3.280865947293907"><ele>136.66666666666666</ele><time>2026-04-13T09:45:43Z</time></trkpt><trkpt lat="48.56417355717322" lon="3.2809197280671345"><ele>137.0</ele><time>2026-04-13T09:47:06Z</time></trkpt><trkpt lat="48.564230445128864" lon="3.280969708584587"><ele>137.0</ele><time>2026-04-13T09:47:08Z</time></trkpt><trkpt lat="48.564294162188425" lon="3.281067694451124"><ele>137.0</ele><time>2026-04-13T09:47:10Z</time></trkpt><trkpt lat="48.564350527141315" lon="3.281182948731614"><ele>137.0</ele><time>2026-04-13T09:47:12Z</time></trkpt><trkpt lat="48.56440240694562" lon="3.2813020993892827"><ele>137.0</ele><time>2026-04-13T09:47:14Z</time></trkpt><trkpt lat="48.564447810577704" lon="3.281428734480024"><ele>137.0</ele><time>2026-04-13T09:47:16Z</time></trkpt><trkpt lat="48.56449358235434" lon="3.2815377194553514"><ele>136.5</ele><time>2026-04-13T09:47:18Z</time></trkpt><trkpt lat="48.564537855986465" lon="3.281636834079368"><ele>136.0</ele><time>2026-04-13T09:47:20Z</time></trkpt><trkpt lat="48.56457658371164" lon="3.281736510583283"><ele>135.5</ele><time>2026-04-13T09:47:22Z</time></trkpt><trkpt lat="48.56461633358208" lon="3.281833175193802"><ele>135.0</ele><time>2026-04-13T09:47:24Z</time></trkpt><trkpt lat="48.56466221931447" lon="3.281945842332787"><ele>134.5</ele><time>2026-04-13T09:47:26Z</time></trkpt><trkpt lat="48.56471407508865" lon="3.2820637876639482"><ele>134.0</ele><time>2026-04-13T09:47:28Z</time></trkpt><trkpt lat="48.56476929074172" lon="3.282191263774013"><ele>134.0</ele><time>2026-04-13T09:47:30Z</time></trkpt><trkpt lat="48.564822757139694" lon="3.2823271557611675"><ele>134.0</ele><time>2026-04-13T09:47:32Z</time></trkpt><trkpt lat="48.56487256777476" lon="3.2824526181198848"><ele>134.0</ele><time>2026-04-13T09:47:34Z</time></trkpt><trkpt lat="48.564936944606266" lon="3.2825845835126772"><ele>134.0</ele><time>2026-04-13T09:47:36Z</time></trkpt><trkpt lat="48.564998064410275" lon="3.2827319755426236"><ele>134.0</ele><time>2026-04-13T09:47:38Z</time></trkpt><trkpt lat="48.56506613191832" lon="3.2828916556055443"><ele>134.0</ele><time>2026-04-13T09:47:40Z</time></trkpt><trkpt lat="48.56513619129294" lon="3.283043196112738"><ele>134.0</ele><time>2026-04-13T09:47:42Z</time></trkpt><trkpt lat="48.56520191279237" lon="3.2831758800614064"><ele>134.0</ele><time>2026-04-13T09:47:44Z</time></trkpt><trkpt lat="48.56525904979234" lon="3.2833001805576214"><ele>134.0</ele><time>2026-04-13T09:47:46Z</time></trkpt><trkpt lat="48.565309103594174" lon="3.2834071649133176"><ele>134.0</ele><time>2026-04-13T09:47:48Z</time></trkpt><trkpt lat="48.565331045898866" lon="3.2835277290287177"><ele>133.85714285714286</ele><time>2026-04-13T09:47:50Z</time></trkpt><trkpt lat="48.56529588973101" lon="3.2836274608842166"><ele>133.71428571428572</ele><time>2026-04-13T09:47:52Z</time></trkpt><trkpt lat="48.56524266362159" lon="3.28371019110382"><ele>133.57142857142856</ele><time>2026-04-13T09:47:54Z</time></trkpt><trkpt lat="48.565187936971626" lon="3.2837602874605616"><ele>133.42857142857144</ele><time>2026-04-13T09:47:56Z</time></trkpt><trkpt lat="48.56513192967544" lon="3.2838152643163587"><ele>133.28571428571428</ele><time>2026-04-13T09:47:58Z</time></trkpt><trkpt lat="48.565079586970946" lon="3.2838821832661154"><ele>133.14285714285714</ele><time>2026-04-13T09:48:00Z</time></trkpt><trkpt lat="48.565057144790764" lon="3.283994664267869"><ele>133.0</ele><time>2026-04-13T09:48:02Z</time></trkpt><trkpt lat="48.56502279571966" lon="3.2840973861011036"><ele>132.8</ele><time>2026-04-13T09:48:04Z</time></trkpt><trkpt lat="48.56497439165338" lon="3.284201968813754"><ele>132.60000000000002</ele><time>2026-04-13T09:48:06Z</time></trkpt><trkpt lat="48.56491531379206" lon="3.2843026755388545"><ele>132.39999999999998</ele><time>2026-04-13T09:48:08Z</time></trkpt><trkpt lat="48.56484786836443" lon="3.284397499345631"><ele>132.2</ele><time>2026-04-13T09:48:10Z</time></trkpt><trkpt lat="48.56479979788942" lon="3.284513278535866"><ele>132.0</ele><time>2026-04-13T09:48:12Z</time></trkpt><trkpt lat="48.56471858732595" lon="3.284591943929294"><ele>132.0</ele><time>2026-04-13T09:48:14Z</time></trkpt><trkpt lat="48.56464609018112" lon="3.2847002980963187"><ele>132.0</ele><time>2026-04-13T09:48:16Z</time></trkpt><trkpt lat="48.56458290937871" lon="3.284823647168395"><ele>132.0</ele><time>2026-04-13T09:48:18Z</time></trkpt><trkpt lat="48.564507425751614" lon="3.2849371277801476"><ele>132.0</ele><time>2026-04-13T09:48:20Z</time></trkpt><trkpt lat="48.56442568101474" lon="3.285040033565422"><ele>132.0</ele><time>2026-04-13T09:48:22Z</time></trkpt><trkpt lat="48.564345230813174" lon="3.2851501698076166"><ele>132.0</ele><time>2026-04-13T09:48:24Z</time></trkpt><trkpt lat="48.56426473092312" lon="3.2852629284295682"><ele>132.0</ele><time>2026-04-13T09:48:26Z</time></trkpt><trkpt lat="48.564189777268034" lon="3.285379002770113"><ele>132.0</ele><time>2026-04-13T09:48:28Z</time></trkpt><trkpt lat="48.564103612180006" lon="3.2854682058177445"><ele>132.0</ele><time>2026-04-13T09:48:30Z</time></trkpt><trkpt lat="48.56403653111705" lon="3.2855887921473643"><ele>132.0</ele><time>2026-04-13T09:48:32Z</time></trkpt><trkpt lat="48.563952349418194" lon="3.2856819068482306"><ele>132.0</ele><time>2026-04-13T09:48:34Z</time></trkpt><trkpt lat="48.56387293261854" lon="3.285764694605269"><ele>132.0</ele><time>2026-04-13T09:48:36Z</time></trkpt><trkpt lat="48.56379848455046" lon="3.285854636611012"><ele>132.0</ele><time>2026-04-13T09:48:38Z</time></trkpt><trkpt lat="48.56373310870216" lon="3.285953775477451"><ele>132.0</ele><time>2026-04-13T09:48:40Z</time></trkpt><trkpt lat="48.56366572495081" lon="3.286057751975981"><ele>132.0</ele><time>2026-04-13T09:48:42Z</time></trkpt><trkpt lat="48.56358472007141" lon="3.2861335601586332"><ele>133.0</ele><time>2026-04-13T09:48:44Z</time></trkpt><trkpt lat="48.56351860163753" lon="3.28623588682597"><ele>134.0</ele><time>2026-04-13T09:48:46Z</time></trkpt><trkpt lat="48.56344208731689" lon="3.2863135627151605"><ele>135.0</ele><time>2026-04-13T09:48:48Z</time></trkpt><trkpt lat="48.56335901588649" lon="3.2863802903766213"><ele>136.0</ele><time>2026-04-13T09:48:50Z</time></trkpt><trkpt lat="48.56327835570586" lon="3.286451337382773"><ele>137.0</ele><time>2026-04-13T09:48:52Z</time></trkpt><trkpt lat="48.56320462891061" lon="3.286528853194177"><ele>137.0</ele><time>2026-04-13T09:48:54Z</time></trkpt><trkpt lat="48.56313195425456" lon="3.2866095579875254"><ele>137.0</ele><time>2026-04-13T09:48:56Z</time></trkpt><trkpt lat="48.56305971741204" lon="3.2866917164677467"><ele>137.0</ele><time>2026-04-13T09:48:58Z</time></trkpt><trkpt lat="48.56299395126687" lon="3.286776092045392"><ele>137.0</ele><time>2026-04-13T09:49:00Z</time></trkpt><trkpt lat="48.562924378390825" lon="3.2868524375046833"><ele>137.0</ele><time>2026-04-13T09:49:02Z</time></trkpt><trkpt lat="48.56286762562197" lon="3.286929156799053"><ele>137.0</ele><time>2026-04-13T09:49:04Z</time></trkpt><trkpt lat="48.5628092491862" lon="3.286982317361901"><ele>137.14285714285717</ele><time>2026-04-13T09:49:06Z</time></trkpt><trkpt lat="48.56275825255242" lon="3.287046193165226"><ele>137.28571428571428</ele><time>2026-04-13T09:49:09Z</time></trkpt><trkpt lat="48.562695542917865" lon="3.2871241105612894"><ele>137.42857142857144</ele><time>2026-04-13T09:49:14Z</time></trkpt><trkpt lat="48.5626416832169" lon="3.2872133911878647"><ele>137.57142857142858</ele><time>2026-04-13T09:49:18Z</time></trkpt><trkpt lat="48.56260503530978" lon="3.2873014183463303"><ele>137.71428571428572</ele><time>2026-04-13T09:49:24Z</time></trkpt><trkpt lat="48.56256665811542" lon="3.2874041634252626"><ele>137.85714285714286</ele><time>2026-04-13T09:49:29Z</time></trkpt><trkpt lat="48.562517388834905" lon="3.2874877595362144"><ele>138.0</ele><time>2026-04-13T09:49:33Z</time></trkpt><trkpt lat="48.56247794942403" lon="3.2875892499821737"><ele>138.0</ele><time>2026-04-13T09:49:37Z</time></trkpt><trkpt lat="48.5624780773424" lon="3.2876902733084914"><ele>138.0</ele><time>2026-04-13T09:49:40Z</time></trkpt><trkpt lat="48.56242541450846" lon="3.287760148566977"><ele>138.0</ele><time>2026-04-13T09:49:42Z</time></trkpt><trkpt lat="48.56237776220471" lon="3.2878675369776085"><ele>138.0</ele><time>2026-04-13T09:49:44Z</time></trkpt><trkpt lat="48.56233832718113" lon="3.2879670481244703"><ele>138.0</ele><time>2026-04-13T09:49:46Z</time></trkpt><trkpt lat="48.562304416567166" lon="3.288067687137293"><ele>138.0</ele><time>2026-04-13T09:49:48Z</time></trkpt><trkpt lat="48.56225937966817" lon="3.288151276344519"><ele>138.0</ele><time>2026-04-13T09:49:50Z</time></trkpt><trkpt lat="48.56223049726439" lon="3.288253765283256"><ele>137.8</ele><time>2026-04-13T09:49:52Z</time></trkpt><trkpt lat="48.56217708458339" lon="3.288358606608385"><ele>137.60000000000002</ele><time>2026-04-13T09:49:54Z</time></trkpt><trkpt lat="48.562097676262724" lon="3.288435215282629"><ele>137.39999999999998</ele><time>2026-04-13T09:49:56Z</time></trkpt><trkpt lat="48.56202171178629" lon="3.288533425446453"><ele>137.2</ele><time>2026-04-13T09:49:58Z</time></trkpt><trkpt lat="48.56197091548206" lon="3.288643618176196"><ele>137.0</ele><time>2026-04-13T09:50:00Z</time></trkpt><trkpt lat="48.5619306155814" lon="3.288760220948526"><ele>137.0</ele><time>2026-04-13T09:50:02Z</time></trkpt><trkpt lat="48.561872408089684" lon="3.2888652299005483"><ele>137.0</ele><time>2026-04-13T09:50:04Z</time></trkpt><trkpt lat="48.56181600268134" lon="3.2889827273204015"><ele>137.0</ele><time>2026-04-13T09:50:06Z</time></trkpt><trkpt lat="48.561741351519515" lon="3.289050454465188"><ele>137.0</ele><time>2026-04-13T09:50:08Z</time></trkpt><trkpt lat="48.56164267018172" lon="3.289048347525136"><ele>137.0</ele><time>2026-04-13T09:50:10Z</time></trkpt><trkpt lat="48.56154996397872" lon="3.2890238764503983"><ele>136.66666666666666</ele><time>2026-04-13T09:50:12Z</time></trkpt><trkpt lat="48.561450275392424" lon="3.289020478382381"><ele>136.33333333333331</ele><time>2026-04-13T09:50:14Z</time></trkpt><trkpt lat="48.561370133799926" lon="3.2890259351844024"><ele>136.0</ele><time>2026-04-13T09:50:16Z</time></trkpt><trkpt lat="48.56131138882716" lon="3.2890608966584316"><ele>135.66666666666666</ele><time>2026-04-13T09:50:18Z</time></trkpt><trkpt lat="48.56128749768094" lon="3.2891494491450133"><ele>135.33333333333334</ele><time>2026-04-13T09:50:20Z</time></trkpt><trkpt lat="48.561301578213445" lon="3.2892564573788663"><ele>135.0</ele><time>2026-04-13T09:50:22Z</time></trkpt><trkpt lat="48.56130335917426" lon="3.2893890177436615"><ele>135.0</ele><time>2026-04-13T09:50:24Z</time></trkpt><trkpt lat="48.561311251499276" lon="3.289519386004706"><ele>135.0</ele><time>2026-04-13T09:50:26Z</time></trkpt><trkpt lat="48.56129103040085" lon="3.289633323640637"><ele>135.0</ele><time>2026-04-13T09:50:28Z</time></trkpt><trkpt lat="48.561221916180756" lon="3.289719117941917"><ele>135.0</ele><time>2026-04-13T09:50:30Z</time></trkpt><trkpt lat="48.561153854711925" lon="3.2898030430035172"><ele>135.0</ele><time>2026-04-13T09:50:32Z</time></trkpt><trkpt lat="48.561095986979865" lon="3.289892428279831"><ele>135.0</ele><time>2026-04-13T09:50:34Z</time></trkpt><trkpt lat="48.56105897462237" lon="3.2899926481255632"><ele>134.33333333333334</ele><time>2026-04-13T09:50:36Z</time></trkpt><trkpt lat="48.561044860615304" lon="3.2900999927411063"><ele>133.66666666666666</ele><time>2026-04-13T09:50:38Z</time></trkpt><trkpt lat="48.56106562630164" lon="3.2902170346104764"><ele>133.0</ele><time>2026-04-13T09:50:40Z</time></trkpt><trkpt lat="48.56107964437842" lon="3.2903433190478375"><ele>132.33333333333331</ele><time>2026-04-13T09:50:42Z</time></trkpt><trkpt lat="48.561046678791925" lon="3.290478069607471"><ele>131.66666666666666</ele><time>2026-04-13T09:50:44Z</time></trkpt><trkpt lat="48.560989664087764" lon="3.290621088742455"><ele>131.0</ele><time>2026-04-13T09:50:46Z</time></trkpt><trkpt lat="48.56094820701252" lon="3.2907418248229963"><ele>131.0</ele><time>2026-04-13T09:50:48Z</time></trkpt><trkpt lat="48.56088828383906" lon="3.2908539582276823"><ele>131.0</ele><time>2026-04-13T09:50:50Z</time></trkpt><trkpt lat="48.56082879618768" lon="3.2909666769345858"><ele>131.0</ele><time>2026-04-13T09:50:52Z</time></trkpt><trkpt lat="48.56079508005874" lon="3.2910963743385047"><ele>131.0</ele><time>2026-04-13T09:50:54Z</time></trkpt><trkpt lat="48.56083189776688" lon="3.2912026568519366"><ele>131.0</ele><time>2026-04-13T09:50:56Z</time></trkpt><trkpt lat="48.56091457176301" lon="3.2912544201992566"><ele>131.0</ele><time>2026-04-13T09:50:58Z</time></trkpt><trkpt lat="48.560985864994684" lon="3.2913245086086604"><ele>131.0</ele><time>2026-04-13T09:51:00Z</time></trkpt><trkpt lat="48.56099963107599" lon="3.2914482570960812"><ele>131.0</ele><time>2026-04-13T09:51:02Z</time></trkpt><trkpt lat="48.561051772086" lon="3.2915318108764713"><ele>131.0</ele><time>2026-04-13T09:51:04Z</time></trkpt><trkpt lat="48.561141755560186" lon="3.2915949179180033"><ele>131.0</ele><time>2026-04-13T09:51:06Z</time></trkpt><trkpt lat="48.56121220863848" lon="3.2916688176244993"><ele>131.0</ele><time>2026-04-13T09:51:08Z</time></trkpt><trkpt lat="48.56127703440671" lon="3.2917274167173103"><ele>131.16666666666666</ele><time>2026-04-13T09:51:11Z</time></trkpt><trkpt lat="48.56134351639779" lon="3.2917093729416735"><ele>131.33333333333331</ele><time>2026-04-13T09:51:16Z</time></trkpt><trkpt lat="48.56137760256442" lon="3.29157997292536"><ele>131.5</ele><time>2026-04-13T09:51:19Z</time></trkpt><trkpt lat="48.5614135224693" lon="3.291486138923965"><ele>131.66666666666666</ele><time>2026-04-13T09:51:22Z</time></trkpt><trkpt lat="48.561448940128784" lon="3.2913929076593065"><ele>131.83333333333334</ele><time>2026-04-13T09:51:26Z</time></trkpt><trkpt lat="48.56148307211065" lon="3.2912823881219895"><ele>132.0</ele><time>2026-04-13T09:51:30Z</time></trkpt><trkpt lat="48.56151452112793" lon="3.2911929753934928"><ele>132.0</ele><time>2026-04-13T09:51:32Z</time></trkpt><trkpt lat="48.561541090471636" lon="3.291076254367904"><ele>132.0</ele><time>2026-04-13T09:51:34Z</time></trkpt><trkpt lat="48.56157630531414" lon="3.29096563023068"><ele>132.0</ele><time>2026-04-13T09:51:36Z</time></trkpt><trkpt lat="48.56162345790253" lon="3.29086438890369"><ele>132.0</ele><time>2026-04-13T09:51:38Z</time></trkpt><trkpt lat="48.561648918750485" lon="3.2907346346778072"><ele>132.0</ele><time>2026-04-13T09:51:40Z</time></trkpt><trkpt lat="48.56168341025588" lon="3.290599230872086"><ele>132.0</ele><time>2026-04-13T09:51:42Z</time></trkpt><trkpt lat="48.56169201206289" lon="3.290464595331161"><ele>132.4</ele><time>2026-04-13T09:51:44Z</time></trkpt><trkpt lat="48.56168960332517" lon="3.2903261437714924"><ele>132.79999999999998</ele><time>2026-04-13T09:51:46Z</time></trkpt><trkpt lat="48.561707683033696" lon="3.2901898279514894"><ele>133.2</ele><time>2026-04-13T09:51:48Z</time></trkpt><trkpt lat="48.561739080950055" lon="3.290049001398537"><ele>133.6</ele><time>2026-04-13T09:51:50Z</time></trkpt><trkpt lat="48.561793171782845" lon="3.2899316855026863"><ele>134.0</ele><time>2026-04-13T09:51:52Z</time></trkpt><trkpt lat="48.56185518760908" lon="3.2898281655936326"><ele>134.2</ele><time>2026-04-13T09:51:54Z</time></trkpt><trkpt lat="48.56191470629262" lon="3.289717172585321"><ele>134.4</ele><time>2026-04-13T09:51:56Z</time></trkpt><trkpt lat="48.56195800524207" lon="3.289594433433637"><ele>134.6</ele><time>2026-04-13T09:51:58Z</time></trkpt><trkpt lat="48.56200325784274" lon="3.289468664463715"><ele>134.8</ele><time>2026-04-13T09:52:00Z</time></trkpt><trkpt lat="48.562056795487976" lon="3.2893567934230044"><ele>135.0</ele><time>2026-04-13T09:52:02Z</time></trkpt><trkpt lat="48.562103507899664" lon="3.289238779802592"><ele>134.66666666666666</ele><time>2026-04-13T09:52:04Z</time></trkpt><trkpt lat="48.56215345977412" lon="3.2891287119128445"><ele>134.33333333333334</ele><time>2026-04-13T09:52:06Z</time></trkpt><trkpt lat="48.562198412853945" lon="3.2890097872139465"><ele>134.0</ele><time>2026-04-13T09:52:08Z</time></trkpt><trkpt lat="48.56223158316771" lon="3.2888911276175317"><ele>133.66666666666669</ele><time>2026-04-13T09:52:10Z</time></trkpt><trkpt lat="48.56229685653018" lon="3.288793093343648"><ele>133.33333333333334</ele><time>2026-04-13T09:52:12Z</time></trkpt><trkpt lat="48.56234430188257" lon="3.2886760265881527"><ele>133.0</ele><time>2026-04-13T09:52:14Z</time></trkpt><trkpt lat="48.562386216697575" lon="3.288584183858849"><ele>133.66666666666669</ele><time>2026-04-13T09:52:16Z</time></trkpt><trkpt lat="48.562382648055134" lon="3.2884537177388724"><ele>134.33333333333334</ele><time>2026-04-13T09:52:19Z</time></trkpt><trkpt lat="48.562460365660534" lon="3.2883555799194117"><ele>135.0</ele><time>2026-04-13T09:52:22Z</time></trkpt><trkpt lat="48.56248091658717" lon="3.2882318037982152"><ele>135.66666666666666</ele><time>2026-04-13T09:52:24Z</time></trkpt><trkpt lat="48.56251736175394" lon="3.2881306248921303"><ele>136.33333333333331</ele><time>2026-04-13T09:52:26Z</time></trkpt><trkpt lat="48.562557333440346" lon="3.2880354332734396"><ele>137.0</ele><time>2026-04-13T09:52:28Z</time></trkpt><trkpt lat="48.56263010337558" lon="3.2879753806739815"><ele>137.16666666666666</ele><time>2026-04-13T09:52:31Z</time></trkpt><trkpt lat="48.562686657380404" lon="3.2880484860427535"><ele>137.33333333333331</ele><time>2026-04-13T09:52:34Z</time></trkpt><trkpt lat="48.562755268638256" lon="3.288064209854248"><ele>137.5</ele><time>2026-04-13T09:52:37Z</time></trkpt><trkpt lat="48.56280095235746" lon="3.287949164283675"><ele>137.66666666666666</ele><time>2026-04-13T09:52:40Z</time></trkpt><trkpt lat="48.56285743030618" lon="3.2878889606659043"><ele>137.83333333333334</ele><time>2026-04-13T09:52:43Z</time></trkpt><trkpt lat="48.562890129525066" lon="3.287780033725616"><ele>138.0</ele><time>2026-04-13T09:52:46Z</time></trkpt><trkpt lat="48.562947195470876" lon="3.2877002677096523"><ele>137.0</ele><time>2026-04-13T09:52:48Z</time></trkpt><trkpt lat="48.56298986853163" lon="3.2876203212448427"><ele>136.0</ele><time>2026-04-13T09:52:50Z</time></trkpt><trkpt lat="48.563036347273226" lon="3.2875522240532544"><ele>135.0</ele><time>2026-04-13T09:52:52Z</time></trkpt><trkpt lat="48.56310224628876" lon="3.2875352770981756"><ele>134.0</ele><time>2026-04-13T09:52:54Z</time></trkpt><trkpt lat="48.56319057568401" lon="3.2875488410161013"><ele>133.0</ele><time>2026-04-13T09:52:56Z</time></trkpt><trkpt lat="48.56327488868836" lon="3.2874843805001497"><ele>132.0</ele><time>2026-04-13T09:52:58Z</time></trkpt><trkpt lat="48.56334242010485" lon="3.287410920674699"><ele>132.0</ele><time>2026-04-13T09:53:00Z</time></trkpt><trkpt lat="48.563401087014434" lon="3.287318748629897"><ele>132.0</ele><time>2026-04-13T09:53:02Z</time></trkpt><trkpt lat="48.56347311870875" lon="3.2872291111726057"><ele>132.0</ele><time>2026-04-13T09:53:04Z</time></trkpt><trkpt lat="48.563548733900326" lon="3.28713830561791"><ele>132.0</ele><time>2026-04-13T09:53:06Z</time></trkpt><trkpt lat="48.563617208434955" lon="3.287040950918103"><ele>132.0</ele><time>2026-04-13T09:53:08Z</time></trkpt><trkpt lat="48.56367550359189" lon="3.2869609780880977"><ele>132.0</ele><time>2026-04-13T09:53:10Z</time></trkpt><trkpt lat="48.563735696935815" lon="3.2868981931910635"><ele>132.0</ele><time>2026-04-13T09:53:13Z</time></trkpt><trkpt lat="48.5637993178744" lon="3.286857430957265"><ele>132.0</ele><time>2026-04-13T09:53:15Z</time></trkpt><trkpt lat="48.563871572192696" lon="3.286768567515482"><ele>132.0</ele><time>2026-04-13T09:53:17Z</time></trkpt><trkpt lat="48.56396199658195" lon="3.2866813046288184"><ele>132.0</ele><time>2026-04-13T09:53:19Z</time></trkpt><trkpt lat="48.56401168004714" lon="3.2865347204106627"><ele>132.0</ele><time>2026-04-13T09:53:21Z</time></trkpt><trkpt lat="48.56398291760292" lon="3.2863815795363926"><ele>132.0</ele><time>2026-04-13T09:53:23Z</time></trkpt><trkpt lat="48.56392052136458" lon="3.2862685175947433"><ele>132.0</ele><time>2026-04-13T09:53:25Z</time></trkpt><trkpt lat="48.56385774850994" lon="3.286159854887665"><ele>132.0</ele><time>2026-04-13T09:53:27Z</time></trkpt><trkpt lat="48.563810416726646" lon="3.2860722181951636"><ele>132.0</ele><time>2026-04-13T09:53:29Z</time></trkpt><trkpt lat="48.563781186432706" lon="3.2859702211799364"><ele>132.0</ele><time>2026-04-13T09:53:32Z</time></trkpt><trkpt lat="48.56381132321487" lon="3.285853350909979"><ele>132.0</ele><time>2026-04-13T09:53:36Z</time></trkpt><trkpt lat="48.56387675281328" lon="3.285781644236042"><ele>132.0</ele><time>2026-04-13T09:53:38Z</time></trkpt><trkpt lat="48.563946787479004" lon="3.285697615501791"><ele>132.0</ele><time>2026-04-13T09:53:40Z</time></trkpt><trkpt lat="48.56402685335617" lon="3.2855980586994513"><ele>132.0</ele><time>2026-04-13T09:53:42Z</time></trkpt><trkpt lat="48.56411052122138" lon="3.2854944484688846"><ele>132.0</ele><time>2026-04-13T09:53:44Z</time></trkpt><trkpt lat="48.56418980166018" lon="3.2853731854468893"><ele>132.0</ele><time>2026-04-13T09:53:46Z</time></trkpt><trkpt lat="48.564281247268646" lon="3.2852658280881033"><ele>132.75</ele><time>2026-04-13T09:53:48Z</time></trkpt><trkpt lat="48.56437181729116" lon="3.285142988868977"><ele>133.5</ele><time>2026-04-13T09:53:50Z</time></trkpt><trkpt lat="48.56446459262267" lon="3.2850219407938797"><ele>134.25</ele><time>2026-04-13T09:53:52Z</time></trkpt><trkpt lat="48.564545220735354" lon="3.28489746016113"><ele>135.0</ele><time>2026-04-13T09:53:54Z</time></trkpt><trkpt lat="48.56462699994055" lon="3.2847878134810085"><ele>134.4</ele><time>2026-04-13T09:53:56Z</time></trkpt><trkpt lat="48.564694048102666" lon="3.284653310602439"><ele>133.8</ele><time>2026-04-13T09:53:58Z</time></trkpt><trkpt lat="48.56476478230543" lon="3.2845449168684597"><ele>133.2</ele><time>2026-04-13T09:54:00Z</time></trkpt><trkpt lat="48.56483219335186" lon="3.284435565500098"><ele>132.6</ele><time>2026-04-13T09:54:02Z</time></trkpt><trkpt lat="48.564885498107884" lon="3.2843214464401385"><ele>132.0</ele><time>2026-04-13T09:54:04Z</time></trkpt><trkpt lat="48.564943083617855" lon="3.2842176601188173"><ele>132.0</ele><time>2026-04-13T09:54:06Z</time></trkpt><trkpt lat="48.56500015090151" lon="3.284118653432731"><ele>132.0</ele><time>2026-04-13T09:54:08Z</time></trkpt><trkpt lat="48.565048568321856" lon="3.284025789546479"><ele>132.0</ele><time>2026-04-13T09:54:10Z</time></trkpt><trkpt lat="48.56505139534235" lon="3.2839251909356086"><ele>132.0</ele><time>2026-04-13T09:54:13Z</time></trkpt><trkpt lat="48.56499582164676" lon="3.2838508548753667"><ele>132.0</ele><time>2026-04-13T09:54:16Z</time></trkpt><trkpt lat="48.56491344407752" lon="3.2838230941134103"><ele>132.0</ele><time>2026-04-13T09:54:18Z</time></trkpt><trkpt lat="48.56484239004628" lon="3.283745411747927"><ele>132.16666666666666</ele><time>2026-04-13T09:54:20Z</time></trkpt><trkpt lat="48.56478497183417" lon="3.2836416760850295"><ele>132.33333333333334</ele><time>2026-04-13T09:54:22Z</time></trkpt><trkpt lat="48.56472486448039" lon="3.283569173948268"><ele>132.5</ele><time>2026-04-13T09:54:24Z</time></trkpt><trkpt lat="48.56466068410767" lon="3.2834993585978656"><ele>132.66666666666669</ele><time>2026-04-13T09:54:26Z</time></trkpt><trkpt lat="48.564594668208485" lon="3.2834165124636643"><ele>132.83333333333334</ele><time>2026-04-13T09:54:28Z</time></trkpt><trkpt lat="48.5645398451068" lon="3.283313792590892"><ele>133.0</ele><time>2026-04-13T09:54:30Z</time></trkpt><trkpt lat="48.56445402926082" lon="3.2832812830851097"><ele>133.6</ele><time>2026-04-13T09:54:32Z</time></trkpt><trkpt lat="48.56438595741612" lon="3.283383897931785"><ele>134.20000000000002</ele><time>2026-04-13T09:54:34Z</time></trkpt><trkpt lat="48.56432604986951" lon="3.283495177767032"><ele>134.8</ele><time>2026-04-13T09:54:36Z</time></trkpt><trkpt lat="48.564248305212054" lon="3.283601870162202"><ele>135.4</ele><time>2026-04-13T09:54:38Z</time></trkpt><trkpt lat="48.564174943803465" lon="3.283710415144629"><ele>136.0</ele><time>2026-04-13T09:54:40Z</time></trkpt><trkpt lat="48.564109027285994" lon="3.2838291030858073"><ele>136.0</ele><time>2026-04-13T09:54:42Z</time></trkpt><trkpt lat="48.56403689901696" lon="3.283930779058694"><ele>136.0</ele><time>2026-04-13T09:54:44Z</time></trkpt><trkpt lat="48.56397188885755" lon="3.2840424454697086"><ele>136.0</ele><time>2026-04-13T09:54:46Z</time></trkpt><trkpt lat="48.56389512460043" lon="3.2841416546170894"><ele>136.0</ele><time>2026-04-13T09:54:48Z</time></trkpt><trkpt lat="48.56381590376696" lon="3.2842332444764675"><ele>136.0</ele><time>2026-04-13T09:54:50Z</time></trkpt><trkpt lat="48.5637437970767" lon="3.284325197854803"><ele>136.2</ele><time>2026-04-13T09:54:52Z</time></trkpt><trkpt lat="48.563680024124885" lon="3.284430058456057"><ele>136.39999999999998</ele><time>2026-04-13T09:54:54Z</time></trkpt><trkpt lat="48.56361282990825" lon="3.284521541113207"><ele>136.6</ele><time>2026-04-13T09:54:56Z</time></trkpt><trkpt lat="48.56354844518414" lon="3.2846201000818547"><ele>136.79999999999998</ele><time>2026-04-13T09:54:58Z</time></trkpt><trkpt lat="48.56347603577137" lon="3.284723741933685"><ele>137.0</ele><time>2026-04-13T09:55:00Z</time></trkpt><trkpt lat="48.56339850155523" lon="3.284828973907545"><ele>137.2</ele><time>2026-04-13T09:55:02Z</time></trkpt><trkpt lat="48.56332671640564" lon="3.2849448193504114"><ele>137.39999999999998</ele><time>2026-04-13T09:55:04Z</time></trkpt><trkpt lat="48.563254987903896" lon="3.285044786599576"><ele>137.60000000000002</ele><time>2026-04-13T09:55:06Z</time></trkpt><trkpt lat="48.56317549539493" lon="3.2851251652758746"><ele>137.8</ele><time>2026-04-13T09:55:08Z</time></trkpt><trkpt lat="48.563101283863844" lon="3.2852280879066567"><ele>138.0</ele><time>2026-04-13T09:55:10Z</time></trkpt><trkpt lat="48.56302655025609" lon="3.285324827440397"><ele>138.0</ele><time>2026-04-13T09:55:12Z</time></trkpt><trkpt lat="48.56293563014783" lon="3.285391131009314"><ele>138.0</ele><time>2026-04-13T09:55:14Z</time></trkpt><trkpt lat="48.562871322180904" lon="3.2854966836203423"><ele>138.0</ele><time>2026-04-13T09:55:16Z</time></trkpt><trkpt lat="48.56280116070469" lon="3.285576962078827"><ele>138.0</ele><time>2026-04-13T09:55:18Z</time></trkpt><trkpt lat="48.56271004441167" lon="3.285640495256698"><ele>138.0</ele><time>2026-04-13T09:55:20Z</time></trkpt><trkpt lat="48.562622233213084" lon="3.2857123131706683"><ele>138.0</ele><time>2026-04-13T09:55:22Z</time></trkpt><trkpt lat="48.562531796496735" lon="3.285766279041088"><ele>138.0</ele><time>2026-04-13T09:55:24Z</time></trkpt><trkpt lat="48.562440513884354" lon="3.285828514373848"><ele>138.0</ele><time>2026-04-13T09:55:26Z</time></trkpt><trkpt lat="48.56234126779314" lon="3.285880685479819"><ele>138.0</ele><time>2026-04-13T09:55:28Z</time></trkpt><trkpt lat="48.562261657763365" lon="3.2859362805106085"><ele>138.0</ele><time>2026-04-13T09:55:30Z</time></trkpt><trkpt lat="48.562194537319854" lon="3.285969611590672"><ele>138.0</ele><time>2026-04-13T09:55:32Z</time></trkpt><trkpt lat="48.56218489927169" lon="3.2860952863103097"><ele>138.0</ele><time>2026-04-13T09:55:35Z</time></trkpt><trkpt lat="48.562231633314056" lon="3.2861655820395432"><ele>138.0</ele><time>2026-04-13T09:55:37Z</time></trkpt><trkpt lat="48.56228145847493" lon="3.2862535941461446"><ele>138.0</ele><time>2026-04-13T09:55:39Z</time></trkpt><trkpt lat="48.56232956302791" lon="3.286361554719084"><ele>138.0</ele><time>2026-04-13T09:55:41Z</time></trkpt><trkpt lat="48.56238728152329" lon="3.2864785290225336"><ele>138.0</ele><time>2026-04-13T09:55:43Z</time></trkpt><trkpt lat="48.5624580048609" lon="3.286578400725373"><ele>138.0</ele><time>2026-04-13T09:55:45Z</time></trkpt><trkpt lat="48.56252999775744" lon="3.2866653650716677"><ele>138.0</ele><time>2026-04-13T09:55:47Z</time></trkpt><trkpt lat="48.56258534918422" lon="3.286740311515836"><ele>138.0</ele><time>2026-04-13T09:55:49Z</time></trkpt><trkpt lat="48.56264488735473" lon="3.286816926232397"><ele>138.0</ele><time>2026-04-13T09:55:55Z</time></trkpt><trkpt lat="48.56270195161864" lon="3.2869052929959492"><ele>138.0</ele><time>2026-04-13T09:55:58Z</time></trkpt><trkpt lat="48.56272806426299" lon="3.287007181505465"><ele>138.0</ele><time>2026-04-13T09:56:00Z</time></trkpt><trkpt lat="48.56272672158527" lon="3.287119509810013"><ele>138.0</ele><time>2026-04-13T09:56:02Z</time></trkpt><trkpt lat="48.56265712267833" lon="3.2872388112179025"><ele>138.0</ele><time>2026-04-13T09:56:04Z</time></trkpt><trkpt lat="48.56258402999896" lon="3.2873472235336445"><ele>138.0</ele><time>2026-04-13T09:56:06Z</time></trkpt><trkpt lat="48.562526693082106" lon="3.2874555234583274"><ele>138.0</ele><time>2026-04-13T09:56:08Z</time></trkpt><trkpt lat="48.5624920302767" lon="3.287573466092469"><ele>138.0</ele><time>2026-04-13T09:56:10Z</time></trkpt><trkpt lat="48.562466383370065" lon="3.2876925882559402"><ele>138.0</ele><time>2026-04-13T09:56:12Z</time></trkpt><trkpt lat="48.562419046707866" lon="3.2877990653862983"><ele>138.0</ele><time>2026-04-13T09:56:14Z</time></trkpt><trkpt lat="48.56236304636738" lon="3.287921620667091"><ele>138.0</ele><time>2026-04-13T09:56:16Z</time></trkpt><trkpt lat="48.562313346283204" lon="3.288050943947536"><ele>138.0</ele><time>2026-04-13T09:56:18Z</time></trkpt><trkpt lat="48.5622640554027" lon="3.288171712981816"><ele>138.0</ele><time>2026-04-13T09:56:20Z</time></trkpt><trkpt lat="48.56220846752229" lon="3.288289189793437"><ele>137.8</ele><time>2026-04-13T09:56:22Z</time></trkpt><trkpt lat="48.562195511217965" lon="3.2884311671337754"><ele>137.60000000000002</ele><time>2026-04-13T09:56:24Z</time></trkpt><trkpt lat="48.562277941794335" lon="3.28852987589607"><ele>137.39999999999998</ele><time>2026-04-13T09:56:26Z</time></trkpt><trkpt lat="48.56233385352222" lon="3.288586992475596"><ele>137.2</ele><time>2026-04-13T09:56:28Z</time></trkpt><trkpt lat="48.562364801509055" lon="3.2887176405285965"><ele>137.0</ele><time>2026-04-13T09:56:30Z</time></trkpt><trkpt lat="48.5623635835526" lon="3.2889174994550174"><ele>136.33333333333331</ele><time>2026-04-13T09:56:32Z</time></trkpt><trkpt lat="48.562364728209744" lon="3.289025476311378"><ele>135.66666666666666</ele><time>2026-04-13T09:56:33Z</time></trkpt><trkpt lat="48.562363789434485" lon="3.2891426673991395"><ele>135.0</ele><time>2026-04-13T09:56:34Z</time></trkpt><trkpt lat="48.562352035816204" lon="3.2892675795478628"><ele>134.33333333333334</ele><time>2026-04-13T09:56:35Z</time></trkpt><trkpt lat="48.56233989448034" lon="3.2894034648082227"><ele>133.66666666666669</ele><time>2026-04-13T09:56:36Z</time></trkpt><trkpt lat="48.56233682021734" lon="3.289538526344547"><ele>133.0</ele><time>2026-04-13T09:56:37Z</time></trkpt><trkpt lat="48.5623341948894" lon="3.289672653302835"><ele>131.6</ele><time>2026-04-13T09:56:38Z</time></trkpt><trkpt lat="48.56232787027128" lon="3.2898009714385115"><ele>130.20000000000002</ele><time>2026-04-13T09:56:39Z</time></trkpt><trkpt lat="48.56232143301417" lon="3.2899334631941715"><ele>128.8</ele><time>2026-04-13T09:56:40Z</time></trkpt><trkpt lat="48.56232675048825" lon="3.290076640742936"><ele>127.4</ele><time>2026-04-13T09:56:41Z</time></trkpt><trkpt lat="48.56232788975573" lon="3.290229145358975"><ele>126.0</ele><time>2026-04-13T09:56:42Z</time></trkpt><trkpt lat="48.562324506145885" lon="3.290374037154475"><ele>126.0</ele><time>2026-04-13T09:56:43Z</time></trkpt><trkpt lat="48.56233107238796" lon="3.290509695954458"><ele>126.0</ele><time>2026-04-13T09:56:44Z</time></trkpt><trkpt lat="48.562337844959515" lon="3.290649603521672"><ele>126.0</ele><time>2026-04-13T09:56:45Z</time></trkpt><trkpt lat="48.56232515573584" lon="3.290787241448749"><ele>126.0</ele><time>2026-04-13T09:56:46Z</time></trkpt><trkpt lat="48.56229241325327" lon="3.290924732360929"><ele>126.0</ele><time>2026-04-13T09:56:47Z</time></trkpt><trkpt lat="48.56224372104166" lon="3.2910481587467855"><ele>124.19999999999999</ele><time>2026-04-13T09:56:48Z</time></trkpt><trkpt lat="48.56220867024653" lon="3.291176304046752"><ele>122.39999999999999</ele><time>2026-04-13T09:56:49Z</time></trkpt><trkpt lat="48.56218102643404" lon="3.291315092802736"><ele>120.6</ele><time>2026-04-13T09:56:50Z</time></trkpt><trkpt lat="48.562148105511675" lon="3.291449276313641"><ele>118.8</ele><time>2026-04-13T09:56:51Z</time></trkpt><trkpt lat="48.56211500000413" lon="3.291586198688971"><ele>117.0</ele><time>2026-04-13T09:56:52Z</time></trkpt><trkpt lat="48.562078680954265" lon="3.2917197256173485"><ele>117.6</ele><time>2026-04-13T09:56:53Z</time></trkpt><trkpt lat="48.562043341376686" lon="3.2918593390427366"><ele>118.19999999999999</ele><time>2026-04-13T09:56:54Z</time></trkpt><trkpt lat="48.56201178646762" lon="3.2919943067176916"><ele>118.8</ele><time>2026-04-13T09:56:55Z</time></trkpt><trkpt lat="48.56197577655189" lon="3.292128438445338"><ele>119.4</ele><time>2026-04-13T09:56:56Z</time></trkpt><trkpt lat="48.56194225632567" lon="3.2922643392951434"><ele>120.0</ele><time>2026-04-13T09:56:57Z</time></trkpt><trkpt lat="48.5619004944505" lon="3.292395417923625"><ele>120.0</ele><time>2026-04-13T09:56:58Z</time></trkpt><trkpt lat="48.56186469472618" lon="3.292529332987958"><ele>120.0</ele><time>2026-04-13T09:56:59Z</time></trkpt><trkpt lat="48.56183323066087" lon="3.292648251703467"><ele>120.0</ele><time>2026-04-13T09:57:00Z</time></trkpt><trkpt lat="48.56181166677327" lon="3.2927837069874903"><ele>120.0</ele><time>2026-04-13T09:57:01Z</time></trkpt><trkpt lat="48.56178772762397" lon="3.2929208199445235"><ele>120.0</ele><time>2026-04-13T09:57:02Z</time></trkpt><trkpt lat="48.56176870355797" lon="3.293029146728924"><ele>120.0</ele><time>2026-04-13T09:57:03Z</time></trkpt><trkpt lat="48.561749563319275" lon="3.293133663152711"><ele>118.83333333333333</ele><time>2026-04-13T09:57:04Z</time></trkpt><trkpt lat="48.5617316833966" lon="3.293232280957449"><ele>117.66666666666666</ele><time>2026-04-13T09:57:05Z</time></trkpt><trkpt lat="48.5617040314845" lon="3.2933283189715867"><ele>116.5</ele><time>2026-04-13T09:57:06Z</time></trkpt><trkpt lat="48.561682578369144" lon="3.2934189356016534"><ele>115.33333333333333</ele><time>2026-04-13T09:57:07Z</time></trkpt><trkpt lat="48.56166080669591" lon="3.2935678177822534"><ele>114.16666666666666</ele><time>2026-04-13T09:57:09Z</time></trkpt><trkpt lat="48.561630771269904" lon="3.2936650800102867"><ele>113.0</ele><time>2026-04-13T09:57:11Z</time></trkpt><trkpt lat="48.56161845153702" lon="3.2938154752640076"><ele>111.60000000000001</ele><time>2026-04-13T09:57:14Z</time></trkpt><trkpt lat="48.56158075113275" lon="3.2939565516278106"><ele>110.20000000000002</ele><time>2026-04-13T09:57:16Z</time></trkpt><trkpt lat="48.56154403192749" lon="3.294122490282223"><ele>108.8</ele><time>2026-04-13T09:57:18Z</time></trkpt><trkpt lat="48.56149158964371" lon="3.29426184417457"><ele>107.4</ele><time>2026-04-13T09:57:20Z</time></trkpt><trkpt lat="48.56144430531252" lon="3.29440198979906"><ele>106.0</ele><time>2026-04-13T09:57:22Z</time></trkpt><trkpt lat="48.56140312909143" lon="3.2945595696748926"><ele>106.0</ele><time>2026-04-13T09:57:24Z</time></trkpt><trkpt lat="48.561349641457575" lon="3.2946802112260403"><ele>106.0</ele><time>2026-04-13T09:57:26Z</time></trkpt><trkpt lat="48.56130407237719" lon="3.294773903828171"><ele>106.0</ele><time>2026-04-13T09:57:28Z</time></trkpt><trkpt lat="48.56126299231204" lon="3.294866115947142"><ele>106.0</ele><time>2026-04-13T09:57:30Z</time></trkpt><trkpt lat="48.561235147541176" lon="3.2950076835989783"><ele>106.0</ele><time>2026-04-13T09:57:32Z</time></trkpt><trkpt lat="48.56117962429992" lon="3.2951467210564487"><ele>104.8</ele><time>2026-04-13T09:57:34Z</time></trkpt><trkpt lat="48.56113996576771" lon="3.2952222246520164"><ele>103.6</ele><time>2026-04-13T09:57:35Z</time></trkpt><trkpt lat="48.56109252008119" lon="3.2953674013369674"><ele>102.4</ele><time>2026-04-13T09:57:37Z</time></trkpt><trkpt lat="48.56104822441872" lon="3.2955145752732555"><ele>101.2</ele><time>2026-04-13T09:57:39Z</time></trkpt><trkpt lat="48.561017036246746" lon="3.295650795736595"><ele>100.0</ele><time>2026-04-13T09:57:41Z</time></trkpt><trkpt lat="48.56098068706075" lon="3.2957696887133086"><ele>98.83333333333334</ele><time>2026-04-13T09:57:43Z</time></trkpt><trkpt lat="48.5609451708648" lon="3.295875930219925"><ele>97.66666666666667</ele><time>2026-04-13T09:57:45Z</time></trkpt><trkpt lat="48.560887311339094" lon="3.295943264213841"><ele>96.5</ele><time>2026-04-13T09:57:47Z</time></trkpt><trkpt lat="48.560822954517384" lon="3.295887332137068"><ele>95.33333333333334</ele><time>2026-04-13T09:57:48Z</time></trkpt><trkpt lat="48.56074610435218" lon="3.2958160666383844"><ele>94.16666666666667</ele><time>2026-04-13T09:57:50Z</time></trkpt><trkpt lat="48.560649121290396" lon="3.2957631901213005"><ele>93.0</ele><time>2026-04-13T09:57:52Z</time></trkpt><trkpt lat="48.56054666350119" lon="3.2957040603135876"><ele>93.0</ele><time>2026-04-13T09:57:54Z</time></trkpt><trkpt lat="48.56044680380972" lon="3.2956388223335082"><ele>93.0</ele><time>2026-04-13T09:57:56Z</time></trkpt><trkpt lat="48.56034380709127" lon="3.295576582347566"><ele>93.0</ele><time>2026-04-13T09:57:58Z</time></trkpt><trkpt lat="48.560244889900446" lon="3.2955128879624387"><ele>93.0</ele><time>2026-04-13T09:58:00Z</time></trkpt><trkpt lat="48.5601510373799" lon="3.2954375421765896"><ele>93.0</ele><time>2026-04-13T09:58:02Z</time></trkpt><trkpt lat="48.56005774270703" lon="3.295391918549933"><ele>93.16666666666667</ele><time>2026-04-13T09:58:04Z</time></trkpt><trkpt lat="48.55999117528185" lon="3.295343611488857"><ele>93.33333333333333</ele><time>2026-04-13T09:58:06Z</time></trkpt><trkpt lat="48.55992091006427" lon="3.2954395218002577"><ele>93.5</ele><time>2026-04-13T09:58:09Z</time></trkpt><trkpt lat="48.559901560110255" lon="3.295583616276525"><ele>93.66666666666666</ele><time>2026-04-13T09:58:11Z</time></trkpt><trkpt lat="48.55983450439547" lon="3.295686882111554"><ele>93.83333333333333</ele><time>2026-04-13T09:58:13Z</time></trkpt><trkpt lat="48.559784936014005" lon="3.295766721317388"><ele>94.0</ele><time>2026-04-13T09:58:15Z</time></trkpt><trkpt lat="48.55974192161441" lon="3.2958408381351187"><ele>93.5</ele><time>2026-04-13T09:58:21Z</time></trkpt><trkpt lat="48.55969692550141" lon="3.295933789421697"><ele>93.0</ele><time>2026-04-13T09:58:24Z</time></trkpt><trkpt lat="48.55963795154893" lon="3.2960168312893914"><ele>92.5</ele><time>2026-04-13T09:58:26Z</time></trkpt><trkpt lat="48.559572310343" lon="3.2961141134762855"><ele>92.0</ele><time>2026-04-13T09:58:28Z</time></trkpt><trkpt lat="48.55951233426367" lon="3.296234997331439"><ele>91.5</ele><time>2026-04-13T09:58:30Z</time></trkpt><trkpt lat="48.5594419740646" lon="3.29633927956057"><ele>91.0</ele><time>2026-04-13T09:58:32Z</time></trkpt><trkpt lat="48.55936977706726" lon="3.296455955849501"><ele>90.8</ele><time>2026-04-13T09:58:34Z</time></trkpt><trkpt lat="48.55932060482694" lon="3.296582758845781"><ele>90.6</ele><time>2026-04-13T09:58:36Z</time></trkpt><trkpt lat="48.55925353267181" lon="3.296674228786409"><ele>90.4</ele><time>2026-04-13T09:58:38Z</time></trkpt><trkpt lat="48.55922900427256" lon="3.296791427617238"><ele>90.2</ele><time>2026-04-13T09:58:40Z</time></trkpt><trkpt lat="48.559185511880564" lon="3.296910077096565"><ele>90.0</ele><time>2026-04-13T09:58:42Z</time></trkpt><trkpt lat="48.55913727362031" lon="3.2970310647826415"><ele>90.0</ele><time>2026-04-13T09:58:44Z</time></trkpt><trkpt lat="48.559092621744924" lon="3.297162071509307"><ele>90.0</ele><time>2026-04-13T09:58:46Z</time></trkpt><trkpt lat="48.559054233849345" lon="3.297264463367802"><ele>90.0</ele><time>2026-04-13T09:58:48Z</time></trkpt><trkpt lat="48.55900189079585" lon="3.2973905149849987"><ele>90.0</ele><time>2026-04-13T09:58:50Z</time></trkpt><trkpt lat="48.558941981854545" lon="3.297529812256467"><ele>90.0</ele><time>2026-04-13T09:58:52Z</time></trkpt><trkpt lat="48.55888435355329" lon="3.2976628828185968"><ele>90.0</ele><time>2026-04-13T09:58:54Z</time></trkpt><trkpt lat="48.558825516994766" lon="3.2977902100359073"><ele>90.0</ele><time>2026-04-13T09:58:56Z</time></trkpt><trkpt lat="48.55878232643824" lon="3.2979105611356174"><ele>90.0</ele><time>2026-04-13T09:58:58Z</time></trkpt><trkpt lat="48.55874457716509" lon="3.29803723551345"><ele>90.0</ele><time>2026-04-13T09:59:00Z</time></trkpt><trkpt lat="48.558679003331804" lon="3.2981685231095326"><ele>90.0</ele><time>2026-04-13T09:59:02Z</time></trkpt><trkpt lat="48.55864642346253" lon="3.2983176896142106"><ele>90.0</ele><time>2026-04-13T09:59:04Z</time></trkpt><trkpt lat="48.558759950885225" lon="3.2984098605151972"><ele>90.0</ele><time>2026-04-13T09:59:06Z</time></trkpt><trkpt lat="48.558825067074494" lon="3.298427792998309"><ele>90.0</ele><time>2026-04-13T09:59:07Z</time></trkpt><trkpt lat="48.55894007976904" lon="3.2984730773797377"><ele>90.0</ele><time>2026-04-13T09:59:09Z</time></trkpt><trkpt lat="48.559053410855" lon="3.2985166700599358"><ele>90.0</ele><time>2026-04-13T09:59:11Z</time></trkpt><trkpt lat="48.55916801932461" lon="3.298557541990335"><ele>90.0</ele><time>2026-04-13T09:59:13Z</time></trkpt><trkpt lat="48.5592743924044" lon="3.298609119467109"><ele>90.0</ele><time>2026-04-13T09:59:15Z</time></trkpt><trkpt lat="48.55938175491053" lon="3.2986523433180803"><ele>90.0</ele><time>2026-04-13T09:59:17Z</time></trkpt><trkpt lat="48.55948792043462" lon="3.2986739123940825"><ele>90.0</ele><time>2026-04-13T09:59:19Z</time></trkpt><trkpt lat="48.55959347418304" lon="3.2987115437107106"><ele>90.0</ele><time>2026-04-13T09:59:21Z</time></trkpt><trkpt lat="48.5596855343257" lon="3.2987674508448643"><ele>90.42857142857143</ele><time>2026-04-13T09:59:23Z</time></trkpt><trkpt lat="48.55976600081979" lon="3.2987849202707213"><ele>90.85714285714286</ele><time>2026-04-13T09:59:26Z</time></trkpt><trkpt lat="48.55983328165205" lon="3.298793840151274"><ele>91.28571428571429</ele><time>2026-04-13T09:59:30Z</time></trkpt><trkpt lat="48.55989736346766" lon="3.298798746955762"><ele>91.71428571428572</ele><time>2026-04-13T09:59:49Z</time></trkpt><trkpt lat="48.55997521055891" lon="3.298819003190415"><ele>92.14285714285714</ele><time>2026-04-13T09:59:52Z</time></trkpt><trkpt lat="48.56004609127613" lon="3.298845857067069"><ele>92.57142857142858</ele><time>2026-04-13T09:59:54Z</time></trkpt><trkpt lat="48.56010897426677" lon="3.298863071259577"><ele>93.0</ele><time>2026-04-13T09:59:56Z</time></trkpt><trkpt lat="48.56014655446129" lon="3.2989487188150255"><ele>93.33333333333333</ele><time>2026-04-13T10:00:00Z</time></trkpt><trkpt lat="48.56013233554636" lon="3.29904632009432"><ele>93.66666666666667</ele><time>2026-04-13T10:00:02Z</time></trkpt><trkpt lat="48.56009406221421" lon="3.29916745804966"><ele>94.0</ele><time>2026-04-13T10:00:04Z</time></trkpt><trkpt lat="48.56005003165258" lon="3.2992859302268527"><ele>94.33333333333334</ele><time>2026-04-13T10:00:06Z</time></trkpt><trkpt lat="48.56001581335449" lon="3.299404741467814"><ele>94.66666666666667</ele><time>2026-04-13T10:00:08Z</time></trkpt><trkpt lat="48.55998274821523" lon="3.299499857553393"><ele>95.0</ele><time>2026-04-13T10:00:10Z</time></trkpt><trkpt lat="48.55993133554534" lon="3.299609540674092"><ele>95.0</ele><time>2026-04-13T10:00:13Z</time></trkpt><trkpt lat="48.55992255920034" lon="3.2997146262620216"><ele>95.0</ele><time>2026-04-13T10:00:15Z</time></trkpt><trkpt lat="48.559878524832804" lon="3.2998303001014015"><ele>95.0</ele><time>2026-04-13T10:00:17Z</time></trkpt><trkpt lat="48.55983017487183" lon="3.299967940246886"><ele>95.0</ele><time>2026-04-13T10:00:19Z</time></trkpt><trkpt lat="48.55976994643186" lon="3.3000807558747276"><ele>95.0</ele><time>2026-04-13T10:00:21Z</time></trkpt><trkpt lat="48.55972653698292" lon="3.300194860952659"><ele>95.0</ele><time>2026-04-13T10:00:23Z</time></trkpt><trkpt lat="48.55968564182122" lon="3.300320670549373"><ele>94.83333333333334</ele><time>2026-04-13T10:00:25Z</time></trkpt><trkpt lat="48.55964480279492" lon="3.300430973232054"><ele>94.66666666666667</ele><time>2026-04-13T10:00:27Z</time></trkpt><trkpt lat="48.559610252992854" lon="3.300532017501576"><ele>94.5</ele><time>2026-04-13T10:00:29Z</time></trkpt><trkpt lat="48.55956128078394" lon="3.3006596943824977"><ele>94.33333333333333</ele><time>2026-04-13T10:00:32Z</time></trkpt><trkpt lat="48.559538546928884" lon="3.3007654785297555"><ele>94.16666666666666</ele><time>2026-04-13T10:00:34Z</time></trkpt><trkpt lat="48.55950376978544" lon="3.3008634524744953"><ele>94.0</ele><time>2026-04-13T10:00:36Z</time></trkpt><trkpt lat="48.559464333106874" lon="3.3009581243"><ele>93.66666666666666</ele><time>2026-04-13T10:00:38Z</time></trkpt><trkpt lat="48.559416856540494" lon="3.3010669050213597"><ele>93.33333333333333</ele><time>2026-04-13T10:00:40Z</time></trkpt><trkpt lat="48.55938195906365" lon="3.3011467669755183"><ele>93.0</ele><time>2026-04-13T10:00:42Z</time></trkpt><trkpt lat="48.55933770722165" lon="3.3012526307111076"><ele>92.66666666666667</ele><time>2026-04-13T10:00:47Z</time></trkpt><trkpt lat="48.55928365050697" lon="3.301341314548359"><ele>92.33333333333334</ele><time>2026-04-13T10:00:50Z</time></trkpt><trkpt lat="48.5592656730507" lon="3.3014563996457347"><ele>92.0</ele><time>2026-04-13T10:00:52Z</time></trkpt><trkpt lat="48.55924316967893" lon="3.3015651847157446"><ele>92.0</ele><time>2026-04-13T10:00:54Z</time></trkpt><trkpt lat="48.559235329448946" lon="3.301702763189115"><ele>92.0</ele><time>2026-04-13T10:00:56Z</time></trkpt><trkpt lat="48.55921258292024" lon="3.3018357221268286"><ele>92.0</ele><time>2026-04-13T10:00:58Z</time></trkpt><trkpt lat="48.559196050506216" lon="3.301975240941994"><ele>92.0</ele><time>2026-04-13T10:01:00Z</time></trkpt><trkpt lat="48.559187686847395" lon="3.302104116868267"><ele>92.0</ele><time>2026-04-13T10:01:02Z</time></trkpt><trkpt lat="48.55919010316557" lon="3.3022181715287937"><ele>92.0</ele><time>2026-04-13T10:01:04Z</time></trkpt><trkpt lat="48.55927369574615" lon="3.3022882687211603"><ele>92.0</ele><time>2026-04-13T10:01:07Z</time></trkpt><trkpt lat="48.55934833045142" lon="3.302244693036031"><ele>92.0</ele><time>2026-04-13T10:01:09Z</time></trkpt><trkpt lat="48.55943919511108" lon="3.3022239009150796"><ele>92.0</ele><time>2026-04-13T10:01:11Z</time></trkpt><trkpt lat="48.5595386875102" lon="3.302196141186345"><ele>92.0</ele><time>2026-04-13T10:01:13Z</time></trkpt><trkpt lat="48.55965125762219" lon="3.3021957733572473"><ele>92.0</ele><time>2026-04-13T10:01:15Z</time></trkpt><trkpt lat="48.55975860372914" lon="3.3021774448852885"><ele>92.0</ele><time>2026-04-13T10:01:17Z</time></trkpt><trkpt lat="48.559867910153635" lon="3.3021500332909417"><ele>92.0</ele><time>2026-04-13T10:01:19Z</time></trkpt><trkpt lat="48.559968289192625" lon="3.3021237408440043"><ele>92.0</ele><time>2026-04-13T10:01:21Z</time></trkpt><trkpt lat="48.560072516163785" lon="3.302103896257384"><ele>92.0</ele><time>2026-04-13T10:01:23Z</time></trkpt><trkpt lat="48.56017281609174" lon="3.3020961584397917"><ele>92.0</ele><time>2026-04-13T10:01:25Z</time></trkpt><trkpt lat="48.56026545200885" lon="3.302083240740227"><ele>92.0</ele><time>2026-04-13T10:01:27Z</time></trkpt><trkpt lat="48.5603427152827" lon="3.3020645088503366"><ele>92.0</ele><time>2026-04-13T10:01:29Z</time></trkpt><trkpt lat="48.56040490929809" lon="3.302042248187547"><ele>92.0</ele><time>2026-04-13T10:01:35Z</time></trkpt><trkpt lat="48.56047772835262" lon="3.302011681297711"><ele>92.0</ele><time>2026-04-13T10:01:40Z</time></trkpt><trkpt lat="48.56056247174569" lon="3.3019486555812576"><ele>92.0</ele><time>2026-04-13T10:01:44Z</time></trkpt><trkpt lat="48.56056150650981" lon="3.301803814689022"><ele>92.0</ele><time>2026-04-13T10:01:47Z</time></trkpt><trkpt lat="48.56054536745961" lon="3.3017053086613037"><ele>91.83333333333334</ele><time>2026-04-13T10:01:49Z</time></trkpt><trkpt lat="48.56052860124832" lon="3.3015829664446303"><ele>91.66666666666667</ele><time>2026-04-13T10:01:52Z</time></trkpt><trkpt lat="48.56052755219341" lon="3.3014579325930753"><ele>91.5</ele><time>2026-04-13T10:01:55Z</time></trkpt><trkpt lat="48.560512316422205" lon="3.3013549710579255"><ele>91.33333333333333</ele><time>2026-04-13T10:01:57Z</time></trkpt><trkpt lat="48.5604976525104" lon="3.3012405775733864"><ele>91.16666666666666</ele><time>2026-04-13T10:01:59Z</time></trkpt><trkpt lat="48.560491169484436" lon="3.301124463765848"><ele>91.0</ele><time>2026-04-13T10:02:01Z</time></trkpt><trkpt lat="48.56047862038873" lon="3.300991034626477"><ele>91.0</ele><time>2026-04-13T10:02:03Z</time></trkpt><trkpt lat="48.5604730337385" lon="3.30085208099218"><ele>91.0</ele><time>2026-04-13T10:02:05Z</time></trkpt><trkpt lat="48.56047355120644" lon="3.3007074211856247"><ele>91.0</ele><time>2026-04-13T10:02:07Z</time></trkpt><trkpt lat="48.56046385451833" lon="3.3005634304113394"><ele>91.0</ele><time>2026-04-13T10:02:09Z</time></trkpt><trkpt lat="48.56045375018179" lon="3.3004168621771304"><ele>91.0</ele><time>2026-04-13T10:02:11Z</time></trkpt><trkpt lat="48.56045386215017" lon="3.3002789358212796"><ele>91.16666666666666</ele><time>2026-04-13T10:02:13Z</time></trkpt><trkpt lat="48.560445524846244" lon="3.300154051163159"><ele>91.33333333333333</ele><time>2026-04-13T10:02:15Z</time></trkpt><trkpt lat="48.56044800955615" lon="3.3000176590353023"><ele>91.5</ele><time>2026-04-13T10:02:17Z</time></trkpt><trkpt lat="48.560450971915664" lon="3.29987689250083"><ele>91.66666666666667</ele><time>2026-04-13T10:02:19Z</time></trkpt><trkpt lat="48.56045070261179" lon="3.2997457363321834"><ele>91.83333333333334</ele><time>2026-04-13T10:02:21Z</time></trkpt><trkpt lat="48.56046488817018" lon="3.299622152291687"><ele>92.0</ele><time>2026-04-13T10:02:23Z</time></trkpt><trkpt lat="48.56049710632721" lon="3.2995266948923088"><ele>92.0</ele><time>2026-04-13T10:02:25Z</time></trkpt><trkpt lat="48.56058286297861" lon="3.299525133277745"><ele>92.0</ele><time>2026-04-13T10:02:27Z</time></trkpt><trkpt lat="48.56068089954039" lon="3.2995555228061306"><ele>92.0</ele><time>2026-04-13T10:02:29Z</time></trkpt><trkpt lat="48.560786388884964" lon="3.299570272047534"><ele>92.0</ele><time>2026-04-13T10:02:31Z</time></trkpt><trkpt lat="48.560884043401316" lon="3.2995865904324084"><ele>92.0</ele><time>2026-04-13T10:02:33Z</time></trkpt><trkpt lat="48.560985341270914" lon="3.2996129095077276"><ele>92.0</ele><time>2026-04-13T10:02:35Z</time></trkpt><trkpt lat="48.5610886666508" lon="3.299645672180043"><ele>92.0</ele><time>2026-04-13T10:02:37Z</time></trkpt><trkpt lat="48.561199523933574" lon="3.2996558943366674"><ele>92.0</ele><time>2026-04-13T10:02:39Z</time></trkpt><trkpt lat="48.56131582597072" lon="3.299694977660877"><ele>92.0</ele><time>2026-04-13T10:02:41Z</time></trkpt><trkpt lat="48.5614310695202" lon="3.299718332325662"><ele>91.8</ele><time>2026-04-13T10:02:43Z</time></trkpt><trkpt lat="48.561543506387956" lon="3.2997388749138086"><ele>91.6</ele><time>2026-04-13T10:02:45Z</time></trkpt><trkpt lat="48.56165209451391" lon="3.299759309193596"><ele>91.39999999999999</ele><time>2026-04-13T10:02:47Z</time></trkpt><trkpt lat="48.56175097103249" lon="3.2997840701231542"><ele>91.19999999999999</ele><time>2026-04-13T10:02:49Z</time></trkpt><trkpt lat="48.56184838776531" lon="3.2998077096537246"><ele>91.0</ele><time>2026-04-13T10:02:51Z</time></trkpt><trkpt lat="48.56195236036662" lon="3.2998349458240313"><ele>90.5</ele><time>2026-04-13T10:02:53Z</time></trkpt><trkpt lat="48.5620642305039" lon="3.2998586999264776"><ele>90.0</ele><time>2026-04-13T10:02:55Z</time></trkpt><trkpt lat="48.56217549177976" lon="3.2998806169587622"><ele>89.5</ele><time>2026-04-13T10:02:57Z</time></trkpt><trkpt lat="48.56228763820904" lon="3.299906818404691"><ele>89.0</ele><time>2026-04-13T10:02:59Z</time></trkpt><trkpt lat="48.56240098069548" lon="3.2999263323749437"><ele>89.0</ele><time>2026-04-13T10:03:01Z</time></trkpt><trkpt lat="48.56251248599117" lon="3.2999472843013007"><ele>89.0</ele><time>2026-04-13T10:03:03Z</time></trkpt><trkpt lat="48.562611667623095" lon="3.2999732696330923"><ele>89.0</ele><time>2026-04-13T10:03:05Z</time></trkpt><trkpt lat="48.562702000240044" lon="3.2999950885419556"><ele>89.0</ele><time>2026-04-13T10:03:07Z</time></trkpt><trkpt lat="48.562775634578244" lon="3.300012473068401"><ele>89.0</ele><time>2026-04-13T10:03:10Z</time></trkpt><trkpt lat="48.562848194061324" lon="3.300078351993369"><ele>89.16666666666667</ele><time>2026-04-13T10:03:14Z</time></trkpt><trkpt lat="48.56291963434663" lon="3.300047758697897"><ele>89.33333333333334</ele><time>2026-04-13T10:03:16Z</time></trkpt><trkpt lat="48.56299205049552" lon="3.3000432025364903"><ele>89.5</ele><time>2026-04-13T10:03:18Z</time></trkpt><trkpt lat="48.5630766958345" lon="3.3000829869852444"><ele>89.66666666666667</ele><time>2026-04-13T10:03:20Z</time></trkpt><trkpt lat="48.56316850161477" lon="3.3001202228769806"><ele>89.83333333333333</ele><time>2026-04-13T10:03:22Z</time></trkpt><trkpt lat="48.5632695467318" lon="3.300135026269969"><ele>90.0</ele><time>2026-04-13T10:03:24Z</time></trkpt><trkpt lat="48.56336591332368" lon="3.3001732221515607"><ele>90.0</ele><time>2026-04-13T10:03:26Z</time></trkpt><trkpt lat="48.563458685560576" lon="3.300181767499656"><ele>90.0</ele><time>2026-04-13T10:03:28Z</time></trkpt><trkpt lat="48.563560698007045" lon="3.3002047918285733"><ele>90.0</ele><time>2026-04-13T10:03:30Z</time></trkpt><trkpt lat="48.56365976939196" lon="3.300221265063152"><ele>90.0</ele><time>2026-04-13T10:03:32Z</time></trkpt><trkpt lat="48.56375223138641" lon="3.300247656170034"><ele>90.0</ele><time>2026-04-13T10:03:34Z</time></trkpt><trkpt lat="48.563848611014485" lon="3.300267610621676"><ele>90.0</ele><time>2026-04-13T10:03:36Z</time></trkpt><trkpt lat="48.56393457401742" lon="3.3002835350533126"><ele>90.0</ele><time>2026-04-13T10:03:38Z</time></trkpt><trkpt lat="48.564003849177546" lon="3.3003014057755493"><ele>90.0</ele><time>2026-04-13T10:03:40Z</time></trkpt><trkpt lat="48.56407631161117" lon="3.300316123839375"><ele>90.0</ele><time>2026-04-13T10:03:42Z</time></trkpt><trkpt lat="48.564147312637765" lon="3.30033779763335"><ele>90.0</ele><time>2026-04-13T10:03:44Z</time></trkpt><trkpt lat="48.56422609384605" lon="3.300349282019981"><ele>90.0</ele><time>2026-04-13T10:03:46Z</time></trkpt><trkpt lat="48.564301376682884" lon="3.3003790078633304"><ele>90.0</ele><time>2026-04-13T10:03:48Z</time></trkpt><trkpt lat="48.56438280193106" lon="3.3003827861735564"><ele>90.0</ele><time>2026-04-13T10:03:50Z</time></trkpt><trkpt lat="48.56446736456892" lon="3.3004128688913292"><ele>90.0</ele><time>2026-04-13T10:03:52Z</time></trkpt><trkpt lat="48.56456261002145" lon="3.3004322433373843"><ele>90.0</ele><time>2026-04-13T10:03:54Z</time></trkpt><trkpt lat="48.56466055434062" lon="3.3004576060355313"><ele>90.0</ele><time>2026-04-13T10:03:56Z</time></trkpt><trkpt lat="48.56476281617822" lon="3.3004792767204134"><ele>90.2</ele><time>2026-04-13T10:03:58Z</time></trkpt><trkpt lat="48.5648694737531" lon="3.300502176656074"><ele>90.4</ele><time>2026-04-13T10:04:00Z</time></trkpt><trkpt lat="48.56497418795726" lon="3.300524634968239"><ele>90.6</ele><time>2026-04-13T10:04:02Z</time></trkpt><trkpt lat="48.56507413053439" lon="3.300547451568687"><ele>90.8</ele><time>2026-04-13T10:04:04Z</time></trkpt><trkpt lat="48.56516751347579" lon="3.300569092214019"><ele>91.0</ele><time>2026-04-13T10:04:06Z</time></trkpt><trkpt lat="48.565255632412416" lon="3.3005898349414675"><ele>91.0</ele><time>2026-04-13T10:04:08Z</time></trkpt><trkpt lat="48.56533922607728" lon="3.300604234060128"><ele>91.0</ele><time>2026-04-13T10:04:10Z</time></trkpt><trkpt lat="48.56541302101771" lon="3.300633617029263"><ele>91.0</ele><time>2026-04-13T10:04:12Z</time></trkpt><trkpt lat="48.56545155348736" lon="3.3007642455405635"><ele>91.0</ele><time>2026-04-13T10:04:14Z</time></trkpt><trkpt lat="48.56541593377476" lon="3.3009106868162172"><ele>91.0</ele><time>2026-04-13T10:04:16Z</time></trkpt><trkpt lat="48.565365600261124" lon="3.3010543752121495"><ele>91.0</ele><time>2026-04-13T10:04:18Z</time></trkpt><trkpt lat="48.56531867235853" lon="3.3012076613231183"><ele>91.0</ele><time>2026-04-13T10:04:20Z</time></trkpt><trkpt lat="48.56527201162038" lon="3.3013593942639603"><ele>91.0</ele><time>2026-04-13T10:04:22Z</time></trkpt><trkpt lat="48.56522707132775" lon="3.301495903129964"><ele>91.0</ele><time>2026-04-13T10:04:24Z</time></trkpt><trkpt lat="48.56517490542914" lon="3.3016364974461143"><ele>91.0</ele><time>2026-04-13T10:04:26Z</time></trkpt><trkpt lat="48.56512542306436" lon="3.3017658766999416"><ele>91.4</ele><time>2026-04-13T10:04:28Z</time></trkpt><trkpt lat="48.565088195024096" lon="3.301902809277899"><ele>91.8</ele><time>2026-04-13T10:04:30Z</time></trkpt><trkpt lat="48.56504280871968" lon="3.30204461048501"><ele>92.2</ele><time>2026-04-13T10:04:32Z</time></trkpt><trkpt lat="48.564994072343644" lon="3.302185570609342"><ele>92.60000000000001</ele><time>2026-04-13T10:04:34Z</time></trkpt><trkpt lat="48.564945983389336" lon="3.3023289707802306"><ele>93.0</ele><time>2026-04-13T10:04:36Z</time></trkpt><trkpt lat="48.56490259220861" lon="3.302466648188785"><ele>93.2</ele><time>2026-04-13T10:04:38Z</time></trkpt><trkpt lat="48.56485788989435" lon="3.302592387173215"><ele>93.4</ele><time>2026-04-13T10:04:40Z</time></trkpt><trkpt lat="48.564818936460256" lon="3.302705226190233"><ele>93.60000000000001</ele><time>2026-04-13T10:04:42Z</time></trkpt><trkpt lat="48.56477477222536" lon="3.302838227414263"><ele>93.80000000000001</ele><time>2026-04-13T10:04:44Z</time></trkpt><trkpt lat="48.564715182508436" lon="3.30297156477129"><ele>94.0</ele><time>2026-04-13T10:04:46Z</time></trkpt><trkpt lat="48.564667759498086" lon="3.303118271343795"><ele>94.2</ele><time>2026-04-13T10:04:48Z</time></trkpt><trkpt lat="48.56462340709232" lon="3.3032649354669514"><ele>94.4</ele><time>2026-04-13T10:04:50Z</time></trkpt><trkpt lat="48.56456932395435" lon="3.3034017656888266"><ele>94.6</ele><time>2026-04-13T10:04:52Z</time></trkpt><trkpt lat="48.56451751144263" lon="3.3035422146265603"><ele>94.8</ele><time>2026-04-13T10:04:54Z</time></trkpt><trkpt lat="48.56446169150042" lon="3.303682285875373"><ele>95.0</ele><time>2026-04-13T10:04:56Z</time></trkpt><trkpt lat="48.564399271381184" lon="3.303824035782231"><ele>94.75</ele><time>2026-04-13T10:04:58Z</time></trkpt><trkpt lat="48.56432795925998" lon="3.3039572161227184"><ele>94.5</ele><time>2026-04-13T10:05:00Z</time></trkpt><trkpt lat="48.56424867288828" lon="3.3040881799792365"><ele>94.25</ele><time>2026-04-13T10:05:02Z</time></trkpt><trkpt lat="48.56417207669314" lon="3.3042202519575117"><ele>94.0</ele><time>2026-04-13T10:05:04Z</time></trkpt><trkpt lat="48.56408837695722" lon="3.304333447684475"><ele>94.0</ele><time>2026-04-13T10:05:06Z</time></trkpt><trkpt lat="48.564004245156646" lon="3.304444631868002"><ele>94.0</ele><time>2026-04-13T10:05:08Z</time></trkpt><trkpt lat="48.56393207436881" lon="3.3045647871754187"><ele>94.0</ele><time>2026-04-13T10:05:10Z</time></trkpt><trkpt lat="48.563855676433874" lon="3.3046569377380735"><ele>94.0</ele><time>2026-04-13T10:05:12Z</time></trkpt><trkpt lat="48.56381230941112" lon="3.30473321458258"><ele>94.0</ele><time>2026-04-13T10:05:14Z</time></trkpt><trkpt lat="48.56375164634098" lon="3.30477995064814"><ele>93.66666666666666</ele><time>2026-04-13T10:05:17Z</time></trkpt><trkpt lat="48.56367965257857" lon="3.304766704426262"><ele>93.33333333333333</ele><time>2026-04-13T10:05:19Z</time></trkpt><trkpt lat="48.56360735621539" lon="3.3047123491523736"><ele>93.0</ele><time>2026-04-13T10:05:21Z</time></trkpt><trkpt lat="48.56354234296284" lon="3.304684147914351"><ele>92.66666666666667</ele><time>2026-04-13T10:05:23Z</time></trkpt><trkpt lat="48.56345937602365" lon="3.3046661850943924"><ele>92.33333333333334</ele><time>2026-04-13T10:05:26Z</time></trkpt><trkpt lat="48.56341891304099" lon="3.3047832351772097"><ele>92.0</ele><time>2026-04-13T10:05:29Z</time></trkpt><trkpt lat="48.56340725892466" lon="3.304881721573744"><ele>92.0</ele><time>2026-04-13T10:05:31Z</time></trkpt><trkpt lat="48.56339451536191" lon="3.304995648222117"><ele>92.0</ele><time>2026-04-13T10:05:33Z</time></trkpt><trkpt lat="48.56338621718669" lon="3.305122457270827"><ele>92.0</ele><time>2026-04-13T10:05:35Z</time></trkpt><trkpt lat="48.56337726166064" lon="3.305242834738668"><ele>92.0</ele><time>2026-04-13T10:05:37Z</time></trkpt><trkpt lat="48.56336665021266" lon="3.305366989110833"><ele>92.0</ele><time>2026-04-13T10:05:39Z</time></trkpt><trkpt lat="48.56334572081677" lon="3.30550095223849"><ele>92.0</ele><time>2026-04-13T10:05:41Z</time></trkpt><trkpt lat="48.563316581348964" lon="3.3056293358285123"><ele>91.8</ele><time>2026-04-13T10:05:43Z</time></trkpt><trkpt lat="48.56325956293002" lon="3.3057458133137576"><ele>91.6</ele><time>2026-04-13T10:05:45Z</time></trkpt><trkpt lat="48.56319447041416" lon="3.305862718472512"><ele>91.39999999999999</ele><time>2026-04-13T10:05:47Z</time></trkpt><trkpt lat="48.563114799412126" lon="3.3059604524242907"><ele>91.19999999999999</ele><time>2026-04-13T10:05:49Z</time></trkpt><trkpt lat="48.56303933191038" lon="3.306069858311681"><ele>91.0</ele><time>2026-04-13T10:05:51Z</time></trkpt><trkpt lat="48.56296561401055" lon="3.3061874089576135"><ele>91.0</ele><time>2026-04-13T10:05:53Z</time></trkpt><trkpt lat="48.562885005919966" lon="3.3062904927238943"><ele>91.0</ele><time>2026-04-13T10:05:55Z</time></trkpt><trkpt lat="48.56281752051711" lon="3.3063983395242866"><ele>91.0</ele><time>2026-04-13T10:05:57Z</time></trkpt><trkpt lat="48.56275122894949" lon="3.3064938007522944"><ele>91.0</ele><time>2026-04-13T10:05:59Z</time></trkpt><trkpt lat="48.562686001776264" lon="3.306587237588839"><ele>91.0</ele><time>2026-04-13T10:06:01Z</time></trkpt><trkpt lat="48.56261320402695" lon="3.3066710147837446"><ele>91.19999999999999</ele><time>2026-04-13T10:06:03Z</time></trkpt><trkpt lat="48.562547175438915" lon="3.3067637515518498"><ele>91.39999999999999</ele><time>2026-04-13T10:06:05Z</time></trkpt><trkpt lat="48.562464118961984" lon="3.3068412813492265"><ele>91.6</ele><time>2026-04-13T10:06:07Z</time></trkpt><trkpt lat="48.56236390707364" lon="3.3068977853799906"><ele>91.8</ele><time>2026-04-13T10:06:09Z</time></trkpt><trkpt lat="48.56224981861027" lon="3.3068834733232033"><ele>92.0</ele><time>2026-04-13T10:06:11Z</time></trkpt><trkpt lat="48.56213340508053" lon="3.3069064075534507"><ele>91.8</ele><time>2026-04-13T10:06:13Z</time></trkpt><trkpt lat="48.56202076119961" lon="3.306926147213828"><ele>91.6</ele><time>2026-04-13T10:06:15Z</time></trkpt><trkpt lat="48.56190585542538" lon="3.3069442743358906"><ele>91.39999999999999</ele><time>2026-04-13T10:06:17Z</time></trkpt><trkpt lat="48.56180622318343" lon="3.3069596595896393"><ele>91.19999999999999</ele><time>2026-04-13T10:06:19Z</time></trkpt><trkpt lat="48.561709472450154" lon="3.306957370779316"><ele>91.0</ele><time>2026-04-13T10:06:21Z</time></trkpt><trkpt lat="48.56160935175311" lon="3.306965642819813"><ele>91.0</ele><time>2026-04-13T10:06:23Z</time></trkpt><trkpt lat="48.56151660647776" lon="3.3069723279163976"><ele>91.0</ele><time>2026-04-13T10:06:25Z</time></trkpt><trkpt lat="48.5614325744758" lon="3.3069692550365857"><ele>91.0</ele><time>2026-04-13T10:06:28Z</time></trkpt><trkpt lat="48.561362354788784" lon="3.306995632417566"><ele>91.0</ele><time>2026-04-13T10:07:05Z</time></trkpt><trkpt lat="48.56127256563831" lon="3.307006685291017"><ele>91.0</ele><time>2026-04-13T10:07:08Z</time></trkpt><trkpt lat="48.56119670050644" lon="3.307002267567522"><ele>91.0</ele><time>2026-04-13T10:07:10Z</time></trkpt><trkpt lat="48.561114291102456" lon="3.306998561504224"><ele>90.83333333333333</ele><time>2026-04-13T10:07:12Z</time></trkpt><trkpt lat="48.56103559657535" lon="3.306992566392929"><ele>90.66666666666666</ele><time>2026-04-13T10:07:14Z</time></trkpt><trkpt lat="48.560963920882436" lon="3.3069919564663435"><ele>90.5</ele><time>2026-04-13T10:07:16Z</time></trkpt><trkpt lat="48.5608892822983" lon="3.3069956369260667"><ele>90.33333333333333</ele><time>2026-04-13T10:07:18Z</time></trkpt><trkpt lat="48.56081280945492" lon="3.3069834483461076"><ele>90.16666666666667</ele><time>2026-04-13T10:07:20Z</time></trkpt><trkpt lat="48.56074104228587" lon="3.306980293760648"><ele>90.0</ele><time>2026-04-13T10:07:22Z</time></trkpt><trkpt lat="48.56065326348475" lon="3.3069690686522213"><ele>90.0</ele><time>2026-04-13T10:07:25Z</time></trkpt><trkpt lat="48.560567482418" lon="3.3069984867729048"><ele>90.0</ele><time>2026-04-13T10:07:28Z</time></trkpt><trkpt lat="48.5605066847381" lon="3.307024754811502"><ele>90.0</ele><time>2026-04-13T10:07:30Z</time></trkpt><trkpt lat="48.56044053578053" lon="3.307032085839772"><ele>90.0</ele><time>2026-04-13T10:07:32Z</time></trkpt><trkpt lat="48.560368603209334" lon="3.307035218667786"><ele>90.0</ele><time>2026-04-13T10:07:34Z</time></trkpt><trkpt lat="48.56027162129955" lon="3.3070505986399845"><ele>90.0</ele><time>2026-04-13T10:07:37Z</time></trkpt><trkpt lat="48.56020424625685" lon="3.307063649606734"><ele>90.0</ele><time>2026-04-13T10:07:39Z</time></trkpt><trkpt lat="48.56010794863421" lon="3.3070853440550967"><ele>90.0</ele><time>2026-04-13T10:07:42Z</time></trkpt><trkpt lat="48.56002177537632" lon="3.3070928796279953"><ele>90.0</ele><time>2026-04-13T10:07:44Z</time></trkpt><trkpt lat="48.55993674858537" lon="3.3071051796716047"><ele>90.0</ele><time>2026-04-13T10:07:46Z</time></trkpt><trkpt lat="48.559850902017715" lon="3.3071197897182696"><ele>90.0</ele><time>2026-04-13T10:07:48Z</time></trkpt><trkpt lat="48.55976499489305" lon="3.307145001911367"><ele>90.0</ele><time>2026-04-13T10:07:50Z</time></trkpt><trkpt lat="48.55967452949315" lon="3.3071748386740727"><ele>90.0</ele><time>2026-04-13T10:07:52Z</time></trkpt><trkpt lat="48.55957684373595" lon="3.3071983660817987"><ele>90.0</ele><time>2026-04-13T10:07:54Z</time></trkpt><trkpt lat="48.55948098470769" lon="3.3072299632890476"><ele>90.0</ele><time>2026-04-13T10:07:56Z</time></trkpt><trkpt lat="48.559391949108054" lon="3.307271414643165"><ele>90.0</ele><time>2026-04-13T10:07:58Z</time></trkpt><trkpt lat="48.559289808033505" lon="3.307295056751858"><ele>90.0</ele><time>2026-04-13T10:08:00Z</time></trkpt><trkpt lat="48.559182455177776" lon="3.3073188675968836"><ele>90.0</ele><time>2026-04-13T10:08:02Z</time></trkpt><trkpt lat="48.55906839984322" lon="3.3073190592687807"><ele>90.0</ele><time>2026-04-13T10:08:04Z</time></trkpt><trkpt lat="48.55895890248247" lon="3.307317970561497"><ele>90.0</ele><time>2026-04-13T10:08:06Z</time></trkpt><trkpt lat="48.558851715152095" lon="3.307319461403751"><ele>90.0</ele><time>2026-04-13T10:08:08Z</time></trkpt><trkpt lat="48.55875265124484" lon="3.3073157228217918"><ele>90.0</ele><time>2026-04-13T10:08:10Z</time></trkpt><trkpt lat="48.558663174293194" lon="3.3073184623614194"><ele>90.16666666666667</ele><time>2026-04-13T10:08:12Z</time></trkpt><trkpt lat="48.55859046126938" lon="3.307296999900047"><ele>90.33333333333333</ele><time>2026-04-13T10:08:14Z</time></trkpt><trkpt lat="48.558506897040765" lon="3.3072694873125776"><ele>90.5</ele><time>2026-04-13T10:08:17Z</time></trkpt><trkpt lat="48.558416001299555" lon="3.307276757953479"><ele>90.66666666666666</ele><time>2026-04-13T10:08:20Z</time></trkpt><trkpt lat="48.55834931832938" lon="3.3072842042429667"><ele>90.83333333333333</ele><time>2026-04-13T10:08:24Z</time></trkpt><trkpt lat="48.55829932705875" lon="3.3072061299023106"><ele>91.0</ele><time>2026-04-13T10:08:28Z</time></trkpt><trkpt lat="48.55828404246415" lon="3.30706493446964"><ele>91.0</ele><time>2026-04-13T10:08:31Z</time></trkpt><trkpt lat="48.55826203179402" lon="3.3069438552511325"><ele>91.0</ele><time>2026-04-13T10:08:33Z</time></trkpt><trkpt lat="48.55821110919201" lon="3.3068261855727368"><ele>91.0</ele><time>2026-04-13T10:08:35Z</time></trkpt><trkpt lat="48.558172634631944" lon="3.3067116621254953"><ele>91.0</ele><time>2026-04-13T10:08:37Z</time></trkpt><trkpt lat="48.55812220988558" lon="3.3066177897646614"><ele>91.0</ele><time>2026-04-13T10:08:39Z</time></trkpt><trkpt lat="48.55808127097111" lon="3.3065095071634936"><ele>91.0</ele><time>2026-04-13T10:08:41Z</time></trkpt><trkpt lat="48.55804493249996" lon="3.3063997601523116"><ele>91.0</ele><time>2026-04-13T10:08:43Z</time></trkpt><trkpt lat="48.55802221976023" lon="3.3062842297622193"><ele>91.0</ele><time>2026-04-13T10:08:45Z</time></trkpt><trkpt lat="48.55802252935144" lon="3.306164373738232"><ele>91.0</ele><time>2026-04-13T10:08:47Z</time></trkpt><trkpt lat="48.55803384059455" lon="3.3060494774458125"><ele>91.0</ele><time>2026-04-13T10:08:49Z</time></trkpt><trkpt lat="48.55804763311482" lon="3.305923625581102"><ele>91.0</ele><time>2026-04-13T10:08:51Z</time></trkpt><trkpt lat="48.55805637046197" lon="3.305787296452928"><ele>91.0</ele><time>2026-04-13T10:08:53Z</time></trkpt><trkpt lat="48.55806993436411" lon="3.3056427970514797"><ele>91.0</ele><time>2026-04-13T10:08:55Z</time></trkpt><trkpt lat="48.5580754830599" lon="3.305501423324847"><ele>91.0</ele><time>2026-04-13T10:08:57Z</time></trkpt><trkpt lat="48.55806517810036" lon="3.3053429212099945"><ele>91.0</ele><time>2026-04-13T10:08:59Z</time></trkpt><trkpt lat="48.558058742869775" lon="3.305179466889459"><ele>91.0</ele><time>2026-04-13T10:09:01Z</time></trkpt><trkpt lat="48.55805232293964" lon="3.305021007014544"><ele>91.0</ele><time>2026-04-13T10:09:03Z</time></trkpt><trkpt lat="48.558052046668706" lon="3.30487230366991"><ele>91.0</ele><time>2026-04-13T10:09:05Z</time></trkpt><trkpt lat="48.5580388501149" lon="3.304717310175746"><ele>91.0</ele><time>2026-04-13T10:09:07Z</time></trkpt><trkpt lat="48.558023460957855" lon="3.3045619015601875"><ele>91.0</ele><time>2026-04-13T10:09:09Z</time></trkpt><trkpt lat="48.55802024084645" lon="3.3044035329561123"><ele>91.0</ele><time>2026-04-13T10:09:11Z</time></trkpt><trkpt lat="48.55802473830984" lon="3.3042407452216125"><ele>91.0</ele><time>2026-04-13T10:09:13Z</time></trkpt><trkpt lat="48.55804154955387" lon="3.3040811426606744"><ele>91.0</ele><time>2026-04-13T10:09:15Z</time></trkpt><trkpt lat="48.55806097443958" lon="3.3039297974038817"><ele>91.0</ele><time>2026-04-13T10:09:17Z</time></trkpt><trkpt lat="48.55807603138931" lon="3.3037812932795974"><ele>91.0</ele><time>2026-04-13T10:09:19Z</time></trkpt><trkpt lat="48.55809932009052" lon="3.303676177020471"><ele>91.0</ele><time>2026-04-13T10:09:21Z</time></trkpt><trkpt lat="48.558131058008854" lon="3.303554308736567"><ele>91.0</ele><time>2026-04-13T10:09:24Z</time></trkpt><trkpt lat="48.558150301654464" lon="3.303462725993683"><ele>91.0</ele><time>2026-04-13T10:09:29Z</time></trkpt><trkpt lat="48.5581549766854" lon="3.3033633028232825"><ele>91.0</ele><time>2026-04-13T10:09:32Z</time></trkpt><trkpt lat="48.55808084257381" lon="3.303342401796231"><ele>91.0</ele><time>2026-04-13T10:09:34Z</time></trkpt><trkpt lat="48.55801105387889" lon="3.3033131690533515"><ele>91.0</ele><time>2026-04-13T10:09:36Z</time></trkpt><trkpt lat="48.557933921769795" lon="3.3032581976673767"><ele>91.0</ele><time>2026-04-13T10:09:38Z</time></trkpt><trkpt lat="48.557839185183454" lon="3.303206599942531"><ele>91.0</ele><time>2026-04-13T10:09:40Z</time></trkpt><trkpt lat="48.55774139087765" lon="3.30315112571754"><ele>91.0</ele><time>2026-04-13T10:09:42Z</time></trkpt><trkpt lat="48.55763878928861" lon="3.303092560001852"><ele>91.0</ele><time>2026-04-13T10:09:44Z</time></trkpt><trkpt lat="48.55754192867128" lon="3.303028824300632"><ele>91.0</ele><time>2026-04-13T10:09:46Z</time></trkpt><trkpt lat="48.55744037054208" lon="3.302971752840196"><ele>91.0</ele><time>2026-04-13T10:09:48Z</time></trkpt><trkpt lat="48.557345249039635" lon="3.302942815551465"><ele>91.0</ele><time>2026-04-13T10:09:50Z</time></trkpt><trkpt lat="48.557251693786874" lon="3.302964723842817"><ele>91.0</ele><time>2026-04-13T10:09:52Z</time></trkpt><trkpt lat="48.55717950957289" lon="3.3030662918470592"><ele>91.0</ele><time>2026-04-13T10:09:54Z</time></trkpt><trkpt lat="48.557104445724235" lon="3.3031677102886516"><ele>91.0</ele><time>2026-04-13T10:09:56Z</time></trkpt><trkpt lat="48.55703240770862" lon="3.3032821522097646"><ele>91.0</ele><time>2026-04-13T10:09:58Z</time></trkpt><trkpt lat="48.556966405403216" lon="3.303397768065306"><ele>91.0</ele><time>2026-04-13T10:10:00Z</time></trkpt><trkpt lat="48.55688723579793" lon="3.3034960218887885"><ele>91.0</ele><time>2026-04-13T10:10:02Z</time></trkpt><trkpt lat="48.55680038772612" lon="3.303576490634678"><ele>90.83333333333333</ele><time>2026-04-13T10:10:04Z</time></trkpt><trkpt lat="48.55672950699419" lon="3.3036229737547096"><ele>90.66666666666666</ele><time>2026-04-13T10:10:06Z</time></trkpt><trkpt lat="48.55665528673824" lon="3.303665726892556"><ele>90.5</ele><time>2026-04-13T10:10:08Z</time></trkpt><trkpt lat="48.55658063516591" lon="3.3037240972951465"><ele>90.33333333333333</ele><time>2026-04-13T10:10:10Z</time></trkpt><trkpt lat="48.556495909024655" lon="3.303759197882879"><ele>90.16666666666667</ele><time>2026-04-13T10:10:12Z</time></trkpt><trkpt lat="48.556403506591295" lon="3.3038006617716005"><ele>90.0</ele><time>2026-04-13T10:10:14Z</time></trkpt><trkpt lat="48.55632207095071" lon="3.303832776456955"><ele>90.0</ele><time>2026-04-13T10:10:16Z</time></trkpt><trkpt lat="48.55626180263404" lon="3.3037582756643276"><ele>90.0</ele><time>2026-04-13T10:10:18Z</time></trkpt><trkpt lat="48.55623107726501" lon="3.3036294195563567"><ele>90.0</ele><time>2026-04-13T10:10:20Z</time></trkpt><trkpt lat="48.55622042304352" lon="3.30348893964734"><ele>90.0</ele><time>2026-04-13T10:10:22Z</time></trkpt><trkpt lat="48.556209651902755" lon="3.3033333039133637"><ele>90.0</ele><time>2026-04-13T10:10:24Z</time></trkpt><trkpt lat="48.55618151368959" lon="3.303173985478214"><ele>90.0</ele><time>2026-04-13T10:10:26Z</time></trkpt><trkpt lat="48.55615825540985" lon="3.3030111592790834"><ele>90.0</ele><time>2026-04-13T10:10:28Z</time></trkpt><trkpt lat="48.55613138819561" lon="3.302841712989428"><ele>90.0</ele><time>2026-04-13T10:10:30Z</time></trkpt><trkpt lat="48.55610622160479" lon="3.302663714251003"><ele>90.0</ele><time>2026-04-13T10:10:32Z</time></trkpt><trkpt lat="48.55607868180756" lon="3.3024835064638514"><ele>90.0</ele><time>2026-04-13T10:10:34Z</time></trkpt><trkpt lat="48.55604858129793" lon="3.3023012774367424"><ele>90.0</ele><time>2026-04-13T10:10:36Z</time></trkpt><trkpt lat="48.55601744482043" lon="3.302118526097207"><ele>90.0</ele><time>2026-04-13T10:10:38Z</time></trkpt><trkpt lat="48.55600469162132" lon="3.302023792966294"><ele>90.0</ele><time>2026-04-13T10:10:39Z</time></trkpt><trkpt lat="48.55598095457352" lon="3.3018426922008075"><ele>90.0</ele><time>2026-04-13T10:10:41Z</time></trkpt><trkpt lat="48.55595607737082" lon="3.3016784930811216"><ele>90.0</ele><time>2026-04-13T10:10:43Z</time></trkpt><trkpt lat="48.55593238735436" lon="3.3015035040781644"><ele>90.0</ele><time>2026-04-13T10:10:45Z</time></trkpt><trkpt lat="48.55589986055124" lon="3.301327258169502"><ele>90.0</ele><time>2026-04-13T10:10:47Z</time></trkpt><trkpt lat="48.55586614118658" lon="3.3011506414922023"><ele>90.0</ele><time>2026-04-13T10:10:49Z</time></trkpt><trkpt lat="48.55582530565075" lon="3.3009718598528055"><ele>90.0</ele><time>2026-04-13T10:10:51Z</time></trkpt><trkpt lat="48.555771802951554" lon="3.3008077994439624"><ele>90.0</ele><time>2026-04-13T10:10:53Z</time></trkpt><trkpt lat="48.5557408867151" lon="3.300625150543873"><ele>90.0</ele><time>2026-04-13T10:10:55Z</time></trkpt><trkpt lat="48.55571999956241" lon="3.3005342650007004"><ele>90.0</ele><time>2026-04-13T10:10:56Z</time></trkpt><trkpt lat="48.55567228776154" lon="3.300360265025621"><ele>90.0</ele><time>2026-04-13T10:10:58Z</time></trkpt><trkpt lat="48.555649436859326" lon="3.300268457050117"><ele>89.85714285714285</ele><time>2026-04-13T10:10:59Z</time></trkpt><trkpt lat="48.55562602748015" lon="3.3001767027346287"><ele>89.71428571428572</ele><time>2026-04-13T10:11:00Z</time></trkpt><trkpt lat="48.55560417245404" lon="3.300086483695706"><ele>89.57142857142857</ele><time>2026-04-13T10:11:01Z</time></trkpt><trkpt lat="48.55558443323732" lon="3.2999895693370496"><ele>89.42857142857142</ele><time>2026-04-13T10:11:02Z</time></trkpt><trkpt lat="48.55556252607213" lon="3.299891829924306"><ele>89.28571428571428</ele><time>2026-04-13T10:11:03Z</time></trkpt><trkpt lat="48.55554099281773" lon="3.299797894837913"><ele>89.14285714285714</ele><time>2026-04-13T10:11:04Z</time></trkpt><trkpt lat="48.55551644905368" lon="3.2997033568103213"><ele>89.0</ele><time>2026-04-13T10:11:05Z</time></trkpt><trkpt lat="48.55549423052232" lon="3.2996083882996943"><ele>88.99999999999999</ele><time>2026-04-13T10:11:06Z</time></trkpt><trkpt lat="48.55547416200593" lon="3.2995154332260532"><ele>89.0</ele><time>2026-04-13T10:11:07Z</time></trkpt><trkpt lat="48.555452306392795" lon="3.299420976037851"><ele>89.0</ele><time>2026-04-13T10:11:08Z</time></trkpt><trkpt lat="48.55542849058003" lon="3.299331085290643"><ele>89.0</ele><time>2026-04-13T10:11:09Z</time></trkpt><trkpt lat="48.55540394752882" lon="3.2992433424990395"><ele>89.0</ele><time>2026-04-13T10:11:10Z</time></trkpt><trkpt lat="48.55538191774009" lon="3.299150456112753"><ele>88.99999999999999</ele><time>2026-04-13T10:11:11Z</time></trkpt><trkpt lat="48.55534385685044" lon="3.2989723332620065"><ele>89.0</ele><time>2026-04-13T10:11:13Z</time></trkpt><trkpt lat="48.55530891892835" lon="3.2988112574303647"><ele>89.0</ele><time>2026-04-13T10:11:15Z</time></trkpt><trkpt lat="48.55531236837996" lon="3.298675024465271"><ele>89.0</ele><time>2026-04-13T10:11:17Z</time></trkpt><trkpt lat="48.55535438202763" lon="3.2985846425835583"><ele>89.0</ele><time>2026-04-13T10:11:19Z</time></trkpt><trkpt lat="48.55539940245027" lon="3.2985097465609865"><ele>89.0</ele><time>2026-04-13T10:11:22Z</time></trkpt><trkpt lat="48.55541262935462" lon="3.2983979035365714"><ele>89.0</ele><time>2026-04-13T10:11:24Z</time></trkpt><trkpt lat="48.5553707450864" lon="3.2982657361719157"><ele>89.0</ele><time>2026-04-13T10:11:26Z</time></trkpt><trkpt lat="48.5553696976514" lon="3.2980935898090182"><ele>88.66666666666667</ele><time>2026-04-13T10:11:28Z</time></trkpt><trkpt lat="48.55536725154002" lon="3.2979081938907773"><ele>88.33333333333334</ele><time>2026-04-13T10:11:30Z</time></trkpt><trkpt lat="48.5553519327617" lon="3.297724532279804"><ele>88.0</ele><time>2026-04-13T10:11:32Z</time></trkpt><trkpt lat="48.55534322972985" lon="3.2976268942420583"><ele>87.66666666666667</ele><time>2026-04-13T10:11:33Z</time></trkpt><trkpt lat="48.555329644115574" lon="3.2975317990217703"><ele>87.33333333333333</ele><time>2026-04-13T10:11:34Z</time></trkpt><trkpt lat="48.55530722769562" lon="3.2974381067557266"><ele>87.0</ele><time>2026-04-13T10:11:35Z</time></trkpt><trkpt lat="48.555280671954606" lon="3.297348489403635"><ele>87.0</ele><time>2026-04-13T10:11:36Z</time></trkpt><trkpt lat="48.55525787768738" lon="3.297253832628089"><ele>87.0</ele><time>2026-04-13T10:11:37Z</time></trkpt><trkpt lat="48.5552314105934" lon="3.2971646976621036"><ele>87.0</ele><time>2026-04-13T10:11:38Z</time></trkpt><trkpt lat="48.555202480906786" lon="3.2970766239986378"><ele>87.0</ele><time>2026-04-13T10:11:39Z</time></trkpt><trkpt lat="48.555175327441226" lon="3.296987473569937"><ele>87.0</ele><time>2026-04-13T10:11:40Z</time></trkpt><trkpt lat="48.555144861371474" lon="3.2969021408832258"><ele>87.0</ele><time>2026-04-13T10:11:41Z</time></trkpt><trkpt lat="48.55510885710395" lon="3.296821862470146"><ele>87.0</ele><time>2026-04-13T10:11:42Z</time></trkpt><trkpt lat="48.555067362204184" lon="3.2967448104999475"><ele>87.0</ele><time>2026-04-13T10:11:43Z</time></trkpt><trkpt lat="48.55501918735974" lon="3.296673371882338"><ele>87.0</ele><time>2026-04-13T10:11:44Z</time></trkpt><trkpt lat="48.55496753014599" lon="3.2966114774664175"><ele>87.0</ele><time>2026-04-13T10:11:45Z</time></trkpt><trkpt lat="48.55491358374444" lon="3.2965556264709326"><ele>87.0</ele><time>2026-04-13T10:11:46Z</time></trkpt><trkpt lat="48.554859272765384" lon="3.2964998084855255"><ele>87.0</ele><time>2026-04-13T10:11:47Z</time></trkpt><trkpt lat="48.55480607765672" lon="3.2964377511158074"><ele>87.0</ele><time>2026-04-13T10:11:48Z</time></trkpt><trkpt lat="48.55474963687613" lon="3.2963787829915017"><ele>87.0</ele><time>2026-04-13T10:11:49Z</time></trkpt><trkpt lat="48.55469412224577" lon="3.296321349327848"><ele>87.0</ele><time>2026-04-13T10:11:50Z</time></trkpt><trkpt lat="48.55464172722845" lon="3.2962618789383047"><ele>87.0</ele><time>2026-04-13T10:11:51Z</time></trkpt><trkpt lat="48.55458916896115" lon="3.296201198350547"><ele>87.0</ele><time>2026-04-13T10:11:52Z</time></trkpt><trkpt lat="48.554532774019144" lon="3.296145465856936"><ele>87.0</ele><time>2026-04-13T10:11:53Z</time></trkpt><trkpt lat="48.55447806660429" lon="3.296087071419919"><ele>87.0</ele><time>2026-04-13T10:11:54Z</time></trkpt><trkpt lat="48.55442356272215" lon="3.296026112303983"><ele>87.0</ele><time>2026-04-13T10:11:55Z</time></trkpt><trkpt lat="48.55437095396674" lon="3.2959653472302897"><ele>87.0</ele><time>2026-04-13T10:11:56Z</time></trkpt><trkpt lat="48.55431628223159" lon="3.295904909088551"><ele>87.0</ele><time>2026-04-13T10:11:57Z</time></trkpt><trkpt lat="48.55426467306658" lon="3.295848808088896"><ele>87.0</ele><time>2026-04-13T10:11:58Z</time></trkpt><trkpt lat="48.55416733276317" lon="3.295743984623373"><ele>87.0</ele><time>2026-04-13T10:12:00Z</time></trkpt><trkpt lat="48.55406731145273" lon="3.295642964561479"><ele>87.0</ele><time>2026-04-13T10:12:02Z</time></trkpt><trkpt lat="48.553964873258145" lon="3.2955580072359023"><ele>87.0</ele><time>2026-04-13T10:12:04Z</time></trkpt><trkpt lat="48.55385752890706" lon="3.2954998722885533"><ele>87.0</ele><time>2026-04-13T10:12:06Z</time></trkpt><trkpt lat="48.55374524843045" lon="3.2954503167704763"><ele>87.0</ele><time>2026-04-13T10:12:08Z</time></trkpt><trkpt lat="48.55363274334926" lon="3.29539308650801"><ele>87.0</ele><time>2026-04-13T10:12:10Z</time></trkpt><trkpt lat="48.553523756895736" lon="3.295335889263564"><ele>87.0</ele><time>2026-04-13T10:12:12Z</time></trkpt><trkpt lat="48.553424117432975" lon="3.295291778125796"><ele>87.0</ele><time>2026-04-13T10:12:14Z</time></trkpt><trkpt lat="48.55333317374192" lon="3.295226876815472"><ele>87.0</ele><time>2026-04-13T10:12:16Z</time></trkpt><trkpt lat="48.55329168048586" lon="3.2950722870843645"><ele>87.0</ele><time>2026-04-13T10:12:18Z</time></trkpt><trkpt lat="48.55333180033679" lon="3.294898386664196"><ele>87.0</ele><time>2026-04-13T10:12:20Z</time></trkpt><trkpt lat="48.55336192086656" lon="3.294811458762473"><ele>87.0</ele><time>2026-04-13T10:12:21Z</time></trkpt><trkpt lat="48.55338720682823" lon="3.2947216664947097"><ele>87.0</ele><time>2026-04-13T10:12:22Z</time></trkpt><trkpt lat="48.55342948490769" lon="3.2945588886126984"><ele>87.0</ele><time>2026-04-13T10:12:24Z</time></trkpt><trkpt lat="48.55346517189406" lon="3.294402377068886"><ele>87.0</ele><time>2026-04-13T10:12:26Z</time></trkpt><trkpt lat="48.55350963545118" lon="3.2942356748685744"><ele>87.0</ele><time>2026-04-13T10:12:28Z</time></trkpt><trkpt lat="48.55356507864367" lon="3.2940645295249147"><ele>87.0</ele><time>2026-04-13T10:12:30Z</time></trkpt><trkpt lat="48.553604221455146" lon="3.293978057240979"><ele>87.0</ele><time>2026-04-13T10:12:31Z</time></trkpt><trkpt lat="48.553644430052756" lon="3.293895645751326"><ele>87.0</ele><time>2026-04-13T10:12:32Z</time></trkpt><trkpt lat="48.5536865296289" lon="3.2938175236816534"><ele>87.0</ele><time>2026-04-13T10:12:33Z</time></trkpt><trkpt lat="48.55373006493564" lon="3.293739711307409"><ele>87.0</ele><time>2026-04-13T10:12:34Z</time></trkpt><trkpt lat="48.55377317933272" lon="3.2936632639918715"><ele>87.0</ele><time>2026-04-13T10:12:35Z</time></trkpt><trkpt lat="48.55381872109207" lon="3.293587179145492"><ele>87.0</ele><time>2026-04-13T10:12:36Z</time></trkpt><trkpt lat="48.553861786454156" lon="3.2935145885546104"><ele>86.8</ele><time>2026-04-13T10:12:37Z</time></trkpt><trkpt lat="48.55390243093035" lon="3.2934412751812516"><ele>86.6</ele><time>2026-04-13T10:12:38Z</time></trkpt><trkpt lat="48.55394277703083" lon="3.2933654214215227"><ele>86.39999999999999</ele><time>2026-04-13T10:12:39Z</time></trkpt><trkpt lat="48.554015270929895" lon="3.293211695012903"><ele>86.19999999999999</ele><time>2026-04-13T10:12:41Z</time></trkpt><trkpt lat="48.55409798385332" lon="3.293066758669298"><ele>86.0</ele><time>2026-04-13T10:12:43Z</time></trkpt><trkpt lat="48.55417795217935" lon="3.2929306186926426"><ele>86.0</ele><time>2026-04-13T10:12:45Z</time></trkpt><trkpt lat="48.554279378303754" lon="3.2928230559692917"><ele>86.0</ele><time>2026-04-13T10:12:47Z</time></trkpt><trkpt lat="48.554392892097354" lon="3.2927351424224165"><ele>86.0</ele><time>2026-04-13T10:12:49Z</time></trkpt><trkpt lat="48.55445217635629" lon="3.2926959952921364"><ele>86.0</ele><time>2026-04-13T10:12:50Z</time></trkpt><trkpt lat="48.55451293614094" lon="3.2926594536495624"><ele>86.0</ele><time>2026-04-13T10:12:51Z</time></trkpt><trkpt lat="48.55457532910247" lon="3.292614433478212"><ele>86.57142857142858</ele><time>2026-04-13T10:12:52Z</time></trkpt><trkpt lat="48.55463496055366" lon="3.2925720565354255"><ele>87.14285714285714</ele><time>2026-04-13T10:12:53Z</time></trkpt><trkpt lat="48.554698613311835" lon="3.29254090452413"><ele>87.71428571428572</ele><time>2026-04-13T10:12:54Z</time></trkpt><trkpt lat="48.554764645246216" lon="3.292538889705684"><ele>88.28571428571429</ele><time>2026-04-13T10:12:55Z</time></trkpt><trkpt lat="48.554831590225746" lon="3.2925430217625773"><ele>88.85714285714286</ele><time>2026-04-13T10:12:56Z</time></trkpt><trkpt lat="48.554895557157714" lon="3.292525676198047"><ele>89.42857142857143</ele><time>2026-04-13T10:12:57Z</time></trkpt><trkpt lat="48.55495668149102" lon="3.292482118041805"><ele>90.0</ele><time>2026-04-13T10:12:58Z</time></trkpt><trkpt lat="48.5550093128961" lon="3.292415726083221"><ele>90.0</ele><time>2026-04-13T10:12:59Z</time></trkpt><trkpt lat="48.55505076452553" lon="3.2923275228299427"><ele>90.0</ele><time>2026-04-13T10:13:00Z</time></trkpt><trkpt lat="48.55507857976525" lon="3.292228009142045"><ele>90.0</ele><time>2026-04-13T10:13:01Z</time></trkpt><trkpt lat="48.55510351374414" lon="3.292132003098938"><ele>90.0</ele><time>2026-04-13T10:13:02Z</time></trkpt><trkpt lat="48.555121530760076" lon="3.2920312607037134"><ele>90.0</ele><time>2026-04-13T10:13:03Z</time></trkpt><trkpt lat="48.5551420932872" lon="3.2919305550330127"><ele>90.0</ele><time>2026-04-13T10:13:04Z</time></trkpt><trkpt lat="48.55518139611706" lon="3.2918447462657356"><ele>90.0</ele><time>2026-04-13T10:13:05Z</time></trkpt><trkpt lat="48.55522885087113" lon="3.2917657766839024"><ele>89.83333333333333</ele><time>2026-04-13T10:13:06Z</time></trkpt><trkpt lat="48.55527619824948" lon="3.2916900769985484"><ele>89.66666666666667</ele><time>2026-04-13T10:13:07Z</time></trkpt><trkpt lat="48.555327625356156" lon="3.29162375971022"><ele>89.5</ele><time>2026-04-13T10:13:08Z</time></trkpt><trkpt lat="48.555377059658" lon="3.291559800022848"><ele>89.33333333333334</ele><time>2026-04-13T10:13:09Z</time></trkpt><trkpt lat="48.55543122384374" lon="3.291501105720172"><ele>89.16666666666667</ele><time>2026-04-13T10:13:10Z</time></trkpt><trkpt lat="48.55548266262786" lon="3.291442509881371"><ele>89.0</ele><time>2026-04-13T10:13:11Z</time></trkpt><trkpt lat="48.55558642143229" lon="3.2913275572852085"><ele>88.80000000000001</ele><time>2026-04-13T10:13:13Z</time></trkpt><trkpt lat="48.55568166200141" lon="3.291219024330777"><ele>88.60000000000001</ele><time>2026-04-13T10:13:15Z</time></trkpt><trkpt lat="48.555761670324664" lon="3.291130049015213"><ele>88.4</ele><time>2026-04-13T10:13:17Z</time></trkpt><trkpt lat="48.55584295084269" lon="3.2910289229533447"><ele>88.2</ele><time>2026-04-13T10:13:19Z</time></trkpt><trkpt lat="48.55592317881053" lon="3.2909191450204007"><ele>88.0</ele><time>2026-04-13T10:13:21Z</time></trkpt><trkpt lat="48.556017289156415" lon="3.290813366922041"><ele>88.0</ele><time>2026-04-13T10:13:23Z</time></trkpt><trkpt lat="48.55611231822701" lon="3.2907102977697082"><ele>88.0</ele><time>2026-04-13T10:13:25Z</time></trkpt><trkpt lat="48.556207832705134" lon="3.2906022515289166"><ele>88.0</ele><time>2026-04-13T10:13:27Z</time></trkpt><trkpt lat="48.556309610032955" lon="3.290495410335247"><ele>88.0</ele><time>2026-04-13T10:13:29Z</time></trkpt><trkpt lat="48.55636101897837" lon="3.290439445153506"><ele>88.0</ele><time>2026-04-13T10:13:30Z</time></trkpt><trkpt lat="48.55646191755308" lon="3.290329583721611"><ele>88.0</ele><time>2026-04-13T10:13:32Z</time></trkpt><trkpt lat="48.55651127327769" lon="3.290265351144009"><ele>88.0</ele><time>2026-04-13T10:13:33Z</time></trkpt><trkpt lat="48.55655875852459" lon="3.2901991210233645"><ele>88.0</ele><time>2026-04-13T10:13:34Z</time></trkpt><trkpt lat="48.5566030187207" lon="3.290128404524051"><ele>88.0</ele><time>2026-04-13T10:13:35Z</time></trkpt><trkpt lat="48.55667672491282" lon="3.2899852050365643"><ele>88.0</ele><time>2026-04-13T10:13:37Z</time></trkpt><trkpt lat="48.55673063027241" lon="3.2898491567991788"><ele>88.0</ele><time>2026-04-13T10:13:39Z</time></trkpt><trkpt lat="48.5567910160083" lon="3.2897331908976497"><ele>88.0</ele><time>2026-04-13T10:13:41Z</time></trkpt><trkpt lat="48.556853289305394" lon="3.289647833757895"><ele>88.0</ele><time>2026-04-13T10:13:43Z</time></trkpt><trkpt lat="48.556932105185" lon="3.289607892927208"><ele>88.0</ele><time>2026-04-13T10:13:45Z</time></trkpt><trkpt lat="48.55701049656888" lon="3.28958969472773"><ele>88.0</ele><time>2026-04-13T10:13:47Z</time></trkpt><trkpt lat="48.557096938374826" lon="3.2896268823125414"><ele>88.0</ele><time>2026-04-13T10:13:49Z</time></trkpt><trkpt lat="48.5571725645837" lon="3.2896961737225"><ele>88.0</ele><time>2026-04-13T10:13:51Z</time></trkpt><trkpt lat="48.55722087683356" lon="3.2898262066815787"><ele>88.0</ele><time>2026-04-13T10:13:53Z</time></trkpt><trkpt lat="48.5572698983615" lon="3.2899577600232712"><ele>88.0</ele><time>2026-04-13T10:13:55Z</time></trkpt><trkpt lat="48.5573297726955" lon="3.290094006341784"><ele>88.0</ele><time>2026-04-13T10:13:57Z</time></trkpt><trkpt lat="48.55738598917189" lon="3.290233884527076"><ele>88.0</ele><time>2026-04-13T10:13:59Z</time></trkpt><trkpt lat="48.5574450067719" lon="3.290373536511533"><ele>88.0</ele><time>2026-04-13T10:14:01Z</time></trkpt><trkpt lat="48.55750760491403" lon="3.290512889175671"><ele>88.0</ele><time>2026-04-13T10:14:03Z</time></trkpt><trkpt lat="48.55756387563329" lon="3.2906507059819514"><ele>88.0</ele><time>2026-04-13T10:14:05Z</time></trkpt><trkpt lat="48.55762217626659" lon="3.290790164445471"><ele>88.0</ele><time>2026-04-13T10:14:07Z</time></trkpt><trkpt lat="48.557677591841895" lon="3.2909284103348044"><ele>88.0</ele><time>2026-04-13T10:14:09Z</time></trkpt><trkpt lat="48.55773476212527" lon="3.2910661788756648"><ele>88.0</ele><time>2026-04-13T10:14:11Z</time></trkpt><trkpt lat="48.557790943615615" lon="3.2912044825079683"><ele>88.0</ele><time>2026-04-13T10:14:13Z</time></trkpt><trkpt lat="48.557845555136986" lon="3.2913222409935385"><ele>88.0</ele><time>2026-04-13T10:14:15Z</time></trkpt><trkpt lat="48.55788134606207" lon="3.2914167667004763"><ele>88.0</ele><time>2026-04-13T10:14:17Z</time></trkpt><trkpt lat="48.55793395854376" lon="3.291545833589274"><ele>88.0</ele><time>2026-04-13T10:14:20Z</time></trkpt><trkpt lat="48.55798842746844" lon="3.291661017470458"><ele>88.0</ele><time>2026-04-13T10:14:22Z</time></trkpt><trkpt lat="48.558040643785574" lon="3.291779035499373"><ele>88.2</ele><time>2026-04-13T10:14:24Z</time></trkpt><trkpt lat="48.55808823147276" lon="3.291898843995173"><ele>88.4</ele><time>2026-04-13T10:14:26Z</time></trkpt><trkpt lat="48.558140309906065" lon="3.292022836180439"><ele>88.60000000000001</ele><time>2026-04-13T10:14:28Z</time></trkpt><trkpt lat="48.55819153798054" lon="3.292149222509181"><ele>88.80000000000001</ele><time>2026-04-13T10:14:30Z</time></trkpt><trkpt lat="48.558243360362084" lon="3.2922692612372284"><ele>89.0</ele><time>2026-04-13T10:14:32Z</time></trkpt><trkpt lat="48.55830280792817" lon="3.2924052780544035"><ele>89.2</ele><time>2026-04-13T10:14:34Z</time></trkpt><trkpt lat="48.5583570596537" lon="3.292535630704969"><ele>89.4</ele><time>2026-04-13T10:14:36Z</time></trkpt><trkpt lat="48.558414714785705" lon="3.2926538530640976"><ele>89.6</ele><time>2026-04-13T10:14:38Z</time></trkpt><trkpt lat="48.55847483790234" lon="3.2927516166681463"><ele>89.8</ele><time>2026-04-13T10:14:40Z</time></trkpt><trkpt lat="48.558524172312346" lon="3.2928837962999795"><ele>90.0</ele><time>2026-04-13T10:14:42Z</time></trkpt><trkpt lat="48.55857290889705" lon="3.2930144231745397"><ele>90.0</ele><time>2026-04-13T10:14:44Z</time></trkpt><trkpt lat="48.55861614205977" lon="3.293151296029953"><ele>90.0</ele><time>2026-04-13T10:14:46Z</time></trkpt><trkpt lat="48.55866886018846" lon="3.293267263770105"><ele>90.0</ele><time>2026-04-13T10:14:48Z</time></trkpt><trkpt lat="48.558723045315624" lon="3.293382603433013"><ele>90.0</ele><time>2026-04-13T10:14:50Z</time></trkpt><trkpt lat="48.55877880867056" lon="3.293503678133782"><ele>90.0</ele><time>2026-04-13T10:14:52Z</time></trkpt><trkpt lat="48.55883138634769" lon="3.2936313235995516"><ele>90.6</ele><time>2026-04-13T10:14:54Z</time></trkpt><trkpt lat="48.558885291459276" lon="3.2937618934278263"><ele>91.2</ele><time>2026-04-13T10:14:56Z</time></trkpt><trkpt lat="48.55894318827047" lon="3.2938886725433782"><ele>91.80000000000001</ele><time>2026-04-13T10:14:58Z</time></trkpt><trkpt lat="48.55901114967457" lon="3.2940018795854615"><ele>92.4</ele><time>2026-04-13T10:15:00Z</time></trkpt><trkpt lat="48.55907520935182" lon="3.2941113448065287"><ele>93.0</ele><time>2026-04-13T10:15:02Z</time></trkpt><trkpt lat="48.55914491078185" lon="3.2941966341381805"><ele>93.0</ele><time>2026-04-13T10:15:04Z</time></trkpt><trkpt lat="48.55921524010678" lon="3.2942872939188557"><ele>93.0</ele><time>2026-04-13T10:15:06Z</time></trkpt><trkpt lat="48.55928280335453" lon="3.2943975711501405"><ele>93.0</ele><time>2026-04-13T10:15:08Z</time></trkpt><trkpt lat="48.55935354793998" lon="3.2945070133211374"><ele>93.0</ele><time>2026-04-13T10:15:10Z</time></trkpt><trkpt lat="48.55942124790522" lon="3.29462275402253"><ele>93.0</ele><time>2026-04-13T10:15:12Z</time></trkpt><trkpt lat="48.55949092770181" lon="3.2947280286481067"><ele>93.16666666666667</ele><time>2026-04-13T10:15:14Z</time></trkpt><trkpt lat="48.55956305327534" lon="3.29482020879892"><ele>93.33333333333333</ele><time>2026-04-13T10:15:16Z</time></trkpt><trkpt lat="48.559627623762566" lon="3.294911896310329"><ele>93.5</ele><time>2026-04-13T10:15:18Z</time></trkpt><trkpt lat="48.559697214663906" lon="3.294995273651924"><ele>93.66666666666666</ele><time>2026-04-13T10:15:20Z</time></trkpt><trkpt lat="48.55975688385623" lon="3.2950896988015184"><ele>93.83333333333333</ele><time>2026-04-13T10:15:22Z</time></trkpt><trkpt lat="48.55982373800678" lon="3.2951678335628"><ele>94.0</ele><time>2026-04-13T10:15:24Z</time></trkpt><trkpt lat="48.55989099658843" lon="3.295238130057751"><ele>94.0</ele><time>2026-04-13T10:15:26Z</time></trkpt><trkpt lat="48.559938668507925" lon="3.295332790617679"><ele>94.0</ele><time>2026-04-13T10:15:28Z</time></trkpt><trkpt lat="48.55993271177111" lon="3.2954669888766994"><ele>94.0</ele><time>2026-04-13T10:15:30Z</time></trkpt><trkpt lat="48.55989853420258" lon="3.295593167158728"><ele>94.0</ele><time>2026-04-13T10:15:32Z</time></trkpt><trkpt lat="48.559836729692925" lon="3.2956986648162547"><ele>94.0</ele><time>2026-04-13T10:15:34Z</time></trkpt><trkpt lat="48.55977414974152" lon="3.2957927474072375"><ele>94.0</ele><time>2026-04-13T10:15:36Z</time></trkpt><trkpt lat="48.55972084289947" lon="3.2958995980703105"><ele>93.4</ele><time>2026-04-13T10:15:38Z</time></trkpt><trkpt lat="48.559646697498756" lon="3.2959937418655194"><ele>92.80000000000001</ele><time>2026-04-13T10:15:40Z</time></trkpt><trkpt lat="48.559588624734715" lon="3.2960892108352535"><ele>92.19999999999999</ele><time>2026-04-13T10:15:42Z</time></trkpt><trkpt lat="48.55952458001202" lon="3.296185436714989"><ele>91.6</ele><time>2026-04-13T10:15:44Z</time></trkpt><trkpt lat="48.55946364047922" lon="3.296284802382962"><ele>91.0</ele><time>2026-04-13T10:15:46Z</time></trkpt><trkpt lat="48.55941299510693" lon="3.2964078597207735"><ele>90.8</ele><time>2026-04-13T10:15:48Z</time></trkpt><trkpt lat="48.559344748049874" lon="3.2965127043697096"><ele>90.6</ele><time>2026-04-13T10:15:50Z</time></trkpt><trkpt lat="48.5592953482136" lon="3.296628130908537"><ele>90.4</ele><time>2026-04-13T10:15:52Z</time></trkpt><trkpt lat="48.55924119118651" lon="3.296730591103522"><ele>90.2</ele><time>2026-04-13T10:15:54Z</time></trkpt><trkpt lat="48.55920111623016" lon="3.296845503098766"><ele>90.0</ele><time>2026-04-13T10:15:56Z</time></trkpt><trkpt lat="48.55915581201664" lon="3.2969629624158276"><ele>90.0</ele><time>2026-04-13T10:15:58Z</time></trkpt><trkpt lat="48.55911172236534" lon="3.2970735394574833"><ele>90.0</ele><time>2026-04-13T10:16:00Z</time></trkpt><trkpt lat="48.55906771678479" lon="3.2971820776826273"><ele>90.0</ele><time>2026-04-13T10:16:02Z</time></trkpt><trkpt lat="48.55902529902363" lon="3.2973087827195457"><ele>90.0</ele><time>2026-04-13T10:16:04Z</time></trkpt><trkpt lat="48.55897087706606" lon="3.2974497851360907"><ele>90.0</ele><time>2026-04-13T10:16:06Z</time></trkpt><trkpt lat="48.55890999257216" lon="3.2976013095838033"><ele>90.0</ele><time>2026-04-13T10:16:08Z</time></trkpt><trkpt lat="48.558845300651605" lon="3.2977533024317993"><ele>90.0</ele><time>2026-04-13T10:16:10Z</time></trkpt><trkpt lat="48.55879244774711" lon="3.2979152950844095"><ele>90.0</ele><time>2026-04-13T10:16:12Z</time></trkpt><trkpt lat="48.55872463993104" lon="3.2980656635461236"><ele>90.0</ele><time>2026-04-13T10:16:14Z</time></trkpt><trkpt lat="48.55865899419596" lon="3.298209279837552"><ele>90.0</ele><time>2026-04-13T10:16:16Z</time></trkpt><trkpt lat="48.55865061739519" lon="3.2983587103555294"><ele>90.0</ele><time>2026-04-13T10:16:18Z</time></trkpt><trkpt lat="48.55875718938144" lon="3.298430893956991"><ele>90.0</ele><time>2026-04-13T10:16:20Z</time></trkpt><trkpt lat="48.55887792177173" lon="3.2984481447278298"><ele>90.0</ele><time>2026-04-13T10:16:22Z</time></trkpt><trkpt lat="48.55898965308932" lon="3.298489685431634"><ele>90.0</ele><time>2026-04-13T10:16:24Z</time></trkpt><trkpt lat="48.55910195629405" lon="3.2985270714467814"><ele>90.0</ele><time>2026-04-13T10:16:26Z</time></trkpt><trkpt lat="48.55921438690465" lon="3.2985649039350586"><ele>90.0</ele><time>2026-04-13T10:16:28Z</time></trkpt><trkpt lat="48.55932547118098" lon="3.2986166904849945"><ele>90.0</ele><time>2026-04-13T10:16:30Z</time></trkpt><trkpt lat="48.559438960350505" lon="3.2986504705356556"><ele>90.6</ele><time>2026-04-13T10:16:32Z</time></trkpt><trkpt lat="48.55954212372804" lon="3.298689843326429"><ele>91.2</ele><time>2026-04-13T10:16:34Z</time></trkpt><trkpt lat="48.55963854468317" lon="3.2987282720403517"><ele>91.80000000000001</ele><time>2026-04-13T10:16:36Z</time></trkpt><trkpt lat="48.55972405237989" lon="3.2987733067687857"><ele>92.4</ele><time>2026-04-13T10:16:38Z</time></trkpt><trkpt lat="48.559813255099286" lon="3.298821439707067"><ele>93.0</ele><time>2026-04-13T10:16:40Z</time></trkpt><trkpt lat="48.559909901131356" lon="3.298842785348579"><ele>93.0</ele><time>2026-04-13T10:16:42Z</time></trkpt><trkpt lat="48.560010338934866" lon="3.298872143804691"><ele>93.0</ele><time>2026-04-13T10:16:44Z</time></trkpt><trkpt lat="48.560092022697766" lon="3.2988982449314617"><ele>93.0</ele><time>2026-04-13T10:16:46Z</time></trkpt><trkpt lat="48.56015751880311" lon="3.2989763549619275"><ele>93.0</ele><time>2026-04-13T10:16:49Z</time></trkpt><trkpt lat="48.560141824857936" lon="3.2990850763116595"><ele>93.0</ele><time>2026-04-13T10:16:51Z</time></trkpt><trkpt lat="48.56009850698291" lon="3.299209897214315"><ele>93.0</ele><time>2026-04-13T10:16:53Z</time></trkpt><trkpt lat="48.56004644271062" lon="3.299329459373074"><ele>93.2</ele><time>2026-04-13T10:16:55Z</time></trkpt><trkpt lat="48.560003740819226" lon="3.2994602508054687"><ele>93.4</ele><time>2026-04-13T10:16:57Z</time></trkpt><trkpt lat="48.55995693108531" lon="3.2996086574524703"><ele>93.60000000000001</ele><time>2026-04-13T10:16:59Z</time></trkpt><trkpt lat="48.559901802156524" lon="3.299754162733624"><ele>93.80000000000001</ele><time>2026-04-13T10:17:01Z</time></trkpt><trkpt lat="48.55985179530023" lon="3.2999025729291565"><ele>94.0</ele><time>2026-04-13T10:17:03Z</time></trkpt><trkpt lat="48.559782806271734" lon="3.300029274528137"><ele>94.0</ele><time>2026-04-13T10:17:05Z</time></trkpt><trkpt lat="48.55973810583316" lon="3.300168074592092"><ele>94.0</ele><time>2026-04-13T10:17:07Z</time></trkpt><trkpt lat="48.55968807876767" lon="3.300308685353471"><ele>94.0</ele><time>2026-04-13T10:17:09Z</time></trkpt><trkpt lat="48.559639271799696" lon="3.3004510251260575"><ele>94.0</ele><time>2026-04-13T10:17:11Z</time></trkpt><trkpt lat="48.55958483604884" lon="3.300576550971881"><ele>94.0</ele><time>2026-04-13T10:17:13Z</time></trkpt><trkpt lat="48.559536715766626" lon="3.3006865541893045"><ele>93.6</ele><time>2026-04-13T10:17:15Z</time></trkpt><trkpt lat="48.559502586152355" lon="3.3008117162859434"><ele>93.2</ele><time>2026-04-13T10:17:17Z</time></trkpt><trkpt lat="48.55946970389102" lon="3.300940851696355"><ele>92.8</ele><time>2026-04-13T10:17:19Z</time></trkpt><trkpt lat="48.559418454659436" lon="3.3010612507101813"><ele>92.39999999999999</ele><time>2026-04-13T10:17:21Z</time></trkpt><trkpt lat="48.559363306808464" lon="3.301177239199451"><ele>92.0</ele><time>2026-04-13T10:17:23Z</time></trkpt><trkpt lat="48.55931101477145" lon="3.3013080178442604"><ele>92.0</ele><time>2026-04-13T10:17:25Z</time></trkpt><trkpt lat="48.559241735397315" lon="3.301415664046399"><ele>92.0</ele><time>2026-04-13T10:17:27Z</time></trkpt><trkpt lat="48.55922735775531" lon="3.301547367986032"><ele>92.0</ele><time>2026-04-13T10:17:29Z</time></trkpt><trkpt lat="48.55921334476835" lon="3.301699804729896"><ele>92.0</ele><time>2026-04-13T10:17:31Z</time></trkpt><trkpt lat="48.559192918585126" lon="3.3018490025060196"><ele>92.0</ele><time>2026-04-13T10:17:33Z</time></trkpt><trkpt lat="48.55917848350298" lon="3.3020025000152966"><ele>92.0</ele><time>2026-04-13T10:17:35Z</time></trkpt><trkpt lat="48.559168416495744" lon="3.3021303034679756"><ele>92.0</ele><time>2026-04-13T10:17:37Z</time></trkpt><trkpt lat="48.559192002410896" lon="3.302246411528077"><ele>92.0</ele><time>2026-04-13T10:17:39Z</time></trkpt><trkpt lat="48.55930103027718" lon="3.302266539697212"><ele>92.0</ele><time>2026-04-13T10:17:41Z</time></trkpt><trkpt lat="48.559411652301414" lon="3.3022285115811103"><ele>92.0</ele><time>2026-04-13T10:17:43Z</time></trkpt><trkpt lat="48.55952398718651" lon="3.302211607720196"><ele>92.0</ele><time>2026-04-13T10:17:45Z</time></trkpt><trkpt lat="48.55963610490045" lon="3.3021931273421674"><ele>92.0</ele><time>2026-04-13T10:17:47Z</time></trkpt><trkpt lat="48.55975034938535" lon="3.302180056814946"><ele>92.0</ele><time>2026-04-13T10:17:49Z</time></trkpt><trkpt lat="48.55986032433276" lon="3.302154076231042"><ele>92.0</ele><time>2026-04-13T10:17:51Z</time></trkpt><trkpt lat="48.55997086050308" lon="3.302130551494944"><ele>92.0</ele><time>2026-04-13T10:17:53Z</time></trkpt><trkpt lat="48.560085723364345" lon="3.3021100961617873"><ele>92.0</ele><time>2026-04-13T10:17:55Z</time></trkpt><trkpt lat="48.560201439869125" lon="3.302100320721858"><ele>92.0</ele><time>2026-04-13T10:17:57Z</time></trkpt><trkpt lat="48.5603177605437" lon="3.302097978527809"><ele>92.0</ele><time>2026-04-13T10:17:59Z</time></trkpt><trkpt lat="48.56042381831069" lon="3.3020749388119746"><ele>92.0</ele><time>2026-04-13T10:18:01Z</time></trkpt><trkpt lat="48.56052799894659" lon="3.3020665428144658"><ele>92.0</ele><time>2026-04-13T10:18:03Z</time></trkpt><trkpt lat="48.56062014444016" lon="3.3021491621526553"><ele>92.0</ele><time>2026-04-13T10:18:05Z</time></trkpt><trkpt lat="48.560654709643096" lon="3.302317822814263"><ele>92.0</ele><time>2026-04-13T10:18:07Z</time></trkpt><trkpt lat="48.56067013182817" lon="3.3024858950574534"><ele>92.0</ele><time>2026-04-13T10:18:09Z</time></trkpt><trkpt lat="48.56063392854634" lon="3.3026334807581494"><ele>92.0</ele><time>2026-04-13T10:18:11Z</time></trkpt><trkpt lat="48.560540975505376" lon="3.3027210172771597"><ele>92.0</ele><time>2026-04-13T10:18:13Z</time></trkpt><trkpt lat="48.56044056155027" lon="3.3027431268399865"><ele>92.0</ele><time>2026-04-13T10:18:15Z</time></trkpt><trkpt lat="48.56032521427124" lon="3.3027021294960557"><ele>92.0</ele><time>2026-04-13T10:18:17Z</time></trkpt><trkpt lat="48.56020465666068" lon="3.302701376389853"><ele>92.0</ele><time>2026-04-13T10:18:19Z</time></trkpt><trkpt lat="48.5600969104275" lon="3.3027416588688565"><ele>92.0</ele><time>2026-04-13T10:18:21Z</time></trkpt><trkpt lat="48.56003735240096" lon="3.302898050953601"><ele>92.0</ele><time>2026-04-13T10:18:23Z</time></trkpt><trkpt lat="48.56005052410034" lon="3.3030752366253493"><ele>92.0</ele><time>2026-04-13T10:18:25Z</time></trkpt><trkpt lat="48.56006527037688" lon="3.3032569154548845"><ele>92.0</ele><time>2026-04-13T10:18:27Z</time></trkpt><trkpt lat="48.56007140135701" lon="3.3034335342858685"><ele>92.0</ele><time>2026-04-13T10:18:29Z</time></trkpt><trkpt lat="48.56006919953008" lon="3.3036110892942547"><ele>92.0</ele><time>2026-04-13T10:18:31Z</time></trkpt><trkpt lat="48.56006557066046" lon="3.303791280496514"><ele>92.0</ele><time>2026-04-13T10:18:33Z</time></trkpt><trkpt lat="48.560058995829365" lon="3.303945763106762"><ele>92.19999999999999</ele><time>2026-04-13T10:18:35Z</time></trkpt><trkpt lat="48.560116494759875" lon="3.3040106316069853"><ele>92.4</ele><time>2026-04-13T10:18:37Z</time></trkpt><trkpt lat="48.56019969256363" lon="3.3040061932629547"><ele>92.6</ele><time>2026-04-13T10:18:39Z</time></trkpt><trkpt lat="48.56030756528882" lon="3.3040106373740104"><ele>92.80000000000001</ele><time>2026-04-13T10:18:41Z</time></trkpt><trkpt lat="48.56041955725781" lon="3.3040020456257975"><ele>93.0</ele><time>2026-04-13T10:18:43Z</time></trkpt><trkpt lat="48.56053084135676" lon="3.3039938692017916"><ele>93.0</ele><time>2026-04-13T10:18:45Z</time></trkpt><trkpt lat="48.56064551132677" lon="3.303974883036101"><ele>93.0</ele><time>2026-04-13T10:18:47Z</time></trkpt><trkpt lat="48.560752090146096" lon="3.3039600594420935"><ele>93.0</ele><time>2026-04-13T10:18:49Z</time></trkpt><trkpt lat="48.560798192419746" lon="3.3038141758014543"><ele>93.0</ele><time>2026-04-13T10:18:51Z</time></trkpt><trkpt lat="48.560790874771406" lon="3.303645535922012"><ele>93.0</ele><time>2026-04-13T10:18:53Z</time></trkpt><trkpt lat="48.560805782407094" lon="3.3035012090727354"><ele>93.16666666666667</ele><time>2026-04-13T10:18:55Z</time></trkpt><trkpt lat="48.560852653990295" lon="3.3034024257293684"><ele>93.33333333333333</ele><time>2026-04-13T10:18:57Z</time></trkpt><trkpt lat="48.56090636331037" lon="3.3033474945527277"><ele>93.5</ele><time>2026-04-13T10:18:59Z</time></trkpt><trkpt lat="48.560909039478226" lon="3.3032457026914153"><ele>93.66666666666666</ele><time>2026-04-13T10:19:01Z</time></trkpt><trkpt lat="48.56087245665001" lon="3.3031232911291206"><ele>93.83333333333333</ele><time>2026-04-13T10:19:03Z</time></trkpt><trkpt lat="48.56083555737429" lon="3.3029909150234955"><ele>94.0</ele><time>2026-04-13T10:19:05Z</time></trkpt><trkpt lat="48.560813595343255" lon="3.302849254445393"><ele>93.6</ele><time>2026-04-13T10:19:07Z</time></trkpt><trkpt lat="48.560787902797685" lon="3.302726353245083"><ele>93.2</ele><time>2026-04-13T10:19:09Z</time></trkpt><trkpt lat="48.56075369638958" lon="3.3026295031585273"><ele>92.8</ele><time>2026-04-13T10:19:11Z</time></trkpt><trkpt lat="48.560690340945705" lon="3.3025314828902586"><ele>92.39999999999999</ele><time>2026-04-13T10:19:13Z</time></trkpt><trkpt lat="48.560661892476936" lon="3.3023777854297305"><ele>92.0</ele><time>2026-04-13T10:19:15Z</time></trkpt><trkpt lat="48.56065171206004" lon="3.3022075986179917"><ele>91.8</ele><time>2026-04-13T10:19:17Z</time></trkpt><trkpt lat="48.560652132846876" lon="3.3020500919006524"><ele>91.6</ele><time>2026-04-13T10:19:19Z</time></trkpt><trkpt lat="48.56062460054884" lon="3.301900900148826"><ele>91.39999999999999</ele><time>2026-04-13T10:19:21Z</time></trkpt><trkpt lat="48.56058848199284" lon="3.3017437167723203"><ele>91.19999999999999</ele><time>2026-04-13T10:19:23Z</time></trkpt><trkpt lat="48.56057664553353" lon="3.301569561184173"><ele>91.0</ele><time>2026-04-13T10:19:25Z</time></trkpt><trkpt lat="48.560519599642674" lon="3.3014064320417145"><ele>91.0</ele><time>2026-04-13T10:19:27Z</time></trkpt><trkpt lat="48.56050268151571" lon="3.3013112882848428"><ele>91.0</ele><time>2026-04-13T10:19:28Z</time></trkpt><trkpt lat="48.56049443997742" lon="3.301209323989234"><ele>91.0</ele><time>2026-04-13T10:19:29Z</time></trkpt><trkpt lat="48.56049096380253" lon="3.3011125895399642"><ele>91.0</ele><time>2026-04-13T10:19:30Z</time></trkpt><trkpt lat="48.56048322963415" lon="3.3009437030193287"><ele>91.0</ele><time>2026-04-13T10:19:32Z</time></trkpt><trkpt lat="48.56047693569874" lon="3.300780042491495"><ele>91.0</ele><time>2026-04-13T10:19:34Z</time></trkpt><trkpt lat="48.56046148643954" lon="3.300653743303832"><ele>91.19999999999999</ele><time>2026-04-13T10:19:36Z</time></trkpt><trkpt lat="48.56044942953261" lon="3.300517167366739"><ele>91.39999999999999</ele><time>2026-04-13T10:19:38Z</time></trkpt><trkpt lat="48.560448553225214" lon="3.300339508705694"><ele>91.6</ele><time>2026-04-13T10:19:40Z</time></trkpt><trkpt lat="48.56045331475091" lon="3.300207298921757"><ele>91.8</ele><time>2026-04-13T10:19:42Z</time></trkpt><trkpt lat="48.560466145881556" lon="3.300068518862216"><ele>92.0</ele><time>2026-04-13T10:19:44Z</time></trkpt><trkpt lat="48.56043968198404" lon="3.2999259394174096"><ele>92.0</ele><time>2026-04-13T10:19:46Z</time></trkpt><trkpt lat="48.56046171332581" lon="3.299763731486396"><ele>92.0</ele><time>2026-04-13T10:19:48Z</time></trkpt><trkpt lat="48.56046363405117" lon="3.2995996374076673"><ele>92.0</ele><time>2026-04-13T10:19:50Z</time></trkpt><trkpt lat="48.56044393052932" lon="3.299450398316383"><ele>92.0</ele><time>2026-04-13T10:19:52Z</time></trkpt><trkpt lat="48.560416148078474" lon="3.299304090809524"><ele>92.0</ele><time>2026-04-13T10:19:54Z</time></trkpt><trkpt lat="48.560378899956966" lon="3.2991596014164832"><ele>92.6</ele><time>2026-04-13T10:19:56Z</time></trkpt><trkpt lat="48.56032992804439" lon="3.2990265980152156"><ele>93.19999999999999</ele><time>2026-04-13T10:19:58Z</time></trkpt><trkpt lat="48.560252720931246" lon="3.2989577281442335"><ele>93.8</ele><time>2026-04-13T10:20:00Z</time></trkpt><trkpt lat="48.56016216217372" lon="3.2990300162702892"><ele>94.4</ele><time>2026-04-13T10:20:02Z</time></trkpt><trkpt lat="48.560126515328015" lon="3.299154749504549"><ele>95.0</ele><time>2026-04-13T10:20:04Z</time></trkpt><trkpt lat="48.560093841945985" lon="3.299253706500316"><ele>95.0</ele><time>2026-04-13T10:20:06Z</time></trkpt><trkpt lat="48.5600578460481" lon="3.2993503018186012"><ele>95.0</ele><time>2026-04-13T10:20:08Z</time></trkpt><trkpt lat="48.56002573408357" lon="3.2994548018144725"><ele>95.0</ele><time>2026-04-13T10:20:10Z</time></trkpt><trkpt lat="48.559994973365974" lon="3.2995626823623225"><ele>95.0</ele><time>2026-04-13T10:20:12Z</time></trkpt><trkpt lat="48.55995146371172" lon="3.29966580754398"><ele>95.0</ele><time>2026-04-13T10:20:14Z</time></trkpt><trkpt lat="48.55990807188501" lon="3.299775860558415"><ele>95.0</ele><time>2026-04-13T10:20:16Z</time></trkpt><trkpt lat="48.55986581667495" lon="3.2998924359639736"><ele>94.83333333333334</ele><time>2026-04-13T10:20:18Z</time></trkpt><trkpt lat="48.55982412134153" lon="3.2999990016451632"><ele>94.66666666666667</ele><time>2026-04-13T10:20:20Z</time></trkpt><trkpt lat="48.55976932653833" lon="3.3000737801358477"><ele>94.5</ele><time>2026-04-13T10:20:22Z</time></trkpt><trkpt lat="48.55974002191627" lon="3.3001819377056663"><ele>94.33333333333333</ele><time>2026-04-13T10:20:24Z</time></trkpt><trkpt lat="48.5596938545158" lon="3.3002887529873544"><ele>94.16666666666666</ele><time>2026-04-13T10:20:26Z</time></trkpt><trkpt lat="48.559662920991336" lon="3.300407574803087"><ele>94.0</ele><time>2026-04-13T10:20:28Z</time></trkpt><trkpt lat="48.5596199435494" lon="3.300520473509582"><ele>94.0</ele><time>2026-04-13T10:20:30Z</time></trkpt><trkpt lat="48.559569561723" lon="3.300610253558693"><ele>93.0</ele><time>2026-04-13T10:20:32Z</time></trkpt><trkpt lat="48.55952744520879" lon="3.30069818955173"><ele>92.0</ele><time>2026-04-13T10:20:34Z</time></trkpt><trkpt lat="48.55949074253376" lon="3.3007779382311573"><ele>92.0</ele><time>2026-04-13T10:20:36Z</time></trkpt><trkpt lat="48.559462554632695" lon="3.300883225219866"><ele>92.0</ele><time>2026-04-13T10:20:39Z</time></trkpt><trkpt lat="48.55949866233128" lon="3.3009676636816887"><ele>92.0</ele><time>2026-04-13T10:20:51Z</time></trkpt><trkpt lat="48.5594327579232" lon="3.301003192966932"><ele>92.0</ele><time>2026-04-13T10:20:55Z</time></trkpt></trkseg></trk></gpx>